# Wetter Temperatur Luftdruck Luftfeuchtigkeit Sichtweite Windgeschwindigkeit Windrichtung Zeit
1 Clouds 27 1021 11 16093 3.6 160 05:22 11.07.2020
2 Clouds 28 1021 11 16093 3.6 160 04:55 11.07.2020
3 Clouds 29 1021 11 16093 3.6 160 04:32 11.07.2020
4 Clouds 34 1021 8 16093 2.1 100 02:59 11.07.2020
5 Clouds 34 1021 8 16093 2.1 100 02:37 11.07.2020
6 Clouds 36 1021 8 16093 3.6 40 01:32 11.07.2020
7 Clouds 36 1021 8 16093 2.6 60 00:59 11.07.2020
8 Clouds 36 1021 8 16093 2.6 60 00:40 11.07.2020
9 Clouds 36 1021 6 16093 2.6 40 00:21 11.07.2020
10 Clouds 36 1021 6 16093 2.6 40 23:57 10.07.2020
11 Clouds 36 1021 6 16093 2.6 40 23:39 10.07.2020
12 Clouds 36 1022 7 16093 2.6 200 23:18 10.07.2020
13 Clouds 35 1022 7 16093 2.6 200 22:43 10.07.2020
14 Clouds 35 1022 7 16093 2.6 50 22:20 10.07.2020
15 Clear 35 1006 12 0 1.79 133 21:55 10.07.2020
16 Clouds 34 1022 7 16093 2.6 50 21:36 10.07.2020
17 Clear 34 1006 11 0 0.45 78 21:18 10.07.2020
18 Clear 34 1006 11 0 0.45 78 21:18 10.07.2020
19 Clear 34 1018 8 0 1.62 71 20:41 10.07.2020
20 Clear 33 1007 14 0 1.34 142 20:22 10.07.2020
21 Clear 32 1018 12 0 1.98 113 19:57 10.07.2020
22 Clear 32 1007 25 0 1.79 139 19:39 10.07.2020
23 Clouds 31 1023 23 16093 2.01 136 19:20 10.07.2020
24 Clear 26 1024 47 16093 3.6 230 18:41 10.07.2020
25 Clear 26 1024 47 16093 3.6 230 18:20 10.07.2020
26 Clear 26 1024 47 16093 3.6 230 17:58 10.07.2020
27 Clear 25 1024 47 16093 3.6 230 17:39 10.07.2020
28 Clear 24 1008 55 0 0.89 141 17:20 10.07.2020
29 Clear 23 1019 54 0 2.46 169 16:43 10.07.2020
30 Clear 22 1009 64 0 1.88 158 16:21 10.07.2020
31 Clear 21 1023 88 16093 1.5 290 15:48 10.07.2020
32 Clouds 19 1022 93 16093 2.1 190 15:26 10.07.2020
33 Clouds 18 1022 93 16093 2.1 190 14:59 10.07.2020
34 Clouds 18 1022 93 16093 2.1 190 14:40 10.07.2020
35 Clouds 17 1021 88 16093 3.6 200 14:20 10.07.2020
36 Clouds 17 1021 88 16093 3.6 200 14:20 10.07.2020
37 Clouds 17 1021 88 16093 3.6 200 13:57 10.07.2020
38 Clouds 18 1021 88 16093 3.6 200 13:38 10.07.2020
39 Clear 17 1004 61 0 0.36 186 13:20 10.07.2020
40 Clear 18 1021 82 16093 5.1 180 12:56 10.07.2020
41 Clear 19 1021 82 16093 5.1 180 12:37 10.07.2020
42 Clear 19 1022 77 16093 4.6 160 12:19 10.07.2020
43 Clear 20 1022 77 16093 4.6 160 11:41 10.07.2020
44 Clear 20 1022 73 16093 7.2 160 11:20 10.07.2020
45 Clear 21 1022 73 16093 7.2 160 10:56 10.07.2020
46 Clear 21 1022 73 16093 7.2 160 10:38 10.07.2020
47 Clear 22 1022 73 16093 7.2 160 10:18 10.07.2020
48 Clouds 22 1021 68 16093 7.2 160 09:40 10.07.2020
49 Clouds 22 1021 60 16093 7.7 150 09:22 10.07.2020
50 Clouds 23 1021 60 16093 7.7 150 08:58 10.07.2020
51 Clouds 23 1021 60 16093 7.7 150 08:40 10.07.2020
52 Clouds 23 1021 60 16093 8.7 140 08:21 10.07.2020
53 Clouds 24 1021 60 16093 8.7 140 07:44 10.07.2020
54 Thunderstorm 24 1020 50 16093 5.7 150 07:23 10.07.2020
55 Thunderstorm 24 1020 50 16093 5.7 150 06:52 10.07.2020
56 Thunderstorm 25 1020 50 16093 5.7 150 06:27 10.07.2020
57 Clouds 26 1018 36 16093 7.7 140 05:19 10.07.2020
58 Clouds 29 1018 37 16093 7.7 130 03:42 10.07.2020
59 Clouds 30 1017 35 16093 8.7 130 02:53 10.07.2020
60 Clouds 32 1017 21 16093 6.7 90 01:53 10.07.2020
61 Clouds 33 1017 19 16093 5.1 70 00:49 10.07.2020
62 Clouds 33 1017 18 16093 5.7 70 00:21 10.07.2020
63 Clouds 32 1017 18 16093 5.7 70 23:55 09.07.2020
64 Clouds 32 1017 18 16093 5.7 70 23:36 09.07.2020
65 Clouds 32 1018 17 16093 5.7 40 23:18 09.07.2020
66 Clouds 32 1018 17 16093 5.7 40 22:41 09.07.2020
67 Clouds 32 1019 16 16093 4.6 30 22:21 09.07.2020
68 Clouds 32 1019 16 16093 4.6 30 21:59 09.07.2020
69 Clouds 31 1019 16 16093 4.6 30 21:39 09.07.2020
70 Clouds 31 1003 20 0 3.24 91 21:19 09.07.2020
71 Clouds 31 1003 21 0 0.89 98 20:58 09.07.2020
72 Clouds 31 1003 21 0 0.45 107 20:39 09.07.2020
73 Clear 30 1003 20 0 0.89 139 20:21 09.07.2020
74 Clear 29 1004 22 0 2.74 95 19:42 09.07.2020
75 Clear 29 1004 28 0 0.45 148 19:21 09.07.2020
76 Clear 27 1015 21 0 1.54 89 18:43 09.07.2020
77 Clear 26 1015 21 0 0.62 99 18:25 09.07.2020
78 Clear 25 1015 23 0 0.62 99 17:56 09.07.2020
79 Clouds 25 1020 27 16093 1.5 330 17:38 09.07.2020
80 Clear 24 1005 31 0 0.53 14 17:20 09.07.2020
81 Clouds 23 1020 32 16093 2.6 270 16:56 09.07.2020
82 Clouds 23 1020 32 16093 2.6 270 16:56 09.07.2020
83 Clouds 22 1020 32 16093 2.6 270 16:38 09.07.2020
84 Clear 21 1016 31 0 1.42 20 16:19 09.07.2020
85 Clouds 20 1020 39 16093 2.6 270 15:55 09.07.2020
86 Clouds 19 1020 39 16093 2.6 270 15:36 09.07.2020
87 Clouds 17 1019 41 16093 2.6 270 15:18 09.07.2020
88 Clouds 16 1019 41 16093 2.6 270 14:57 09.07.2020
89 Clouds 16 1019 41 16093 2.6 270 14:39 09.07.2020
90 Clouds 16 1018 42 16093 3.6 310 14:19 09.07.2020
91 Clouds 16 1018 42 16093 3.6 310 13:55 09.07.2020
92 Clouds 16 1018 42 16093 3.6 310 13:36 09.07.2020
93 Clouds 16 1005 43 0 2.03 41 13:18 09.07.2020
94 Clouds 17 1001 36 0 0.45 355 12:40 09.07.2020
95 Clouds 18 1017 30 16093 5.1 330 12:21 09.07.2020
96 Clouds 19 1017 30 16093 5.1 330 11:56 09.07.2020
97 Clouds 19 1017 30 16093 5.1 330 11:37 09.07.2020
98 Clouds 19 998 38 0 0.45 4 11:18 09.07.2020
99 Clouds 20 1000 32 0 0.89 331 10:55 09.07.2020
100 Clouds 20 1015 40 0 1.61 12 10:37 09.07.2020
101 Clouds 21 1016 28 16093 3.1 140 10:18 09.07.2020
102 Clouds 21 1016 28 16093 3.1 140 09:41 09.07.2020
103 Clouds 23 998 32 0 1.34 103 09:21 09.07.2020
104 Clouds 23 998 32 0 1.34 103 09:21 09.07.2020
105 Clouds 23 998 34 0 0.45 130 08:45 09.07.2020
106 Clouds 24 998 35 0 0.45 262 08:25 09.07.2020
107 Clouds 24 1000 27 0 0.89 360 07:47 09.07.2020
108 Clouds 24 999 29 0 0.89 336 07:24 09.07.2020
109 Clouds 25 1016 15 16093 5.1 60 06:53 09.07.2020
110 Clouds 25 1014 16 16093 4.1 90 06:20 09.07.2020
111 Clouds 29 1014 11 16093 2.1 60 04:29 09.07.2020
112 Clouds 31 1014 9 16093 7.2 360 03:48 09.07.2020
113 Clouds 33 1014 7 16093 2.1 40 02:20 09.07.2020
114 Clouds 33 1014 7 16093 2.1 40 01:32 09.07.2020
115 Clouds 33 1014 7 16093 2.1 40 01:32 09.07.2020
116 Clouds 33 1014 7 16093 3.1 20 00:47 09.07.2020
117 Clouds 34 1014 7 16093 4.1 40 00:24 09.07.2020
118 Clouds 34 1014 7 16093 4.1 40 23:46 08.07.2020
119 Clouds 34 1015 7 16093 3.6 50 23:27 08.07.2020
120 Clouds 34 1015 7 16093 3.6 50 22:58 08.07.2020
121 Clouds 34 1015 7 16093 3.6 50 22:39 08.07.2020
122 Clouds 34 1015 8 16093 2.1 350 22:21 08.07.2020
123 Clouds 33 1015 8 16093 2.1 350 21:58 08.07.2020
124 Clouds 33 1015 8 16093 2.1 350 21:58 08.07.2020
125 Clouds 33 1015 8 16093 2.1 350 21:58 08.07.2020
126 Clouds 33 1015 8 16093 2.1 350 21:38 08.07.2020
127 Clear 33 1010 10 0 0.45 35 21:20 08.07.2020
128 Clear 33 1011 8 0 0.45 344 20:54 08.07.2020
129 Clear 32 1000 15 0 0.45 62 20:36 08.07.2020
130 Clear 32 1000 16 0 0.89 63 20:18 08.07.2020
131 Clear 31 1011 12 0 1.82 123 19:42 08.07.2020
132 Clear 30 1001 25 0 0.45 141 19:22 08.07.2020
133 Clear 29 1001 24 0 0.45 149 18:57 08.07.2020
134 Clear 28 998 25 0 0.45 92 18:38 08.07.2020
135 Clear 27 1012 18 0 0.45 168 18:19 08.07.2020
136 Clear 26 999 26 0 0.45 141 17:55 08.07.2020
137 Clear 25 1019 10 0 2.24 280 17:36 08.07.2020
138 Clear 24 1019 11 0 1.79 132 17:18 08.07.2020
139 Clear 23 1014 36 0 0.45 246 16:39 08.07.2020
140 Clouds 20 1017 48 16093 2.6 240 16:20 08.07.2020
141 Clouds 19 1017 48 16093 2.6 240 15:58 08.07.2020
142 Clouds 19 1017 48 16093 2.6 240 15:39 08.07.2020
143 Clouds 17 1016 51 16093 2.6 220 15:19 08.07.2020
144 Clouds 15 1016 51 16093 2.6 220 14:46 08.07.2020
145 Clouds 14 1015 58 16093 3.1 200 14:28 08.07.2020
146 Clouds 14 1015 58 16093 3.1 200 13:58 08.07.2020
147 Clouds 14 1015 58 16093 3.1 200 13:40 08.07.2020
148 Clouds 15 1015 51 16093 2.6 320 13:19 08.07.2020
149 Clouds 16 1015 51 16093 2.6 320 12:42 08.07.2020
150 Clouds 16 1015 48 16093 3.6 190 12:21 08.07.2020
151 Clouds 17 1015 48 16093 3.6 190 11:56 08.07.2020
152 Clouds 17 1015 48 16093 3.6 190 11:38 08.07.2020
153 Clear 18 999 47 0 0.45 317 11:20 08.07.2020
154 Clouds 18 1015 40 16093 5.7 210 10:43 08.07.2020
155 Clouds 19 1015 43 16093 5.1 190 10:24 08.07.2020
156 Clouds 20 1015 43 16093 5.1 190 09:46 08.07.2020
157 Clouds 20 1015 38 16093 8.2 190 09:25 08.07.2020
158 Clouds 20 1015 38 16093 8.2 190 08:57 08.07.2020
159 Clouds 21 1015 38 16093 8.2 190 08:38 08.07.2020
160 Clouds 22 1015 29 16093 8.7 180 08:19 08.07.2020
161 Clouds 23 1015 29 16093 8.7 180 07:43 08.07.2020
162 Clouds 24 1015 29 16093 11.3 170 07:22 08.07.2020
163 Clouds 25 1015 29 16093 11.3 170 06:46 08.07.2020
164 Clouds 25 998 31 0 1.79 176 06:27 08.07.2020
165 Clouds 26 998 28 0 0.89 146 05:48 08.07.2020
166 Clouds 28 1013 23 16093 9.3 180 04:50 08.07.2020
167 Clouds 31 1014 19 16093 6.7 190 03:39 08.07.2020
168 Clouds 32 1015 19 16093 11.3 200 02:19 08.07.2020
169 Clouds 31 1015 19 16093 11.3 200 01:38 08.07.2020
170 Clouds 33 1015 17 16093 4.1 250 00:51 08.07.2020
171 Clouds 34 998 17 0 0.45 163 00:19 08.07.2020
172 Clouds 33 1016 15 16093 3.1 210 23:43 07.07.2020
173 Thunderstorm 33 1016 14 16093 7.2 240 23:22 07.07.2020
174 Thunderstorm 33 1016 14 16093 7.2 240 22:55 07.07.2020
175 Thunderstorm 33 1016 14 16093 7.2 240 22:55 07.07.2020
176 Thunderstorm 33 1016 14 16093 7.2 240 22:37 07.07.2020
177 Clouds 33 1016 13 16093 6.7 200 22:18 07.07.2020
178 Clouds 33 1016 13 16093 6.7 200 21:41 07.07.2020
179 Clouds 34 1017 17 16093 6.2 220 21:22 07.07.2020
180 Clouds 34 1017 17 16093 6.2 220 20:59 07.07.2020
181 Clouds 34 1017 17 16093 6.2 220 20:41 07.07.2020
182 Clouds 34 1017 16 16093 7.7 220 20:23 07.07.2020
183 Clouds 34 1017 16 16093 7.7 220 19:55 07.07.2020
184 Clouds 34 1017 16 16093 7.7 220 19:36 07.07.2020
185 Clouds 33 1018 19 16093 6.7 220 19:18 07.07.2020
186 Clouds 33 1018 19 16093 6.7 220 18:55 07.07.2020
187 Clouds 33 1018 19 16093 6.7 220 18:36 07.07.2020
188 Clouds 30 1018 23 16093 8.7 220 18:18 07.07.2020
189 Clouds 30 1018 23 16093 8.7 220 17:43 07.07.2020
190 Clouds 29 1013 20 0 1.79 136 17:23 07.07.2020
191 Clouds 28 1018 27 16093 7.7 210 16:58 07.07.2020
192 Clouds 27 1018 27 16093 7.7 210 16:40 07.07.2020
193 Clouds 26 1013 24 0 1.34 98 16:21 07.07.2020
194 Clouds 24 1018 40 16093 7.2 190 15:55 07.07.2020
195 Clouds 22 1018 40 16093 7.2 190 15:36 07.07.2020
196 Clear 22 1003 47 0 0.45 147 15:18 07.07.2020
197 Clouds 21 1018 45 16093 6.7 200 14:42 07.07.2020
198 Clear 21 1003 46 0 3.74 188 14:23 07.07.2020
199 Clouds 21 1018 55 16093 6.2 190 13:40 07.07.2020
200 Clouds 21 1018 55 16093 6.2 200 13:19 07.07.2020
201 Clouds 21 1018 55 16093 6.2 200 12:47 07.07.2020
202 Clouds 21 1018 55 16093 6.2 200 12:27 07.07.2020
203 Clouds 21 1018 52 16093 6.2 200 11:59 07.07.2020
204 Clouds 21 1018 52 16093 6.2 200 11:41 07.07.2020
205 Clouds 21 1019 52 16093 8.2 190 11:21 07.07.2020
206 Clouds 21 1019 52 16093 8.2 190 10:58 07.07.2020
207 Clouds 21 1019 52 16093 8.2 190 10:38 07.07.2020
208 Clouds 21 1019 49 16093 9.3 200 10:19 07.07.2020
209 Clouds 22 1019 49 16093 9.3 200 09:42 07.07.2020
210 Clouds 22 1020 36 16093 7.7 190 09:21 07.07.2020
211 Clouds 23 1020 36 16093 7.7 190 08:43 07.07.2020
212 Clouds 23 1003 45 0 0.89 173 08:25 07.07.2020
213 Clouds 24 1003 43 0 0.89 181 07:58 07.07.2020
214 Clouds 25 1020 29 16093 8.2 190 07:37 07.07.2020
215 Clouds 25 1020 29 16093 8.2 190 07:19 07.07.2020
216 Clouds 25 1020 29 16093 8.2 190 06:40 07.07.2020
217 Clouds 26 1020 29 16093 6.7 170 06:22 07.07.2020
218 Clouds 26 1020 31 16093 5.1 160 05:24 07.07.2020
219 Clouds 27 1015 23 0 5.96 185 04:44 07.07.2020
220 Clouds 29 1019 20 16093 5.7 200 03:42 07.07.2020
221 Clouds 30 1018 19 16093 6.2 200 02:57 07.07.2020
222 Clouds 31 1019 15 12874 2.6 60 01:34 07.07.2020
223 Clouds 34 1019 9 12874 3.1 40 00:58 07.07.2020
224 Clouds 34 1019 9 12874 3.1 40 00:39 07.07.2020
225 Clouds 34 1019 11 16093 2.6 350 00:19 07.07.2020
226 Clouds 33 1019 11 16093 2.6 350 23:42 06.07.2020
227 Clouds 33 1019 11 16093 5.51 213 23:24 06.07.2020
228 Clouds 33 1019 11 16093 5.51 213 22:56 06.07.2020
229 Clouds 33 1019 11 16093 5.51 213 22:38 06.07.2020
230 Clouds 33 1020 18 16093 2.89 190 22:18 06.07.2020
231 Clouds 34 1020 18 16093 2.89 190 21:56 06.07.2020
232 Clouds 33 1020 18 16093 1.92 149 21:36 06.07.2020
233 Clear 33 1005 21 0 0.67 151 21:18 06.07.2020
234 Clouds 32 1021 27 16093 3.1 40 20:40 06.07.2020
235 Clear 31 1006 26 0 0.45 65 20:20 06.07.2020
236 Clear 31 1016 20 0 0.45 36 19:58 06.07.2020
237 Clouds 30 1021 26 16093 1.5 280 19:39 06.07.2020
238 Clear 30 1007 27 0 0.45 112 19:21 06.07.2020
239 Clear 29 1017 24 0 0.32 1 18:57 06.07.2020
240 Clear 29 1017 24 0 0.32 1 18:39 06.07.2020
241 Clouds 26 1021 24 16093 3.1 230 18:21 06.07.2020
242 Clear 25 1017 31 0 0.45 162 17:44 06.07.2020
243 Clear 25 1008 46 0 1.49 329 17:24 06.07.2020
244 Clear 24 1017 40 0 1.49 329 16:59 06.07.2020
245 Clear 23 1017 39 0 1.79 171 16:41 06.07.2020
246 Clear 22 1017 44 0 0.45 150 16:21 06.07.2020
247 Clouds 19 1021 59 16093 4.1 210 15:43 06.07.2020
248 Clouds 17 1021 63 16093 3.6 180 15:25 06.07.2020
249 Clouds 16 1021 63 16093 3.6 180 14:57 06.07.2020
250 Clouds 15 1021 63 16093 3.6 180 14:38 06.07.2020
251 Clouds 16 1021 63 16093 3.6 180 14:38 06.07.2020
252 Clear 15 1020 67 16093 4.6 190 14:19 06.07.2020
253 Clear 15 1020 67 16093 4.6 190 13:55 06.07.2020
254 Clear 16 1020 63 16093 4.6 60 13:36 06.07.2020
255 Clear 15 1020 67 16093 4.6 190 13:36 06.07.2020
256 Clear 16 1020 63 16093 4.6 60 13:18 06.07.2020
257 Clear 16 1020 63 16093 4.6 60 12:42 06.07.2020
258 Clouds 16 1019 59 16093 5.1 200 12:19 06.07.2020
259 Clouds 17 1019 59 16093 5.1 200 11:57 06.07.2020
260 Clouds 17 1019 59 16093 5.1 200 11:38 06.07.2020
261 Clouds 17 1020 55 16093 5.1 210 11:19 06.07.2020
262 Clouds 17 1020 55 16093 5.1 210 10:43 06.07.2020
263 Clouds 17 1021 55 16093 5.7 200 10:22 06.07.2020
264 Clouds 17 1021 55 16093 5.7 200 09:59 06.07.2020
265 Clouds 18 1021 55 16093 5.7 200 09:41 06.07.2020
266 Clouds 18 1021 55 16093 3.1 190 09:21 06.07.2020
267 Clouds 18 1021 55 16093 3.1 190 08:55 06.07.2020
268 Clouds 18 1021 55 16093 3.1 190 08:37 06.07.2020
269 Clouds 19 1021 59 16093 5.1 170 08:19 06.07.2020
270 Clouds 19 1021 59 16093 5.1 170 08:19 06.07.2020
271 Clouds 20 1005 55 0 4.71 221 07:43 06.07.2020
272 Clouds 20 1021 55 16093 3.6 150 07:23 06.07.2020
273 Clouds 21 1020 46 16093 8.2 190 06:39 06.07.2020
274 Clouds 21 1020 46 16093 8.2 190 06:21 06.07.2020
275 Clouds 22 1020 46 16093 8.2 190 05:38 06.07.2020
276 Rain 23 1016 33 0 1.34 147 04:52 06.07.2020
277 Clouds 27 1019 28 16093 2.86 37 03:26 06.07.2020
278 Clouds 29 1019 28 16093 5.7 320 02:22 06.07.2020
279 Clouds 27 1019 20 16093 5.79 129 01:26 06.07.2020
280 Clouds 29 1019 20 16093 5.79 129 00:36 06.07.2020
281 Clouds 30 1020 23 16093 5.7 80 00:18 06.07.2020
282 Clouds 31 1020 23 16093 5.7 80 23:41 05.07.2020
283 Clouds 31 1020 25 16093 3.1 70 23:23 05.07.2020
284 Clouds 32 1020 25 16093 3.1 70 22:59 05.07.2020
285 Clouds 32 1020 25 16093 3.1 70 22:39 05.07.2020
286 Clear 32 1007 23 0 3.15 88 22:19 05.07.2020
287 Clear 32 1015 16 0 3.15 88 21:57 05.07.2020
288 Clear 31 1007 24 0 2.65 78 21:38 05.07.2020
289 Clear 31 1016 17 0 4.06 115 21:18 05.07.2020
290 Clear 31 1008 26 0 0.45 113 20:56 05.07.2020
291 Clear 30 1016 20 0 0.45 137 20:38 05.07.2020
292 Clear 30 1017 21 0 2.41 104 20:19 05.07.2020
293 Clouds 29 1022 32 16093 3.6 180 19:42 05.07.2020
294 Clear 28 1017 28 0 0.45 144 19:21 05.07.2020
295 Clear 27 1017 30 0 2.5 115 18:55 05.07.2020
296 Clear 26 1009 38 0 2.5 115 18:37 05.07.2020
297 Clear 25 1010 43 0 1.32 123 18:18 05.07.2020
298 Clouds 23 1022 46 16093 2.6 220 17:42 05.07.2020
299 Clouds 23 1024 42 0 0.45 175 17:19 05.07.2020
300 Clouds 21 1014 59 0 0.43 210 16:58 05.07.2020
301 Clouds 21 1022 59 16093 3.6 220 16:40 05.07.2020
302 Clouds 19 1013 57 0 1.25 225 16:20 05.07.2020
303 Clouds 17 1022 72 16093 2.6 220 15:40 05.07.2020
304 Clouds 16 1021 77 16093 4.1 190 15:20 05.07.2020
305 Clouds 15 1021 77 16093 4.1 190 14:55 05.07.2020
306 Clouds 14 1021 77 16093 4.1 190 14:36 05.07.2020
307 Clouds 14 1021 72 16093 5.1 200 14:18 05.07.2020
308 Clouds 14 1021 72 16093 5.1 200 13:40 05.07.2020
309 Clouds 14 1009 75 0 0.77 208 13:22 05.07.2020
310 Clouds 15 1017 71 0 0.77 208 12:45 05.07.2020
311 Clouds 15 1021 72 16093 5.1 140 12:21 05.07.2020
312 Clouds 16 1021 72 16093 5.1 140 11:56 05.07.2020
313 Clouds 16 1021 72 16093 5.1 140 11:38 05.07.2020
314 Clouds 16 1021 77 16093 6.2 190 11:18 05.07.2020
315 Clouds 16 1021 77 16093 6.2 190 10:55 05.07.2020
316 Clouds 16 1021 77 16093 6.2 190 10:36 05.07.2020
317 Clouds 16 1022 77 16093 4.6 180 10:18 05.07.2020
318 Clouds 17 1022 77 16093 4.6 180 09:41 05.07.2020
319 Clouds 17 1022 82 16093 3.6 160 09:20 05.07.2020
320 Clouds 17 1022 82 16093 3.6 160 08:56 05.07.2020
321 Clouds 17 1022 82 16093 3.6 160 08:37 05.07.2020
322 Clouds 17 1023 82 16093 4.6 160 07:59 05.07.2020
323 Clouds 18 1009 64 0 4.92 143 07:33 05.07.2020
324 Clouds 18 1007 62 0 4.92 143 06:58 05.07.2020
325 Clouds 18 1007 62 0 0.45 111 06:29 05.07.2020
326 Rain 21 1007 58 0 0.45 188 03:57 05.07.2020
327 Rain 20 1024 88 16093 2.6 80 02:59 05.07.2020
328 Rain 19 1024 88 16093 2.6 80 02:36 05.07.2020
329 Rain 23 1023 68 8047 5.1 90 01:43 05.07.2020
330 Thunderstorm 23 1022 72 4023 2.1 140 01:22 05.07.2020
331 Rain 26 1008 37 0 2.24 145 00:50 05.07.2020
332 Rain 30 1008 30 0 0.89 140 00:28 05.07.2020
333 Rain 29 1021 24 16093 3.6 170 23:55 04.07.2020
334 Rain 29 1021 24 16093 3.6 170 23:32 04.07.2020
335 Clouds 29 1006 29 0 1.79 287 22:59 04.07.2020
336 Clouds 29 1017 25 0 0.89 291 22:40 04.07.2020
337 Clouds 29 1021 19 16093 2.6 10 22:22 04.07.2020
338 Clouds 30 1021 19 16093 2.6 10 21:58 04.07.2020
339 Clouds 30 1021 19 16093 2.6 10 21:39 04.07.2020
340 Clouds 30 1021 19 16093 4.1 20 21:20 04.07.2020
341 Clouds 30 1021 19 16093 4.1 20 20:42 04.07.2020
342 Clouds 29 1022 28 16093 2.1 40 20:21 04.07.2020
343 Clouds 29 1022 28 16093 2.1 40 19:56 04.07.2020
344 Clouds 28 1022 28 16093 2.1 40 19:37 04.07.2020
345 Clouds 28 1022 28 16093 2.1 40 19:19 04.07.2020
346 Clouds 27 1022 36 16093 1.64 61 18:43 04.07.2020
347 Clouds 25 1022 41 16093 3.1 210 18:22 04.07.2020
348 Clouds 25 1022 41 16093 3.1 210 17:45 04.07.2020
349 Clouds 24 1021 46 16093 5.7 200 17:26 04.07.2020
350 Clouds 24 1021 46 16093 5.7 200 17:26 04.07.2020
351 Clouds 23 1021 46 16093 5.7 200 16:59 04.07.2020
352 Clouds 23 1021 46 16093 5.7 200 16:39 04.07.2020
353 Clouds 22 1021 49 16093 4.1 210 16:21 04.07.2020
354 Clouds 21 1021 49 16093 4.1 210 15:57 04.07.2020
355 Clouds 21 1021 49 16093 4.1 210 15:38 04.07.2020
356 Clouds 19 1022 59 16093 5.7 200 15:20 04.07.2020
357 Clouds 19 1022 59 16093 5.7 200 14:55 04.07.2020
358 Clouds 19 1022 59 16093 5.7 200 14:55 04.07.2020
359 Clouds 19 1022 59 16093 5.7 200 14:36 04.07.2020
360 Clouds 19 1022 59 16093 5.7 200 14:36 04.07.2020
361 Clouds 19 1022 59 16093 7.2 200 14:18 04.07.2020
362 Clouds 19 1022 59 16093 7.2 200 14:18 04.07.2020
363 Clouds 18 1022 59 16093 7.2 200 13:41 04.07.2020
364 Clouds 18 1023 59 16093 8.7 190 13:19 04.07.2020
365 Clouds 18 1023 59 16093 8.7 190 12:43 04.07.2020
366 Clouds 18 1024 68 16093 11.8 180 12:23 04.07.2020
367 Clouds 19 1024 68 16093 11.8 180 11:59 04.07.2020
368 Clouds 19 1024 68 16093 11.8 180 11:40 04.07.2020
369 Clouds 19 1024 56 16093 12.3 180 11:21 04.07.2020
370 Clouds 20 1024 56 16093 12.3 180 10:42 04.07.2020
371 Clouds 20 1025 52 16093 6.7 140 10:22 04.07.2020
372 Clouds 21 1025 52 16093 6.7 140 09:59 04.07.2020
373 Clouds 21 1025 52 16093 6.7 140 09:40 04.07.2020
374 Clouds 22 1024 52 16093 8.2 170 09:20 04.07.2020
375 Clouds 22 1024 52 16093 8.2 170 08:50 04.07.2020
376 Clouds 22 1024 52 16093 8.2 170 08:32 04.07.2020
377 Clouds 22 1020 38 0 3.58 147 07:54 04.07.2020
378 Clouds 22 1011 45 0 0.89 151 07:35 04.07.2020
379 Clouds 23 1020 39 0 0.89 137 06:56 04.07.2020
380 Clouds 23 1024 53 16093 7.2 110 06:23 04.07.2020
381 Clouds 23 1024 53 16093 7.2 110 05:40 04.07.2020
382 Clouds 25 1022 31 16093 4.1 210 04:55 04.07.2020
383 Clouds 27 1022 28 16093 10.3 200 03:19 04.07.2020
384 Clouds 27 1023 28 16093 7.7 190 02:27 04.07.2020
385 Clouds 26 1023 28 16093 7.7 190 01:35 04.07.2020
386 Thunderstorm 27 1022 29 16093 7.2 180 00:45 04.07.2020
387 Clouds 28 1022 27 16093 5.1 300 00:26 04.07.2020
388 Clouds 29 1022 27 16093 5.1 300 23:41 03.07.2020
389 Clouds 29 1022 22 16093 2.1 20 23:19 03.07.2020
390 Clouds 30 1022 22 16093 2.1 20 22:59 03.07.2020
391 Clouds 30 1022 22 16093 2.1 20 22:39 03.07.2020
392 Clouds 30 1023 28 16093 2.59 50 22:21 03.07.2020
393 Clouds 30 1023 28 16093 2.59 50 21:43 03.07.2020
394 Clouds 30 1024 30 16093 4.6 30 21:20 03.07.2020
395 Clouds 29 1024 30 16093 4.6 30 20:58 03.07.2020
396 Clouds 29 1024 30 16093 4.6 30 20:39 03.07.2020
397 Clouds 28 1024 36 16093 2.54 36 20:21 03.07.2020
398 Clouds 28 1024 36 16093 2.54 36 19:42 03.07.2020
399 Clouds 27 1024 36 16093 1.24 25 19:21 03.07.2020
400 Clouds 27 1024 41 16093 1.24 25 18:57 03.07.2020
401 Clouds 26 1024 41 16093 1.24 25 18:39 03.07.2020
402 Clouds 25 1024 41 16093 0.75 167 18:20 03.07.2020
403 Clouds 24 1024 46 16093 0.75 167 17:44 03.07.2020
404 Clouds 24 1020 45 0 1.47 167 17:22 03.07.2020
405 Clouds 23 1008 51 0 1.47 167 16:47 03.07.2020
406 Clouds 21 1023 52 16093 5.1 250 16:29 03.07.2020
407 Clouds 19 1022 59 16093 4.1 230 15:57 03.07.2020
408 Clouds 19 1022 59 16093 4.1 230 15:38 03.07.2020
409 Clouds 18 1022 67 16093 3.6 220 15:20 03.07.2020
410 Clouds 16 1022 67 16093 3.6 220 14:41 03.07.2020
411 Clouds 16 1022 67 16093 3.6 220 14:41 03.07.2020
412 Clouds 16 1021 63 16093 3.1 210 14:22 03.07.2020
413 Clouds 16 1021 63 16093 3.1 210 13:56 03.07.2020
414 Clouds 16 1021 63 16093 3.1 210 13:37 03.07.2020
415 Clouds 17 1021 59 16093 5.1 180 13:19 03.07.2020
416 Clouds 18 1021 59 16093 6.7 150 12:40 03.07.2020
417 Clouds 18 1021 59 16093 6.7 150 12:21 03.07.2020
418 Clouds 18 1021 59 16093 6.7 150 11:44 03.07.2020
419 Clouds 19 1021 55 16093 10.8 150 11:25 03.07.2020
420 Clouds 19 1021 55 16093 10.8 150 10:59 03.07.2020
421 Clouds 19 1021 55 16093 10.8 150 10:59 03.07.2020
422 Clouds 19 1021 55 16093 10.8 150 10:40 03.07.2020
423 Clouds 20 1022 52 16093 6.7 130 10:21 03.07.2020
424 Clouds 21 1022 52 16093 6.7 130 09:57 03.07.2020
425 Clouds 21 1022 52 16093 6.7 130 09:38 03.07.2020
426 Clouds 21 1021 43 16093 10.8 140 09:18 03.07.2020
427 Clouds 23 1021 43 16093 10.8 140 08:40 03.07.2020
428 Clouds 22 1021 27 16093 8.2 140 08:19 03.07.2020
429 Clouds 23 1021 27 16093 8.2 140 07:50 03.07.2020
430 Clouds 23 1020 29 16093 10.3 130 07:28 03.07.2020
431 Clouds 23 1020 29 16093 10.3 130 06:58 03.07.2020
432 Clouds 23 1018 40 16093 3.6 100 06:20 03.07.2020
433 Clouds 25 1018 38 16093 5.1 70 04:56 03.07.2020
434 Clouds 28 1017 24 16093 9.3 80 03:45 03.07.2020
435 Clouds 31 1017 27 16093 10.3 70 02:49 03.07.2020
436 Clouds 32 1017 27 16093 10.3 70 02:29 03.07.2020
437 Clouds 33 1018 7 16093 1.5 240 01:29 03.07.2020
438 Clouds 34 1018 7 16093 1.5 240 00:56 03.07.2020
439 Clouds 34 1018 7 16093 1.5 240 00:36 03.07.2020
440 Clouds 33 1018 9 16093 4.1 160 23:49 02.07.2020
441 Clouds 33 1018 8 16093 6.7 180 23:21 02.07.2020
442 Clouds 33 1018 8 16093 6.7 180 22:58 02.07.2020
443 Clouds 33 1018 8 16093 6.7 180 22:40 02.07.2020
444 Clouds 33 1019 9 16093 3.6 180 22:20 02.07.2020
445 Clouds 33 1019 9 16093 3.6 180 21:56 02.07.2020
446 Clouds 33 1019 9 16093 3.6 180 21:38 02.07.2020
447 Clouds 32 1020 12 16093 3.1 270 21:18 02.07.2020
448 Clouds 32 1020 12 16093 3.1 270 20:57 02.07.2020
449 Clouds 32 1020 12 16093 3.1 270 20:39 02.07.2020
450 Clouds 32 1021 13 16093 3.6 200 20:18 02.07.2020
451 Clouds 31 1021 13 16093 3.6 200 19:41 02.07.2020
452 Clouds 30 1021 22 16093 2.6 280 19:22 02.07.2020
453 Clouds 29 1021 22 16093 2.6 280 18:57 02.07.2020
454 Clouds 28 1021 22 16093 2.6 280 18:39 02.07.2020
455 Clear 26 1021 31 16093 4.1 260 18:21 02.07.2020
456 Clear 24 1021 31 16093 4.1 260 17:41 02.07.2020
457 Clouds 23 1020 46 16093 6.2 230 17:20 02.07.2020
458 Clouds 22 1020 46 16093 6.2 230 16:58 02.07.2020
459 Clouds 22 1020 46 16093 6.2 230 16:40 02.07.2020
460 Clouds 21 1020 68 16093 6.2 180 16:20 02.07.2020
461 Clouds 20 1020 68 16093 6.2 180 15:55 02.07.2020
462 Clouds 19 1020 68 16093 6.2 180 15:36 02.07.2020
463 Clear 18 1019 72 16093 8.7 190 15:18 02.07.2020
464 Clear 16 1019 72 16093 8.7 190 14:43 02.07.2020
465 Clear 16 1019 72 16093 7.2 190 14:20 02.07.2020
466 Clear 16 1019 72 16093 7.2 190 13:56 02.07.2020
467 Clear 16 1019 72 16093 7.2 190 13:36 02.07.2020
468 Clear 16 1019 72 16093 8.2 200 13:18 02.07.2020
469 Clear 17 1019 72 16093 8.2 200 12:41 02.07.2020
470 Clear 17 1019 63 16093 4.1 190 12:22 02.07.2020
471 Clear 17 1019 63 16093 4.1 190 11:45 02.07.2020
472 Clear 17 1019 52 16093 3.6 180 11:27 02.07.2020
473 Clear 18 1019 52 16093 3.6 180 10:58 02.07.2020
474 Clear 18 1019 52 16093 3.6 180 10:39 02.07.2020
475 Clear 19 1019 24 16093 2.1 170 10:21 02.07.2020
476 Clear 19 1019 24 16093 2.1 170 09:43 02.07.2020
477 Clouds 20 1019 22 16093 3.1 140 09:22 02.07.2020
478 Clouds 20 1019 22 16093 3.1 140 08:58 02.07.2020
479 Clouds 21 1019 21 16093 3.1 140 08:39 02.07.2020
480 Clouds 21 1019 21 16093 4.1 180 08:19 02.07.2020
481 Clouds 23 1019 21 16093 4.1 180 07:41 02.07.2020
482 Clouds 23 1018 20 16093 7.2 160 07:21 02.07.2020
483 Clouds 24 1018 20 16093 7.2 160 06:41 02.07.2020
484 Clouds 24 1017 17 16093 6.7 150 06:20 02.07.2020
485 Clouds 25 1017 17 16093 6.7 150 05:47 02.07.2020
486 Clouds 26 1016 14 16093 10.8 150 04:50 02.07.2020
487 Clouds 28 1015 15 16093 9.3 160 03:33 02.07.2020
488 Clouds 30 1016 13 16093 8.2 140 01:49 02.07.2020
489 Clouds 30 1017 14 16093 9.3 160 00:28 02.07.2020
490 Clouds 30 1017 14 16093 9.3 160 23:57 01.07.2020
491 Clouds 29 1017 14 16093 9.3 160 23:38 01.07.2020
492 Clouds 29 1018 14 16093 7.2 140 23:20 01.07.2020
493 Clouds 29 1018 14 16093 7.2 140 22:54 01.07.2020
494 Clouds 29 1018 14 16093 7.2 140 22:36 01.07.2020
495 Clouds 29 1018 14 16093 6.7 140 22:18 01.07.2020
496 Clouds 29 1018 14 16093 6.7 140 21:55 01.07.2020
497 Clouds 28 1018 14 16093 6.7 140 21:37 01.07.2020
498 Clouds 28 1019 15 16093 4.6 150 21:19 01.07.2020
499 Clouds 28 1019 15 16093 4.6 150 20:44 01.07.2020
500 Clear 27 1014 15 0 0.89 162 20:25 01.07.2020
501 Clear 27 1014 17 0 0.45 150 19:56 01.07.2020
502 Clouds 27 1019 14 16093 6.2 150 19:38 01.07.2020
503 Clear 26 1007 19 0 2.68 144 19:19 01.07.2020
504 Clear 25 1019 22 16093 6.2 180 18:42 01.07.2020
505 Clear 23 1020 30 16093 7.2 160 18:21 01.07.2020
506 Clear 22 1020 30 16093 7.2 160 17:59 01.07.2020
507 Clear 22 1020 30 16093 7.2 160 17:40 01.07.2020
508 Clear 21 1020 37 16093 5.1 180 17:19 01.07.2020
509 Clear 19 1020 37 16093 5.1 180 16:48 01.07.2020
510 Clear 18 1020 37 16093 5.1 180 16:29 01.07.2020
511 Clouds 16 1020 41 16093 3.1 180 15:57 01.07.2020
512 Clouds 15 1020 41 16093 3.1 180 15:39 01.07.2020
513 Clear 15 1008 59 0 0.45 183 15:20 01.07.2020
514 Clouds 12 1019 57 16093 3.6 180 14:44 01.07.2020
515 Clouds 11 1019 54 16093 3.6 160 14:22 01.07.2020
516 Clouds 11 1019 54 16093 3.6 160 13:59 01.07.2020
517 Clouds 12 1019 54 16093 3.6 160 13:39 01.07.2020
518 Clouds 12 1019 54 16093 3.6 160 13:20 01.07.2020
519 Clouds 12 1019 62 16093 4.1 100 12:57 01.07.2020
520 Clouds 13 1019 62 16093 4.1 100 12:39 01.07.2020
521 Clouds 13 1019 54 16093 4.6 150 12:20 01.07.2020
522 Clouds 14 1019 54 16093 4.6 150 11:44 01.07.2020
523 Clouds 14 1019 54 16093 4.6 150 11:44 01.07.2020
524 Clouds 14 1019 54 16093 4.6 150 11:44 01.07.2020
525 Clouds 14 1019 54 16093 2.1 70 11:24 01.07.2020
526 Clouds 15 1019 54 16093 2.1 70 10:58 01.07.2020
527 Clouds 15 1019 54 16093 2.1 70 10:40 01.07.2020
528 Clouds 15 1019 42 16093 3.1 30 10:21 01.07.2020
529 Clouds 16 1019 42 16093 3.1 30 09:54 01.07.2020
530 Clouds 16 1019 42 16093 3.1 30 09:36 01.07.2020
531 Clouds 17 1017 42 16093 5.7 160 09:18 01.07.2020
532 Clouds 18 1017 42 16093 5.7 160 08:41 01.07.2020
533 Clouds 18 1017 45 16093 5.7 140 08:21 01.07.2020
534 Clouds 18 1017 45 16093 5.7 140 07:54 01.07.2020
535 Clouds 18 1017 45 16093 5.7 140 07:36 01.07.2020
536 Clouds 19 1017 42 16093 3.1 110 07:18 01.07.2020
537 Clouds 19 1017 42 16093 3.1 110 06:48 01.07.2020
538 Clouds 19 1015 39 16093 5.1 90 06:25 01.07.2020
539 Clouds 22 999 37 0 0.89 8 04:30 01.07.2020
540 Clouds 23 1009 28 0 0.89 25 03:45 01.07.2020
541 Clouds 24 1009 26 0 5.07 8 03:26 01.07.2020
542 Clouds 25 1000 20 0 0.45 47 02:35 01.07.2020
543 Clouds 27 1013 14 16093 2.1 80 01:26 01.07.2020
544 Clouds 27 1013 14 16093 2.1 80 00:40 01.07.2020
545 Clouds 27 1013 18 16093 2.21 61 00:21 01.07.2020
546 Clouds 27 1013 18 16093 2.21 61 23:41 30.06.2020
547 Clouds 27 1013 22 16093 3.1 140 23:21 30.06.2020
548 Clouds 27 1013 22 16093 3.1 140 22:43 30.06.2020
549 Clouds 27 1009 16 0 3.15 66 22:20 30.06.2020
550 Clouds 26 1014 27 16093 2.1 0 21:55 30.06.2020
551 Clouds 26 1014 27 16093 2.1 0 21:37 30.06.2020
552 Clouds 24 1014 31 16093 2.1 80 21:18 30.06.2020
553 Clouds 23 1014 31 16093 2.1 80 20:42 30.06.2020
554 Clouds 23 1014 31 16093 2.1 80 20:21 30.06.2020
555 Clouds 23 1014 35 16093 2.6 360 19:44 30.06.2020
556 Clouds 22 1013 37 16093 5.1 70 19:22 30.06.2020
557 Clouds 21 1013 37 16093 5.1 70 18:59 30.06.2020
558 Clouds 21 1013 37 16093 5.1 70 18:40 30.06.2020
559 Rain 21 1000 42 0 0.45 134 18:20 30.06.2020
560 Clouds 21 1013 39 16093 4.6 80 17:40 30.06.2020
561 Rain 21 999 43 0 4.88 88 17:21 30.06.2020
562 Rain 20 1009 39 0 4.88 88 16:58 30.06.2020
563 Rain 20 1009 39 0 4.88 88 16:58 30.06.2020
564 Rain 20 1009 40 0 4.88 88 16:40 30.06.2020
565 Clear 19 999 49 0 0.89 170 16:21 30.06.2020
566 Clear 19 1008 43 0 3.56 88 15:56 30.06.2020
567 Clear 18 1008 45 0 3.56 88 15:38 30.06.2020
568 Clear 17 998 52 0 0.89 122 15:19 30.06.2020
569 Clouds 15 1012 58 16093 3.1 160 14:43 30.06.2020
570 Clouds 14 1011 58 16093 3.6 110 14:21 30.06.2020
571 Clouds 14 1011 58 16093 3.6 110 13:57 30.06.2020
572 Clouds 15 1011 58 16093 3.6 110 13:37 30.06.2020
573 Clouds 15 1010 51 16093 3.6 80 13:19 30.06.2020
574 Clouds 15 1010 51 16093 3.6 80 12:55 30.06.2020
575 Clouds 16 1010 51 16093 3.6 80 12:37 30.06.2020
576 Clouds 17 1009 45 16093 4.1 60 12:18 30.06.2020
577 Clouds 17 1009 45 16093 4.1 60 11:56 30.06.2020
578 Clouds 17 1009 45 16093 4.1 60 11:37 30.06.2020
579 Clouds 18 994 49 0 1.03 134 11:18 30.06.2020
580 Clouds 24 1008 28 16093 6.2 210 16:46 28.06.2020
581 Clouds 24 1004 28 0 0.45 167 16:28 28.06.2020
582 Clouds 22 1004 28 0 0.89 150 15:59 28.06.2020
583 Clouds 21 1008 34 16093 5.1 200 15:39 28.06.2020
584 Clouds 19 1008 36 16093 4.6 200 15:20 28.06.2020
585 Clouds 17 1008 36 16093 4.6 200 14:55 28.06.2020
586 Clouds 16 1008 36 16093 5.1 200 14:37 28.06.2020
587 Clouds 16 1008 36 16093 5.1 200 14:19 28.06.2020
588 Clouds 16 1008 36 16093 5.1 200 13:39 28.06.2020
589 Clouds 17 1008 34 16093 5.7 210 13:21 28.06.2020
590 Clouds 17 1008 34 16093 5.7 210 12:57 28.06.2020
591 Clouds 17 1008 34 16093 5.7 210 12:38 28.06.2020
592 Clouds 17 1009 39 16093 5.1 190 12:19 28.06.2020
593 Clouds 17 1009 39 16093 5.1 190 11:58 28.06.2020
594 Clouds 17 1009 39 16093 5.1 190 11:39 28.06.2020
595 Clouds 18 1009 45 16093 5.1 200 11:20 28.06.2020
596 Clouds 18 1009 45 16093 5.1 200 11:20 28.06.2020
597 Clouds 18 1009 45 16093 5.1 200 10:57 28.06.2020
598 Clouds 18 1009 45 16093 5.1 200 10:38 28.06.2020
599 Clouds 18 1009 45 16093 5.1 200 10:19 28.06.2020
600 Clouds 18 1009 45 16093 5.1 200 09:40 28.06.2020
601 Clouds 18 1010 37 16093 4.1 190 09:21 28.06.2020
602 Clouds 18 1010 37 16093 4.1 190 08:51 28.06.2020
603 Clouds 19 1010 37 16093 4.1 190 08:32 28.06.2020
604 Clouds 20 1011 34 16093 5.1 170 07:53 28.06.2020
605 Clouds 21 1011 34 16093 5.1 170 07:30 28.06.2020
606 Clouds 22 1012 30 16093 5.7 150 06:45 28.06.2020
607 Clouds 23 1012 27 16093 5.7 140 06:26 28.06.2020
608 Clouds 25 1012 27 16093 3.6 110 05:27 28.06.2020
609 Clouds 27 1011 22 16093 6.2 70 03:45 28.06.2020
610 Clouds 28 1012 21 16093 5.7 10 02:47 28.06.2020
611 Clouds 30 1012 14 16093 3.6 340 01:56 28.06.2020
612 Clouds 30 1007 16 0 2.45 324 01:27 28.06.2020
613 Clouds 31 1012 13 16093 2.6 320 00:48 28.06.2020
614 Clouds 31 1013 14 16093 3.1 340 00:25 28.06.2020
615 Clouds 31 1013 14 16093 3.1 340 23:42 27.06.2020
616 Rain 31 1009 18 0 4.22 62 23:24 27.06.2020
617 Rain 31 1009 16 0 4.22 62 22:58 27.06.2020
618 Rain 31 1014 16 16093 4.22 62 22:40 27.06.2020
619 Clouds 31 1015 18 16093 3.1 290 22:20 27.06.2020
620 Rain 31 1015 18 16093 3.1 290 21:55 27.06.2020
621 Rain 30 1015 18 16093 3.1 290 21:37 27.06.2020
622 Rain 30 1003 26 0 0.89 152 21:18 27.06.2020
623 Clouds 29 1016 20 16093 2.1 300 20:42 27.06.2020
624 Rain 29 1011 18 0 2.56 36 20:19 27.06.2020
625 Rain 29 1014 28 0 0.45 252 19:55 27.06.2020
626 Rain 28 1005 25 0 2.56 36 19:36 27.06.2020
627 Clear 28 1005 30 0 0.89 165 19:18 27.06.2020
628 Clouds 27 1017 27 16093 4.1 250 18:43 27.06.2020
629 Clouds 25 1017 38 16093 4.1 220 18:22 27.06.2020
630 Rain 24 1017 38 16093 4.1 220 17:55 27.06.2020
631 Clouds 24 1017 38 16093 4.1 220 17:37 27.06.2020
632 Clear 23 1013 37 0 1.14 265 17:19 27.06.2020
633 Clouds 21 1017 49 16093 4.6 220 16:43 27.06.2020
634 Rain 21 1013 48 0 1.99 204 16:24 27.06.2020
635 Rain 19 1017 55 16093 4.6 210 15:54 27.06.2020
636 Clear 17 1006 68 0 3.03 200 15:36 27.06.2020
637 Clouds 16 1017 71 16093 4.6 190 15:18 27.06.2020
638 Rain 14 1017 71 16093 4.6 190 14:41 27.06.2020
639 Rain 14 1018 81 16093 0.44 250 14:22 27.06.2020
640 Rain 13 1018 81 16093 0.44 250 13:57 27.06.2020
641 Clouds 13 1018 81 16093 0.44 250 13:37 27.06.2020
642 Clouds 13 1018 81 16093 1.24 63 13:19 27.06.2020
643 Clouds 13 1018 67 16093 2.6 210 12:56 27.06.2020
644 Rain 13 1018 67 16093 2.6 210 12:37 27.06.2020
645 Rain 14 1018 72 16093 2.1 170 12:19 27.06.2020
646 Clouds 14 1018 72 16093 2.1 170 11:41 27.06.2020
647 Clouds 14 1019 72 16093 3.1 220 11:23 27.06.2020
648 Rain 14 1019 72 16093 3.1 220 10:57 27.06.2020
649 Rain 14 1019 72 16093 3.1 220 10:38 27.06.2020
650 Rain 14 1019 77 16093 2.6 210 10:18 27.06.2020
651 Clouds 14 1019 77 16093 2.6 210 09:41 27.06.2020
652 Rain 14 1021 77 16093 2.6 210 09:21 27.06.2020
653 Rain 15 1021 77 16093 2.6 210 08:46 27.06.2020
654 Rain 15 1021 77 16093 3.6 330 08:23 27.06.2020
655 Rain 15 1021 77 16093 3.6 330 07:55 27.06.2020
656 Rain 15 1021 77 16093 3.6 330 07:37 27.06.2020
657 Clouds 15 1021 72 16093 7.7 260 07:18 27.06.2020
658 Rain 16 1020 67 16093 2.6 50 06:35 27.06.2020
659 Rain 16 1020 67 16093 2.6 50 05:33 27.06.2020
660 Rain 16 1021 72 16093 3.6 50 04:19 27.06.2020
661 Rain 17 1021 63 12874 5.7 80 03:51 27.06.2020
662 Rain 17 1020 72 4828 14.9 20 02:47 27.06.2020
663 Rain 18 1016 57 0 4.55 153 02:27 27.06.2020
664 Rain 18 1016 72 0 0.89 36 01:39 27.06.2020
665 Rain 22 1019 56 16093 5.1 180 00:52 27.06.2020
666 Thunderstorm 23 1019 36 16093 4.6 60 23:57 26.06.2020
667 Thunderstorm 23 1019 36 16093 4.6 60 23:38 26.06.2020
668 Thunderstorm 23 1018 34 16093 4.6 50 23:20 26.06.2020
669 Thunderstorm 24 1018 36 16093 6.2 70 22:43 26.06.2020
670 Clouds 24 1020 34 16093 2.6 110 22:24 26.06.2020
671 Clouds 25 1020 34 16093 2.6 110 21:58 26.06.2020
672 Clouds 25 1020 34 16093 2.6 110 21:40 26.06.2020
673 Clouds 25 1020 34 16093 2.6 110 21:40 26.06.2020
674 Clouds 25 1020 34 16093 2.6 110 21:40 26.06.2020
675 Clouds 25 1021 36 16093 4.1 70 21:21 26.06.2020
676 Clouds 25 1021 36 16093 4.1 70 20:58 26.06.2020
677 Clouds 26 1021 36 16093 4.1 70 20:40 26.06.2020
678 Clouds 25 1021 44 16093 4.6 100 20:18 26.06.2020
679 Clouds 25 1021 44 16093 4.6 100 19:40 26.06.2020
680 Clouds 25 1008 42 0 2.11 31 19:20 26.06.2020
681 Clouds 24 1017 45 0 2.11 31 18:43 26.06.2020
682 Clouds 21 1022 49 16093 1.5 110 18:25 26.06.2020
683 Clouds 22 1022 56 16093 2.1 130 17:55 26.06.2020
684 Clouds 21 1022 56 16093 2.1 130 17:37 26.06.2020
685 Clear 21 1018 57 0 2.87 34 17:19 26.06.2020
686 Clouds 20 1022 68 16093 2.87 34 16:42 26.06.2020
687 Clear 19 1018 65 0 2.8 49 16:23 26.06.2020
688 Clear 19 1018 65 0 2.8 49 16:23 26.06.2020
689 Clouds 17 1022 77 16093 2.8 49 15:41 26.06.2020
690 Clouds 17 1022 77 16093 2.8 49 15:41 26.06.2020
691 Clear 17 1010 76 0 2.62 63 15:22 26.06.2020
692 Clouds 15 1022 82 16093 2.62 63 14:58 26.06.2020
693 Clouds 14 1022 82 16093 2.62 63 14:40 26.06.2020
694 Clouds 14 1022 87 16093 1.5 190 14:21 26.06.2020
695 Clouds 14 1022 87 16093 1.5 190 13:47 26.06.2020
696 Clouds 14 1022 82 16093 2.6 80 13:25 26.06.2020
697 Clouds 15 1022 82 16093 2.6 80 12:59 26.06.2020
698 Clouds 15 1022 82 16093 2.6 80 12:40 26.06.2020
699 Clouds 15 1022 82 16093 2.1 320 12:22 26.06.2020
700 Clouds 16 1022 82 16093 2.1 320 11:57 26.06.2020
701 Clouds 16 1022 82 16093 2.1 320 11:38 26.06.2020
702 Clouds 16 1008 72 0 1.5 68 11:20 26.06.2020
703 Clouds 17 1007 69 0 1.5 68 10:57 26.06.2020
704 Clouds 17 1007 68 0 1.5 68 10:37 26.06.2020
705 Clouds 17 1008 68 0 0.89 12 10:18 26.06.2020
706 Clouds 18 1019 63 0 4.65 52 09:43 26.06.2020
707 Clouds 18 1022 67 16093 4.6 340 09:22 26.06.2020
708 Clouds 18 1019 59 0 2.27 65 08:51 26.06.2020
709 Rain 18 1019 58 0 5.13 74 08:28 26.06.2020
710 Clouds 19 1021 42 16093 4.1 350 07:52 26.06.2020
711 Clouds 21 1019 35 16093 2.1 10 07:24 26.06.2020
712 Clouds 21 1019 35 16093 2.1 10 06:57 26.06.2020
713 Clouds 21 1017 35 16093 5.29 15 06:35 26.06.2020
714 Clouds 22 1017 35 16093 2.97 294 05:58 26.06.2020
715 Clouds 22 1017 35 16093 5.29 15 05:31 26.06.2020
716 Clouds 28 1011 24 0 1.88 85 02:42 26.06.2020
717 Clouds 27 984 36 0 0.95 290 02:21 26.06.2020
718 Rain 25 1017 22 16093 6.7 190 00:56 26.06.2020
719 Rain 25 1017 22 16093 6.7 190 00:38 26.06.2020
720 Thunderstorm 27 1016 18 16093 7.2 10 23:48 25.06.2020
721 Thunderstorm 28 1015 16 16093 8.7 10 23:24 25.06.2020
722 Thunderstorm 29 1015 16 16093 8.7 10 22:59 25.06.2020
723 Thunderstorm 30 1015 15 16093 2.6 210 22:40 25.06.2020
724 Clouds 31 1015 18 16093 2.6 220 22:21 25.06.2020
725 Clouds 31 1015 18 16093 2.6 220 22:21 25.06.2020
726 Clouds 31 1015 18 16093 2.6 220 21:58 25.06.2020
727 Clouds 32 1016 15 16093 5.1 190 21:40 25.06.2020
728 Clouds 32 1016 15 16093 5.1 190 21:40 25.06.2020
729 Clouds 31 1016 15 16093 3.35 223 21:21 25.06.2020
730 Clouds 31 1016 15 16093 3.35 223 20:59 25.06.2020
731 Clouds 31 1016 15 16093 3.35 223 20:41 25.06.2020
732 Clouds 31 1016 18 16093 2.1 0 20:22 25.06.2020
733 Clouds 32 1016 18 16093 2.1 0 19:56 25.06.2020
734 Clouds 31 1016 18 16093 2.1 0 19:37 25.06.2020
735 Clouds 31 1016 18 16093 2.1 0 19:18 25.06.2020
736 Clouds 30 1016 23 16093 2.1 240 18:40 25.06.2020
737 Clouds 28 1016 28 16093 4.1 230 18:21 25.06.2020
738 Clouds 28 1016 28 16093 4.1 230 17:55 25.06.2020
739 Clouds 27 1016 28 16093 4.1 230 17:37 25.06.2020
740 Clouds 26 1012 26 0 0.9 256 17:18 25.06.2020
741 Clouds 25 1012 31 0 0.45 160 16:40 25.06.2020
742 Clouds 24 1012 36 0 0.45 159 16:20 25.06.2020
743 Clouds 22 1016 42 16093 5.1 210 15:45 25.06.2020
744 Clouds 20 1016 42 16093 5.1 210 15:27 25.06.2020
745 Clouds 18 1016 48 16093 5.7 190 14:57 25.06.2020
746 Clouds 17 1016 48 16093 5.7 190 14:39 25.06.2020
747 Clouds 17 1016 58 16093 5.1 170 14:21 25.06.2020
748 Clouds 17 1001 55 0 0.89 187 13:55 25.06.2020
749 Clouds 17 1001 55 0 0.45 187 13:36 25.06.2020
750 Clouds 17 1016 62 16093 5.1 180 13:18 25.06.2020
751 Clouds 16 1016 62 16093 5.1 180 12:43 25.06.2020
752 Clouds 16 1016 59 16093 4.6 170 12:20 25.06.2020
753 Clouds 16 1016 59 16093 4.6 170 11:43 25.06.2020
754 Clouds 17 1016 63 16093 4.6 190 11:25 25.06.2020
755 Clouds 17 1016 63 16093 4.6 190 10:57 25.06.2020
756 Clouds 17 1016 63 16093 4.6 190 10:39 25.06.2020
757 Clouds 17 1017 59 16093 3.1 230 10:20 25.06.2020
758 Clouds 18 1017 59 16093 3.1 230 09:41 25.06.2020
759 Clouds 18 1017 55 16093 4.6 220 09:22 25.06.2020
760 Clouds 19 1017 55 16093 4.6 220 08:47 25.06.2020
761 Clouds 19 1001 51 0 5.1 174 08:20 25.06.2020
762 Clouds 20 1017 46 16093 3.1 240 07:46 25.06.2020
763 Clouds 20 1017 46 16093 3.1 240 07:27 25.06.2020
764 Rain 21 1018 46 16093 3.6 360 06:50 25.06.2020
765 Rain 22 1018 46 16093 3.6 360 06:27 25.06.2020
766 Clouds 22 1002 44 0 1.34 301 05:51 25.06.2020
767 Rain 23 1014 34 0 2.91 342 03:58 25.06.2020
768 Thunderstorm 23 1017 26 16093 8.7 270 03:32 25.06.2020
769 Clouds 29 1015 15 16093 1.5 110 02:42 25.06.2020
770 Clouds 30 998 22 0 0.89 318 01:55 25.06.2020
771 Clouds 31 1015 14 16093 2.6 50 01:20 25.06.2020
772 Clouds 32 1016 14 16093 4.6 80 00:43 25.06.2020
773 Clouds 32 1016 13 16093 1.5 270 00:20 25.06.2020
774 Clouds 33 1016 13 16093 1.5 270 23:44 24.06.2020
775 Clouds 33 1017 15 16093 5.1 40 23:25 24.06.2020
776 Clouds 32 1017 15 16093 5.1 40 22:58 24.06.2020
777 Clouds 32 1017 15 16093 5.1 40 22:40 24.06.2020
778 Clouds 32 1017 15 16093 2.6 230 22:20 24.06.2020
779 Clouds 32 1017 15 16093 2.6 230 21:55 24.06.2020
780 Clouds 32 1017 15 16093 2.6 230 21:36 24.06.2020
781 Clouds 31 1018 16 16093 2.19 61 21:18 24.06.2020
782 Clouds 31 1018 16 16093 2.09 88 20:57 24.06.2020
783 Clouds 31 1018 16 16093 2.09 88 20:57 24.06.2020
784 Clouds 31 1018 16 16093 2.09 88 20:38 24.06.2020
785 Clear 31 1005 19 0 0.45 341 20:19 24.06.2020
786 Clouds 30 1018 23 16093 2.6 330 19:55 24.06.2020
787 Clouds 30 1018 23 16093 2.6 330 19:36 24.06.2020
788 Clouds 30 1018 23 16093 2.6 330 19:36 24.06.2020
789 Clear 29 1005 28 0 1.68 135 19:18 24.06.2020
790 Clouds 29 1019 28 16093 2.1 240 18:57 24.06.2020
791 Clouds 28 1019 28 16093 2.1 240 18:38 24.06.2020
792 Clouds 26 1019 36 16093 2.6 230 18:19 24.06.2020
793 Clouds 25 1019 36 16093 2.6 230 17:43 24.06.2020
794 Clear 24 1015 34 0 1.53 154 17:19 24.06.2020
795 Clear 23 1015 37 0 1.53 154 16:58 24.06.2020
796 Clouds 23 1019 43 16093 4.1 210 16:40 24.06.2020
797 Clouds 22 1019 43 16093 4.1 210 16:21 24.06.2020
798 Clear 20 1015 49 0 1.54 156 15:57 24.06.2020
799 Clear 20 1015 49 0 1.54 156 15:57 24.06.2020
800 Clear 19 1015 52 0 1.54 156 15:38 24.06.2020
801 Clouds 17 1019 62 16093 1.5 240 15:20 24.06.2020
802 Clouds 15 1019 62 16093 1.5 240 14:43 24.06.2020
803 Clouds 15 1019 67 16093 3.6 200 14:25 24.06.2020
804 Clouds 14 1019 67 16093 3.6 200 13:57 24.06.2020
805 Clouds 14 1019 67 16093 3.6 200 13:38 24.06.2020
806 Clouds 14 1019 67 16093 3.6 200 13:18 24.06.2020
807 Clear 14 1020 62 16093 3.1 190 12:41 24.06.2020
808 Clear 15 1020 62 16093 3.1 190 12:20 24.06.2020
809 Clear 15 1020 62 16093 3.1 220 11:56 24.06.2020
810 Clear 15 1020 62 16093 3.1 220 11:38 24.06.2020
811 Clouds 15 1020 59 16093 3.6 200 11:18 24.06.2020
812 Clouds 16 1020 59 16093 3.6 200 10:43 24.06.2020
813 Clear 16 1020 55 16093 2.6 210 10:19 24.06.2020
814 Clear 17 1020 55 16093 2.6 210 09:43 24.06.2020
815 Clouds 17 1020 55 16093 2.6 40 09:22 24.06.2020
816 Clouds 18 1020 55 16093 2.6 40 08:44 24.06.2020
817 Clouds 19 1020 52 16093 2.1 220 08:26 24.06.2020
818 Clouds 19 1020 52 16093 2.1 220 07:55 24.06.2020
819 Clouds 20 1020 52 16093 2.1 220 07:37 24.06.2020
820 Clouds 20 1020 52 16093 2.1 220 07:18 24.06.2020
821 Clouds 21 1021 43 16093 4.1 210 06:39 24.06.2020
822 Clouds 21 1021 43 16093 4.1 210 06:21 24.06.2020
823 Clouds 22 1018 49 0 4.85 37 05:30 24.06.2020
824 Clouds 24 1019 29 16093 5.7 350 04:36 24.06.2020
825 Clouds 26 1020 26 16093 5.7 350 03:35 24.06.2020
826 Rain 26 1007 26 0 0.45 74 02:51 24.06.2020
827 Clouds 28 1020 19 16093 4.1 50 01:45 24.06.2020
828 Clouds 30 1020 20 16093 5.1 40 00:48 24.06.2020
829 Clouds 30 1020 20 16093 5.1 40 00:27 24.06.2020
830 Clouds 29 1020 20 16093 4.1 80 23:46 23.06.2020
831 Clouds 29 1021 25 16093 3.6 10 23:20 23.06.2020
832 Clouds 29 1021 25 16093 3.6 10 22:57 23.06.2020
833 Clouds 29 1021 25 16093 3.6 10 22:36 23.06.2020
834 Clouds 28 1022 26 16093 1.5 290 22:18 23.06.2020
835 Clouds 28 1022 26 16093 1.5 290 21:41 23.06.2020
836 Clouds 27 1022 34 16093 2.1 50 21:20 23.06.2020
837 Clouds 27 1022 34 16093 2.1 50 20:56 23.06.2020
838 Clouds 26 1022 34 16093 2.1 50 20:37 23.06.2020
839 Clear 26 1010 42 0 2.32 63 20:19 23.06.2020
840 Clouds 25 1023 40 16093 1.5 190 19:49 23.06.2020
841 Clear 24 1018 37 0 1.49 38 19:28 23.06.2020
842 Clouds 23 1023 43 16093 2.6 240 18:42 23.06.2020
843 Clouds 23 1023 43 16093 2.6 240 18:42 23.06.2020
844 Clear 22 1011 51 0 0.53 23 18:19 23.06.2020
845 Clear 22 1011 51 0 0.53 23 18:19 23.06.2020
846 Clouds 21 1023 52 16093 4.6 230 17:59 23.06.2020
847 Clouds 21 1023 52 16093 4.6 230 17:39 23.06.2020
848 Clear 21 1019 54 0 0.51 259 17:20 23.06.2020
849 Clouds 20 1024 59 16093 3.6 210 16:56 23.06.2020
850 Clouds 19 1024 59 16093 3.6 210 16:37 23.06.2020
851 Clear 19 1011 65 0 1.73 230 16:18 23.06.2020
852 Clear 18 1021 60 0 0.89 279 16:18 23.06.2020
853 Clouds 17 1024 72 16093 4.6 210 15:45 23.06.2020
854 Clear 16 1021 68 0 0.89 242 15:25 23.06.2020
855 Clouds 14 1024 87 16093 3.6 170 14:58 23.06.2020
856 Clouds 14 1024 87 16093 3.6 170 14:40 23.06.2020
857 Clouds 13 1024 87 16093 3.6 170 14:18 23.06.2020
858 Clouds 13 1024 82 16093 3.1 170 13:55 23.06.2020
859 Clouds 13 1024 82 16093 3.1 170 13:37 23.06.2020
860 Clouds 14 1024 82 16093 3.1 170 13:19 23.06.2020
861 Clouds 14 1024 72 16093 2.1 190 12:40 23.06.2020
862 Clouds 15 1020 82 0 2.49 174 12:22 23.06.2020
863 Clouds 15 1020 82 0 2.49 174 11:44 23.06.2020
864 Clouds 16 1025 63 16093 4.6 160 11:23 23.06.2020
865 Clouds 16 1025 63 16093 4.6 160 10:59 23.06.2020
866 Clouds 16 1025 63 16093 4.6 160 10:41 23.06.2020
867 Rain 17 1024 59 16093 5.1 120 10:22 23.06.2020
868 Rain 17 1024 59 16093 5.1 120 09:58 23.06.2020
869 Rain 17 1024 59 16093 5.1 120 09:39 23.06.2020
870 Rain 18 1024 52 16093 4.6 110 09:20 23.06.2020
871 Rain 18 1024 52 16093 4.6 110 09:20 23.06.2020
872 Rain 18 1024 52 16093 4.6 110 08:47 23.06.2020
873 Clouds 19 1024 48 16093 4.1 100 08:26 23.06.2020
874 Clouds 20 1024 48 16093 4.1 100 07:51 23.06.2020
875 Rain 20 1023 52 16093 4.1 80 07:25 23.06.2020
876 Clouds 21 1023 40 16093 2.6 130 06:57 23.06.2020
877 Clouds 21 1023 40 16093 2.6 130 06:38 23.06.2020
878 Rain 22 1023 40 16093 2.6 130 06:19 23.06.2020
879 Clouds 22 1022 31 16093 4.6 360 05:28 23.06.2020
880 Clouds 26 1021 24 16093 4.1 30 03:23 23.06.2020
881 Clouds 26 1021 24 16093 4.1 30 02:52 23.06.2020
882 Clouds 26 1021 24 16093 4.1 30 02:33 23.06.2020
883 Clouds 27 1021 26 16093 4.6 360 01:46 23.06.2020
884 Clouds 27 1021 26 16093 4.6 360 01:46 23.06.2020
885 Clouds 27 1021 26 16093 4.6 360 01:24 23.06.2020
886 Clouds 27 1021 26 16093 5.1 40 00:41 23.06.2020
887 Clouds 27 1021 26 16093 5.1 40 00:20 23.06.2020
888 Clouds 27 1021 24 16093 5.1 30 23:54 22.06.2020
889 Clouds 27 1021 24 16093 5.1 30 23:54 22.06.2020
890 Clouds 27 1021 24 16093 5.1 30 23:36 22.06.2020
891 Clouds 27 1022 28 16093 3.1 50 23:18 22.06.2020
892 Clouds 27 1022 28 16093 3.1 50 22:54 22.06.2020
893 Clouds 27 1022 28 16093 3.1 50 22:36 22.06.2020
894 Clouds 26 1022 29 16093 3.1 40 22:18 22.06.2020
895 Clouds 26 1022 29 16093 3.1 40 22:18 22.06.2020
896 Clouds 26 1022 29 16093 3.1 40 21:40 22.06.2020
897 Clouds 25 1023 33 16093 2.1 110 21:22 22.06.2020
898 Clouds 25 1023 33 16093 2.1 110 20:58 22.06.2020
899 Clouds 25 1023 33 16093 2.1 110 20:40 22.06.2020
900 Clouds 25 1022 38 16093 2.1 20 20:20 22.06.2020
901 Clouds 24 1022 38 16093 2.1 20 19:44 22.06.2020
902 Clear 23 1012 39 0 3.41 49 19:19 22.06.2020
903 Clear 23 1018 36 0 3.41 49 18:57 22.06.2020
904 Clear 23 1012 42 0 0.45 261 18:37 22.06.2020
905 Clouds 22 1022 43 16093 2.1 340 18:19 22.06.2020
906 Clouds 20 1022 48 16093 3.1 330 17:55 22.06.2020
907 Clouds 20 1022 48 16093 3.1 330 17:37 22.06.2020
908 Clouds 20 1022 48 16093 3.1 330 17:18 22.06.2020
909 Clear 19 1020 50 0 0.45 319 16:43 22.06.2020
910 Clouds 18 1022 59 16093 2.6 330 16:19 22.06.2020
911 Clear 17 1011 63 0 1.57 10 15:57 22.06.2020
912 Clouds 16 1022 76 16093 1.5 240 15:39 22.06.2020
913 Clouds 14 1021 81 16093 1.5 210 15:21 22.06.2020
914 Clouds 13 1021 81 16093 1.5 210 14:39 22.06.2020
915 Clouds 13 1021 81 16093 1.5 210 14:39 22.06.2020
916 Clouds 12 1021 81 16093 1.5 210 14:20 22.06.2020
917 Clouds 12 1021 81 16093 2.6 300 13:56 22.06.2020
918 Clouds 12 1021 81 16093 2.6 300 13:38 22.06.2020
919 Clouds 13 1021 81 16093 2.6 300 13:20 22.06.2020
920 Clouds 13 1021 71 16093 1.89 13 12:42 22.06.2020
921 Clouds 13 1021 71 16093 1.89 13 12:42 22.06.2020
922 Clouds 14 1021 71 16093 1.72 21 12:23 22.06.2020
923 Clouds 14 1021 67 16093 2.6 100 11:58 22.06.2020
924 Clouds 15 1021 67 16093 2.6 100 11:37 22.06.2020
925 Clouds 15 1021 67 16093 2.6 100 11:18 22.06.2020
926 Clouds 15 1008 74 0 1.15 17 10:54 22.06.2020
927 Clouds 15 1008 74 0 1.15 17 10:54 22.06.2020
928 Clouds 15 1008 74 0 0.89 334 10:36 22.06.2020
929 Clouds 15 1009 69 0 0.47 46 10:18 22.06.2020
930 Clouds 15 1020 58 16093 3.6 140 09:41 22.06.2020
931 Clouds 15 1020 58 16093 3.6 140 09:20 22.06.2020
932 Clouds 15 1019 62 16093 4.1 160 08:58 22.06.2020
933 Clouds 15 1019 62 16093 4.1 160 08:39 22.06.2020
934 Clouds 15 1019 62 16093 4.1 160 08:39 22.06.2020
935 Clouds 16 1008 61 0 1.79 202 08:20 22.06.2020
936 Clouds 16 1019 62 16093 3.1 220 07:50 22.06.2020
937 Clouds 16 1019 62 16093 3.1 220 07:31 22.06.2020
938 Clouds 17 1019 59 16093 2.1 220 06:44 22.06.2020
939 Clouds 17 1019 59 16093 2.1 220 06:26 22.06.2020
940 Clouds 17 1019 52 16093 2.85 168 05:58 22.06.2020
941 -273 0 0 0 0 0 04:59 22.06.2020
942 Thunderstorm 18 1018 63 16093 10.3 10 02:54 22.06.2020
943 Clouds 25 1017 18 16093 4.1 50 01:25 22.06.2020
944 Clouds 27 1017 18 16093 3.6 320 00:41 22.06.2020
945 Clouds 27 1017 18 16093 2.1 350 23:59 21.06.2020
946 Clouds 27 1017 18 16093 2.1 350 23:39 21.06.2020
947 Clouds 26 1017 18 16093 2.1 350 23:21 21.06.2020
948 Clouds 26 1018 23 16093 1.5 30 22:57 21.06.2020
949 Clouds 25 1018 23 16093 1.5 30 22:37 21.06.2020
950 Clouds 25 1018 23 16093 1.5 30 22:19 21.06.2020
951 Clouds 25 1018 23 16093 1.5 30 22:19 21.06.2020
952 Clouds 24 1019 22 16093 4.6 310 21:57 21.06.2020
953 Clouds 24 1019 22 16093 4.6 310 21:39 21.06.2020
954 Clouds 24 1019 22 16093 4.6 310 21:20 21.06.2020
955 Clouds 24 1014 26 0 1.79 281 20:57 21.06.2020
956 Clouds 24 1019 15 16093 5.7 320 20:37 21.06.2020
957 Clouds 24 1019 17 16093 5.7 320 20:18 21.06.2020
958 Clouds 24 1019 22 16093 5.1 290 19:55 21.06.2020
959 Clouds 24 1019 22 16093 5.1 290 19:37 21.06.2020
960 Clouds 24 1019 22 16093 5.1 290 19:18 21.06.2020
961 Clouds 23 1019 26 16093 2.1 260 18:40 21.06.2020
962 Clouds 22 1019 26 16093 2.1 260 18:22 21.06.2020
963 Clouds 21 1018 28 16093 2.1 250 17:58 21.06.2020
964 Clouds 20 1018 28 16093 2.1 250 17:38 21.06.2020
965 Clouds 19 1018 30 16093 2.6 230 17:19 21.06.2020
966 Clouds 19 1018 30 16093 2.6 230 16:41 21.06.2020
967 Clouds 19 1018 30 16093 2.6 230 16:23 21.06.2020
968 Clouds 18 1018 33 16093 4.6 210 15:57 21.06.2020
969 Clouds 18 1018 33 16093 4.6 210 15:37 21.06.2020
970 Clouds 17 1018 33 16093 4.6 210 15:18 21.06.2020
971 Clouds 16 1018 33 16093 3.6 200 14:39 21.06.2020
972 Clouds 16 1018 33 16093 3.6 200 14:20 21.06.2020
973 Clouds 15 1018 31 16093 3.1 270 13:56 21.06.2020
974 Clouds 15 1018 31 16093 3.1 270 13:38 21.06.2020
975 Clouds 15 1018 31 16093 3.1 270 13:19 21.06.2020
976 Clouds 16 1017 29 16093 4.1 180 12:44 21.06.2020
977 Clouds 16 1017 29 16093 4.1 180 12:25 21.06.2020
978 Clouds 16 1017 31 16093 3.6 180 12:25 21.06.2020
979 Clouds 16 1017 31 16093 3.6 180 12:25 21.06.2020
980 Clouds 17 1017 31 16093 3.6 180 11:58 21.06.2020
981 Clouds 16 1017 31 16093 3.6 180 11:39 21.06.2020
982 Clouds 17 1017 31 16093 3.6 180 11:21 21.06.2020
983 Clouds 17 1018 24 16093 4.1 200 10:55 21.06.2020
984 Clouds 17 1018 24 16093 4.1 200 10:36 21.06.2020
985 Clouds 17 1018 23 16093 4.1 200 10:18 21.06.2020
986 Clouds 18 1018 31 16093 3.6 210 09:41 21.06.2020
987 Clouds 18 1018 31 16093 3.6 210 09:19 21.06.2020
988 Clouds 19 1018 24 16093 2.6 170 08:56 21.06.2020
989 Clouds 20 1018 24 16093 2.6 170 08:37 21.06.2020
990 Clouds 20 1018 22 16093 2.6 170 08:19 21.06.2020
991 Clouds 21 1019 25 16093 3.1 150 07:41 21.06.2020
992 Clouds 21 1019 25 16093 3.1 150 07:22 21.06.2020
993 Clouds 21 1019 21 16093 1.82 311 06:49 21.06.2020
994 Clouds 22 1018 21 16093 2.6 30 05:59 21.06.2020
995 Clouds 23 1018 21 16093 2.6 30 05:31 21.06.2020
996 Clouds 26 1016 13 16093 5.1 10 03:40 21.06.2020
997 Clouds 27 1012 13 0 5.51 321 03:18 21.06.2020
998 Clouds 28 1016 12 16093 3.1 310 02:19 21.06.2020
999 Clouds 29 1016 11 16093 4.6 319 01:24 21.06.2020
1000 Clouds 29 1017 11 16093 4.1 350 00:56 21.06.2020
1001 Clouds 29 1017 11 16093 4.1 350 00:38 21.06.2020
1002 Clouds 29 1017 11 16093 4.1 350 00:19 21.06.2020
1003 Clouds 29 1017 11 16093 2.1 350 23:44 20.06.2020
1004 Clouds 29 1017 11 16093 2.1 350 23:22 20.06.2020
1005 Clouds 29 1018 12 16093 1.5 170 22:56 20.06.2020
1006 Clouds 29 1018 12 16093 1.5 170 22:37 20.06.2020
1007 Clouds 28 1018 12 16093 1.5 170 22:18 20.06.2020
1008 Clouds 28 1013 11 0 2.71 124 21:56 20.06.2020
1009 Clouds 28 1013 10 0 2.71 124 21:38 20.06.2020
1010 Clouds 28 1018 11 16093 2.1 50 21:19 20.06.2020
1011 Clouds 27 1019 11 16093 3.6 250 20:56 20.06.2020
1012 Clouds 27 1019 11 16093 3.6 250 20:38 20.06.2020
1013 Clouds 27 1019 11 16093 3.6 250 20:19 20.06.2020
1014 Clouds 26 1019 15 16093 2.6 210 19:43 20.06.2020
1015 Clouds 26 1019 15 16093 2.6 210 19:23 20.06.2020
1016 Clear 25 1015 19 0 2.68 165 18:55 20.06.2020
1017 Clouds 24 1020 27 16093 4.6 250 18:37 20.06.2020
1018 Clouds 22 1020 27 16093 4.6 250 18:19 20.06.2020
1019 Clouds 22 1020 35 16093 5.7 210 17:56 20.06.2020
1020 Clouds 21 1020 35 16093 5.7 210 17:37 20.06.2020
1021 Clouds 20 1020 35 16093 5.7 210 17:18 20.06.2020
1022 Clouds 18 1020 48 16093 5.1 220 16:40 20.06.2020
1023 Clouds 17 1020 48 16093 5.1 220 16:19 20.06.2020
1024 Clouds 15 1020 66 16093 1.91 204 15:55 20.06.2020
1025 Clouds 14 1020 66 16093 1.91 204 15:37 20.06.2020
1026 Clouds 12 1020 66 16093 1.65 206 15:18 20.06.2020
1027 Clouds 9 1020 81 16093 4.1 190 14:42 20.06.2020
1028 Clear 9 1019 93 16093 2.6 140 14:19 20.06.2020
1029 Clear 9 1019 93 16093 2.6 140 13:41 20.06.2020
1030 Clear 9 1019 93 16093 2.6 140 13:20 20.06.2020
1031 Clear 9 1020 93 16093 6.2 190 12:55 20.06.2020
1032 Clear 9 1020 93 16093 6.2 190 12:37 20.06.2020
1033 Clear 10 1020 93 16093 6.2 190 12:18 20.06.2020
1034 Clear 10 1020 100 16093 4.6 180 11:39 20.06.2020
1035 Clear 10 1020 100 16093 4.6 180 11:20 20.06.2020
1036 Clear 10 1021 100 16093 3.1 190 10:57 20.06.2020
1037 Clear 10 1021 100 16093 3.1 190 10:38 20.06.2020
1038 Clear 10 1021 100 16093 3.1 190 10:38 20.06.2020
1039 Clear 10 1021 100 16093 3.1 190 10:18 20.06.2020
1040 Clear 11 1021 93 16093 3.1 190 09:41 20.06.2020
1041 Clear 11 1022 93 16093 2.1 200 09:23 20.06.2020
1042 Clear 11 1022 93 16093 2.1 200 08:57 20.06.2020
1043 Clear 11 1022 93 16093 2.1 200 08:38 20.06.2020
1044 Clouds 11 1014 84 0 4.61 342 08:20 20.06.2020
1045 Clear 12 1021 87 16093 4.61 342 07:50 20.06.2020
1046 Clear 12 1021 87 16093 4.36 343 07:25 20.06.2020
1047 Clear 12 1021 87 16093 4.36 343 07:25 20.06.2020
1048 Clouds 13 1021 82 16093 3.1 330 06:40 20.06.2020
1049 Clouds 14 1021 82 16093 3.1 330 06:18 20.06.2020
1050 Clouds 14 1010 72 0 2.24 332 05:47 20.06.2020
1051 Rain 18 1019 59 16093 3.58 208 03:25 20.06.2020
1052 Clouds 17 1019 63 16093 6.7 10 01:53 20.06.2020
1053 Clouds 17 1019 63 16093 6.7 10 01:35 20.06.2020
1054 Rain 16 1019 48 16093 2.6 260 00:42 20.06.2020
1055 Rain 17 1019 48 16093 2.6 260 00:19 20.06.2020
1056 Rain 18 1019 45 16093 7.2 160 23:40 19.06.2020
1057 Clouds 18 1019 45 16093 7.2 160 23:19 19.06.2020
1058 Rain 18 1020 55 16093 6.2 130 22:55 19.06.2020
1059 Rain 18 1020 55 16093 6.2 130 22:37 19.06.2020
1060 Rain 18 1020 55 16093 6.2 130 22:18 19.06.2020
1061 Rain 17 1020 63 16093 6.2 100 21:41 19.06.2020
1062 Rain 16 1020 63 16093 6.2 100 21:19 19.06.2020
1063 Rain 15 1015 67 0 2.62 173 20:59 19.06.2020
1064 Rain 15 1015 67 0 2.62 173 20:59 19.06.2020
1065 Rain 15 1016 70 0 2.62 173 20:40 19.06.2020
1066 Rain 15 1012 79 0 2.24 125 20:22 19.06.2020
1067 Rain 16 1022 45 16093 4.1 170 19:59 19.06.2020
1068 Clouds 17 1022 45 16093 4.1 170 19:41 19.06.2020
1069 Clouds 17 1022 45 16093 4.1 170 19:23 19.06.2020
1070 Clouds 16 1022 67 16093 2.1 340 18:58 19.06.2020
1071 Clouds 16 1022 67 16093 2.1 340 18:38 19.06.2020
1072 Clouds 15 1022 67 16093 2.1 340 18:20 19.06.2020
1073 Clouds 14 1023 76 16093 3.6 340 17:42 19.06.2020
1074 Clouds 14 1023 76 16093 3.6 340 17:23 19.06.2020
1075 Clouds 13 1023 76 16093 4.1 330 16:57 19.06.2020
1076 Clouds 13 1023 76 16093 4.1 330 16:39 19.06.2020
1077 Clouds 12 1023 81 16093 3.6 30 16:20 19.06.2020
1078 Clouds 12 1023 81 16093 3.6 30 15:44 19.06.2020
1079 Clouds 12 1023 81 16093 3.6 30 15:25 19.06.2020
1080 Clouds 12 1023 81 16093 2.1 330 14:57 19.06.2020
1081 Clouds 12 1023 81 16093 2.1 330 14:39 19.06.2020
1082 Clouds 12 1023 81 16093 2.1 330 14:21 19.06.2020
1083 Clouds 12 1022 81 16093 4.48 160 13:57 19.06.2020
1084 Clouds 12 1022 81 16093 4.48 160 13:57 19.06.2020
1085 Clouds 12 1022 81 16093 4.48 160 13:39 19.06.2020
1086 Clouds 12 1022 81 16093 4.02 148 13:19 19.06.2020
1087 Clouds 12 1022 81 16093 2.6 160 12:43 19.06.2020
1088 Clouds 12 1022 81 16093 2.6 160 12:20 19.06.2020
1089 Rain 12 1022 76 16093 2.95 146 11:41 19.06.2020
1090 Rain 12 1022 81 16093 2.9 151 11:19 19.06.2020
1091 Rain 12 1022 81 16093 2.9 151 10:59 19.06.2020
1092 Rain 12 1022 81 16093 2.9 151 10:41 19.06.2020
1093 Rain 12 1022 81 16093 2.9 151 10:41 19.06.2020
1094 Rain 12 1022 81 16093 2.9 151 10:41 19.06.2020
1095 Clouds 12 1022 81 16093 3.47 147 10:20 19.06.2020
1096 Clouds 13 1023 76 16093 1.5 290 09:45 19.06.2020
1097 Clouds 13 1023 76 16093 1.5 290 09:25 19.06.2020
1098 Rain 13 1024 71 16093 2.1 310 08:59 19.06.2020
1099 Rain 13 1024 71 16093 2.1 310 08:39 19.06.2020
1100 Rain 13 1024 71 16093 2.1 310 08:20 19.06.2020
1101 Rain 13 1024 81 16093 2.1 350 07:41 19.06.2020
1102 Rain 13 1024 81 16093 2.1 350 07:21 19.06.2020
1103 Rain 13 1023 71 16093 2.97 175 06:47 19.06.2020
1104 Rain 13 1023 71 16093 1.95 167 06:21 19.06.2020
1105 Rain 13 1023 66 16093 3.6 310 05:28 19.06.2020
1106 Rain 14 1022 62 16093 5.7 340 03:37 19.06.2020
1107 Rain 16 1011 50 0 0.45 314 02:19 19.06.2020
1108 Clouds 19 1021 30 16093 5.1 20 00:44 19.06.2020
1109 Clouds 20 1022 28 16093 5.1 40 00:22 19.06.2020
1110 Clouds 20 1022 28 16093 5.1 40 23:57 18.06.2020
1111 Clouds 20 1022 28 16093 5.1 40 23:38 18.06.2020
1112 Clouds 20 1022 28 16093 5.1 40 23:20 18.06.2020
1113 Clouds 20 1022 28 16093 5.1 20 22:40 18.06.2020
1114 Clouds 20 1022 29 16093 2.6 80 22:20 18.06.2020
1115 Clouds 20 1022 29 16093 2.6 80 22:20 18.06.2020
1116 Clouds 21 1022 29 16093 2.6 80 21:56 18.06.2020
1117 Clouds 20 1022 29 16093 2.6 80 21:37 18.06.2020
1118 Clouds 20 1022 29 16093 2.6 80 21:18 18.06.2020
1119 Clouds 19 1023 32 16093 4.1 60 20:40 18.06.2020
1120 Clouds 19 1023 32 16093 4.1 60 20:20 18.06.2020
1121 Clouds 19 1023 36 16093 4.6 50 19:57 18.06.2020
1122 Clouds 18 1023 36 16093 4.6 50 19:38 18.06.2020
1123 Clouds 18 1023 36 16093 4.6 50 19:19 18.06.2020
1124 Clouds 17 1023 38 16093 5.7 50 18:39 18.06.2020
1125 Clouds 17 1023 41 16093 5.7 70 18:21 18.06.2020
1126 Clouds 16 1023 41 16093 5.7 70 17:54 18.06.2020
1127 Clouds 16 1023 41 16093 5.7 70 17:36 18.06.2020
1128 Clouds 15 1023 41 16093 5.7 70 17:18 18.06.2020
1129 Clouds 14 1022 32 16093 5.1 40 16:41 18.06.2020
1130 Clouds 14 1022 34 16093 5.1 40 16:23 18.06.2020
1131 Clear 13 1018 36 0 3.21 74 15:57 18.06.2020
1132 Clouds 13 1022 40 16093 4.1 40 15:39 18.06.2020
1133 Clouds 13 1022 40 16093 4.1 40 15:39 18.06.2020
1134 Clouds 13 1022 40 16093 4.1 40 15:19 18.06.2020
1135 Clear 12 1017 37 0 2.96 70 14:56 18.06.2020
1136 Clouds 11 1021 46 16093 4.1 30 14:37 18.06.2020
1137 Clouds 11 1020 40 16093 2.1 70 14:19 18.06.2020
1138 Clouds 11 1020 40 16093 2.1 70 13:47 18.06.2020
1139 Clouds 11 1020 40 16093 2.1 70 13:28 18.06.2020
1140 Clouds 12 1020 34 16093 3.1 20 12:57 18.06.2020
1141 Clouds 13 1020 34 16093 3.1 20 12:39 18.06.2020
1142 Clouds 13 1020 34 16093 3.1 20 12:19 18.06.2020
1143 Clouds 14 1019 32 16093 5.7 20 11:48 18.06.2020
1144 Clear 14 1006 34 0 5.05 17 11:21 18.06.2020
1145 Clouds 15 1018 35 16093 5.7 40 10:59 18.06.2020
1146 Clouds 15 1018 35 16093 5.7 40 10:39 18.06.2020
1147 Clouds 16 1018 41 16093 3.6 50 10:18 18.06.2020
1148 Clouds 17 1018 41 16093 3.6 50 09:44 18.06.2020
1149 Clear 17 1002 38 0 1.34 22 09:26 18.06.2020
1150 Clouds 18 1017 39 16093 5.1 50 08:54 18.06.2020
1151 Clouds 19 1017 39 16093 5.1 50 08:36 18.06.2020
1152 Clouds 19 1003 35 0 0.45 82 08:18 18.06.2020
1153 Clouds 20 1012 28 0 2.99 78 07:43 18.06.2020
1154 Clouds 20 1025 35 0 1.34 346 07:23 18.06.2020
1155 Clouds 22 1014 32 16093 5.1 360 06:34 18.06.2020
1156 Clouds 25 995 29 0 4.02 355 04:27 18.06.2020
1157 Clouds 29 1010 12 16093 7.7 10 03:30 18.06.2020
1158 Clouds 32 1008 7 16093 5.7 250 01:42 18.06.2020
1159 Clouds 33 1008 7 16093 5.7 250 01:18 18.06.2020
1160 Clouds 33 1008 5 16093 7.7 220 00:49 18.06.2020
1161 Clouds 34 1008 5 16093 7.7 220 00:25 18.06.2020
1162 Clouds 34 1009 6 16093 5.1 170 23:49 17.06.2020
1163 Clouds 34 1009 6 16093 5.1 170 23:23 17.06.2020
1164 Clouds 34 1010 7 16093 2.1 90 22:59 17.06.2020
1165 Clouds 33 1010 7 16093 2.1 90 22:40 17.06.2020
1166 Clouds 33 1010 7 16093 2.1 90 22:21 17.06.2020
1167 Clouds 33 1011 6 16093 8.2 170 21:59 17.06.2020
1168 Clouds 32 1011 6 16093 8.2 170 21:39 17.06.2020
1169 Clouds 31 1011 6 16093 8.2 170 21:20 17.06.2020
1170 Clouds 31 1012 9 16093 7.2 150 20:55 17.06.2020
1171 Clouds 30 1012 9 16093 7.2 150 20:37 17.06.2020
1172 Clouds 30 1012 9 16093 7.2 150 20:18 17.06.2020
1173 Clouds 29 1012 8 16093 6.7 160 19:42 17.06.2020
1174 Clouds 28 1012 8 16093 6.7 160 19:19 17.06.2020
1175 Clouds 27 1012 15 16093 5.7 180 18:48 17.06.2020
1176 Clouds 24 1008 30 0 3.35 193 18:28 17.06.2020
1177 Clouds 23 1013 37 16093 1.5 190 17:47 17.06.2020
1178 Clouds 22 1008 38 0 1.7 203 17:23 17.06.2020
1179 Clouds 21 1015 21 0 2.24 115 16:59 17.06.2020
1180 Clouds 20 997 43 0 1.7 203 16:41 17.06.2020
1181 Clouds 19 1013 45 16093 1.26 148 16:21 17.06.2020
1182 Clouds 18 1012 39 0 0.45 215 15:59 17.06.2020
1183 Clouds 17 1013 58 16093 2.6 180 15:39 17.06.2020
1184 Clouds 17 1013 58 16093 2.6 180 15:39 17.06.2020
1185 Clouds 15 999 62 0 0.45 139 15:21 17.06.2020
1186 Clouds 15 999 62 0 0.45 139 15:21 17.06.2020
1187 Clouds 15 999 62 0 0.45 139 15:21 17.06.2020
1188 Clouds 14 999 64 0 0.45 104 14:58 17.06.2020
1189 Clouds 14 1009 54 0 0.9 84 14:39 17.06.2020
1190 Clouds 13 999 65 0 0.45 62 14:19 17.06.2020
1191 Clouds 13 1013 54 16093 3.32 213 13:57 17.06.2020
1192 Clouds 14 1013 54 16093 3.32 213 13:38 17.06.2020
1193 Clouds 14 1013 54 16093 4.23 199 13:20 17.06.2020
1194 Clouds 14 1013 54 16093 4.23 199 13:20 17.06.2020
1195 Clouds 16 996 51 0 4.23 199 12:43 17.06.2020
1196 Clouds 16 996 48 0 4.86 190 12:23 17.06.2020
1197 Clear 18 1012 20 16093 4.6 220 11:58 17.06.2020
1198 Clear 18 1012 20 16093 4.6 220 11:40 17.06.2020
1199 Clear 18 1012 19 16093 4.6 220 11:21 17.06.2020
1200 Clear 19 1012 29 16093 4.6 190 10:39 17.06.2020
1201 Clear 20 1012 29 16093 4.6 190 10:19 17.06.2020
1202 Clear 20 1012 29 16093 4.6 190 10:19 17.06.2020
1203 Clouds 20 1011 26 16093 6.2 200 09:58 17.06.2020
1204 Clouds 20 1011 26 16093 6.2 200 09:40 17.06.2020
1205 Clouds 20 1011 26 16093 6.2 200 09:20 17.06.2020
1206 Clouds 21 1011 30 16093 7.7 200 08:46 17.06.2020
1207 Clouds 21 1011 28 16093 7.2 180 08:21 17.06.2020
1208 Clouds 22 1011 28 16093 7.2 180 07:56 17.06.2020
1209 Clouds 22 1011 28 16093 7.2 180 07:38 17.06.2020
1210 Clouds 23 1011 28 16093 7.2 180 07:20 17.06.2020
1211 Clouds 24 1011 26 16093 9.8 180 06:55 17.06.2020
1212 Clouds 25 1011 26 16093 9.8 180 06:37 17.06.2020
1213 Clouds 25 1011 26 16093 9.8 180 06:19 17.06.2020
1214 Clouds 27 1009 16 16093 4.1 190 04:56 17.06.2020
1215 Clouds 32 1009 14 16093 7.7 170 02:55 17.06.2020
1216 Clouds 32 1009 15 16093 8.7 180 01:29 17.06.2020
1217 Clouds 33 1010 10 16093 8.2 190 00:38 17.06.2020
1218 Clouds 33 1010 10 16093 8.2 190 00:20 17.06.2020
1219 Clouds 33 1011 10 16093 7.7 230 23:56 16.06.2020
1220 Clouds 33 1011 10 16093 7.7 230 23:37 16.06.2020
1221 Clouds 33 1012 11 16093 7.2 230 23:19 16.06.2020
1222 Clouds 33 1012 11 16093 7.2 230 22:54 16.06.2020
1223 Clouds 33 1012 11 16093 7.2 230 22:36 16.06.2020
1224 Clouds 33 1012 11 16093 7.2 230 22:18 16.06.2020
1225 Clouds 32 1013 11 16093 5.7 200 21:44 16.06.2020
1226 Clouds 32 1013 11 16093 5.7 200 21:23 16.06.2020
1227 Clouds 32 1014 11 16093 8.2 220 20:57 16.06.2020
1228 Clouds 32 1014 11 16093 8.2 220 20:39 16.06.2020
1229 Clouds 32 1009 13 0 0.89 136 20:18 16.06.2020
1230 Clouds 31 1015 15 16093 4.1 210 19:56 16.06.2020
1231 Clouds 31 1015 15 16093 4.1 210 19:38 16.06.2020
1232 Clouds 31 1015 15 16093 4.1 210 19:18 16.06.2020
1233 Clouds 30 1011 16 0 1.34 150 18:44 16.06.2020
1234 Clouds 28 1011 18 0 1.34 177 18:21 16.06.2020
1235 Clouds 28 1011 20 0 1.34 146 17:58 16.06.2020
1236 Clouds 27 1016 22 16093 6.2 190 17:39 16.06.2020
1237 Clouds 26 1016 22 16093 6.2 190 17:21 16.06.2020
1238 Clouds 25 1016 25 16093 8.2 200 16:58 16.06.2020
1239 Clouds 24 1016 25 16093 8.2 200 16:39 16.06.2020
1240 Clouds 24 1016 25 16093 8.2 200 16:19 16.06.2020
1241 Clouds 24 1016 25 16093 8.2 200 16:19 16.06.2020
1242 Clear 23 1011 29 0 3.19 185 15:56 16.06.2020
1243 Clear 23 1011 29 0 3.19 185 15:56 16.06.2020
1244 Clouds 21 1016 32 16093 5.7 190 15:38 16.06.2020
1245 Clouds 20 1016 32 16093 5.7 190 15:20 16.06.2020
1246 Clouds 19 1016 20 16093 5.1 210 14:43 16.06.2020
1247 Clouds 18 1016 21 16093 5.1 210 14:25 16.06.2020
1248 Clouds 18 1016 21 16093 5.1 200 13:59 16.06.2020
1249 Clouds 19 1016 21 16093 5.1 200 13:41 16.06.2020
1250 Clouds 18 1016 20 16093 5.1 200 13:22 16.06.2020
1251 Clouds 18 1016 39 16093 3.6 210 12:42 16.06.2020
1252 Clouds 18 1016 36 16093 5.1 200 12:22 16.06.2020
1253 Clouds 18 1016 36 16093 5.1 200 11:57 16.06.2020
1254 Clouds 18 1016 36 16093 5.1 200 11:39 16.06.2020
1255 Clouds 18 1016 36 16093 5.1 200 11:20 16.06.2020
1256 Clouds 18 1016 36 16093 3.6 210 10:57 16.06.2020
1257 Clouds 18 1016 36 16093 3.6 210 10:38 16.06.2020
1258 Clouds 18 1016 36 16093 3.6 210 10:18 16.06.2020
1259 Clouds 19 1016 34 16093 2.6 170 09:43 16.06.2020
1260 Clouds 19 1016 34 16093 2.6 170 09:22 16.06.2020
1261 Clouds 20 1017 30 16093 3.6 170 08:51 16.06.2020
1262 Clouds 20 1017 30 16093 3.6 170 08:32 16.06.2020
1263 Clouds 22 1017 25 16093 4.6 170 07:51 16.06.2020
1264 Clouds 22 1017 25 16093 4.6 170 07:29 16.06.2020
1265 Clouds 23 1000 34 0 3.2 185 06:56 16.06.2020
1266 Clouds 23 1000 31 0 1.8 115 06:29 16.06.2020
1267 Clouds 25 1016 15 16093 4.1 160 05:50 16.06.2020
1268 Clouds 26 1016 18 16093 4.1 120 04:54 16.06.2020
1269 Clouds 28 1017 13 16093 2.6 100 03:53 16.06.2020
1270 Clouds 31 1018 12 16093 11.3 180 02:28 16.06.2020
1271 Clouds 31 1017 9 16093 3.1 220 01:32 16.06.2020
1272 Clouds 32 1017 9 16093 4.6 80 00:52 16.06.2020
1273 Clouds 33 1017 9 16093 4.6 80 00:22 16.06.2020
1274 Clouds 33 1018 11 16093 6.2 50 23:43 15.06.2020
1275 Clouds 33 1018 11 16093 6.2 50 23:24 15.06.2020
1276 Clouds 33 1019 11 16093 6.2 70 22:59 15.06.2020
1277 Clouds 33 1019 11 16093 6.2 70 22:41 15.06.2020
1278 Clouds 32 1019 11 16093 6.2 70 22:21 15.06.2020
1279 Clouds 32 1020 8 16093 4.1 110 21:56 15.06.2020
1280 Clouds 32 1020 8 16093 4.1 110 21:38 15.06.2020
1281 Clouds 31 1021 12 16093 2.1 80 21:19 15.06.2020
1282 Clouds 30 1021 12 16093 2.1 80 20:56 15.06.2020
1283 Clouds 30 1021 12 16093 2.1 80 20:38 15.06.2020
1284 Clouds 29 1007 16 0 0.45 59 20:19 15.06.2020
1285 Clouds 29 1016 12 0 3.03 133 19:56 15.06.2020
1286 Clouds 28 1021 14 16093 1.5 150 19:37 15.06.2020
1287 Clouds 28 1021 14 16093 1.5 150 19:19 15.06.2020
1288 Clouds 28 1021 16 16093 2.6 70 18:55 15.06.2020
1289 Clouds 28 1021 16 16093 2.6 70 18:55 15.06.2020
1290 Clouds 27 1021 16 16093 2.6 70 18:37 15.06.2020
1291 Clouds 25 1021 16 16093 2.6 70 18:18 15.06.2020
1292 Clouds 24 1022 15 16093 2.6 70 17:42 15.06.2020
1293 Clouds 23 1017 22 0 0.78 91 17:21 15.06.2020
1294 Clouds 22 1021 26 16093 2.6 70 16:58 15.06.2020
1295 Clouds 22 1021 26 16093 2.6 70 16:40 15.06.2020
1296 Clouds 20 1017 28 0 1.42 42 16:18 15.06.2020
1297 Clouds 19 1019 43 0 1.42 42 15:56 15.06.2020
1298 Clouds 17 1021 44 16093 3.1 180 15:36 15.06.2020
1299 Clouds 16 1021 44 16093 3.1 180 15:18 15.06.2020
1300 Clouds 14 1020 33 16093 1.5 230 14:41 15.06.2020
1301 Clouds 13 1020 33 16093 1.5 230 14:20 15.06.2020
1302 Clouds 13 1019 33 16093 1.1 234 13:58 15.06.2020
1303 Clouds 13 1019 33 16093 1.1 234 13:39 15.06.2020
1304 Clouds 13 1019 33 16093 1.33 233 13:20 15.06.2020
1305 Clouds 14 1018 47 16093 3.1 170 12:55 15.06.2020
1306 Clouds 14 1018 47 16093 3.1 170 12:36 15.06.2020
1307 Clouds 14 1018 47 16093 3.1 170 12:18 15.06.2020
1308 Clouds 15 1018 22 16093 2.6 140 11:42 15.06.2020
1309 Clouds 15 1018 21 16093 2.6 140 11:23 15.06.2020
1310 Clouds 16 1017 36 16093 3.1 180 10:44 15.06.2020
1311 Clouds 16 1017 36 16093 3.1 180 10:22 15.06.2020
1312 Clouds 18 1017 20 16093 2.6 160 09:45 15.06.2020
1313 Clouds 18 1017 20 16093 2.6 160 09:25 15.06.2020
1314 Clouds 18 1016 24 16093 2.1 160 08:56 15.06.2020
1315 Clouds 18 1016 24 16093 2.1 160 08:37 15.06.2020
1316 Clouds 18 1016 24 16093 2.1 160 08:18 15.06.2020
1317 Clear 19 999 30 0 0.45 342 07:41 15.06.2020
1318 Clear 20 1014 31 0 1.88 113 07:20 15.06.2020
1319 Clouds 21 1015 19 16093 3.6 320 06:38 15.06.2020
1320 Clouds 23 1015 19 16093 3.6 320 06:19 15.06.2020
1321 Clouds 25 1014 21 16093 3.6 330 05:39 15.06.2020
1322 Clouds 25 1014 21 16093 3.6 330 05:20 15.06.2020
1323 Clouds 28 1013 12 16093 2.6 230 04:18 15.06.2020
1324 Clouds 30 1013 11 16093 4.1 250 03:37 15.06.2020
1325 Clouds 31 1013 13 16093 6.2 180 02:34 15.06.2020
1326 Clouds 32 1013 14 16093 6.2 210 01:51 15.06.2020
1327 Clouds 32 1013 14 16093 6.2 210 01:30 15.06.2020
1328 Clouds 32 1014 15 16093 4.1 190 00:56 15.06.2020
1329 Clouds 32 1014 15 16093 4.1 190 00:38 15.06.2020
1330 Clouds 32 1014 14 16093 8.7 200 00:18 15.06.2020
1331 Clouds 32 1014 14 16093 8.7 200 23:42 14.06.2020
1332 Clouds 32 1014 14 16093 8.7 200 23:24 14.06.2020
1333 Clouds 31 1014 15 16093 11.3 190 22:58 14.06.2020
1334 Clouds 31 1014 15 16093 11.3 190 22:38 14.06.2020
1335 Clouds 31 1014 15 16093 11.3 190 22:19 14.06.2020
1336 Clouds 31 1014 15 16093 8.7 190 21:57 14.06.2020
1337 Clouds 31 1014 15 16093 8.7 190 21:38 14.06.2020
1338 Clear 31 1009 14 0 1.34 171 21:19 14.06.2020
1339 Clear 30 1010 13 0 2.68 150 20:58 14.06.2020
1340 Clear 30 1010 14 0 0.89 167 20:38 14.06.2020
1341 Clouds 29 1015 18 16093 6.2 230 20:19 14.06.2020
1342 Clouds 29 1015 20 16093 9.3 210 19:56 14.06.2020
1343 Clouds 29 1015 20 16093 9.3 210 19:37 14.06.2020
1344 Clouds 28 1015 20 16093 9.3 210 19:19 14.06.2020
1345 Clouds 28 1016 22 16093 8.7 210 18:56 14.06.2020
1346 Clouds 27 1016 22 16093 8.7 210 18:37 14.06.2020
1347 Clouds 27 1016 22 16093 8.7 210 18:19 14.06.2020
1348 Clouds 26 1016 27 16093 8.2 210 17:55 14.06.2020
1349 Clouds 25 1016 27 16093 8.2 210 17:37 14.06.2020
1350 Clouds 24 1016 27 16093 8.2 210 17:19 14.06.2020
1351 Clouds 23 1016 35 16093 8.7 190 16:40 14.06.2020
1352 Clouds 22 1016 35 16093 8.7 190 16:20 14.06.2020
1353 Clear 21 1003 44 0 1.34 156 15:58 14.06.2020
1354 Clear 21 1012 35 0 1.79 161 15:58 14.06.2020
1355 Clouds 20 1017 45 16093 3.6 210 15:40 14.06.2020
1356 Clouds 19 1017 45 16093 3.6 210 15:18 14.06.2020
1357 Clouds 19 1016 45 16093 6.7 190 14:57 14.06.2020
1358 Clouds 18 1016 45 16093 6.7 190 14:38 14.06.2020
1359 Clouds 18 1016 45 16093 6.7 190 14:18 14.06.2020
1360 Clouds 18 1015 45 16093 7.2 180 13:41 14.06.2020
1361 Clouds 19 1015 45 16093 7.2 180 13:22 14.06.2020
1362 Clouds 19 1015 45 16093 6.2 200 12:59 14.06.2020
1363 Clouds 19 1015 45 16093 6.2 200 12:40 14.06.2020
1364 Clouds 19 1015 45 16093 6.2 200 12:22 14.06.2020
1365 Clouds 19 1015 42 16093 7.7 200 11:59 14.06.2020
1366 Clouds 20 1015 42 16093 7.7 200 11:40 14.06.2020
1367 Clouds 20 1015 42 16093 7.7 200 11:21 14.06.2020
1368 Clouds 20 1016 42 16093 8.2 220 10:57 14.06.2020
1369 Clouds 20 1016 42 16093 8.2 220 10:38 14.06.2020
1370 Clouds 20 1016 42 16093 8.2 220 10:18 14.06.2020
1371 Clouds 20 1016 37 16093 7.2 240 09:42 14.06.2020
1372 Clouds 21 1016 37 16093 7.2 240 09:23 14.06.2020
1373 Clouds 21 1016 37 16093 6.7 230 08:42 14.06.2020
1374 Clouds 21 1016 37 16093 6.7 230 08:22 14.06.2020
1375 Clouds 21 1015 40 16093 8.2 190 07:52 14.06.2020
1376 Clouds 21 1015 40 16093 8.2 190 07:34 14.06.2020
1377 Clouds 21 1015 40 16093 6.2 180 06:51 14.06.2020
1378 Clouds 21 1015 40 16093 4.1 170 05:51 14.06.2020
1379 Clouds 22 1015 37 16093 7.2 180 05:22 14.06.2020
1380 Rain 23 1015 37 16093 7.2 180 04:37 14.06.2020
1381 Rain 24 1015 33 16093 6.2 130 03:45 14.06.2020
1382 Clouds 25 1015 27 16093 3.1 80 02:35 14.06.2020
1383 Clouds 26 1016 34 16093 4.6 80 01:54 14.06.2020
1384 Clouds 26 1016 34 16093 4.6 80 01:26 14.06.2020
1385 Rain 26 1016 31 16093 2.6 290 00:47 14.06.2020
1386 Rain 25 1016 31 16093 2.6 290 00:20 14.06.2020
1387 Rain 26 1016 30 16093 9.3 310 23:46 13.06.2020
1388 Rain 26 1016 30 16093 9.3 310 23:25 13.06.2020
1389 Thunderstorm 27 1015 26 14484 2.6 0 22:58 13.06.2020
1390 Thunderstorm 28 1015 21 16093 11.3 210 22:38 13.06.2020
1391 Thunderstorm 29 1015 21 16093 11.3 210 22:18 13.06.2020
1392 Clouds 30 1016 16 16093 4.1 190 21:57 13.06.2020
1393 Clouds 30 1016 16 16093 4.1 190 21:38 13.06.2020
1394 Clouds 30 1016 16 16093 4.1 190 21:20 13.06.2020
1395 Clouds 30 1018 20 16093 3.1 220 20:43 13.06.2020
1396 Clouds 30 1018 20 16093 3.1 220 20:19 13.06.2020
1397 Clouds 29 1019 23 16093 4.1 190 19:58 13.06.2020
1398 Clouds 29 1019 23 16093 4.1 190 19:36 13.06.2020
1399 Clouds 28 1020 31 16093 3.1 180 19:18 13.06.2020
1400 Clouds 27 1020 31 16093 3.1 180 18:55 13.06.2020
1401 Clouds 26 1020 31 16093 3.1 180 18:37 13.06.2020
1402 Clouds 24 1015 38 0 1.1 181 18:18 13.06.2020
1403 Clouds 22 1021 49 16093 2.1 210 17:42 13.06.2020
1404 Clouds 22 1021 49 16093 2.1 210 17:23 13.06.2020
1405 Clouds 21 1023 39 0 1.79 190 16:58 13.06.2020
1406 Clouds 20 1021 55 16093 2.1 240 16:40 13.06.2020
1407 Clouds 18 1021 59 16093 4.1 240 16:19 13.06.2020
1408 Clouds 18 1021 59 16093 4.1 240 15:58 13.06.2020
1409 Clouds 17 1021 59 16093 4.1 240 15:39 13.06.2020
1410 Clouds 17 1021 59 16093 4.1 240 15:20 13.06.2020
1411 Clouds 15 1021 58 16093 1.07 311 14:43 13.06.2020
1412 Clouds 15 1021 58 16093 1.43 330 14:21 13.06.2020
1413 Clouds 15 1021 59 16093 4.6 200 13:45 13.06.2020
1414 Clouds 15 1021 59 16093 4.6 200 13:26 13.06.2020
1415 Clouds 15 1021 59 16093 5.1 170 12:57 13.06.2020
1416 Clouds 15 1021 59 16093 5.1 170 12:37 13.06.2020
1417 Clear 15 1022 59 16093 6.2 150 12:19 13.06.2020
1418 Clear 15 1022 59 16093 6.2 150 12:19 13.06.2020
1419 Clear 16 1022 59 16093 6.2 150 11:40 13.06.2020
1420 Clear 17 1023 59 16093 4.6 190 11:19 13.06.2020
1421 Clear 17 1023 59 16093 4.6 190 10:58 13.06.2020
1422 Clear 17 1023 59 16093 4.6 190 10:40 13.06.2020
1423 Clear 18 1023 55 16093 4.6 180 10:22 13.06.2020
1424 Clear 19 1023 55 16093 4.6 180 09:52 13.06.2020
1425 Clear 19 1023 55 16093 4.6 180 09:32 13.06.2020
1426 Clear 20 1023 48 16093 6.2 140 08:56 13.06.2020
1427 Clear 21 1023 48 16093 6.2 140 08:37 13.06.2020
1428 Clear 22 1004 31 0 0.45 134 08:19 13.06.2020
1429 Clouds 22 1023 28 16093 6.2 170 07:42 13.06.2020
1430 Clouds 22 1023 28 16093 6.2 170 07:24 13.06.2020
1431 Clouds 22 1023 28 16093 7.7 160 06:44 13.06.2020
1432 Clouds 23 1023 28 16093 7.7 160 06:25 13.06.2020
1433 Clouds 23 1023 31 16093 7.7 150 05:28 13.06.2020
1434 Clouds 24 1023 31 16093 8.2 160 04:35 13.06.2020
1435 Clouds 26 1023 26 16093 10.3 150 03:33 13.06.2020
1436 Thunderstorm 29 1023 19 16093 7.2 130 02:38 13.06.2020
1437 Clouds 31 1024 16 16093 6.7 130 01:48 13.06.2020
1438 Clouds 30 1024 16 16093 6.7 130 01:22 13.06.2020
1439 Clouds 30 1024 15 16093 4.6 120 00:48 13.06.2020
1440 Clouds 31 1024 15 16093 4.6 120 00:27 13.06.2020
1441 Clouds 32 1025 13 16093 2.6 90 23:57 12.06.2020
1442 Clouds 32 1025 13 16093 2.6 90 23:38 12.06.2020
1443 Clouds 32 1025 12 16093 2.6 90 23:18 12.06.2020
1444 Clouds 32 1026 12 16093 5.7 110 22:41 12.06.2020
1445 Clouds 32 1027 15 16093 8.7 150 22:19 12.06.2020
1446 Clouds 31 1027 15 16093 8.7 150 21:54 12.06.2020
1447 Clouds 31 1027 15 16093 8.7 150 21:36 12.06.2020
1448 Clouds 31 1027 15 16093 8.7 150 21:18 12.06.2020
1449 Clouds 30 1027 16 16093 7.2 160 20:41 12.06.2020
1450 Clouds 29 1027 16 16093 7.2 160 20:22 12.06.2020
1451 Clouds 29 1028 20 16093 7.2 180 19:57 12.06.2020
1452 Clouds 29 1028 20 16093 7.2 180 19:57 12.06.2020
1453 Clouds 28 1028 20 16093 7.2 180 19:39 12.06.2020
1454 Clouds 28 1028 20 16093 7.2 180 19:19 12.06.2020
1455 Clear 27 1029 24 16093 7.2 180 18:39 12.06.2020
1456 Clear 24 1029 24 16093 7.2 180 18:19 12.06.2020
1457 Clear 24 1029 27 16093 5.7 180 17:58 12.06.2020
1458 Clear 23 1029 27 16093 5.7 180 17:39 12.06.2020
1459 Clear 23 1029 27 16093 5.7 180 17:19 12.06.2020
1460 Clear 21 1029 34 16093 5.7 190 16:44 12.06.2020
1461 Clear 20 1029 34 16093 5.7 190 16:20 12.06.2020
1462 Clear 18 1030 44 16093 6.2 190 15:49 12.06.2020
1463 Clear 16 1030 44 16093 6.2 190 15:26 12.06.2020
1464 Clear 15 1030 50 16093 5.7 180 14:58 12.06.2020
1465 Clear 14 1030 50 16093 5.7 180 14:39 12.06.2020
1466 Clear 14 1030 50 16093 5.7 180 14:21 12.06.2020
1467 Clear 13 1030 50 16093 5.1 180 13:42 12.06.2020
1468 Clear 13 1030 50 16093 5.1 180 13:21 12.06.2020
1469 Clear 13 1030 50 16093 5.7 190 12:41 12.06.2020
1470 Clear 13 1030 50 16093 5.7 190 12:41 12.06.2020
1471 Clear 13 1030 50 16093 5.7 190 12:41 12.06.2020
1472 Clear 14 1030 50 16093 5.7 190 12:20 12.06.2020
1473 Clear 14 1030 47 16093 4.6 190 11:58 12.06.2020
1474 Clear 14 1030 47 16093 4.6 190 11:39 12.06.2020
1475 Clear 14 1030 47 16093 4.6 190 11:21 12.06.2020
1476 Clear 14 1030 44 16093 6.2 190 10:46 12.06.2020
1477 Clear 14 1030 44 16093 6.2 190 10:24 12.06.2020
1478 Clouds 15 1030 41 16093 4.6 180 09:47 12.06.2020
1479 Clouds 15 1030 41 16093 4.6 180 09:21 12.06.2020
1480 Clouds 16 1030 38 16093 3.6 180 08:45 12.06.2020
1481 Clouds 16 1030 38 16093 3.6 180 08:25 12.06.2020
1482 Clouds 17 1029 31 16093 5.1 150 07:44 12.06.2020
1483 Clouds 17 1029 31 16093 5.1 150 07:26 12.06.2020
1484 Clouds 18 1029 39 16093 4.6 140 06:55 12.06.2020
1485 Clouds 18 1029 39 16093 4.6 140 06:30 12.06.2020
1486 Clouds 19 1028 36 16093 3.1 130 05:55 12.06.2020
1487 Clouds 20 1028 36 16093 3.1 130 05:31 12.06.2020
1488 Clouds 22 1028 23 16093 2.6 90 04:59 12.06.2020
1489 Clouds 26 1027 17 16093 4.6 70 03:24 12.06.2020
1490 Clouds 27 1027 15 16093 4.1 60 01:55 12.06.2020
1491 Clouds 27 1027 15 16093 4.1 60 01:27 12.06.2020
1492 Clouds 27 1027 16 16093 3.1 40 00:45 12.06.2020
1493 Clouds 27 1027 16 16093 3.1 40 00:25 12.06.2020
1494 Clouds 27 1028 14 16093 3.6 40 23:59 11.06.2020
1495 Clouds 27 1028 14 16093 3.6 40 23:41 11.06.2020
1496 Clouds 27 1028 14 16093 3.6 40 23:21 11.06.2020
1497 Clouds 27 1028 16 16093 1.5 80 22:57 11.06.2020
1498 Clouds 27 1028 16 16093 1.5 80 22:38 11.06.2020
1499 Clouds 27 1028 16 16093 1.5 80 22:20 11.06.2020
1500 Clouds 26 1029 17 16093 3.43 114 21:56 11.06.2020
1501 Clouds 26 1029 17 16093 3.35 124 21:37 11.06.2020
1502 Clouds 26 1029 17 16093 3.35 124 21:19 11.06.2020
1503 Clouds 26 1029 17 16093 3.6 20 20:43 11.06.2020
1504 Clouds 26 1029 18 16093 3.6 20 20:21 11.06.2020
1505 Clouds 25 1029 18 16093 3.1 60 19:55 11.06.2020
1506 Clouds 25 1029 18 16093 3.1 60 19:36 11.06.2020
1507 Clouds 24 1029 20 16093 3.1 60 19:18 11.06.2020
1508 Clear 24 1024 19 0 3.08 140 18:41 11.06.2020
1509 Clouds 23 1029 26 16093 2.1 320 18:20 11.06.2020
1510 Clouds 22 1029 26 16093 2.1 320 18:20 11.06.2020
1511 Clear 22 1029 30 16093 2.1 200 17:56 11.06.2020
1512 Clear 21 1029 30 16093 2.1 200 17:37 11.06.2020
1513 Clear 21 1020 40 0 0.79 208 17:19 11.06.2020
1514 Clear 19 1024 36 0 0.79 208 16:55 11.06.2020
1515 Clouds 19 1028 44 16093 4.1 230 16:37 11.06.2020
1516 Clear 18 1024 40 0 1.08 227 16:18 11.06.2020
1517 Clouds 14 1028 54 16093 2.6 200 15:42 11.06.2020
1518 Clouds 14 1027 57 16093 3.1 190 15:23 11.06.2020
1519 Clouds 12 1027 57 16093 3.1 190 14:55 11.06.2020
1520 Clouds 11 1027 57 16093 3.1 190 14:37 11.06.2020
1521 Clouds 10 1027 53 16093 3.1 210 14:19 11.06.2020
1522 Clouds 10 1027 53 16093 3.1 210 13:54 11.06.2020
1523 Clouds 10 1027 53 16093 3.1 210 13:36 11.06.2020
1524 Clouds 10 1027 57 16093 4.1 190 13:18 11.06.2020
1525 Clouds 11 1027 57 16093 4.1 190 12:39 11.06.2020
1526 Clear 11 1026 54 16093 3.6 200 12:20 11.06.2020
1527 Clear 11 1026 54 16093 3.6 200 11:59 11.06.2020
1528 Clear 11 1026 54 16093 3.6 200 11:40 11.06.2020
1529 Clear 12 1026 50 16093 3.1 190 11:22 11.06.2020
1530 Clear 12 1026 50 16093 3.1 190 10:57 11.06.2020
1531 Clear 13 1026 50 16093 3.1 190 10:39 11.06.2020
1532 Clear 13 1026 50 16093 3.1 190 10:39 11.06.2020
1533 Clear 13 1026 50 16093 3.1 190 10:18 11.06.2020
1534 Clear 13 1026 50 16093 4.6 200 09:42 11.06.2020
1535 Clouds 13 1026 54 16093 5.1 210 09:24 11.06.2020
1536 Clouds 14 1026 54 16093 5.1 210 08:44 11.06.2020
1537 Clouds 14 1026 54 16093 5.1 210 08:44 11.06.2020
1538 Clouds 14 1026 54 16093 3.6 230 08:21 11.06.2020
1539 Clouds 14 1026 54 16093 3.6 230 07:59 11.06.2020
1540 Clouds 15 1026 54 16093 3.6 230 07:41 11.06.2020
1541 Clouds 15 1026 54 16093 3.6 230 07:20 11.06.2020
1542 Clouds 16 1026 51 16093 5.7 170 06:29 11.06.2020
1543 Clouds 18 1024 48 16093 4.1 120 05:46 11.06.2020
1544 Clouds 22 1024 23 16093 2.6 80 03:56 11.06.2020
1545 Clouds 23 1023 21 16093 2.6 300 03:24 11.06.2020
1546 Clouds 24 1023 21 16093 2.6 300 02:32 11.06.2020
1547 Clouds 24 1023 19 16093 3.1 20 01:53 11.06.2020
1548 Clouds 24 1024 19 16093 3.6 60 01:31 11.06.2020
1549 Clouds 24 1024 19 16093 3.6 60 00:51 11.06.2020
1550 Clouds 24 1024 19 16093 3.6 60 00:30 11.06.2020
1551 Clouds 24 1024 23 16093 4.6 120 23:49 10.06.2020
1552 Clouds 24 1024 24 16093 2.6 20 23:27 10.06.2020
1553 Clouds 24 1024 24 16093 2.6 20 22:59 10.06.2020
1554 Clouds 24 1024 24 16093 2.6 20 22:38 10.06.2020
1555 Clear 23 1016 24 0 0.89 21 22:20 10.06.2020
1556 Clear 23 1019 17 0 0.45 284 21:58 10.06.2020
1557 Clear 23 1020 16 0 0.89 289 21:40 10.06.2020
1558 Clear 23 1017 22 0 1.34 336 21:18 10.06.2020
1559 Clear 22 1020 18 0 3.7 353 20:57 10.06.2020
1560 Clear 22 1020 18 0 3.7 353 20:57 10.06.2020
1561 Clear 22 1020 21 0 3.7 353 20:39 10.06.2020
1562 Clear 22 1020 20 0 2.68 348 20:21 10.06.2020
1563 Clear 21 1020 23 0 2.68 348 19:41 10.06.2020
1564 Clear 20 1018 27 0 0.45 329 19:20 10.06.2020
1565 Clear 20 1018 30 0 0.45 315 18:59 10.06.2020
1566 Clear 19 1018 30 0 0.45 1 18:41 10.06.2020
1567 Clouds 18 1025 25 16093 5.1 280 18:20 10.06.2020
1568 Clouds 18 1025 25 16093 5.1 280 18:20 10.06.2020
1569 Clear 18 1019 40 0 0.45 149 17:56 10.06.2020
1570 Clouds 17 1025 25 16093 2.1 190 17:37 10.06.2020
1571 Clear 16 1019 46 0 0.45 137 17:19 10.06.2020
1572 Clear 15 1021 37 0 2.26 270 16:57 10.06.2020
1573 Clear 14 1021 39 0 1.79 137 16:39 10.06.2020
1574 Clear 14 1021 42 0 0.45 147 16:20 10.06.2020
1575 Clouds 11 1025 61 16093 2.6 200 15:41 10.06.2020
1576 Clear 10 1023 51 0 1.34 169 15:22 10.06.2020
1577 Clouds 8 1025 37 16093 4.1 200 14:58 10.06.2020
1578 Clear 7 1021 63 0 2.82 232 14:39 10.06.2020
1579 Clouds 7 1025 75 16093 3.1 130 14:20 10.06.2020
1580 Clouds 7 1025 75 16093 3.1 130 13:41 10.06.2020
1581 Clear 7 1019 59 0 2.03 169 13:21 10.06.2020
1582 Clear 8 1023 48 0 2.03 169 12:45 10.06.2020
1583 Clear 9 1018 44 0 1.94 143 12:23 10.06.2020
1584 Clouds 9 1024 61 16093 3.1 90 11:59 10.06.2020
1585 Clouds 9 1024 61 16093 3.1 90 11:40 10.06.2020
1586 Clouds 10 1024 61 16093 3.1 90 11:19 10.06.2020
1587 Clouds 10 1023 57 16093 3.1 90 10:57 10.06.2020
1588 Clouds 11 1023 57 16093 3.1 90 10:39 10.06.2020
1589 Clouds 11 1023 57 16093 3.1 90 10:20 10.06.2020
1590 Clear 14 1022 40 16093 4.1 290 09:42 10.06.2020
1591 Clear 14 1022 36 16093 4.1 290 09:23 10.06.2020
1592 Clear 14 1021 37 16093 5.7 270 08:57 10.06.2020
1593 Clear 14 1017 35 0 0.45 324 08:38 10.06.2020
1594 Clouds 15 1021 35 16093 5.7 290 08:20 10.06.2020
1595 Clouds 15 1021 35 16093 5.7 290 07:39 10.06.2020
1596 Clouds 15 1021 35 16093 5.7 290 07:20 10.06.2020
1597 Clouds 15 1020 35 16093 6.2 280 06:44 10.06.2020
1598 Clouds 15 1020 35 16093 6.2 280 06:23 10.06.2020
1599 Clouds 15 1019 33 16093 5.1 280 05:56 10.06.2020
1600 Clouds 15 1019 30 16093 6.2 280 05:26 10.06.2020
1601 Clouds 15 1019 30 16093 6.2 280 04:35 10.06.2020
1602 Clouds 18 1018 23 16093 8.7 330 02:57 10.06.2020
1603 Clouds 18 1018 24 16093 7.7 320 02:21 10.06.2020
1604 Clouds 19 1018 24 16093 7.7 320 01:36 10.06.2020
1605 Rain 19 1017 25 16093 9.8 340 00:40 10.06.2020
1606 Clouds 19 1017 25 16093 9.8 340 00:21 10.06.2020
1607 Clouds 19 1017 25 16093 9.8 340 00:21 10.06.2020
1608 Rain 19 1013 20 0 1.34 279 23:56 09.06.2020
1609 Rain 19 1013 22 0 10.55 306 23:38 09.06.2020
1610 Rain 18 1017 36 16093 10.8 10 23:19 09.06.2020
1611 Rain 18 1017 36 16093 10.8 10 22:55 09.06.2020
1612 Rain 17 1017 36 16093 10.8 10 22:37 09.06.2020
1613 Rain 16 1018 47 16093 10.3 10 22:19 09.06.2020
1614 Rain 16 1018 47 16093 10.3 10 21:56 09.06.2020
1615 Rain 16 1018 47 16093 10.3 10 21:37 09.06.2020
1616 Rain 15 1014 43 0 5.99 336 21:19 09.06.2020
1617 Rain 14 1014 44 0 5.99 336 20:56 09.06.2020
1618 Rain 14 1014 43 0 0.89 30 20:38 09.06.2020
1619 Rain 13 1011 52 0 0.89 133 20:18 09.06.2020
1620 Rain 12 1014 48 0 0.45 21 19:55 09.06.2020
1621 Rain 12 1011 62 0 0.45 76 19:37 09.06.2020
1622 Rain 11 1011 64 0 0.45 83 19:18 09.06.2020
1623 Rain 10 1014 58 0 7.13 354 18:45 09.06.2020
1624 Rain 10 1014 68 0 7.47 355 18:26 09.06.2020
1625 Rain 9 1018 93 16093 7.2 360 17:57 09.06.2020
1626 Rain 8 1018 93 16093 7.2 360 17:39 09.06.2020
1627 Rain 8 1014 80 0 0.45 275 17:21 09.06.2020
1628 Rain 7 1018 93 9656 7.2 350 16:56 09.06.2020
1629 Rain 7 1018 93 9656 7.2 350 16:56 09.06.2020
1630 Rain 6 1018 93 9656 7.2 350 16:37 09.06.2020
1631 Rain 6 1011 90 0 8.32 2 16:19 09.06.2020
1632 Rain 6 1017 100 9656 8.7 320 15:40 09.06.2020
1633 Rain 6 1016 93 8047 9.8 320 15:21 09.06.2020
1634 Rain 6 1016 93 8047 9.8 320 14:57 09.06.2020
1635 Rain 5 1016 93 8047 9.8 320 14:38 09.06.2020
1636 Rain 5 1016 93 11265 11.8 320 14:19 09.06.2020
1637 Rain 5 1016 93 11265 11.8 320 13:54 09.06.2020
1638 Rain 5 1016 93 11265 11.8 320 13:36 09.06.2020
1639 Rain 5 1016 93 11265 11.8 320 13:36 09.06.2020
1640 Rain 5 1016 93 11265 11.8 320 13:18 09.06.2020
1641 Rain 5 1017 93 12874 8.7 330 12:41 09.06.2020
1642 Rain 5 1017 93 12874 8.7 330 12:20 09.06.2020
1643 Rain 5 1016 93 16093 11.8 350 11:56 09.06.2020
1644 Rain 5 1016 93 16093 11.8 350 11:38 09.06.2020
1645 Rain 6 1015 100 4828 10.3 350 11:19 09.06.2020
1646 Rain 6 1015 100 4828 10.3 350 10:54 09.06.2020
1647 Mist 6 1015 100 4828 10.3 350 10:36 09.06.2020
1648 Rain 6 1014 81 16093 14.9 360 10:18 09.06.2020
1649 Rain 6 1014 75 16093 12.9 350 09:40 09.06.2020
1650 Rain 7 1014 75 16093 12.9 350 09:19 09.06.2020
1651 Rain 8 1009 77 0 9.87 348 08:40 09.06.2020
1652 Rain 8 1012 65 16093 13.9 10 08:21 09.06.2020
1653 Clouds 10 1012 57 16093 11.8 10 07:43 09.06.2020
1654 Clouds 10 1012 57 16093 11.8 10 07:23 09.06.2020
1655 Clouds 11 1011 57 16093 8.2 10 06:56 09.06.2020
1656 Clouds 11 1011 57 16093 8.2 10 06:36 09.06.2020
1657 Clouds 12 1011 62 16093 10.8 350 05:53 09.06.2020
1658 Rain 14 1005 46 0 1.34 314 04:22 09.06.2020
1659 Clouds 23 1004 17 16093 2.1 90 02:47 09.06.2020
1660 Clouds 24 1005 20 16093 6.2 70 01:38 09.06.2020
1661 Clouds 25 1001 20 0 0.45 23 01:19 09.06.2020
1662 Clouds 25 1006 21 16093 5.1 110 00:44 09.06.2020
1663 Clouds 25 1008 23 16093 6.2 100 00:19 09.06.2020
1664 Clouds 25 1008 23 16093 6.2 100 23:42 08.06.2020
1665 Clouds 25 1009 25 16093 3.6 130 23:22 08.06.2020
1666 Clouds 24 1009 25 16093 3.6 130 22:59 08.06.2020
1667 Clouds 24 1009 25 16093 3.6 130 22:39 08.06.2020
1668 Clouds 24 1010 28 16093 7.7 80 22:20 08.06.2020
1669 Clouds 24 1010 28 16093 7.7 80 21:56 08.06.2020
1670 Clear 23 996 28 0 2.24 148 21:38 08.06.2020
1671 Clear 22 997 27 0 0.89 80 21:19 08.06.2020
1672 Clear 22 1006 25 0 0.45 135 20:55 08.06.2020
1673 Clear 22 1006 25 0 0.45 135 20:55 08.06.2020
1674 Clear 22 1006 26 0 5.6 118 20:36 08.06.2020
1675 Clear 22 1006 27 0 4.66 102 20:18 08.06.2020
1676 Clear 21 1006 28 0 0.45 360 19:43 08.06.2020
1677 Clear 21 1006 28 0 0.45 360 19:43 08.06.2020
1678 Clear 21 1006 29 0 3.92 92 19:21 08.06.2020
1679 Clear 20 1007 32 0 3.92 92 18:44 08.06.2020
1680 Clear 20 1006 33 0 3.22 95 18:21 08.06.2020
1681 Clear 19 1007 35 0 3.22 95 17:58 08.06.2020
1682 Clear 19 1007 38 0 0.89 164 17:40 08.06.2020
1683 Clear 19 1007 38 0 0.89 164 17:40 08.06.2020
1684 Clear 19 1007 37 0 2.54 89 17:22 08.06.2020
1685 Clear 18 1007 42 0 2.54 89 16:58 08.06.2020
1686 Clear 17 1007 42 0 1.79 151 16:39 08.06.2020
1687 Clear 17 1007 45 0 1.34 156 16:21 08.06.2020
1688 Clear 15 1007 51 0 0.89 158 15:43 08.06.2020
1689 Clear 14 1007 54 0 0.45 154 15:22 08.06.2020
1690 Clear 12 1007 58 0 1.34 149 14:58 08.06.2020
1691 Clear 12 1007 58 0 1.34 149 14:58 08.06.2020
1692 Clear 12 998 71 0 2 14 14:39 08.06.2020
1693 Clear 11 1006 64 0 4.42 5 14:19 08.06.2020
1694 Clear 11 1006 62 0 4.42 5 13:43 08.06.2020
1695 Clear 11 1009 71 0 1.25 238 13:23 08.06.2020
1696 Clear 12 1008 68 0 1.25 238 12:43 08.06.2020
1697 Clear 12 997 59 0 3.58 179 12:20 08.06.2020
1698 Clear 12 997 59 0 3.58 179 12:20 08.06.2020
1699 Clear 13 1008 64 0 3.58 179 11:59 08.06.2020
1700 Clear 14 1008 71 16093 4.1 20 11:40 08.06.2020
1701 Clear 14 1005 51 0 4.28 181 11:21 08.06.2020
1702 Clear 14 1005 51 0 4.28 181 11:21 08.06.2020
1703 Clear 14 1007 57 0 0.45 92 10:58 08.06.2020
1704 Clear 15 993 53 0 0.45 5 10:38 08.06.2020
1705 Clear 15 992 53 0 0.45 5 10:20 08.06.2020
1706 Clear 16 992 51 0 1.34 5 09:57 08.06.2020
1707 Clear 16 992 51 0 1.34 5 09:57 08.06.2020
1708 Clear 16 992 50 0 1.34 324 09:39 08.06.2020
1709 Clear 17 1016 54 0 0.89 329 09:20 08.06.2020
1710 Clear 18 1005 34 16093 5.1 340 08:41 08.06.2020
1711 Clouds 19 1005 21 16093 2.6 190 08:20 08.06.2020
1712 Clouds 21 1005 21 16093 2.6 190 07:42 08.06.2020
1713 Clouds 22 1005 21 16093 2.6 190 07:21 08.06.2020
1714 Clouds 23 1004 17 16093 3.6 170 06:43 08.06.2020
1715 Clouds 25 1003 12 16093 5.7 190 06:25 08.06.2020
1716 Clouds 26 1003 12 16093 5.7 190 05:42 08.06.2020
1717 Clouds 29 1001 11 16093 11.8 210 03:43 08.06.2020
1718 Clouds 31 1001 10 16093 12.3 190 02:27 08.06.2020
1719 Clouds 31 1001 10 16093 12.3 190 01:45 08.06.2020
1720 Clouds 31 1001 10 16093 12.3 190 01:20 08.06.2020
1721 Clouds 31 1002 10 16093 13.4 180 00:28 08.06.2020
1722 Clouds 31 1002 10 16093 13.4 180 23:40 07.06.2020
1723 Clouds 31 1003 11 16093 10.3 190 23:19 07.06.2020
1724 Clouds 31 1003 11 16093 10.3 190 22:58 07.06.2020
1725 Clouds 31 1003 11 16093 10.3 190 22:38 07.06.2020
1726 Clouds 31 1004 11 16093 11.3 210 22:19 07.06.2020
1727 Clouds 30 1004 11 16093 11.3 210 21:58 07.06.2020
1728 Clouds 30 1004 11 16093 11.3 210 21:37 07.06.2020
1729 Clouds 30 1005 13 16093 8.7 190 21:19 07.06.2020
1730 Clouds 29 1005 13 16093 8.7 190 20:40 07.06.2020
1731 Clouds 29 1006 14 16093 8.7 200 20:21 07.06.2020
1732 Clouds 29 1006 14 16093 8.7 200 19:59 07.06.2020
1733 Clouds 28 1006 14 16093 8.7 200 19:41 07.06.2020
1734 Clouds 28 1006 15 16093 8.7 200 19:21 07.06.2020
1735 Clouds 27 1007 16 16093 5.1 190 19:00 07.06.2020
1736 Clouds 27 1007 16 16093 5.1 190 18:39 07.06.2020
1737 Clouds 25 1007 16 16093 5.1 190 18:21 07.06.2020
1738 Clouds 25 1007 16 16093 5.1 190 18:21 07.06.2020
1739 Clouds 24 1007 17 16093 6.7 220 17:58 07.06.2020
1740 Clouds 23 1007 17 16093 6.7 220 17:39 07.06.2020
1741 Clear 22 1003 20 0 1.34 140 17:21 07.06.2020
1742 Clear 21 1003 36 0 2.74 189 16:43 07.06.2020
1743 Clear 20 1003 35 0 1.5 188 16:22 07.06.2020
1744 Clouds 16 1008 47 16093 1.5 188 15:44 07.06.2020
1745 Clouds 16 1008 47 16093 1.5 188 15:44 07.06.2020
1746 Clouds 14 1007 66 16093 1.36 216 15:22 07.06.2020
1747 Clouds 11 1007 66 16093 1.36 216 14:41 07.06.2020
1748 Clouds 11 1007 71 16093 2.1 210 14:23 07.06.2020
1749 Rain 10 1007 71 16093 2.1 210 13:59 07.06.2020
1750 Rain 10 1007 71 16093 2.1 210 13:41 07.06.2020
1751 Rain 10 1007 71 16093 2.1 210 13:41 07.06.2020
1752 Rain 10 1007 71 16093 2.1 210 13:41 07.06.2020
1753 Rain 10 1007 71 16093 2.1 210 13:41 07.06.2020
1754 Rain 10 1007 71 16093 2.1 210 13:41 07.06.2020
1755 Rain 10 1007 81 16093 3.6 180 13:19 07.06.2020
1756 Clear 11 1007 81 16093 3.6 180 12:43 07.06.2020
1757 Clear 11 1007 81 16093 3.6 180 12:43 07.06.2020
1758 Clear 11 1007 81 16093 3.6 180 12:24 07.06.2020
1759 Clear 12 1007 76 16093 3.1 190 11:55 07.06.2020
1760 Clear 12 1007 76 16093 3.1 190 11:37 07.06.2020
1761 Clear 12 1008 71 16093 2.6 190 11:19 07.06.2020
1762 Clear 12 1008 71 16093 2.6 190 10:54 07.06.2020
1763 Clear 12 1003 71 0 1.38 210 10:36 07.06.2020
1764 Clear 12 996 79 0 1.5 217 10:18 07.06.2020
1765 Clear 13 1008 62 16093 2.1 180 09:41 07.06.2020
1766 Clear 13 996 78 0 4.72 188 09:22 07.06.2020
1767 Clear 14 1008 63 16093 2.1 220 08:59 07.06.2020
1768 Clear 14 1008 63 16093 2.1 220 08:41 07.06.2020
1769 Clear 15 996 75 0 4.1 183 08:22 07.06.2020
1770 Rain 16 1008 59 16093 2.6 230 07:41 07.06.2020
1771 Clear 16 1008 55 16093 4.6 240 06:56 07.06.2020
1772 Clear 17 1008 55 16093 4.6 240 06:21 07.06.2020
1773 Rain 20 1007 40 16093 6.2 170 04:49 07.06.2020
1774 Clouds 22 1007 40 16093 3.6 160 04:18 07.06.2020
1775 Rain 22 1007 55 16093 10.3 180 02:26 07.06.2020
1776 Rain 21 1007 55 16093 10.3 180 01:39 07.06.2020
1777 Rain 20 1008 67 16093 12.3 160 01:21 07.06.2020
1778 Thunderstorm 21 1009 72 6437 14.9 190 00:39 07.06.2020
1779 Clouds 21 989 28 0 4.02 213 00:18 07.06.2020
1780 Clouds 27 1007 26 16093 15.4 160 23:38 06.06.2020
1781 Rain 28 1009 26 16093 14.9 160 23:20 06.06.2020
1782 Clouds 29 1009 26 16093 14.9 160 22:58 06.06.2020
1783 Clouds 29 1009 26 16093 14.9 160 22:40 06.06.2020
1784 Clouds 28 1011 28 16093 17 170 22:20 06.06.2020
1785 Clouds 27 1011 28 16093 17 170 21:58 06.06.2020
1786 Rain 26 1005 27 0 0.45 141 21:39 06.06.2020
1787 Clouds 25 1006 30 0 13.68 183 21:20 06.06.2020
1788 Clouds 24 1012 38 16093 10.8 190 20:41 06.06.2020
1789 Clouds 23 1012 38 16093 10.8 190 20:21 06.06.2020
1790 Clouds 22 1008 34 0 3.13 194 19:58 06.06.2020
1791 Clouds 22 1008 43 0 13.99 182 19:40 06.06.2020
1792 Clouds 22 1009 44 0 10.15 198 19:22 06.06.2020
1793 Clouds 21 1010 45 0 2.68 194 18:56 06.06.2020
1794 Rain 21 1015 63 16093 7.2 200 18:38 06.06.2020
1795 Clouds 21 999 49 0 3.13 132 18:20 06.06.2020
1796 Clouds 22 1000 46 0 2.68 184 17:43 06.06.2020
1797 Clouds 23 1012 39 0 2.24 202 17:21 06.06.2020
1798 Clouds 23 1012 39 0 2.24 202 17:21 06.06.2020
1799 Clouds 24 1011 31 0 2.24 144 16:57 06.06.2020
1800 Clouds 24 1010 31 0 0.89 138 16:38 06.06.2020
1801 Clouds 24 999 36 0 0.45 159 16:20 06.06.2020
1802 Clouds 24 1014 33 16093 4.6 200 15:45 06.06.2020
1803 Clouds 23 1013 33 16093 5.1 190 15:20 06.06.2020
1804 Clouds 22 1013 33 16093 5.1 190 14:59 06.06.2020
1805 Clouds 22 1013 33 16093 5.1 190 14:38 06.06.2020
1806 Clouds 22 1013 33 16093 5.1 200 14:19 06.06.2020
1807 Clouds 21 1013 33 16093 5.1 200 13:47 06.06.2020
1808 Clouds 22 1013 33 16093 5.1 200 13:19 06.06.2020
1809 Clouds 22 1013 33 16093 5.1 200 13:19 06.06.2020
1810 Clouds 22 1014 30 16093 8.7 190 12:57 06.06.2020
1811 Clouds 22 1014 30 16093 8.7 190 12:57 06.06.2020
1812 Clouds 22 1014 30 16093 8.7 190 12:39 06.06.2020
1813 Clouds 22 1014 31 16093 7.2 190 12:19 06.06.2020
1814 Clouds 22 1014 31 16093 7.2 190 11:55 06.06.2020
1815 Clouds 22 1014 31 16093 7.7 200 11:36 06.06.2020
1816 Clouds 22 1014 31 16093 7.7 200 11:18 06.06.2020
1817 Clouds 22 1014 31 16093 7.7 200 10:55 06.06.2020
1818 Clouds 22 1014 31 16093 7.7 200 10:36 06.06.2020
1819 Clouds 22 1015 33 16093 4.6 220 10:18 06.06.2020
1820 Clouds 23 1015 33 16093 4.6 220 09:41 06.06.2020
1821 Clouds 23 1010 26 0 0.45 151 09:23 06.06.2020
1822 Clouds 23 1000 32 0 0.89 152 08:48 06.06.2020
1823 Clouds 24 1016 25 16093 8.2 150 08:24 06.06.2020
1824 Clouds 25 1016 25 16093 8.2 150 07:56 06.06.2020
1825 Clouds 25 1016 25 16093 8.2 150 07:38 06.06.2020
1826 Clouds 25 1016 25 16093 8.2 150 07:19 06.06.2020
1827 Clouds 26 1016 25 16093 9.3 150 06:43 06.06.2020
1828 Clouds 26 1016 25 16093 9.3 150 06:43 06.06.2020
1829 Clouds 26 1016 25 16093 9.3 150 06:43 06.06.2020
1830 Clouds 26 1016 25 16093 9.3 150 06:25 06.06.2020
1831 Clouds 27 1016 23 16093 4.1 170 05:33 06.06.2020
1832 Clouds 27 1017 21 16093 6.7 190 04:50 06.06.2020
1833 Rain 28 1012 18 0 0.89 133 03:29 06.06.2020
1834 Clouds 29 1011 16 0 0.45 180 02:26 06.06.2020
1835 Clouds 31 1016 14 16093 5.1 190 01:23 06.06.2020
1836 Clouds 32 1016 14 16093 5.1 190 00:56 06.06.2020
1837 Clouds 32 1016 14 16093 5.1 190 00:38 06.06.2020
1838 Clouds 31 1017 13 16093 4.1 140 00:20 06.06.2020
1839 Clouds 32 1017 13 16093 4.1 140 23:40 05.06.2020
1840 Clouds 32 1017 13 16093 5.1 210 23:19 05.06.2020
1841 Clouds 33 1017 13 16093 5.1 210 22:56 05.06.2020
1842 Clouds 33 1017 13 16093 5.1 210 22:38 05.06.2020
1843 Clouds 32 1018 13 16093 2.1 200 22:19 05.06.2020
1844 Clouds 32 1018 13 16093 2.1 200 21:43 05.06.2020
1845 Clouds 31 1018 11 16093 3.6 160 21:23 05.06.2020
1846 Clouds 32 1018 14 16093 3.6 160 21:23 05.06.2020
1847 Clouds 31 1018 14 16093 3.6 160 20:58 05.06.2020
1848 Clouds 31 1018 14 16093 3.6 160 20:40 05.06.2020
1849 Clouds 31 1018 18 16093 3.6 160 20:21 05.06.2020
1850 Clouds 30 1019 18 16093 2.6 160 19:44 05.06.2020
1851 Clouds 30 1019 18 16093 2.6 160 19:24 05.06.2020
1852 Clouds 30 1019 21 16093 3.1 180 18:58 05.06.2020
1853 Clouds 30 1019 21 16093 3.1 180 18:58 05.06.2020
1854 Clouds 29 1019 21 16093 3.1 180 18:39 05.06.2020
1855 Clouds 27 1019 21 16093 3.1 180 18:20 05.06.2020
1856 Clouds 26 1020 26 16093 3.1 180 17:58 05.06.2020
1857 Clouds 25 1020 26 16093 3.1 180 17:40 05.06.2020
1858 Clouds 24 1019 33 16093 4.6 150 17:19 05.06.2020
1859 Clouds 22 1019 33 16093 4.6 150 16:39 05.06.2020
1860 Clear 22 1015 33 0 0.89 147 16:21 05.06.2020
1861 Clouds 19 1019 39 16093 4.6 140 15:56 05.06.2020
1862 Clouds 18 1019 39 16093 4.6 140 15:37 05.06.2020
1863 Clouds 17 1019 47 16093 4.6 130 15:19 05.06.2020
1864 Clouds 17 1019 47 16093 4.6 130 15:19 05.06.2020
1865 Clouds 15 1019 47 16093 4.6 130 14:41 05.06.2020
1866 Clouds 15 1018 45 16093 1.5 190 14:22 05.06.2020
1867 Clouds 16 1018 45 16093 1.5 190 13:59 05.06.2020
1868 Clouds 16 1018 45 16093 1.5 190 13:41 05.06.2020
1869 Clouds 16 1018 45 16093 1.5 190 13:22 05.06.2020
1870 Clouds 17 1018 36 16093 2.1 210 12:43 05.06.2020
1871 Clouds 17 1018 42 16093 4.6 200 12:20 05.06.2020
1872 Clouds 18 1018 42 16093 4.6 200 11:57 05.06.2020
1873 Clouds 18 1018 42 16093 4.6 200 11:39 05.06.2020
1874 Clouds 18 1018 45 16093 4.1 200 11:20 05.06.2020
1875 Clouds 18 1018 45 16093 4.1 200 10:54 05.06.2020
1876 Clouds 18 1018 37 16093 1.5 310 10:36 05.06.2020
1877 Clouds 18 1018 37 16093 1.5 310 10:18 05.06.2020
1878 Clouds 19 1018 37 16093 1.5 310 09:55 05.06.2020
1879 Clouds 19 1018 37 16093 1.5 310 09:36 05.06.2020
1880 Clouds 19 1018 42 16093 6.2 210 09:18 05.06.2020
1881 Clouds 19 1018 42 16093 6.2 210 08:41 05.06.2020
1882 Clouds 19 1018 45 16093 5.1 220 08:20 05.06.2020
1883 Clouds 20 1018 45 16093 5.1 220 07:56 05.06.2020
1884 Clouds 20 1018 45 16093 5.1 220 07:37 05.06.2020
1885 Clouds 21 1017 45 16093 3.6 220 06:56 05.06.2020
1886 Clouds 22 1017 37 16093 4.6 200 05:41 05.06.2020
1887 Clouds 23 1016 27 16093 4.6 240 05:18 05.06.2020
1888 Clouds 25 1012 24 0 6.49 311 03:53 05.06.2020
1889 Clouds 26 1016 24 16093 2.6 250 02:44 05.06.2020
1890 Clouds 26 1016 26 16093 3.6 240 02:18 05.06.2020
1891 Clouds 27 1016 26 16093 3.6 240 01:49 05.06.2020
1892 Clouds 26 1018 26 16093 6.7 180 00:58 05.06.2020
1893 Clouds 26 1018 26 16093 6.7 180 00:39 05.06.2020
1894 Clouds 26 1018 26 16093 6.7 180 00:19 05.06.2020
1895 Clouds 26 1004 25 0 1.34 262 23:46 04.06.2020
1896 Clouds 26 1013 22 0 0.89 295 23:46 04.06.2020
1897 Thunderstorm 25 1016 24 16093 12.3 310 23:24 04.06.2020
1898 Thunderstorm 25 1016 24 16093 12.3 310 22:44 04.06.2020
1899 Rain 25 1004 42 0 0.45 36 22:22 04.06.2020
1900 Clouds 29 1016 16 16093 4.35 171 21:59 04.06.2020
1901 Clouds 31 1016 16 16093 4.35 171 21:40 04.06.2020
1902 Clouds 31 1017 16 16093 2.6 360 21:21 04.06.2020
1903 Clouds 30 1017 16 16093 2.6 360 20:57 04.06.2020
1904 Clouds 30 1017 16 16093 2.6 360 20:39 04.06.2020
1905 Clouds 30 1017 16 16093 0.48 255 20:20 04.06.2020
1906 Clouds 30 1017 16 16093 0.48 255 19:55 04.06.2020
1907 Clouds 29 1017 16 16093 0.48 255 19:37 04.06.2020
1908 Clouds 29 1017 16 16093 1.2 173 19:19 04.06.2020
1909 Clouds 28 1018 24 16093 3.6 240 18:39 04.06.2020
1910 Clouds 27 1018 24 16093 3.6 240 18:21 04.06.2020
1911 Clear 26 1013 25 0 0.89 166 17:59 04.06.2020
1912 Clear 26 1013 26 0 1.97 181 17:41 04.06.2020
1913 Clear 24 1005 34 0 0.45 153 17:20 04.06.2020
1914 Clouds 22 1018 40 16093 3.6 200 16:41 04.06.2020
1915 Clear 21 1005 43 0 0.45 145 16:20 04.06.2020
1916 Clouds 19 1018 51 16093 2.6 180 15:47 04.06.2020
1917 Clear 17 1020 38 0 0.89 281 15:27 04.06.2020
1918 Clouds 16 1018 54 16093 4.6 180 14:58 04.06.2020
1919 Clouds 15 1018 54 16093 4.6 180 14:38 04.06.2020
1920 Clouds 15 1018 58 16093 4.6 180 14:19 04.06.2020
1921 Clouds 15 1018 58 16093 4.6 180 13:42 04.06.2020
1922 Clouds 15 1018 54 16093 4.1 170 13:21 04.06.2020
1923 Clouds 15 1018 54 16093 4.1 170 12:59 04.06.2020
1924 Clouds 15 1018 54 16093 4.1 170 12:41 04.06.2020
1925 Clouds 16 1018 54 16093 4.1 170 12:23 04.06.2020
1926 Clouds 16 1018 48 16093 2.6 310 11:56 04.06.2020
1927 Clouds 16 1018 48 16093 2.6 310 11:38 04.06.2020
1928 Clouds 17 1018 48 16093 2.6 310 11:19 04.06.2020
1929 Clouds 18 1018 48 16093 3.1 200 10:43 04.06.2020
1930 Clouds 19 1019 45 16093 3.6 220 10:23 04.06.2020
1931 Clouds 19 1019 45 16093 3.6 220 09:58 04.06.2020
1932 Clouds 19 1019 45 16093 3.6 220 09:40 04.06.2020
1933 Clouds 20 1019 42 16093 4.6 200 09:22 04.06.2020
1934 Clouds 20 1019 42 16093 4.6 200 08:44 04.06.2020
1935 Clouds 19 1019 42 16093 4.6 200 08:25 04.06.2020
1936 Clouds 20 1019 45 16093 4.1 190 07:47 04.06.2020
1937 Clouds 20 1015 34 0 5.01 212 07:26 04.06.2020
1938 Clouds 21 1015 31 0 0.45 155 06:43 04.06.2020
1939 Clouds 21 1015 29 0 0.89 148 06:24 04.06.2020
1940 Clouds 22 1015 27 0 5.13 204 05:34 04.06.2020
1941 Clouds 23 1017 36 0 1.85 175 04:31 04.06.2020
1942 Thunderstorm 25 1019 27 16093 5.7 360 03:23 04.06.2020
1943 Clouds 27 1013 17 0 1.34 28 01:56 04.06.2020
1944 Rain 29 1012 15 0 0.89 162 01:19 04.06.2020
1945 Clouds 32 1017 14 16093 4.1 270 00:40 04.06.2020
1946 Clouds 32 1018 14 16093 1.5 290 23:41 03.06.2020
1947 Clouds 32 1019 15 16093 1.5 340 23:20 03.06.2020
1948 Clouds 31 1019 15 16093 1.5 340 22:58 03.06.2020
1949 Clouds 31 1019 15 16093 1.5 340 22:58 03.06.2020
1950 Clouds 31 1019 15 16093 1.5 340 22:39 03.06.2020
1951 Clouds 31 1020 16 16093 2.6 360 22:18 03.06.2020
1952 Clouds 31 1020 16 16093 2.6 360 21:56 03.06.2020
1953 Clouds 31 1020 16 16093 2.6 360 21:38 03.06.2020
1954 Clouds 30 1021 17 16093 2.6 30 21:20 03.06.2020
1955 Clouds 30 1021 17 16093 2.6 30 20:43 03.06.2020
1956 Clear 29 1016 16 0 2.51 70 20:22 03.06.2020
1957 Clouds 29 1021 28 16093 3.1 360 19:58 03.06.2020
1958 Clouds 28 1021 28 16093 3.1 360 19:40 03.06.2020
1959 Clouds 28 1021 28 16093 3.1 360 19:22 03.06.2020
1960 Clear 27 1017 33 0 1.06 58 18:59 03.06.2020
1961 Clear 26 1008 46 0 0.45 163 18:41 03.06.2020
1962 Clouds 24 1022 46 16093 0.16 343 18:20 03.06.2020
1963 Clear 24 1017 51 0 0.16 343 17:54 03.06.2020
1964 Clouds 23 1022 46 16093 3.1 290 17:36 03.06.2020
1965 Clear 22 1008 65 0 0.89 156 17:18 03.06.2020
1966 Clouds 21 1022 48 16093 2.6 290 16:41 03.06.2020
1967 Clear 20 1021 59 0 1.41 346 16:20 03.06.2020
1968 Clouds 19 1022 55 16093 1.5 250 15:55 03.06.2020
1969 Clouds 19 1022 55 16093 1.5 250 15:55 03.06.2020
1970 Clouds 18 1022 55 16093 1.5 250 15:37 03.06.2020
1971 Clear 17 1021 63 0 0.45 192 15:19 03.06.2020
1972 Clear 15 1009 63 0 0.72 291 14:45 03.06.2020
1973 Clouds 15 1021 71 16093 3.1 140 14:24 03.06.2020
1974 Clouds 14 1021 71 16093 3.1 140 13:54 03.06.2020
1975 Clouds 15 1021 71 16093 3.1 140 13:36 03.06.2020
1976 Clouds 15 1021 71 16093 3.1 140 13:18 03.06.2020
1977 Clouds 15 1021 67 16093 2.6 180 12:42 03.06.2020
1978 Clouds 16 1021 67 16093 2.6 180 12:19 03.06.2020
1979 Clouds 16 1021 67 16093 2.6 180 12:19 03.06.2020
1980 Clouds 16 1022 63 16093 3.6 180 11:44 03.06.2020
1981 Clouds 16 1023 67 16093 3.6 180 11:25 03.06.2020
1982 Clouds 16 1023 67 16093 3.6 180 10:44 03.06.2020
1983 Clouds 16 1023 67 16093 3.6 180 10:44 03.06.2020
1984 Clouds 16 1023 63 16093 3.1 210 10:25 03.06.2020
1985 Clouds 17 1023 63 16093 3.1 210 09:58 03.06.2020
1986 Clouds 17 1023 63 16093 3.1 210 09:37 03.06.2020
1987 Clouds 18 1024 72 16093 2.6 290 09:18 03.06.2020
1988 Clouds 18 1024 72 16093 2.6 290 08:47 03.06.2020
1989 Clouds 19 1009 68 0 2.46 21 08:22 03.06.2020
1990 Clouds 20 1023 72 16093 4.6 120 07:50 03.06.2020
1991 Rain 21 1020 59 0 2.81 21 07:24 03.06.2020
1992 Clouds 21 1023 64 16093 6.7 100 06:59 03.06.2020
1993 Clouds 22 1023 64 16093 6.7 100 06:41 03.06.2020
1994 Clouds 22 1023 64 16093 6.7 100 06:21 03.06.2020
1995 Clouds 22 1022 40 16093 4.1 100 05:44 03.06.2020
1996 Clouds 25 1019 33 0 5.29 45 04:20 03.06.2020
1997 Clouds 28 1021 23 16093 2.6 60 03:41 03.06.2020
1998 Clouds 28 1021 24 16093 4.6 50 02:34 03.06.2020
1999 Clouds 28 1021 22 16093 2.6 70 01:42 03.06.2020
2000 Clouds 29 1021 17 16093 3.6 110 00:38 03.06.2020
2001 Clouds 30 1022 21 16093 2.6 100 00:19 03.06.2020
2002 Clouds 30 1022 21 16093 2.6 100 23:43 02.06.2020
2003 Clouds 31 1017 16 0 0.45 225 23:24 02.06.2020
2004 Clouds 30 1022 24 16093 3.6 70 22:40 02.06.2020
2005 Clouds 30 1022 26 16093 4.6 40 22:19 02.06.2020
2006 Clouds 30 1022 26 16093 4.6 40 21:57 02.06.2020
2007 Clouds 29 1022 26 16093 4.6 40 21:39 02.06.2020
2008 Clouds 29 1023 21 16093 5.1 70 21:21 02.06.2020
2009 Clouds 29 1023 21 16093 5.1 70 20:59 02.06.2020
2010 Clouds 29 1023 21 16093 5.1 70 20:41 02.06.2020
2011 Clouds 29 1019 18 0 4.85 49 20:22 02.06.2020
2012 Clouds 29 1008 22 0 0.89 59 19:46 02.06.2020
2013 Clouds 28 1022 24 16093 6.2 70 19:27 02.06.2020
2014 Clouds 28 1022 21 16093 6.7 10 18:59 02.06.2020
2015 Clouds 28 1022 21 16093 6.7 10 18:41 02.06.2020
2016 Clouds 28 1022 21 16093 6.7 10 18:21 02.06.2020
2017 Clouds 27 1022 31 16093 3.1 340 17:59 02.06.2020
2018 Clouds 27 1022 31 16093 3.1 340 17:41 02.06.2020
2019 Clouds 26 1008 35 0 1.3 318 17:21 02.06.2020
2020 Clouds 24 1017 37 0 1.3 318 16:56 02.06.2020
2021 Clouds 24 1017 35 0 1.3 318 16:38 02.06.2020
2022 Clouds 23 1017 42 0 1.59 251 16:19 02.06.2020
2023 Clouds 21 1020 52 16093 3.6 190 15:41 02.06.2020
2024 Clouds 20 1020 52 16093 3.6 180 15:22 02.06.2020
2025 Clouds 19 1020 52 16093 3.6 180 14:49 02.06.2020
2026 Clouds 18 1020 52 16093 3.6 180 14:30 02.06.2020
2027 Clouds 17 1019 48 16093 4.1 180 13:57 02.06.2020
2028 Clouds 18 1019 48 16093 4.1 180 13:38 02.06.2020
2029 Clouds 18 1019 48 16093 4.1 180 13:19 02.06.2020
2030 Clouds 18 1019 48 16093 4.1 190 12:57 02.06.2020
2031 Clouds 18 1019 48 16093 4.1 190 12:39 02.06.2020
2032 Clouds 18 1019 48 16093 4.1 190 12:20 02.06.2020
2033 Clouds 19 1019 48 16093 4.1 190 11:54 02.06.2020
2034 Clouds 19 1019 48 16093 4.1 190 11:36 02.06.2020
2035 Clouds 19 1020 48 16093 4.6 170 11:18 02.06.2020
2036 Clouds 20 1020 48 16093 4.6 170 10:44 02.06.2020
2037 Clouds 20 1020 48 16093 3.6 220 10:25 02.06.2020
2038 Clouds 21 1020 48 16093 3.6 220 09:44 02.06.2020
2039 Clouds 21 1020 42 16093 2.1 200 09:22 02.06.2020
2040 Clouds 21 1020 42 16093 2.1 200 08:57 02.06.2020
2041 Clouds 22 1020 42 16093 2.1 200 08:36 02.06.2020
2042 Clouds 22 1020 42 16093 2.1 200 08:18 02.06.2020
2043 Clouds 23 1020 33 16093 2.1 230 07:39 02.06.2020
2044 Clouds 23 1020 40 16093 3.6 220 07:19 02.06.2020
2045 Clouds 23 1020 40 16093 3.6 220 06:43 02.06.2020
2046 Clouds 24 1019 38 16093 4.1 210 05:45 02.06.2020
2047 Clouds 25 1018 36 16093 3.6 240 04:54 02.06.2020
2048 Clouds 29 1018 30 16093 2.6 170 03:19 02.06.2020
2049 Clouds 30 1018 19 16093 2.1 130 02:18 02.06.2020
2050 Clouds 31 1018 18 16093 4.6 40 00:53 02.06.2020
2051 Clouds 31 1019 17 16093 3.6 130 00:22 02.06.2020
2052 Clouds 31 1019 17 16093 3.6 130 23:39 01.06.2020
2053 Clouds 31 1019 19 16093 4.1 60 23:21 01.06.2020
2054 Clouds 31 1019 19 16093 4.1 60 22:58 01.06.2020
2055 Clouds 31 1019 19 16093 4.1 60 22:39 01.06.2020
2056 Clouds 31 1019 19 16093 4.1 60 22:39 01.06.2020
2057 Clouds 32 1020 19 16093 6.2 80 22:19 01.06.2020
2058 Clouds 32 1020 19 16093 6.2 80 22:19 01.06.2020
2059 Clouds 32 1020 19 16093 6.2 80 21:55 01.06.2020
2060 Clouds 32 1020 19 16093 6.2 80 21:36 01.06.2020
2061 Clouds 32 1006 21 0 0.45 59 21:18 01.06.2020
2062 Clouds 32 1021 20 16093 4.1 350 20:43 01.06.2020
2063 Clouds 31 1006 19 0 0.45 181 20:21 01.06.2020
2064 Clouds 31 1021 21 16093 2.6 40 20:21 01.06.2020
2065 Clouds 31 1021 21 16093 2.6 40 19:59 01.06.2020
2066 Clouds 30 1021 21 16093 2.6 40 19:41 01.06.2020
2067 Clouds 29 1021 21 16093 2.6 40 19:20 01.06.2020
2068 Clouds 29 1017 21 0 1 150 18:58 01.06.2020
2069 Clouds 29 1021 28 16093 1.5 130 18:39 01.06.2020
2070 Clouds 27 1021 28 16093 1.5 130 18:19 01.06.2020
2071 Clouds 26 1017 26 0 0.89 157 17:54 01.06.2020
2072 Clouds 26 1017 29 0 0.77 190 17:36 01.06.2020
2073 Clouds 25 1008 42 0 0.89 152 17:18 01.06.2020
2074 Clouds 23 1017 39 0 1.14 193 16:39 01.06.2020
2075 Clouds 22 1021 46 16093 4.1 200 16:20 01.06.2020
2076 Clouds 21 1016 47 0 1.34 144 15:55 01.06.2020
2077 Clouds 20 1021 63 16093 2.1 160 15:36 01.06.2020
2078 Clear 18 1016 53 0 0.45 164 15:18 01.06.2020
2079 Clouds 16 1020 62 16093 3.6 200 14:54 01.06.2020
2080 Clouds 15 1020 62 16093 3.6 200 14:36 01.06.2020
2081 Clouds 15 1020 59 16093 3.1 200 14:18 01.06.2020
2082 Clouds 15 1020 59 16093 3.1 200 13:41 01.06.2020
2083 Clouds 15 1019 67 16093 4.1 180 13:21 01.06.2020
2084 Clouds 16 1019 67 16093 4.1 180 12:58 01.06.2020
2085 Clouds 16 1019 67 16093 4.1 180 12:39 01.06.2020
2086 Clouds 16 1019 67 16093 4.1 180 12:39 01.06.2020
2087 Clouds 16 1019 67 16093 4.1 180 12:20 01.06.2020
2088 Clouds 17 1020 52 16093 3.6 180 11:42 01.06.2020
2089 Clouds 17 1020 52 16093 3.6 180 11:23 01.06.2020
2090 Clouds 18 1020 48 16093 5.1 200 10:59 01.06.2020
2091 Clouds 19 1020 48 16093 5.1 200 10:39 01.06.2020
2092 Clouds 19 1020 48 16093 5.1 200 10:20 01.06.2020
2093 Clouds 19 1020 45 16093 5.1 210 09:57 01.06.2020
2094 Clouds 19 1020 45 16093 5.1 210 09:39 01.06.2020
2095 Clouds 20 1020 45 16093 5.1 210 09:20 01.06.2020
2096 Clouds 20 1020 52 16093 4.6 200 08:50 01.06.2020
2097 Clouds 20 1020 52 16093 4.6 200 08:25 01.06.2020
2098 Clouds 21 1020 45 16093 6.2 190 07:45 01.06.2020
2099 Clouds 21 1020 45 16093 6.2 190 07:27 01.06.2020
2100 Clouds 21 1020 45 16093 6.2 190 06:58 01.06.2020
2101 Clouds 21 1020 45 16093 6.2 190 06:24 01.06.2020
2102 Clouds 21 1019 43 16093 5.7 190 05:53 01.06.2020
2103 Clouds 22 1019 43 16093 6.2 190 04:25 01.06.2020
2104 Clouds 23 1019 43 16093 5.7 200 03:47 01.06.2020
2105 Clouds 23 1019 43 16093 5.7 200 03:24 01.06.2020
2106 Clouds 24 1019 33 16093 6.7 200 01:50 01.06.2020
2107 Clouds 24 1019 33 16093 6.7 200 01:30 01.06.2020
2108 Rain 23 1022 36 0 1.34 178 00:57 01.06.2020
2109 Clouds 25 1019 29 16093 6.7 210 00:39 01.06.2020
2110 Clouds 26 1019 29 16093 6.7 210 00:21 01.06.2020
2111 Clear 27 1019 24 16093 8.21 225 23:56 31.05.2020
2112 Clear 27 1019 24 16093 8.21 225 23:37 31.05.2020
2113 Clear 27 1019 24 16093 9.05 260 23:19 31.05.2020
2114 Clouds 28 1019 23 16093 3.1 150 22:43 31.05.2020
2115 Clouds 28 1019 23 16093 3.1 150 22:25 31.05.2020
2116 Clouds 29 1015 20 0 3.3 125 21:58 31.05.2020
2117 Clouds 29 1020 26 16093 2.1 70 21:39 31.05.2020
2118 Clouds 29 1020 26 16093 2.1 70 21:39 31.05.2020
2119 Clouds 29 1020 26 16093 2.1 70 21:21 31.05.2020
2120 Clouds 29 1020 26 16093 2.1 70 21:21 31.05.2020
2121 Clouds 30 1020 26 16093 2.1 70 20:57 31.05.2020
2122 Clouds 29 1020 26 16093 2.1 70 20:38 31.05.2020
2123 Clouds 29 1020 26 16093 2.1 70 20:19 31.05.2020
2124 Clouds 28 1016 27 0 2.08 121 19:54 31.05.2020
2125 Clouds 28 1016 27 0 2.08 121 19:36 31.05.2020
2126 Clouds 27 1021 36 16093 2.1 330 19:18 31.05.2020
2127 Clouds 25 1021 46 16093 1.5 240 18:43 31.05.2020
2128 Clouds 23 1021 46 16093 1.5 240 18:22 31.05.2020
2129 Clouds 22 1017 46 0 1.19 194 17:44 31.05.2020
2130 Clouds 21 1021 60 16093 1.5 290 17:24 31.05.2020
2131 Clouds 20 1017 60 0 1.81 192 16:55 31.05.2020
2132 Clouds 20 1021 68 16093 2.1 240 16:37 31.05.2020
2133 Clouds 19 1010 67 0 0.87 213 16:18 31.05.2020
2134 Clouds 17 1021 77 16093 1.5 250 15:39 31.05.2020
2135 Clouds 15 1021 77 16093 1.5 250 15:21 31.05.2020
2136 Clouds 14 1021 76 16093 2.1 220 14:47 31.05.2020
2137 Clouds 13 1021 76 16093 2.1 220 14:20 31.05.2020
2138 Clouds 13 1020 71 16093 2.6 220 13:56 31.05.2020
2139 Clouds 13 1020 71 16093 2.6 220 13:37 31.05.2020
2140 Clouds 14 1020 71 16093 2.6 220 13:19 31.05.2020
2141 Clouds 14 1016 71 0 0.89 319 12:55 31.05.2020
2142 Clouds 14 1020 63 16093 1.5 260 12:37 31.05.2020
2143 Clouds 14 1020 63 16093 1.5 260 12:18 31.05.2020
2144 Clouds 15 1020 63 16093 4.6 210 12:18 31.05.2020
2145 Clouds 15 1016 65 0 1.15 306 11:44 31.05.2020
2146 Clouds 16 1021 67 16093 4.6 190 11:21 31.05.2020
2147 Clouds 16 1021 67 16093 4.6 190 10:55 31.05.2020
2148 Clouds 16 1021 67 16093 4.6 190 10:37 31.05.2020
2149 Clouds 16 1021 67 16093 4.6 190 10:18 31.05.2020
2150 Clouds 17 1022 63 16093 5.1 200 09:42 31.05.2020
2151 Clouds 17 1022 63 16093 4.6 210 09:22 31.05.2020
2152 Clouds 17 1022 63 16093 4.6 210 08:56 31.05.2020
2153 Clouds 18 1022 63 16093 4.6 210 08:36 31.05.2020
2154 Clouds 19 1023 59 16093 2.1 240 08:18 31.05.2020
2155 Clouds 19 1023 59 16093 2.1 240 07:39 31.05.2020
2156 Clouds 19 1023 59 16093 2.1 240 07:18 31.05.2020
2157 Clouds 20 1022 52 16093 3.6 350 06:49 31.05.2020
2158 Clouds 20 1022 52 16093 3.6 350 06:31 31.05.2020
2159 Clouds 21 1022 49 16093 3.6 250 05:40 31.05.2020
2160 Clouds 22 1022 46 16093 2.1 250 04:22 31.05.2020
2161 Clouds 23 1022 50 16093 3.1 190 03:47 31.05.2020
2162 Clouds 24 1021 47 16093 3.6 100 02:58 31.05.2020
2163 Clouds 25 1022 44 16093 3.1 100 01:47 31.05.2020
2164 Clouds 25 1022 36 16093 3.6 100 00:52 31.05.2020
2165 Clouds 26 1022 36 16093 3.6 100 00:28 31.05.2020
2166 Clouds 27 1022 34 16093 4.1 120 23:43 30.05.2020
2167 Clouds 28 1022 34 16093 4.1 120 23:25 30.05.2020
2168 Clouds 28 1022 32 16093 4.1 50 22:58 30.05.2020
2169 Clouds 28 1022 32 16093 4.1 50 22:40 30.05.2020
2170 Clouds 28 1022 32 16093 4.1 50 22:21 30.05.2020
2171 Clouds 28 1023 36 16093 5.1 70 21:55 30.05.2020
2172 Clouds 28 1023 36 16093 5.1 70 21:36 30.05.2020
2173 Clouds 28 1023 36 16093 5.1 70 21:18 30.05.2020
2174 Clouds 27 1023 34 16093 4.6 60 20:54 30.05.2020
2175 Clouds 28 1023 34 16093 4.6 60 20:36 30.05.2020
2176 Clouds 28 1023 34 16093 4.6 60 20:36 30.05.2020
2177 Clouds 27 1023 34 16093 4.6 60 20:18 30.05.2020
2178 Clear 27 1019 27 0 4.15 68 19:41 30.05.2020
2179 Clouds 27 1023 41 16093 3.6 60 19:21 30.05.2020
2180 Clear 26 1019 32 0 0.45 28 18:44 30.05.2020
2181 Clear 26 1019 34 0 2.54 45 18:21 30.05.2020
2182 Clear 25 1019 38 0 2.54 45 17:43 30.05.2020
2183 Clear 24 1019 38 0 0.79 16 17:25 30.05.2020
2184 Clear 23 1022 52 0 0.79 16 16:59 30.05.2020
2185 Clear 22 1022 58 0 0.45 191 16:40 30.05.2020
2186 Clouds 21 1023 63 16093 4.1 230 16:21 30.05.2020
2187 Clear 18 1023 54 0 1.4 200 15:44 30.05.2020
2188 Clouds 17 1023 77 16093 3.6 230 15:26 30.05.2020
2189 Clouds 16 1019 71 0 1.87 211 14:45 30.05.2020
2190 Clouds 15 1019 72 0 1.68 227 14:26 30.05.2020
2191 Clouds 15 1023 76 16093 3.1 280 13:44 30.05.2020
2192 Clouds 15 1023 76 16093 3.1 280 13:25 30.05.2020
2193 Clouds 16 1022 59 16093 2.1 230 12:42 30.05.2020
2194 Clouds 16 1022 59 16093 2.1 230 12:22 30.05.2020
2195 Clouds 16 1022 48 16093 2.6 250 11:58 30.05.2020
2196 Clouds 16 1022 48 16093 2.6 250 11:40 30.05.2020
2197 Clouds 17 1022 48 16093 2.6 250 11:22 30.05.2020
2198 Clouds 17 1021 52 16093 4.6 220 10:54 30.05.2020
2199 Clouds 18 1021 52 16093 4.6 220 10:36 30.05.2020
2200 Clouds 18 1022 48 16093 5.1 210 10:18 30.05.2020
2201 Clouds 19 1022 48 16093 5.1 210 09:41 30.05.2020
2202 Clouds 19 1022 48 16093 5.1 210 09:23 30.05.2020
2203 Clouds 20 1022 49 16093 5.1 200 08:40 30.05.2020
2204 Clouds 20 1022 52 16093 5.7 200 08:21 30.05.2020
2205 Clouds 20 1022 49 16093 5.1 200 08:21 30.05.2020
2206 Clouds 21 1022 52 16093 5.7 200 07:38 30.05.2020
2207 Clouds 21 1022 52 16093 5.7 200 07:18 30.05.2020
2208 Clouds 21 1022 45 16093 5.1 210 06:25 30.05.2020
2209 Clouds 21 1022 49 16093 5.7 200 05:49 30.05.2020
2210 Clouds 23 1021 43 16093 6.2 180 04:33 30.05.2020
2211 Clear 25 1008 32 0 0.45 163 02:34 30.05.2020
2212 Thunderstorm 26 1021 38 16093 6.2 170 01:56 30.05.2020
2213 Clouds 30 1021 22 16093 3.1 110 00:44 30.05.2020
2214 Clouds 30 1021 22 16093 3.1 110 00:23 30.05.2020
2215 Clouds 31 1021 23 16093 1.5 90 23:59 29.05.2020
2216 Clouds 31 1021 23 16093 1.5 90 23:38 29.05.2020
2217 Clouds 31 1021 23 16093 1.5 90 23:19 29.05.2020
2218 Clouds 30 1022 26 16093 2.6 100 22:42 29.05.2020
2219 Clouds 30 1022 26 16093 2.6 100 22:21 29.05.2020
2220 Clouds 30 1022 32 16093 3.6 140 22:00 29.05.2020
2221 Clouds 29 1022 32 16093 3.6 140 21:39 29.05.2020
2222 Clouds 28 1022 32 16093 3.6 140 21:20 29.05.2020
2223 Clouds 28 1023 36 16093 2.1 60 20:56 29.05.2020
2224 Clouds 27 1023 36 16093 2.1 60 20:37 29.05.2020
2225 Clouds 27 1023 36 16093 2.1 60 20:37 29.05.2020
2226 Clouds 27 1023 36 16093 2.1 60 20:18 29.05.2020
2227 Clear 25 1019 35 0 2.82 103 19:42 29.05.2020
2228 Clouds 25 1023 46 16093 1.72 113 19:24 29.05.2020
2229 Clear 23 1019 46 0 0.45 336 18:48 29.05.2020
2230 Clouds 21 1024 56 16093 1.3 150 18:23 29.05.2020
2231 Clear 21 1020 57 0 1.3 150 17:58 29.05.2020
2232 Clouds 20 1024 63 16093 1.5 180 17:39 29.05.2020
2233 Clouds 19 1024 63 16093 1.5 180 17:20 29.05.2020
2234 Clouds 18 1025 72 16093 1.34 159 16:46 29.05.2020
2235 Clouds 18 1025 72 16093 1.39 158 16:28 29.05.2020
2236 Clear 16 1020 75 0 1.39 158 15:58 29.05.2020
2237 Clear 15 1020 77 0 1.39 158 15:40 29.05.2020
2238 Clouds 14 1025 76 16093 2.6 210 15:20 29.05.2020
2239 Clouds 13 1025 76 16093 2.6 210 14:52 29.05.2020
2240 Clouds 12 1025 76 16093 2.6 210 14:25 29.05.2020
2241 Clear 12 1025 71 16093 2.1 230 13:59 29.05.2020
2242 Clear 12 1023 89 0 0.38 82 13:41 29.05.2020
2243 Clear 12 1025 71 16093 2.1 230 13:21 29.05.2020
2244 Clouds 12 1025 76 16093 3.6 210 12:45 29.05.2020
2245 Clouds 13 1025 76 16093 3.6 210 12:26 29.05.2020
2246 Clouds 13 1025 71 16093 6.2 200 11:58 29.05.2020
2247 Clouds 13 1025 71 16093 6.2 200 11:58 29.05.2020
2248 Clouds 14 1025 71 16093 6.2 200 11:40 29.05.2020
2249 Clouds 14 1025 71 16093 6.2 200 11:22 29.05.2020
2250 Clouds 15 1026 67 16093 4.6 180 10:42 29.05.2020
2251 Clouds 15 1026 67 16093 4.6 180 10:21 29.05.2020
2252 Clouds 16 1026 63 16093 5.1 180 09:56 29.05.2020
2253 Clouds 16 1026 63 16093 5.1 180 09:37 29.05.2020
2254 Clouds 16 1026 63 16093 5.1 180 09:18 29.05.2020
2255 Clouds 17 1027 63 16093 4.6 160 08:44 29.05.2020
2256 Clouds 18 1027 63 16093 4.6 160 08:22 29.05.2020
2257 Clouds 18 1017 58 0 1.88 30 07:46 29.05.2020
2258 Clouds 18 1023 53 0 2.59 39 07:28 29.05.2020
2259 Clouds 19 1026 68 16093 3.6 80 06:52 29.05.2020
2260 Rain 19 1027 63 16093 2.6 10 06:30 29.05.2020
2261 Clouds 19 1026 59 16093 2.52 41 05:58 29.05.2020
2262 Clouds 20 1026 59 16093 2.31 39 05:24 29.05.2020
2263 Clouds 23 1025 53 16093 3.1 130 01:48 29.05.2020
2264 Clouds 23 1025 53 16093 3.1 130 01:26 29.05.2020
2265 Clouds 22 1025 49 16093 1.5 150 00:50 29.05.2020
2266 Clouds 22 1025 49 16093 1.5 150 00:23 29.05.2020
2267 Clouds 22 1026 52 16093 1.5 300 23:41 28.05.2020
2268 Clouds 21 1026 52 16093 1.5 300 23:20 28.05.2020
2269 Clouds 21 1026 60 16093 2.6 50 22:59 28.05.2020
2270 Rain 21 1026 60 16093 2.6 50 22:40 28.05.2020
2271 Rain 20 1027 63 16093 2.1 20 22:20 28.05.2020
2272 Clouds 20 1027 63 16093 2.1 20 21:55 28.05.2020
2273 Clouds 20 1027 63 16093 2.1 20 21:36 28.05.2020
2274 Clouds 19 1027 63 16093 2.1 20 21:18 28.05.2020
2275 Clouds 19 1027 72 16093 3.6 350 20:41 28.05.2020
2276 Rain 19 1027 72 16093 3.6 350 20:20 28.05.2020
2277 Rain 19 1023 61 0 3.72 40 19:58 28.05.2020
2278 Rain 19 1023 62 0 3.72 40 19:40 28.05.2020
2279 Clear 18 1017 61 0 0.45 62 19:20 28.05.2020
2280 Clear 18 1023 62 0 0.45 26 18:55 28.05.2020
2281 Clouds 18 1027 82 16093 3.6 10 18:36 28.05.2020
2282 Clouds 17 1027 82 16093 3.6 10 18:18 28.05.2020
2283 Clear 16 1022 71 0 3.22 38 17:40 28.05.2020
2284 Clear 16 1022 71 0 2.99 35 17:21 28.05.2020
2285 Rain 15 1016 74 0 2.99 35 16:46 28.05.2020
2286 Rain 14 1026 100 16093 3.6 350 16:21 28.05.2020
2287 Rain 14 1026 100 16093 4.1 350 15:55 28.05.2020
2288 Clouds 14 1026 100 16093 4.1 350 15:36 28.05.2020
2289 Clouds 13 1026 100 16093 4.1 350 15:18 28.05.2020
2290 Rain 12 1025 93 16093 3.6 320 14:42 28.05.2020
2291 Rain 12 1025 93 16093 3.6 320 14:22 28.05.2020
2292 Rain 12 1025 93 16093 3.6 320 14:22 28.05.2020
2293 Rain 12 1024 93 16093 4.1 320 13:46 28.05.2020
2294 Clouds 12 1024 93 16093 4.1 320 13:27 28.05.2020
2295 Clouds 13 1023 93 16093 3.1 320 12:44 28.05.2020
2296 Clouds 13 1023 93 16093 3.1 320 12:20 28.05.2020
2297 Rain 14 1022 87 16093 3.1 320 11:57 28.05.2020
2298 Rain 14 1022 87 16093 3.1 320 11:39 28.05.2020
2299 Rain 14 1022 93 16093 2.6 270 11:20 28.05.2020
2300 Clouds 14 1022 93 16093 2.6 270 10:46 28.05.2020
2301 Rain 14 1022 93 16093 2.6 270 10:28 28.05.2020
2302 Rain 14 1022 93 16093 5.1 300 09:57 28.05.2020
2303 Clouds 14 1022 93 16093 5.1 300 09:38 28.05.2020
2304 Clouds 15 1022 93 16093 5.1 300 09:18 28.05.2020
2305 Rain 15 1021 87 16093 4.1 190 08:44 28.05.2020
2306 Rain 15 1021 87 16093 4.1 190 08:24 28.05.2020
2307 Rain 15 1021 87 16093 4.1 180 07:43 28.05.2020
2308 Rain 15 1021 87 16093 4.1 180 07:23 28.05.2020
2309 Rain 16 1022 93 16093 1.5 220 06:45 28.05.2020
2310 Rain 16 1022 93 16093 1.5 220 06:27 28.05.2020
2311 Rain 16 1021 93 16093 4.1 180 05:39 28.05.2020
2312 Rain 17 1021 82 4828 12.3 270 04:38 28.05.2020
2313 Rain 17 1021 82 4828 12.3 270 04:18 28.05.2020
2314 Clouds 24 1018 29 16093 4.6 30 02:59 28.05.2020
2315 Clouds 24 1018 29 16093 4.6 30 02:38 28.05.2020
2316 Clouds 25 1018 29 16093 5.7 10 01:45 28.05.2020
2317 Clouds 25 1018 27 16093 9.8 10 00:49 28.05.2020
2318 Clouds 25 1018 27 16093 9.8 10 00:20 28.05.2020
2319 Clouds 26 1018 26 16093 2.72 286 23:56 27.05.2020
2320 Clouds 26 1018 26 16093 2.72 286 23:37 27.05.2020
2321 Clouds 27 1019 27 16093 1 52 23:19 27.05.2020
2322 Rain 27 1019 27 16093 1 52 22:41 27.05.2020
2323 Rain 27 1019 27 16093 2.29 54 22:23 27.05.2020
2324 Rain 27 1019 26 16093 2.1 70 21:56 27.05.2020
2325 Clouds 26 1019 26 16093 2.1 70 21:38 27.05.2020
2326 Clouds 26 1019 26 16093 2.1 70 21:20 27.05.2020
2327 Clouds 26 1020 29 16093 2.46 57 20:58 27.05.2020
2328 Clouds 26 1020 29 16093 2.46 57 20:58 27.05.2020
2329 Clouds 26 1020 29 16093 2.46 57 20:39 27.05.2020
2330 Clouds 25 1020 29 16093 2.57 62 20:19 27.05.2020
2331 Clouds 25 1020 31 16093 4.6 30 19:45 27.05.2020
2332 Clouds 24 1020 31 16093 4.6 30 19:21 27.05.2020
2333 Clear 24 1015 27 0 0.89 28 18:45 27.05.2020
2334 Clouds 23 1020 33 16093 0.83 129 18:21 27.05.2020
2335 Clouds 22 1020 40 16093 2.1 240 17:59 27.05.2020
2336 Clouds 22 1020 40 16093 2.1 240 17:40 27.05.2020
2337 Clouds 21 1020 40 16093 2.1 240 17:22 27.05.2020
2338 Clouds 19 1020 48 16093 2.6 220 16:56 27.05.2020
2339 Clouds 19 1020 48 16093 2.6 220 16:38 27.05.2020
2340 Clouds 18 1020 48 16093 2.6 220 16:19 27.05.2020
2341 Clouds 16 1020 66 16093 2.1 180 15:48 27.05.2020
2342 Clouds 13 1020 66 16093 2.1 180 15:22 27.05.2020
2343 Clouds 12 1020 66 16093 2.6 210 14:47 27.05.2020
2344 Clouds 11 1019 62 16093 2.6 210 14:22 27.05.2020
2345 Clouds 11 1019 62 16093 2.6 210 13:58 27.05.2020
2346 Clouds 11 1019 62 16093 2.6 210 13:39 27.05.2020
2347 Clouds 11 1019 62 16093 2.6 210 13:39 27.05.2020
2348 Rain 11 1019 62 16093 2.6 210 13:21 27.05.2020
2349 Clouds 12 1015 63 0 0.68 271 12:42 27.05.2020
2350 Clouds 12 1018 58 16093 1.5 200 12:23 27.05.2020
2351 Clouds 12 1018 58 16093 1.5 200 11:56 27.05.2020
2352 Clouds 12 1018 58 16093 1.5 200 11:37 27.05.2020
2353 Clouds 12 1018 58 16093 1.5 200 11:18 27.05.2020
2354 Clouds 13 1018 62 16093 4.1 190 10:43 27.05.2020
2355 Clouds 13 1018 62 16093 4.1 190 10:24 27.05.2020
2356 Clouds 13 1018 62 16093 3.6 190 09:57 27.05.2020
2357 Clouds 13 1018 62 16093 3.6 190 09:57 27.05.2020
2358 Clouds 13 1018 62 16093 3.6 190 09:39 27.05.2020
2359 Clouds 14 1018 62 16093 3.6 190 09:20 27.05.2020
2360 Clouds 14 1010 61 0 0.23 57 08:42 27.05.2020
2361 Clouds 14 1010 59 0 0.8 315 08:24 27.05.2020
2362 Clouds 15 1019 58 16093 3.1 130 07:53 27.05.2020
2363 Clouds 15 1009 55 0 0.8 315 07:34 27.05.2020
2364 Clouds 16 1018 47 16093 4.6 150 06:56 27.05.2020
2365 Clouds 16 1018 47 16093 4.6 150 06:30 27.05.2020
2366 Rain 17 1018 48 16093 3.1 100 05:50 27.05.2020
2367 Rain 18 1018 48 16093 3.1 100 05:28 27.05.2020
2368 Clouds 23 1017 25 16093 1.5 30 03:39 27.05.2020
2369 Rain 24 1017 22 16093 5.1 10 02:30 27.05.2020
2370 Clouds 25 1017 23 16093 5.7 350 01:32 27.05.2020
2371 Clouds 25 1017 23 16093 5.7 350 00:50 27.05.2020
2372 Clouds 25 1017 23 16093 4.6 40 00:24 27.05.2020
2373 Clouds 25 1017 23 16093 4.6 40 23:59 26.05.2020
2374 Rain 25 1017 23 16093 4.6 40 23:40 26.05.2020
2375 Rain 25 1012 17 0 0.89 22 23:22 26.05.2020
2376 Rain 24 1017 17 16093 3.6 10 22:58 26.05.2020
2377 Clouds 24 1017 18 16093 3.6 10 22:37 26.05.2020
2378 Rain 24 1017 18 16093 3.6 10 22:19 26.05.2020
2379 Rain 24 1010 26 0 0.45 56 21:55 26.05.2020
2380 Rain 24 1012 17 0 2.75 37 21:55 26.05.2020
2381 Rain 24 1013 16 0 0.45 40 21:36 26.05.2020
2382 Clouds 23 1018 19 16093 4.1 350 21:18 26.05.2020
2383 Rain 22 1018 19 16093 4.1 350 20:42 26.05.2020
2384 Rain 23 1018 19 16093 4.1 350 20:42 26.05.2020
2385 Rain 22 1018 20 16093 4.1 350 20:20 26.05.2020
2386 Rain 22 1018 24 16093 4.1 360 19:55 26.05.2020
2387 Rain 22 1018 24 16093 4.1 360 19:55 26.05.2020
2388 Clouds 21 1018 24 16093 4.1 360 19:36 26.05.2020
2389 Clear 21 1012 25 0 0.89 138 19:18 26.05.2020
2390 Clear 21 1012 25 0 0.89 138 19:18 26.05.2020
2391 Rain 20 1013 32 0 1.02 347 18:40 26.05.2020
2392 Clouds 18 1019 27 16093 2.6 310 18:21 26.05.2020
2393 Clear 17 1018 38 0 1.33 272 17:42 26.05.2020
2394 Clear 17 1018 46 0 1.74 227 17:24 26.05.2020
2395 Clear 15 1018 46 0 1.74 227 16:57 26.05.2020
2396 Clear 14 1018 52 0 1.74 227 16:39 26.05.2020
2397 Clouds 13 1019 50 16093 4.1 240 16:19 26.05.2020
2398 Clouds 11 1019 66 16093 3.6 230 15:42 26.05.2020
2399 Clouds 9 1019 66 16093 3.6 230 15:20 26.05.2020
2400 Clouds 7 1019 65 16093 3.1 210 14:56 26.05.2020
2401 Clouds 6 1019 65 16093 3.1 210 14:37 26.05.2020
2402 Rain 6 1019 65 16093 3.1 210 14:19 26.05.2020
2403 Clouds 6 1018 75 16093 4.6 200 13:41 26.05.2020
2404 Clouds 6 1018 75 16093 4.6 200 13:23 26.05.2020
2405 Clear 6 1018 75 16093 6.2 200 12:56 26.05.2020
2406 Clear 7 1018 75 16093 6.2 200 12:37 26.05.2020
2407 Clear 7 1018 75 16093 6.2 200 12:19 26.05.2020
2408 Clear 7 1019 75 16093 6.2 200 11:41 26.05.2020
2409 Clear 7 1020 81 16093 4.6 180 11:20 26.05.2020
2410 Rain 8 1020 81 16093 4.6 180 10:57 26.05.2020
2411 Rain 8 1020 81 16093 4.6 180 10:37 26.05.2020
2412 Rain 8 1020 81 16093 4.6 180 10:18 26.05.2020
2413 Clear 8 1020 81 16093 4.1 170 09:38 26.05.2020
2414 Clear 8 1020 81 16093 4.1 170 09:19 26.05.2020
2415 Clear 9 1021 75 16093 3.1 190 08:41 26.05.2020
2416 Clear 9 1021 75 16093 3.1 190 08:22 26.05.2020
2417 Clouds 9 1021 66 16093 4.1 150 07:43 26.05.2020
2418 Rain 10 1021 66 16093 4.1 150 07:23 26.05.2020
2419 Rain 10 1021 66 16093 3.6 150 06:54 26.05.2020
2420 Clouds 10 1021 66 16093 3.6 150 06:31 26.05.2020
2421 Clouds 12 1020 58 16093 2.1 90 05:44 26.05.2020
2422 Clouds 12 1020 58 16093 2.1 90 05:25 26.05.2020
2423 Rain 13 1020 50 16093 4.1 50 04:49 26.05.2020
2424 Clouds 14 1020 50 16093 4.1 50 04:30 26.05.2020
2425 Clouds 16 1016 35 0 0.45 4 03:50 26.05.2020
2426 Rain 17 1019 38 16093 4.6 20 02:40 26.05.2020
2427 Rain 17 1019 38 16093 3.6 330 01:47 26.05.2020
2428 Clouds 18 1019 36 16093 3.6 30 00:48 26.05.2020
2429 Rain 17 1019 36 16093 3.6 30 00:29 26.05.2020
2430 Rain 17 1020 41 16093 4.1 20 23:59 25.05.2020
2431 Rain 17 1015 36 0 3.44 42 23:39 25.05.2020
2432 Rain 17 1017 41 0 0.89 64 23:20 25.05.2020
2433 Rain 17 1020 41 16093 4.6 30 22:56 25.05.2020
2434 Rain 17 1020 41 16093 4.6 30 22:56 25.05.2020
2435 Rain 17 1020 41 16093 4.6 30 22:38 25.05.2020
2436 Rain 16 1021 44 16093 5.1 30 22:20 25.05.2020
2437 Rain 16 1021 44 16093 5.1 30 21:59 25.05.2020
2438 Rain 16 1021 44 16093 5.1 30 21:39 25.05.2020
2439 Rain 16 1021 44 16093 5.1 30 21:20 25.05.2020
2440 Rain 16 1018 46 0 0.89 55 20:59 25.05.2020
2441 Rain 15 1016 35 0 0.89 24 20:41 25.05.2020
2442 Rain 15 1021 50 16093 2.6 50 20:20 25.05.2020
2443 Rain 15 1017 37 0 0.45 11 19:57 25.05.2020
2444 Rain 14 1017 37 0 0.45 11 19:57 25.05.2020
2445 Rain 14 1017 42 0 1.93 49 19:38 25.05.2020
2446 Rain 14 1017 46 0 1.48 41 19:18 25.05.2020
2447 Rain 13 1017 51 0 0.89 198 18:43 25.05.2020
2448 Rain 11 1017 63 0 1.98 25 18:22 25.05.2020
2449 Rain 11 1017 65 0 1.98 25 17:56 25.05.2020
2450 Rain 10 1022 81 16093 3.6 310 17:38 25.05.2020
2451 Rain 9 1018 77 0 2.97 20 17:19 25.05.2020
2452 Rain 9 1021 100 16093 3.1 300 16:41 25.05.2020
2453 Rain 8 1021 100 16093 3.1 300 16:23 25.05.2020
2454 Rain 7 1022 93 16093 4.1 320 15:58 25.05.2020
2455 Rain 7 1022 93 16093 4.1 320 15:40 25.05.2020
2456 Clear 6 1019 96 0 4.25 7 15:18 25.05.2020
2457 Clear 6 1019 96 0 4.25 7 15:18 25.05.2020
2458 Rain 4 1021 100 16093 2.1 280 14:43 25.05.2020
2459 Rain 4 1021 100 16093 2.1 280 14:24 25.05.2020
2460 Rain 4 1021 100 16093 1.5 240 13:57 25.05.2020
2461 Rain 4 1021 100 16093 1.5 240 13:38 25.05.2020
2462 Rain 4 1021 100 16093 2.6 220 13:19 25.05.2020
2463 Rain 4 1021 100 16093 2.6 220 12:54 25.05.2020
2464 Rain 4 1021 100 16093 2.6 220 12:36 25.05.2020
2465 Rain 4 1021 100 16093 2.6 220 12:18 25.05.2020
2466 Rain 4 1020 100 16093 2.6 200 11:38 25.05.2020
2467 Rain 4 1020 100 16093 2.6 200 11:19 25.05.2020
2468 Rain 5 1020 100 16093 2.6 190 10:44 25.05.2020
2469 Rain 5 1020 100 16093 2.6 190 10:21 25.05.2020
2470 Rain 5 1020 100 16093 1.5 210 09:59 25.05.2020
2471 Rain 5 1020 100 16093 1.5 210 09:40 25.05.2020
2472 Rain 5 1020 100 16093 1.5 210 09:19 25.05.2020
2473 Rain 5 1020 100 16093 2.1 260 08:58 25.05.2020
2474 Rain 6 1020 100 16093 2.1 260 08:36 25.05.2020
2475 Rain 6 1020 100 16093 2.1 260 08:18 25.05.2020
2476 Rain 6 1020 100 16093 2.1 220 07:43 25.05.2020
2477 Rain 6 1016 91 0 1.51 305 07:21 25.05.2020
2478 Rain 6 1020 100 16093 3.1 200 06:50 25.05.2020
2479 Rain 6 1020 100 16093 3.1 200 06:31 25.05.2020
2480 Rain 6 1020 93 16093 3.39 350 04:18 25.05.2020
2481 Rain 6 1013 93 0 0.45 347 03:23 25.05.2020
2482 Rain 6 1018 100 11265 6.2 350 02:45 25.05.2020
2483 Rain 7 1019 100 4023 4.6 10 01:54 25.05.2020
2484 Rain 7 1019 100 4023 4.6 10 01:28 25.05.2020
2485 Rain 7 1019 100 4023 4.6 10 01:28 25.05.2020
2486 Mist 8 1017 100 4023 4.6 310 00:38 25.05.2020
2487 Rain 7 1017 100 4023 4.6 310 00:19 25.05.2020
2488 Rain 7 1017 100 8047 8.2 340 23:55 24.05.2020
2489 Rain 8 1016 87 11265 7.2 360 23:36 24.05.2020
2490 Thunderstorm 8 1016 87 11265 7.2 360 23:18 24.05.2020
2491 Rain 11 1016 81 6437 3.6 60 22:41 24.05.2020
2492 Rain 13 1016 81 6437 3.6 60 22:19 24.05.2020
2493 Rain 13 1015 44 16093 5.1 50 21:56 24.05.2020
2494 Rain 14 1015 44 16093 5.1 50 21:38 24.05.2020
2495 Rain 14 1015 44 16093 5.1 50 21:19 24.05.2020
2496 Clouds 15 1016 44 16093 6.2 20 20:44 24.05.2020
2497 Clouds 15 1016 44 16093 6.2 20 20:23 24.05.2020
2498 Rain 14 1016 47 16093 3.6 360 19:59 24.05.2020
2499 Rain 14 1016 47 16093 3.6 360 19:41 24.05.2020
2500 Clouds 13 1016 54 16093 2.6 350 19:19 24.05.2020
2501 Rain 13 1016 47 16093 3.6 360 19:19 24.05.2020
2502 Clouds 13 1016 54 16093 2.6 350 18:57 24.05.2020
2503 Clouds 13 1016 54 16093 2.6 350 18:38 24.05.2020
2504 Clouds 13 1016 54 16093 2.6 350 18:20 24.05.2020
2505 Clouds 12 1017 66 16093 1.5 30 17:41 24.05.2020
2506 Clouds 12 1017 66 16093 1.5 30 17:22 24.05.2020
2507 Clouds 12 1012 63 0 3.26 47 16:58 24.05.2020
2508 Clouds 12 1012 68 0 0.45 297 16:38 24.05.2020
2509 Clouds 11 1017 81 16093 2.94 52 16:20 24.05.2020
2510 Clouds 11 1012 73 0 2.94 52 15:57 24.05.2020
2511 Clouds 10 1013 73 0 2.94 52 15:38 24.05.2020
2512 Clouds 10 1017 87 16093 1.5 10 15:19 24.05.2020
2513 Clouds 10 1008 77 0 0.45 18 14:46 24.05.2020
2514 Clear 10 1005 79 0 0.89 11 14:24 24.05.2020
2515 Clear 9 1005 76 0 0.89 5 13:59 24.05.2020
2516 Clouds 9 1016 87 16093 2.1 70 13:41 24.05.2020
2517 Clouds 9 1016 87 16093 2.1 70 13:21 24.05.2020
2518 Clouds 9 1016 87 16093 2.84 40 12:59 24.05.2020
2519 Clouds 9 1016 87 16093 2.84 40 12:40 24.05.2020
2520 Clouds 9 1016 87 16093 2.52 33 12:22 24.05.2020
2521 Clouds 9 1016 81 16093 2.1 350 11:59 24.05.2020
2522 Clouds 9 1016 81 16093 2.1 350 11:41 24.05.2020
2523 Clouds 9 1016 81 16093 2.1 350 11:41 24.05.2020
2524 Clouds 10 1016 81 16093 2.1 350 11:22 24.05.2020
2525 Clouds 10 1015 76 16093 2.6 270 10:57 24.05.2020
2526 Clouds 10 1015 76 16093 2.6 270 10:39 24.05.2020
2527 Clouds 10 1015 76 16093 2.6 270 10:21 24.05.2020
2528 Clouds 10 1015 76 16093 2.6 270 10:21 24.05.2020
2529 Clouds 11 1015 71 16093 2.32 37 09:41 24.05.2020
2530 Clear 12 1011 59 0 2.2 71 09:19 24.05.2020
2531 Clear 12 1011 57 0 0.45 32 08:57 24.05.2020
2532 Clear 13 1011 54 0 2.2 71 08:39 24.05.2020
2533 Clouds 13 1011 51 0 3.84 50 08:20 24.05.2020
2534 Clouds 14 1013 58 16093 3.6 40 07:49 24.05.2020
2535 Clouds 14 1013 58 16093 3.6 40 07:25 24.05.2020
2536 Clouds 15 1012 51 16093 10.3 30 06:57 24.05.2020
2537 Clouds 16 1012 51 16093 10.3 30 06:36 24.05.2020
2538 Clouds 19 1008 29 16093 4.1 320 04:54 24.05.2020
2539 Clouds 21 1007 24 16093 5.7 340 03:42 24.05.2020
2540 Clouds 22 1007 28 16093 6.7 360 02:46 24.05.2020
2541 Clouds 23 995 24 0 1.34 46 01:47 24.05.2020
2542 Clouds 25 1006 20 16093 4.1 30 00:41 24.05.2020
2543 Clouds 25 1007 22 16093 5.7 50 00:22 24.05.2020
2544 Clouds 25 1007 22 16093 5.7 50 23:44 23.05.2020
2545 Clouds 25 1007 22 16093 5.7 50 23:25 23.05.2020
2546 Clouds 25 1007 23 16093 7.7 90 22:59 23.05.2020
2547 Clouds 25 1007 23 16093 7.7 90 22:39 23.05.2020
2548 Clouds 25 1007 23 16093 7.7 90 22:20 23.05.2020
2549 Clouds 26 1007 15 16093 5.1 60 21:58 23.05.2020
2550 Clouds 26 1002 13 0 4.82 184 21:40 23.05.2020
2551 Clouds 25 1008 23 16093 4.6 50 21:20 23.05.2020
2552 Clouds 25 1008 23 16093 4.6 50 21:20 23.05.2020
2553 Clouds 25 1008 23 16093 4.6 50 21:20 23.05.2020
2554 Clouds 25 1008 23 16093 4.6 50 21:20 23.05.2020
2555 Clouds 25 1008 23 16093 4.6 50 20:58 23.05.2020
2556 Clouds 25 1008 23 16093 4.6 50 20:38 23.05.2020
2557 Clouds 25 1008 23 16093 4.6 50 20:19 23.05.2020
2558 Clouds 24 1008 15 16093 5.77 184 19:42 23.05.2020
2559 Clouds 23 1008 15 16093 3.38 180 19:20 23.05.2020
2560 Clouds 22 1009 21 16093 2.6 250 18:58 23.05.2020
2561 Clouds 22 1009 21 16093 2.6 250 18:40 23.05.2020
2562 Clouds 21 1009 21 16093 2.6 250 18:21 23.05.2020
2563 Clouds 20 1004 24 0 1.42 211 17:55 23.05.2020
2564 Clouds 19 1004 24 0 1.42 211 17:37 23.05.2020
2565 Clouds 18 1009 42 16093 1.09 186 17:19 23.05.2020
2566 Clouds 17 1008 43 0 1.09 186 16:56 23.05.2020
2567 Clouds 16 1008 44 0 1.09 186 16:37 23.05.2020
2568 Clouds 15 1008 51 0 0.45 155 16:18 23.05.2020
2569 Clouds 13 1010 71 16093 2.6 230 15:42 23.05.2020
2570 Clouds 11 1010 71 16093 2.6 230 15:23 23.05.2020
2571 Clouds 10 1009 71 16093 4.1 210 14:55 23.05.2020
2572 Clouds 10 1009 71 16093 4.1 210 14:37 23.05.2020
2573 Clouds 10 1009 71 16093 4.1 210 14:19 23.05.2020
2574 Clouds 11 1009 71 16093 4.6 200 13:40 23.05.2020
2575 Clouds 11 1009 71 16093 4.6 200 13:19 23.05.2020
2576 Clouds 11 1009 66 16093 5.1 180 12:55 23.05.2020
2577 Clouds 11 1009 66 16093 5.1 180 12:36 23.05.2020
2578 Clouds 12 1009 66 16093 5.1 180 12:18 23.05.2020
2579 Clouds 12 1009 62 16093 2.6 190 11:42 23.05.2020
2580 Clouds 12 1008 62 16093 5.7 190 11:20 23.05.2020
2581 Clouds 13 1008 62 16093 5.7 190 10:56 23.05.2020
2582 Clouds 13 1008 62 16093 5.7 190 10:38 23.05.2020
2583 Clouds 14 1008 54 16093 8.2 200 10:19 23.05.2020
2584 Clouds 14 1008 54 16093 8.2 200 09:55 23.05.2020
2585 Clouds 14 1008 54 16093 8.2 200 09:55 23.05.2020
2586 Clouds 14 1008 54 16093 8.2 200 09:37 23.05.2020
2587 Clouds 15 1008 54 16093 8.2 200 09:19 23.05.2020
2588 Clouds 16 1008 62 16093 9.3 170 08:41 23.05.2020
2589 Clouds 16 994 50 0 0.45 186 08:19 23.05.2020
2590 Clouds 17 1008 59 16093 11.8 170 07:46 23.05.2020
2591 Clouds 18 1008 59 16093 11.8 170 07:27 23.05.2020
2592 Clouds 19 1008 48 16093 12.3 150 06:44 23.05.2020
2593 Clouds 21 1007 28 16093 12.3 150 05:59 23.05.2020
2594 Clouds 23 1007 13 16093 7.7 160 04:27 23.05.2020
2595 Clouds 26 1007 11 16093 10.3 170 03:26 23.05.2020
2596 Clouds 26 1007 11 16093 9.8 170 02:42 23.05.2020
2597 Clouds 27 1008 11 16093 8.2 170 01:50 23.05.2020
2598 Clouds 27 1008 11 16093 8.2 170 01:19 23.05.2020
2599 Clouds 28 1008 10 16093 8.2 180 00:43 23.05.2020
2600 Clouds 28 1008 10 16093 8.2 180 00:21 23.05.2020
2601 Clouds 28 1010 13 16093 6.2 170 23:45 22.05.2020
2602 Clouds 27 1010 13 16093 6.2 170 23:22 22.05.2020
2603 Clouds 27 1011 13 16093 4.1 150 22:59 22.05.2020
2604 Clouds 27 1011 13 16093 4.1 150 22:40 22.05.2020
2605 Clouds 27 1011 13 16093 4.1 150 22:20 22.05.2020
2606 Clouds 26 1012 15 16093 4.1 230 21:48 22.05.2020
2607 Clouds 26 1012 15 16093 4.1 230 21:24 22.05.2020
2608 Clouds 25 1013 16 16093 7.2 200 20:59 22.05.2020
2609 Clouds 25 1013 16 16093 7.2 200 20:41 22.05.2020
2610 Clouds 25 1013 16 16093 7.2 200 20:41 22.05.2020
2611 Clouds 24 1013 16 16093 7.2 200 20:20 22.05.2020
2612 Clouds 24 1014 18 16093 1.5 160 19:45 22.05.2020
2613 Clouds 23 1014 22 16093 1.5 160 19:26 22.05.2020
2614 Clouds 23 1010 14 0 1.79 161 18:55 22.05.2020
2615 Clouds 22 1010 17 0 1.34 132 18:37 22.05.2020
2616 Clouds 22 1010 17 0 1.34 132 18:37 22.05.2020
2617 Clouds 21 1015 30 16093 2.6 210 18:19 22.05.2020
2618 Clouds 19 1011 23 0 0.45 159 17:40 22.05.2020
2619 Clouds 18 1016 39 16093 3.6 230 17:20 22.05.2020
2620 Clear 17 1011 31 0 0.45 165 16:57 22.05.2020
2621 Clouds 16 1016 47 16093 3.1 230 16:39 22.05.2020
2622 Clouds 16 1016 47 16093 3.1 230 16:19 22.05.2020
2623 Clear 13 1011 42 0 0.45 162 15:42 22.05.2020
2624 Clouds 12 1016 66 16093 2.1 140 15:22 22.05.2020
2625 Clouds 9 1016 71 16093 2.69 162 14:56 22.05.2020
2626 Clouds 9 1016 71 16093 2.69 162 14:38 22.05.2020
2627 Clouds 9 1016 71 16093 1.12 124 14:20 22.05.2020
2628 Clouds 9 1016 71 16093 1.5 210 13:41 22.05.2020
2629 Clouds 9 1015 71 16093 3.6 200 13:19 22.05.2020
2630 Clouds 9 1015 71 16093 3.6 200 12:43 22.05.2020
2631 Clouds 9 1015 71 16093 3.6 200 12:43 22.05.2020
2632 Clouds 10 1015 71 16093 3.6 200 12:24 22.05.2020
2633 Clouds 10 1016 66 16093 4.1 190 11:47 22.05.2020
2634 Clouds 10 1016 66 16093 4.1 190 11:22 22.05.2020
2635 Clouds 10 1016 57 16093 2.6 210 10:59 22.05.2020
2636 Clouds 11 1016 57 16093 2.6 210 10:39 22.05.2020
2637 Clouds 11 1016 57 16093 2.6 210 10:20 22.05.2020
2638 Clouds 11 1016 57 16093 3.1 180 09:55 22.05.2020
2639 Clouds 12 1016 57 16093 3.1 180 09:36 22.05.2020
2640 Clouds 12 1016 57 16093 3.1 180 09:18 22.05.2020
2641 Clouds 13 1016 46 16093 4.1 160 08:41 22.05.2020
2642 Clouds 14 1016 46 16093 4.1 160 08:19 22.05.2020
2643 Clouds 14 1011 28 0 1.26 184 07:52 22.05.2020
2644 Clouds 15 1006 34 0 2.8 214 07:23 22.05.2020
2645 Clouds 15 1015 28 16093 4.1 120 06:52 22.05.2020
2646 Clouds 16 1015 28 16093 4.1 120 06:29 22.05.2020
2647 Clouds 17 1005 29 0 4.05 197 05:37 22.05.2020
2648 Clouds 17 1013 26 16093 3.1 120 04:49 22.05.2020
2649 Clouds 19 1013 23 16093 4.6 60 03:52 22.05.2020
2650 Rain 20 984 27 0 0.45 64 03:33 22.05.2020
2651 Clouds 21 1012 16 16093 5.7 90 02:35 22.05.2020
2652 Clouds 22 1013 17 16093 6.2 80 01:43 22.05.2020
2653 Clouds 22 1013 17 16093 6.2 80 01:21 22.05.2020
2654 Clouds 22 1013 15 16093 7.2 70 00:34 22.05.2020
2655 Clouds 22 1013 15 16093 4.6 80 23:58 21.05.2020
2656 Clouds 23 1013 15 16093 4.6 80 23:40 21.05.2020
2657 Clouds 23 1013 13 16093 4.6 140 23:22 21.05.2020
2658 Clouds 23 1013 13 16093 4.6 140 22:57 21.05.2020
2659 Clouds 23 1013 13 16093 4.6 140 22:37 21.05.2020
2660 Clouds 23 1013 13 16093 4.6 140 22:19 21.05.2020
2661 Clouds 23 1013 14 16093 5.1 100 21:47 21.05.2020
2662 Clouds 22 1013 14 16093 5.1 100 21:27 21.05.2020
2663 Clouds 22 1014 15 16093 2.1 170 20:57 21.05.2020
2664 Clouds 21 1014 15 16093 2.1 170 20:39 21.05.2020
2665 Clouds 21 1014 15 16093 2.1 170 20:20 21.05.2020
2666 Clouds 20 1015 22 16093 2.6 110 19:40 21.05.2020
2667 Clear 20 1010 15 0 0.45 116 19:19 21.05.2020
2668 Clear 19 1010 19 0 0.45 154 18:56 21.05.2020
2669 Clear 18 1011 21 0 1.34 127 18:36 21.05.2020
2670 Clear 18 1011 22 0 3.22 152 18:18 21.05.2020
2671 Clear 17 1011 25 0 3.22 152 17:43 21.05.2020
2672 Clear 16 1011 27 0 0.89 146 17:25 21.05.2020
2673 Clear 15 1005 35 0 0.89 179 16:48 21.05.2020
2674 Clouds 14 1016 36 16093 2.6 290 16:27 21.05.2020
2675 Clear 13 1012 39 0 2.57 143 15:58 21.05.2020
2676 Clear 12 1014 37 0 0.45 212 15:39 21.05.2020
2677 Clouds 11 1016 57 16093 2.1 260 15:20 21.05.2020
2678 Clouds 8 1016 61 16093 1.5 260 14:41 21.05.2020
2679 Clouds 8 1016 61 16093 1.5 260 14:22 21.05.2020
2680 Clear 8 1016 61 16093 3.1 260 13:43 21.05.2020
2681 Clear 8 1016 61 16093 3.1 260 13:23 21.05.2020
2682 Clear 9 1016 39 16093 2.6 300 12:59 21.05.2020
2683 Clear 9 1016 39 16093 2.6 300 12:38 21.05.2020
2684 Clear 9 1016 41 16093 2.6 300 12:19 21.05.2020
2685 Clear 9 1016 41 16093 2.6 300 12:19 21.05.2020
2686 Clear 10 1015 41 16093 2.1 270 11:55 21.05.2020
2687 Clear 10 1004 53 0 2.33 111 11:37 21.05.2020
2688 Clear 10 1004 52 0 2.3 102 11:19 21.05.2020
2689 Clear 11 1015 41 16093 2.3 102 10:39 21.05.2020
2690 Clear 11 1001 45 0 1.85 81 10:21 21.05.2020
2691 Clear 12 1014 43 16093 3.1 360 09:56 21.05.2020
2692 Clear 12 1014 43 16093 3.1 360 09:38 21.05.2020
2693 Clear 13 1000 40 0 0.89 285 09:20 21.05.2020
2694 Clear 14 1014 41 16093 5.7 360 08:45 21.05.2020
2695 Clear 14 1014 30 16093 5.7 360 08:26 21.05.2020
2696 Clear 14 1014 30 16093 5.7 360 08:26 21.05.2020
2697 Clouds 15 1012 44 16093 6.7 340 07:48 21.05.2020
2698 Clear 16 1013 32 0 1.79 34 07:27 21.05.2020
2699 Clouds 18 1011 18 16093 5.1 330 06:52 21.05.2020
2700 Clouds 18 1011 18 16093 5.1 330 06:22 21.05.2020
2701 Clouds 20 1008 13 16093 3.6 290 05:34 21.05.2020
2702 Clouds 26 1006 9 16093 8.2 220 03:22 21.05.2020
2703 Clouds 26 1006 9 16093 8.2 220 03:22 21.05.2020
2704 Clouds 26 1006 9 16093 8.2 220 03:22 21.05.2020
2705 Clouds 28 1006 7 16093 10.3 210 02:45 21.05.2020
2706 Clouds 28 1006 7 16093 10.3 210 02:26 21.05.2020
2707 Clouds 29 1005 5 16093 11.8 210 01:45 21.05.2020
2708 Clouds 29 1005 5 16093 11.8 210 01:21 21.05.2020
2709 Clouds 30 1005 5 16093 13.4 200 00:52 21.05.2020
2710 Clouds 30 1005 5 16093 13.4 200 00:23 21.05.2020
2711 Clouds 30 1006 7 16093 14.4 180 23:43 20.05.2020
2712 Clouds 30 1006 7 16093 14.4 180 23:20 20.05.2020
2713 Rain 30 1007 12 16093 10.8 170 22:58 20.05.2020
2714 Rain 29 1007 12 16093 10.8 170 22:39 20.05.2020
2715 Rain 29 1007 12 16093 10.8 170 22:20 20.05.2020
2716 Clouds 29 1008 17 16093 10.8 160 21:40 20.05.2020
2717 Clouds 28 1008 14 16093 8.2 170 21:21 20.05.2020
2718 Clouds 28 1008 14 16093 8.2 170 20:45 20.05.2020
2719 Clouds 28 1008 14 16093 8.2 170 20:25 20.05.2020
2720 Clouds 27 1009 19 16093 7.7 180 19:57 20.05.2020
2721 Clouds 27 1009 19 16093 7.7 180 19:38 20.05.2020
2722 Clouds 27 1009 19 16093 7.7 180 19:19 20.05.2020
2723 Clouds 26 1010 31 16093 6.7 160 18:44 20.05.2020
2724 Clouds 26 1010 31 16093 6.7 160 18:26 20.05.2020
2725 Clear 24 1006 20 0 1.79 135 17:44 20.05.2020
2726 Clear 23 1006 28 0 2.24 157 17:24 20.05.2020
2727 Clear 22 1006 41 0 0.89 149 16:58 20.05.2020
2728 Clouds 21 1011 59 16093 5.1 190 16:39 20.05.2020
2729 Clouds 21 1011 59 16093 5.1 190 16:39 20.05.2020
2730 Clear 19 1007 52 0 0.89 160 16:21 20.05.2020
2731 Clear 18 1007 55 0 0.45 151 15:55 20.05.2020
2732 Clear 17 1007 59 0 3.97 188 15:36 20.05.2020
2733 Clouds 16 1011 77 16093 7.2 190 15:18 20.05.2020
2734 Clouds 15 1011 77 16093 7.2 190 14:38 20.05.2020
2735 Clouds 15 1011 77 16093 7.2 190 14:19 20.05.2020
2736 Clouds 15 1011 77 16093 6.7 180 13:40 20.05.2020
2737 Clouds 15 1011 77 16093 6.7 180 13:18 20.05.2020
2738 Clouds 16 1012 72 16093 8.2 180 12:42 20.05.2020
2739 Clouds 16 1012 72 16093 8.2 180 12:21 20.05.2020
2740 Clouds 17 1012 67 16093 7.7 180 11:39 20.05.2020
2741 Clouds 17 1012 67 16093 7.7 180 11:20 20.05.2020
2742 Clouds 17 1013 59 16093 9.3 160 10:55 20.05.2020
2743 Rain 18 1013 59 16093 9.3 160 10:37 20.05.2020
2744 Rain 18 1013 59 16093 9.3 160 10:19 20.05.2020
2745 Clouds 18 1013 59 16093 10.3 170 09:41 20.05.2020
2746 Clouds 18 1014 63 16093 6.2 170 09:20 20.05.2020
2747 Clouds 19 1014 63 16093 6.2 170 08:42 20.05.2020
2748 Clouds 19 1014 63 16093 6.2 170 08:20 20.05.2020
2749 Clouds 20 1014 60 16093 6.7 200 07:50 20.05.2020
2750 Rain 20 1014 60 16093 6.7 200 07:25 20.05.2020
2751 Clouds 21 1012 35 16093 10.3 160 06:55 20.05.2020
2752 Clouds 22 1012 35 16093 10.3 160 06:20 20.05.2020
2753 Clouds 24 1011 31 16093 10.8 130 04:59 20.05.2020
2754 Clouds 25 997 29 0 3.13 131 04:19 20.05.2020
2755 Clouds 26 1011 31 16093 11.8 130 03:35 20.05.2020
2756 Clouds 30 1010 14 16093 8.7 160 01:45 20.05.2020
2757 Clouds 30 1010 14 16093 8.7 160 01:23 20.05.2020
2758 Clouds 30 1011 23 16093 10.3 170 00:41 20.05.2020
2759 Clouds 31 1011 11 16093 10.3 170 00:21 20.05.2020
2760 Clouds 32 1012 12 16093 6.2 160 23:37 19.05.2020
2761 Clouds 31 1012 12 16093 6.2 160 23:19 19.05.2020
2762 Clouds 32 1012 10 16093 7.2 150 22:55 19.05.2020
2763 Clouds 32 1012 8 16093 6.7 170 22:36 19.05.2020
2764 Clouds 32 1012 8 16093 6.7 170 22:18 19.05.2020
2765 Clouds 32 1012 8 16093 6.7 170 21:55 19.05.2020
2766 Clouds 32 1012 8 16093 6.7 170 21:36 19.05.2020
2767 Clouds 31 1013 9 16093 9.3 190 21:18 19.05.2020
2768 Clouds 31 1013 9 16093 9.3 190 20:55 19.05.2020
2769 Clouds 31 1013 9 16093 9.3 190 20:37 19.05.2020
2770 Clouds 30 1013 9 16093 9.3 190 20:19 19.05.2020
2771 Clouds 30 1015 11 16093 4.6 220 19:38 19.05.2020
2772 Clouds 29 1015 11 16093 4.6 220 19:20 19.05.2020
2773 Clouds 27 1015 24 16093 4.6 210 18:45 19.05.2020
2774 Clear 23 1011 33 0 1.66 139 18:23 19.05.2020
2775 Clear 23 1011 34 0 1.66 139 17:58 19.05.2020
2776 Clear 22 1011 35 0 1.66 139 17:39 19.05.2020
2777 Clouds 21 1016 45 16093 2.6 220 17:20 19.05.2020
2778 Clouds 20 1016 59 16093 2.6 240 16:42 19.05.2020
2779 Clouds 19 1016 59 16093 2.6 240 16:23 19.05.2020
2780 Clear 16 1003 62 0 0.71 200 15:58 19.05.2020
2781 Clouds 15 1016 82 16093 2.6 200 15:39 19.05.2020
2782 Clear 14 1011 64 0 0.48 284 15:20 19.05.2020
2783 Clouds 13 1015 87 16093 2.6 190 14:54 19.05.2020
2784 Clouds 12 1015 87 16093 2.6 190 14:36 19.05.2020
2785 Clouds 12 1015 81 16093 3.6 190 14:18 19.05.2020
2786 Clouds 12 1015 81 16093 3.6 190 13:55 19.05.2020
2787 Clouds 12 1015 81 16093 3.6 190 13:36 19.05.2020
2788 Clouds 12 1015 81 16093 3.6 190 13:18 19.05.2020
2789 Clear 13 1015 76 16093 3.6 220 12:40 19.05.2020
2790 Clear 14 1015 76 16093 3.6 220 12:22 19.05.2020
2791 Clear 14 1014 67 16093 5.7 190 11:59 19.05.2020
2792 Clear 14 1014 67 16093 5.7 190 11:40 19.05.2020
2793 Clear 15 1014 67 16093 5.7 190 11:21 19.05.2020
2794 Clear 15 1014 59 16093 9.3 190 10:49 19.05.2020
2795 Clear 16 1014 59 16093 9.3 190 10:29 19.05.2020
2796 Clouds 17 1014 55 16093 7.7 180 09:59 19.05.2020
2797 Clouds 17 1014 55 16093 7.7 180 09:41 19.05.2020
2798 Clouds 18 1014 55 16093 7.7 180 09:23 19.05.2020
2799 Clouds 19 1015 52 16093 8.2 170 08:44 19.05.2020
2800 Clouds 19 1015 52 16093 8.2 170 08:24 19.05.2020
2801 Clouds 21 1015 46 16093 8.7 160 07:45 19.05.2020
2802 Clouds 21 1015 46 16093 8.7 160 07:26 19.05.2020
2803 Clouds 22 1010 35 0 1.79 151 06:54 19.05.2020
2804 Clouds 23 1010 33 0 1.34 149 06:25 19.05.2020
2805 Clouds 24 1014 38 16093 8.2 130 05:42 19.05.2020
2806 Clouds 24 1014 38 16093 8.2 130 05:42 19.05.2020
2807 Clouds 25 1014 29 16093 9.3 150 04:56 19.05.2020
2808 Clouds 26 1014 29 16093 9.3 150 04:32 19.05.2020
2809 Clouds 30 1013 23 16093 8.7 50 01:32 19.05.2020
2810 Clouds 31 1014 18 16093 6.7 60 00:47 19.05.2020
2811 Clouds 31 1014 18 16093 6.7 60 00:25 19.05.2020
2812 Clouds 30 1014 19 16093 5.1 70 23:58 18.05.2020
2813 Clouds 30 1014 19 16093 5.1 70 23:39 18.05.2020
2814 Clouds 30 1014 19 16093 5.1 70 23:19 18.05.2020
2815 Clouds 29 1015 21 16093 6.2 60 22:41 18.05.2020
2816 Clouds 28 1015 21 16093 6.2 60 22:22 18.05.2020
2817 Clouds 28 1015 26 16093 3.6 40 21:56 18.05.2020
2818 Clouds 27 1015 26 16093 3.6 40 21:38 18.05.2020
2819 Clouds 27 1015 26 16093 3.6 40 21:38 18.05.2020
2820 Clouds 26 1016 41 16093 2.6 30 21:18 18.05.2020
2821 Clouds 25 1016 41 16093 2.6 30 20:43 18.05.2020
2822 Clouds 24 1012 36 0 1.96 75 20:22 18.05.2020
2823 Clouds 23 1006 49 0 0.45 360 19:58 18.05.2020
2824 Clouds 23 1012 42 0 1.96 75 19:40 18.05.2020
2825 Clouds 21 1017 52 16093 2.1 30 19:19 18.05.2020
2826 Clouds 20 1007 57 0 0.45 60 18:46 18.05.2020
2827 Clouds 18 1017 67 16093 1.5 30 18:24 18.05.2020
2828 Clouds 17 1005 58 0 1.79 309 17:54 18.05.2020
2829 Clouds 17 1005 62 0 0.45 65 17:36 18.05.2020
2830 Clouds 16 1013 69 0 0.52 109 17:18 18.05.2020
2831 Clouds 16 1013 69 0 0.52 109 17:18 18.05.2020
2832 Clouds 14 989 78 0 0.52 109 16:43 18.05.2020
2833 Clouds 13 1018 93 16093 1.15 76 16:20 18.05.2020
2834 Clouds 12 1018 100 16093 1.5 280 15:57 18.05.2020
2835 Clouds 12 1018 100 16093 1.5 280 15:39 18.05.2020
2836 Clouds 11 1014 81 0 1.17 36 15:20 18.05.2020
2837 Clouds 11 1017 100 16093 1.5 320 14:55 18.05.2020
2838 Clouds 11 1017 100 16093 1.5 320 14:37 18.05.2020
2839 Clouds 11 1017 100 16093 1.5 320 14:37 18.05.2020
2840 Clouds 11 1017 93 16093 0.68 346 14:19 18.05.2020
2841 Clouds 11 1017 93 16093 0.68 346 13:40 18.05.2020
2842 Clouds 11 1017 93 16093 0.45 62 13:20 18.05.2020
2843 Clouds 11 1017 71 16093 2.1 280 12:58 18.05.2020
2844 Clouds 11 1017 71 16093 2.1 280 12:39 18.05.2020
2845 Clouds 12 1017 71 16093 2.1 280 12:19 18.05.2020
2846 Clouds 12 1017 76 16093 3.1 180 11:47 18.05.2020
2847 Clouds 12 1017 76 16093 3.1 180 11:27 18.05.2020
2848 Clouds 13 1018 76 16093 4.1 160 10:59 18.05.2020
2849 Clouds 13 1018 76 16093 4.1 160 10:40 18.05.2020
2850 Clouds 13 1018 76 16093 4.1 160 10:22 18.05.2020
2851 Clouds 13 1019 76 16093 4.1 160 09:44 18.05.2020
2852 Clouds 14 1019 76 16093 4.1 160 09:25 18.05.2020
2853 Clouds 15 1019 76 16093 2.6 200 08:45 18.05.2020
2854 Clouds 15 1019 76 16093 2.6 200 08:27 18.05.2020
2855 Clouds 15 1019 72 16093 3.1 230 07:55 18.05.2020
2856 Clouds 15 1019 72 16093 3.1 230 07:55 18.05.2020
2857 Clouds 16 1019 72 16093 3.1 230 07:27 18.05.2020
2858 Clouds 17 1018 72 16093 3.1 0 06:54 18.05.2020
2859 Clouds 17 1018 72 16093 3.1 0 06:34 18.05.2020
2860 Clouds 18 1018 63 16093 2.6 50 05:49 18.05.2020
2861 Clouds 18 1018 63 16093 2.6 50 05:21 18.05.2020
2862 Clouds 22 1017 37 16093 4.6 60 03:31 18.05.2020
2863 Clouds 24 1017 31 16093 5.7 60 02:22 18.05.2020
2864 Clouds 24 1017 31 16093 4.6 60 00:55 18.05.2020
2865 Clouds 24 1017 31 16093 4.6 60 00:25 18.05.2020
2866 Clouds 24 1018 31 16093 4.6 40 23:57 17.05.2020
2867 Clouds 24 1018 31 16093 4.6 40 23:39 17.05.2020
2868 Clouds 23 1018 31 16093 4.6 40 23:20 17.05.2020
2869 Clouds 23 1018 35 16093 4.1 60 22:56 17.05.2020
2870 Clouds 23 1018 35 16093 4.1 60 22:37 17.05.2020
2871 Clouds 23 1018 35 16093 4.1 60 22:19 17.05.2020
2872 Clouds 22 1018 37 16093 2.6 30 21:55 17.05.2020
2873 Clouds 21 1018 37 16093 2.6 30 21:36 17.05.2020
2874 Clouds 20 1019 45 16093 1.5 60 21:18 17.05.2020
2875 Clouds 19 1019 45 16093 1.5 60 20:41 17.05.2020
2876 Clouds 19 1019 45 16093 1.5 60 20:20 17.05.2020
2877 Clouds 18 1019 51 16093 3.1 50 19:56 17.05.2020
2878 Clouds 17 1019 51 16093 3.1 50 19:37 17.05.2020
2879 Clouds 17 1019 51 16093 3.1 50 19:37 17.05.2020
2880 Clouds 17 1019 51 16093 3.1 50 19:18 17.05.2020
2881 Clouds 15 1020 54 16093 1.4 59 18:39 17.05.2020
2882 Clouds 14 1020 54 16093 0.86 50 18:21 17.05.2020
2883 Clear 14 1013 59 0 0.86 50 17:58 17.05.2020
2884 Clouds 14 1020 62 16093 0.86 50 17:39 17.05.2020
2885 Clouds 13 1020 62 16093 1.35 17 17:18 17.05.2020
2886 Clouds 12 1021 71 16093 2.1 270 16:40 17.05.2020
2887 Clouds 11 1021 71 16093 2.1 270 16:20 17.05.2020
2888 Clouds 11 1021 71 16093 2.1 270 16:20 17.05.2020
2889 Clear 11 1014 64 0 2.1 355 15:56 17.05.2020
2890 Clouds 10 1021 81 16093 2.1 240 15:37 17.05.2020
2891 Clouds 9 1021 81 16093 2.1 240 15:19 17.05.2020
2892 Clouds 8 1020 87 16093 2.6 220 14:43 17.05.2020
2893 Clouds 7 1020 87 16093 2.6 220 14:24 17.05.2020
2894 Clouds 7 1013 71 0 2.89 338 13:58 17.05.2020
2895 Clouds 7 1013 70 0 0.45 319 13:39 17.05.2020
2896 Clouds 7 1010 72 0 0.45 264 13:18 17.05.2020
2897 Clouds 17 1013 33 0 3.12 113 04:26 17.05.2020
2898 Clouds 19 1018 28 16093 3.6 80 02:29 17.05.2020
2899 Clouds 19 1018 28 16093 3.6 80 01:58 17.05.2020
2900 Clouds 20 1018 28 16093 3.6 80 01:38 17.05.2020
2901 Clouds 20 1018 30 16093 6.7 80 00:40 17.05.2020
2902 Clouds 21 1018 32 16093 4.1 40 23:57 16.05.2020
2903 Clouds 21 1018 32 16093 4.1 40 23:39 16.05.2020
2904 Clouds 21 1018 32 16093 4.1 40 23:20 16.05.2020
2905 Clear 21 1014 26 0 3.43 149 22:58 16.05.2020
2906 Clear 20 1014 28 0 3.43 149 22:40 16.05.2020
2907 Clouds 20 1011 31 0 0.89 303 22:20 16.05.2020
2908 Clouds 19 1019 36 16093 2.1 130 21:45 16.05.2020
2909 Clouds 19 1019 36 16093 2.1 130 21:27 16.05.2020
2910 Clouds 19 1019 36 16093 3.1 130 20:58 16.05.2020
2911 Clouds 18 1019 36 16093 3.1 130 20:39 16.05.2020
2912 Clouds 18 1019 36 16093 3.1 130 20:20 16.05.2020
2913 Clouds 17 1019 36 16093 4.6 40 19:57 16.05.2020
2914 Clouds 17 1019 36 16093 4.6 40 19:39 16.05.2020
2915 Clouds 17 1019 36 16093 4.6 40 19:21 16.05.2020
2916 Clouds 17 1019 36 16093 4.6 40 19:21 16.05.2020
2917 Rain 16 1019 41 16093 6.2 30 18:42 16.05.2020
2918 Rain 15 1019 41 16093 6.2 30 18:22 16.05.2020
2919 Clouds 14 1019 50 16093 5.7 20 17:56 16.05.2020
2920 Clouds 14 1019 50 16093 5.7 20 17:37 16.05.2020
2921 Clouds 13 1019 50 16093 5.7 20 17:18 16.05.2020
2922 Clouds 13 1019 50 16093 5.7 20 17:18 16.05.2020
2923 Rain 12 1019 87 16093 1.5 10 16:39 16.05.2020
2924 Rain 11 1019 87 16093 1.5 10 16:20 16.05.2020
2925 Rain 11 1019 100 16093 1.5 330 15:56 16.05.2020
2926 Rain 10 1018 93 16093 1.82 62 15:38 16.05.2020
2927 Rain 10 1018 93 16093 1.82 62 15:38 16.05.2020
2928 Rain 10 1018 93 16093 2.86 39 15:19 16.05.2020
2929 Rain 9 1017 93 16093 3.1 180 14:43 16.05.2020
2930 Clouds 9 1017 100 16093 3.6 190 14:20 16.05.2020
2931 Clouds 9 1017 100 16093 3.6 190 13:56 16.05.2020
2932 Clouds 9 1017 100 16093 3.6 190 13:37 16.05.2020
2933 Clouds 9 1017 100 16093 3.6 190 13:19 16.05.2020
2934 Clouds 9 1017 100 16093 2.6 160 12:44 16.05.2020
2935 Clouds 9 1017 100 16093 2.6 160 12:20 16.05.2020
2936 Clouds 10 1017 93 16093 3.1 200 11:56 16.05.2020
2937 Clouds 10 1017 93 16093 3.1 200 11:37 16.05.2020
2938 Rain 10 1017 93 16093 3.1 200 11:18 16.05.2020
2939 Rain 10 1017 100 16093 3.6 190 10:54 16.05.2020
2940 Clouds 10 1017 100 16093 3.6 190 10:36 16.05.2020
2941 Rain 10 1017 100 16093 3.6 190 10:36 16.05.2020
2942 Rain 10 1017 100 16093 3.6 190 10:18 16.05.2020
2943 Clear 10 1013 92 0 1.81 25 09:40 16.05.2020
2944 Rain 10 1010 94 0 0.79 104 09:18 16.05.2020
2945 Rain 10 1013 92 0 3.08 11 08:42 16.05.2020
2946 Rain 10 1010 93 0 3.92 0 08:21 16.05.2020
2947 Rain 10 1018 100 16093 2.6 110 07:45 16.05.2020
2948 Rain 10 1018 100 16093 2.6 110 07:25 16.05.2020
2949 Rain 10 1016 100 16093 3.6 80 06:57 16.05.2020
2950 Rain 10 1016 100 16093 3.6 80 06:36 16.05.2020
2951 Rain 10 1009 91 0 6.05 15 06:18 16.05.2020
2952 Rain 11 1018 100 16093 3.1 310 05:31 16.05.2020
2953 Rain 13 1015 82 12874 9.8 10 03:36 16.05.2020
2954 Clouds 16 1013 52 16093 4.1 100 02:59 16.05.2020
2955 Clouds 19 1013 48 16093 4.6 80 02:20 16.05.2020
2956 Clouds 20 1013 48 16093 4.6 80 01:45 16.05.2020
2957 Clouds 20 1013 48 16093 4.6 80 01:22 16.05.2020
2958 Thunderstorm 20 1014 55 16093 4.6 80 00:44 16.05.2020
2959 Clouds 20 1009 39 0 0.89 148 00:21 16.05.2020
2960 Clouds 20 1009 39 0 0.89 148 00:21 16.05.2020
2961 Clouds 20 1015 59 16093 6.2 80 23:41 15.05.2020
2962 Thunderstorm 20 1015 59 16093 4.1 120 23:20 15.05.2020
2963 Clouds 20 1015 59 16093 6.2 80 23:20 15.05.2020
2964 Thunderstorm 20 1015 59 16093 4.1 120 22:57 15.05.2020
2965 Thunderstorm 20 1015 59 16093 4.1 120 22:38 15.05.2020
2966 Thunderstorm 20 1015 59 16093 4.1 120 22:18 15.05.2020
2967 Clouds 19 1016 52 16093 4.1 80 21:40 15.05.2020
2968 Clouds 18 1016 52 16093 4.1 80 21:21 15.05.2020
2969 Clouds 18 1017 48 16093 2.1 190 20:58 15.05.2020
2970 Clouds 18 1017 48 16093 2.1 190 20:40 15.05.2020
2971 Clouds 18 1017 48 16093 2.1 190 20:22 15.05.2020
2972 Clouds 17 1017 55 16093 4.6 140 19:55 15.05.2020
2973 Clouds 17 1017 55 16093 4.6 140 19:37 15.05.2020
2974 Clouds 17 1017 55 16093 4.6 140 19:18 15.05.2020
2975 Clouds 16 1018 58 16093 4.1 90 18:42 15.05.2020
2976 Clouds 15 1018 58 16093 4.1 90 18:23 15.05.2020
2977 Clouds 14 1018 62 16093 3.1 110 17:39 15.05.2020
2978 Clouds 14 1018 62 16093 3.1 110 17:19 15.05.2020
2979 Clouds 13 1014 59 0 0.98 13 16:57 15.05.2020
2980 Clouds 12 1018 71 16093 3.6 110 16:38 15.05.2020
2981 Clouds 12 1018 71 16093 3.6 110 16:19 15.05.2020
2982 Clouds 11 1014 66 0 1.24 354 15:42 15.05.2020
2983 Clouds 11 1014 70 0 2.37 35 15:24 15.05.2020
2984 Clouds 10 1014 72 0 2.37 35 14:59 15.05.2020
2985 Clouds 10 1011 73 0 2.17 20 14:41 15.05.2020
2986 Clouds 10 1014 73 0 2.74 17 14:23 15.05.2020
2987 Clouds 10 1018 87 16093 1.5 100 13:58 15.05.2020
2988 Clouds 10 1018 87 16093 1.5 100 13:39 15.05.2020
2989 Clouds 10 1018 87 16093 1.5 100 13:19 15.05.2020
2990 Clouds 10 1017 87 16093 2.6 90 12:39 15.05.2020
2991 Clouds 11 1017 87 16093 2.6 90 12:18 15.05.2020
2992 Clouds 11 1017 87 16093 2.6 70 11:57 15.05.2020
2993 Clouds 11 1017 87 16093 2.6 70 11:38 15.05.2020
2994 Clouds 12 1017 87 16093 2.6 70 11:19 15.05.2020
2995 Clouds 12 1012 62 0 1.35 32 10:57 15.05.2020
2996 Clouds 12 1012 62 0 1.35 32 10:38 15.05.2020
2997 Clouds 12 1012 62 0 1.35 32 10:38 15.05.2020
2998 Clouds 12 1012 61 0 2.43 160 10:20 15.05.2020
2999 Clouds 12 1017 76 16093 1.5 170 09:56 15.05.2020
3000 Clouds 12 1017 76 16093 1.5 170 09:36 15.05.2020
3001 Clouds 12 1017 76 16093 1.5 170 09:18 15.05.2020
3002 Clouds 12 1017 76 16093 2.1 200 08:38 15.05.2020
3003 Clouds 12 1017 76 16093 2.1 200 08:20 15.05.2020
3004 Clouds 12 1017 76 16093 2.1 200 08:20 15.05.2020
3005 Rain 12 1008 64 0 2.37 146 07:47 15.05.2020
3006 Rain 12 1012 59 0 2.24 158 07:28 15.05.2020
3007 Clouds 12 1017 71 16093 4.6 150 06:59 15.05.2020
3008 Clouds 12 1017 71 16093 4.6 150 06:28 15.05.2020
3009 Rain 14 1012 53 0 2.36 105 04:39 15.05.2020
3010 Clouds 15 1015 66 16093 4.1 80 03:50 15.05.2020
3011 Clouds 16 1014 67 16093 6.7 80 02:49 15.05.2020
3012 Clouds 17 1014 63 16093 7.7 60 01:37 15.05.2020
3013 Thunderstorm 17 1014 63 16093 6.2 30 00:58 15.05.2020
3014 Thunderstorm 17 1014 63 16093 6.2 30 00:39 15.05.2020
3015 Rain 17 1014 63 16093 6.2 30 00:21 15.05.2020
3016 Clouds 17 1013 52 16093 10.8 90 23:41 14.05.2020
3017 Clouds 18 1013 52 16093 10.8 90 23:41 14.05.2020
3018 Clouds 18 1013 52 16093 10.8 90 23:18 14.05.2020
3019 Clouds 19 1000 36 0 0.89 355 22:42 14.05.2020
3020 Rain 21 1008 28 0 5.4 35 22:23 14.05.2020
3021 Rain 21 1008 27 0 5.4 35 21:58 14.05.2020
3022 Rain 20 1002 41 0 2.24 134 21:40 14.05.2020
3023 Rain 18 1014 67 11265 8.2 100 21:20 14.05.2020
3024 Thunderstorm 18 1014 51 11265 6.7 90 21:20 14.05.2020
3025 Thunderstorm 19 1014 51 11265 6.7 90 20:57 14.05.2020
3026 Clouds 20 1014 32 16093 5.7 130 20:38 14.05.2020
3027 Clouds 20 1014 32 16093 5.7 130 20:19 14.05.2020
3028 Clouds 19 1015 37 16093 6.7 150 19:56 14.05.2020
3029 Clouds 19 1015 37 16093 6.7 150 19:37 14.05.2020
3030 Clouds 19 1015 37 16093 6.7 150 19:19 14.05.2020
3031 Clouds 18 1015 45 16093 4.6 130 18:54 14.05.2020
3032 Clouds 18 1015 45 16093 4.6 130 18:36 14.05.2020
3033 Clouds 17 1015 45 16093 4.6 130 18:18 14.05.2020
3034 Clouds 17 1011 42 0 0.45 141 17:55 14.05.2020
3035 Clouds 16 1016 54 16093 2.1 180 17:36 14.05.2020
3036 Clouds 15 1016 54 16093 2.1 180 17:18 14.05.2020
3037 Clouds 15 1016 54 16093 2.1 180 17:18 14.05.2020
3038 Clouds 14 1016 62 16093 2.6 160 16:39 14.05.2020
3039 Clouds 14 1016 62 16093 2.6 160 16:20 14.05.2020
3040 Clouds 13 1016 76 16093 2.1 120 15:57 14.05.2020
3041 Clouds 12 1016 76 16093 2.1 120 15:39 14.05.2020
3042 Clouds 12 1016 76 16093 2.1 120 15:19 14.05.2020
3043 Rain 12 1011 74 0 1.04 65 14:56 14.05.2020
3044 Clouds 11 1015 87 16093 3.1 60 14:37 14.05.2020
3045 Clouds 11 1015 87 16093 3.1 60 14:19 14.05.2020
3046 Clouds 11 1015 81 16093 3.1 310 13:55 14.05.2020
3047 Clouds 12 1015 81 16093 3.1 310 13:37 14.05.2020
3048 Rain 12 1005 78 0 1.65 101 13:18 14.05.2020
3049 Clouds 12 1014 81 16093 1.65 101 12:55 14.05.2020
3050 Clouds 12 1014 81 16093 1.65 101 12:36 14.05.2020
3051 Clouds 13 1014 81 16093 1.54 70 12:18 14.05.2020
3052 Clouds 13 1014 87 16093 2.1 110 11:42 14.05.2020
3053 Clouds 13 1014 87 16093 2.1 110 11:24 14.05.2020
3054 Clouds 13 1009 76 0 2.8 57 10:58 14.05.2020
3055 Clouds 13 1009 77 0 2.8 57 10:39 14.05.2020
3056 Clouds 13 1013 100 16093 2.1 60 10:21 14.05.2020
3057 Clouds 12 1013 87 16093 2.6 50 09:43 14.05.2020
3058 Clouds 12 1013 87 16093 2.6 50 09:23 14.05.2020
3059 Clouds 13 1013 87 16093 1.5 360 08:43 14.05.2020
3060 Clouds 13 1012 76 16093 3.1 100 08:21 14.05.2020
3061 Clouds 14 1001 69 0 2.24 17 07:47 14.05.2020
3062 Clouds 14 1013 65 0 4.66 70 07:26 14.05.2020
3063 Clouds 14 1011 62 16093 5.1 80 06:59 14.05.2020
3064 Clouds 15 1011 62 16093 5.1 80 06:34 14.05.2020
3065 Clouds 16 1010 39 16093 6.2 50 05:59 14.05.2020
3066 Clouds 17 1010 39 16093 6.2 50 05:37 14.05.2020
3067 Clouds 20 1009 22 16093 3.6 80 04:42 14.05.2020
3068 Clouds 22 1008 18 16093 5.1 60 03:32 14.05.2020
3069 Clouds 23 1007 16 16093 5.1 60 02:43 14.05.2020
3070 Clouds 24 1007 16 16093 5.1 60 02:20 14.05.2020
3071 Clouds 24 1007 16 16093 5.1 60 01:44 14.05.2020
3072 Clouds 24 1007 14 16093 4.1 30 00:51 14.05.2020
3073 Clouds 24 1007 14 16093 4.1 30 00:51 14.05.2020
3074 Clouds 24 1007 14 16093 4.1 30 00:26 14.05.2020
3075 Clouds 25 1007 12 16093 4.1 70 23:45 13.05.2020
3076 Clouds 25 1007 12 16093 4.1 70 23:45 13.05.2020
3077 Clouds 25 1007 12 16093 4.1 70 23:22 13.05.2020
3078 Clouds 25 1007 11 16093 3.6 30 22:58 13.05.2020
3079 Clouds 25 1007 11 16093 3.6 30 22:39 13.05.2020
3080 Clouds 25 1007 11 16093 3.6 30 22:39 13.05.2020
3081 Clouds 25 1007 11 16093 3.6 30 22:21 13.05.2020
3082 Clouds 25 1008 13 16093 1.5 110 21:57 13.05.2020
3083 Clouds 25 1008 13 16093 1.5 110 21:38 13.05.2020
3084 Clouds 25 1008 13 16093 1.5 110 21:38 13.05.2020
3085 Clouds 24 1008 13 16093 1.5 110 21:19 13.05.2020
3086 Clouds 24 1004 11 0 2.68 63 20:41 13.05.2020
3087 Clouds 23 1008 17 16093 3.6 20 20:23 13.05.2020
3088 Clouds 23 1000 17 0 2.36 99 19:56 13.05.2020
3089 Clouds 23 1009 16 16093 1.5 20 19:38 13.05.2020
3090 Clouds 22 1009 16 16093 1.5 20 19:19 13.05.2020
3091 Clouds 21 1005 16 0 2.25 101 18:42 13.05.2020
3092 Clouds 21 1005 16 0 2.25 101 18:42 13.05.2020
3093 Clouds 19 1009 22 16093 2.6 270 18:21 13.05.2020
3094 Clouds 18 1009 34 16093 2.6 280 17:40 13.05.2020
3095 Clouds 17 1009 34 16093 2.6 280 17:20 13.05.2020
3096 Clouds 16 1009 26 16093 3.6 270 16:58 13.05.2020
3097 Clouds 16 1009 26 16093 3.6 270 16:39 13.05.2020
3098 Clouds 14 1009 26 16093 3.6 270 16:19 13.05.2020
3099 Clouds 13 1008 28 16093 7.2 200 15:43 13.05.2020
3100 Clouds 11 1008 28 16093 7.2 200 15:20 13.05.2020
3101 Clouds 10 1008 32 16093 6.2 190 15:20 13.05.2020
3102 Clouds 10 1008 32 16093 6.2 190 14:59 13.05.2020
3103 Clouds 10 1008 32 16093 6.2 190 14:59 13.05.2020
3104 Clouds 10 1008 32 16093 6.2 190 14:41 13.05.2020
3105 Clouds 10 1008 32 16093 6.2 190 14:22 13.05.2020
3106 Clouds 10 1008 40 16093 5.7 190 13:58 13.05.2020
3107 Clouds 10 1008 40 16093 5.7 190 13:39 13.05.2020
3108 Clouds 10 1008 40 16093 5.7 190 13:21 13.05.2020
3109 Clouds 10 1007 37 16093 5.1 190 12:57 13.05.2020
3110 Clouds 10 1007 37 16093 5.1 190 12:38 13.05.2020
3111 Clouds 11 1007 37 16093 5.1 190 12:18 13.05.2020
3112 Clouds 10 1007 46 16093 6.7 200 11:55 13.05.2020
3113 Clouds 10 1007 46 16093 6.7 200 11:36 13.05.2020
3114 Clouds 10 1008 50 16093 5.7 200 11:18 13.05.2020
3115 Clouds 10 1008 50 16093 5.7 200 10:56 13.05.2020
3116 Clouds 10 1004 69 0 3.23 202 10:37 13.05.2020
3117 Clouds 10 1008 54 16093 5.7 190 10:18 13.05.2020
3118 Clouds 10 1008 54 16093 5.7 190 09:41 13.05.2020
3119 Clouds 11 1008 54 16093 5.7 190 09:22 13.05.2020
3120 Clouds 11 1008 58 16093 5.1 190 08:43 13.05.2020
3121 Clouds 11 1008 58 16093 5.1 190 08:22 13.05.2020
3122 Clouds 11 1009 54 16093 6.2 190 07:59 13.05.2020
3123 Clouds 12 1009 54 16093 6.2 190 07:39 13.05.2020
3124 Clouds 12 1009 54 16093 6.2 190 07:21 13.05.2020
3125 Clouds 12 1009 58 16093 5.7 190 06:43 13.05.2020
3126 Clouds 14 1009 54 16093 5.7 170 05:54 13.05.2020
3127 Clouds 16 1008 63 16093 4.19 155 04:48 13.05.2020
3128 Clouds 20 1002 48 0 0.45 33 02:59 13.05.2020
3129 Clouds 20 1004 45 0 3.95 278 02:26 13.05.2020
3130 Clouds 20 1008 45 16093 7.7 330 01:26 13.05.2020
3131 Clouds 21 1008 35 16093 6.2 320 00:41 13.05.2020
3132 Clouds 21 1008 35 16093 6.2 320 00:19 13.05.2020
3133 Clouds 22 1008 25 16093 4.1 350 23:40 12.05.2020
3134 Clouds 21 1005 46 0 0.45 313 23:21 12.05.2020
3135 Clouds 22 1009 27 16093 2.1 20 22:57 12.05.2020
3136 Clouds 21 1009 27 16093 2.1 20 22:39 12.05.2020
3137 Clouds 21 1009 27 16093 2.1 20 22:20 12.05.2020
3138 Clouds 20 1010 35 16093 3.1 60 21:55 12.05.2020
3139 Clouds 20 1010 35 16093 3.1 60 21:37 12.05.2020
3140 Clouds 19 1010 35 16093 3.1 60 21:18 12.05.2020
3141 Clouds 19 1011 40 16093 3.1 360 20:56 12.05.2020
3142 Clouds 18 1011 40 16093 3.1 360 20:37 12.05.2020
3143 Clouds 17 1011 40 16093 3.1 360 20:19 12.05.2020
3144 Clouds 16 1012 51 16093 2.1 30 19:54 12.05.2020
3145 Clouds 15 1012 51 16093 2.1 30 19:36 12.05.2020
3146 Clouds 13 1013 66 16093 2.1 110 19:18 12.05.2020
3147 Clouds 12 1013 66 16093 2.1 110 18:41 12.05.2020
3148 Clouds 10 1013 66 16093 2.1 110 18:23 12.05.2020
3149 Clouds 9 1014 81 16093 2.6 140 17:54 12.05.2020
3150 Clouds 9 1014 100 11265 3.1 160 17:36 12.05.2020
3151 Clouds 8 1014 100 11265 3.1 160 17:18 12.05.2020
3152 Clouds 6 1010 89 0 1.92 3 16:42 12.05.2020
3153 Mist 6 1015 100 4828 2.1 140 16:20 12.05.2020
3154 Mist 6 1015 100 3219 1.5 140 15:55 12.05.2020
3155 Mist 6 1015 100 3219 1.5 140 15:55 12.05.2020
3156 Clear 6 1011 91 0 3.58 2 15:36 12.05.2020
3157 Drizzle 5 1016 100 2012 3.9 5 15:18 12.05.2020
3158 Mist 5 1016 100 2012 3.9 5 14:54 12.05.2020
3159 Mist 5 1016 100 1006 1.5 330 14:36 12.05.2020
3160 Mist 5 1016 100 1006 1.5 330 14:18 12.05.2020
3161 Mist 5 1016 100 2012 2.1 310 13:54 12.05.2020
3162 Mist 5 1016 100 4828 1.5 340 13:36 12.05.2020
3163 Mist 5 1016 100 6437 0.56 132 13:18 12.05.2020
3164 Mist 5 1016 100 6437 0.56 132 12:54 12.05.2020
3165 Mist 5 1016 100 6437 0.56 132 12:36 12.05.2020
3166 Mist 6 1016 100 6437 0.71 82 12:18 12.05.2020
3167 Mist 6 1016 100 2414 1.5 20 11:55 12.05.2020
3168 Mist 6 1016 100 2414 1.5 20 11:36 12.05.2020
3169 Clouds 6 1011 86 0 1.09 14 11:18 12.05.2020
3170 Clouds 6 1011 86 0 1.09 14 10:42 12.05.2020
3171 Clouds 6 1011 85 0 2.3 346 10:23 12.05.2020
3172 Clouds 6 1011 84 0 2.3 346 09:59 12.05.2020
3173 Clouds 6 1011 85 0 2.3 346 09:40 12.05.2020
3174 Clouds 6 1014 87 0 0.84 257 09:21 12.05.2020
3175 Clouds 6 1016 100 16093 2.1 180 08:59 12.05.2020
3176 Clouds 6 1016 100 16093 2.1 180 08:38 12.05.2020
3177 Clouds 6 1016 100 16093 2.1 180 08:19 12.05.2020
3178 Clouds 6 1016 100 16093 2.1 180 08:19 12.05.2020
3179 Clouds 6 1016 100 16093 3.1 210 07:42 12.05.2020
3180 Clouds 6 1016 100 16093 3.1 210 07:23 12.05.2020
3181 Clouds 6 1017 93 16093 1.5 250 06:49 12.05.2020
3182 Clouds 6 1017 93 16093 1.5 250 06:27 12.05.2020
3183 Clouds 6 1017 100 16093 3.1 350 05:51 12.05.2020
3184 Clouds 6 1017 100 16093 3.1 350 05:30 12.05.2020
3185 Clouds 12 1015 58 16093 2.1 260 03:27 12.05.2020
3186 Rain 12 1015 62 16093 5.1 160 02:44 12.05.2020
3187 Rain 12 1015 62 16093 5.1 160 02:24 12.05.2020
3188 Rain 12 1016 66 16093 5.1 160 01:27 12.05.2020
3189 Rain 10 1012 67 0 2.12 116 00:28 12.05.2020
3190 Rain 9 1015 84 0 1.79 158 23:59 11.05.2020
3191 Rain 8 1015 82 0 2.24 134 23:40 11.05.2020
3192 Rain 8 1017 80 0 0.45 154 23:21 11.05.2020
3193 Rain 7 1019 86 16093 3.1 350 22:59 11.05.2020
3194 Rain 5 1019 80 16093 3.6 20 22:40 11.05.2020
3195 Rain 8 1019 80 16093 3.6 20 22:20 11.05.2020
3196 Rain 6 1019 80 12874 2.1 340 21:58 11.05.2020
3197 Rain 7 1015 66 0 0.45 340 21:40 11.05.2020
3198 Rain 6 1014 74 0 0.45 5 21:19 11.05.2020
3199 Rain 6 1014 78 0 0.45 5 20:58 11.05.2020
3200 Rain 6 1020 42 11265 1.5 300 20:40 11.05.2020
3201 Rain 5 1014 78 0 0.45 5 20:20 11.05.2020
3202 Rain 3 1020 74 11265 2.6 310 19:55 11.05.2020
3203 Rain 3 1020 74 11265 2.6 310 19:55 11.05.2020
3204 Clouds 4 1020 69 16093 1.5 310 19:36 11.05.2020
3205 Clouds 4 1020 69 16093 1.5 310 19:18 11.05.2020
3206 Clouds 4 1017 65 0 1.6 353 18:55 11.05.2020
3207 Clouds 4 1017 65 0 1.6 353 18:55 11.05.2020
3208 Clouds 4 993 75 0 1.6 353 18:36 11.05.2020
3209 Rain 3 1021 74 11265 2.6 340 18:18 11.05.2020
3210 Clouds 3 1022 74 16093 3.1 340 17:41 11.05.2020
3211 Clouds 3 1022 74 16093 3.1 340 17:41 11.05.2020
3212 Clouds 3 1022 74 16093 3.1 340 17:23 11.05.2020
3213 Clouds 3 1022 74 16093 3.1 340 16:59 11.05.2020
3214 Clouds 3 1022 74 16093 3.1 340 16:40 11.05.2020
3215 Clouds 3 1022 74 16093 3.1 340 16:21 11.05.2020
3216 Clouds 3 1021 74 16093 3.1 340 15:57 11.05.2020
3217 -273 0 0 0 0 0 15:39 11.05.2020
3218 Clouds 3 1021 74 16093 2.1 320 15:18 11.05.2020
3219 Clouds 3 1021 74 16093 2.1 320 14:42 11.05.2020
3220 Clouds 3 1021 69 16093 2.1 340 14:23 11.05.2020
3221 Clouds 3 1021 69 16093 2.1 340 13:59 11.05.2020
3222 Clouds 3 1021 69 16093 2.1 340 13:41 11.05.2020
3223 Clouds 3 1021 69 16093 2.1 340 13:19 11.05.2020
3224 Clouds 3 1021 69 16093 2.1 330 12:58 11.05.2020
3225 Clouds 3 1021 69 16093 2.1 330 12:39 11.05.2020
3226 Clouds 4 1022 69 16093 3.6 330 12:21 11.05.2020
3227 Clouds 4 1022 69 16093 3.6 330 11:56 11.05.2020
3228 Clouds 4 1022 69 16093 3.6 330 11:37 11.05.2020
3229 Clouds 4 1019 60 0 0.45 317 11:19 11.05.2020
3230 Clouds 5 1023 64 16093 3.6 340 10:55 11.05.2020
3231 Clouds 5 1023 64 16093 3.6 340 10:36 11.05.2020
3232 Clouds 5 1023 60 16093 3.6 300 10:18 11.05.2020
3233 Clouds 6 1023 60 16093 3.6 300 09:42 11.05.2020
3234 Clouds 6 1023 60 16093 3.6 300 09:22 11.05.2020
3235 Clouds 7 1023 52 16093 4.6 270 08:59 11.05.2020
3236 Clouds 7 1023 52 16093 4.6 270 08:39 11.05.2020
3237 Clouds 8 1023 52 16093 4.6 270 08:19 11.05.2020
3238 Clouds 8 1023 52 16093 4.6 260 07:50 11.05.2020
3239 Clear 9 1020 44 0 3 345 07:32 11.05.2020
3240 Clouds 9 1023 45 16093 3.1 320 06:54 11.05.2020
3241 Clear 10 1019 35 0 3.45 345 06:26 11.05.2020
3242 Clouds 12 1023 43 16093 6.2 10 05:30 11.05.2020
3243 Clouds 13 1022 37 16093 6.2 20 04:44 11.05.2020
3244 Clouds 15 1022 29 16093 3.6 10 03:46 11.05.2020
3245 Clouds 17 1022 27 16093 4.76 41 02:35 11.05.2020
3246 Clouds 17 1022 27 16093 4.74 45 01:46 11.05.2020
3247 Clouds 17 1023 27 16093 1.5 310 00:54 11.05.2020
3248 Clouds 17 1024 29 16093 3.6 320 00:22 11.05.2020
3249 Clouds 16 1024 29 16093 3.6 320 23:45 10.05.2020
3250 Clouds 16 1024 29 16093 3.6 320 23:26 10.05.2020
3251 Clouds 16 1024 33 16093 3.1 310 22:58 10.05.2020
3252 Clouds 15 1024 33 16093 3.1 310 22:40 10.05.2020
3253 Clouds 15 1024 33 16093 3.1 310 22:22 10.05.2020
3254 Clear 14 1020 31 0 2.47 30 21:44 10.05.2020
3255 Clouds 13 1025 37 16093 1.5 310 21:20 10.05.2020
3256 Clouds 13 1025 37 16093 1.5 350 20:56 10.05.2020
3257 Clouds 13 1025 37 16093 1.5 350 20:38 10.05.2020
3258 Clouds 13 1025 37 16093 1.5 350 20:20 10.05.2020
3259 Clouds 11 1021 35 0 2.76 2 19:42 10.05.2020
3260 Clear 11 1022 34 0 0.45 279 19:24 10.05.2020
3261 Clear 10 1022 38 0 3.05 352 18:57 10.05.2020
3262 Clouds 10 1026 45 16093 3.1 290 18:39 10.05.2020
3263 Clouds 9 1026 45 16093 3.1 290 18:20 10.05.2020
3264 Clouds 8 1026 45 16093 5.1 320 17:59 10.05.2020
3265 Clouds 8 1026 45 16093 5.1 320 17:41 10.05.2020
3266 Clouds 8 1026 45 16093 5.1 320 17:22 10.05.2020
3267 Clouds 7 1026 52 16093 5.1 270 16:59 10.05.2020
3268 Clouds 7 1026 52 16093 5.1 270 16:40 10.05.2020
3269 Clouds 6 1026 52 16093 5.1 270 16:19 10.05.2020
3270 Clouds 6 1026 52 16093 5.1 270 16:19 10.05.2020
3271 Clear 6 1022 46 0 4.7 334 15:55 10.05.2020
3272 Clouds 5 1025 60 16093 3.6 210 15:36 10.05.2020
3273 Clouds 5 1025 60 16093 3.6 210 15:36 10.05.2020
3274 Clouds 5 1025 60 16093 3.6 210 15:18 10.05.2020
3275 Clear 3 1021 63 0 5.37 335 14:39 10.05.2020
3276 Clouds 3 1022 68 0 4.08 349 14:20 10.05.2020
3277 Clouds 3 1025 64 16093 4.1 110 13:59 10.05.2020
3278 Clouds 3 1025 64 16093 4.1 110 13:59 10.05.2020
3279 Clouds 3 1025 64 16093 4.1 110 13:39 10.05.2020
3280 Clouds 3 1025 64 16093 4.1 110 13:20 10.05.2020
3281 Clouds 3 1025 64 16093 4.1 150 12:58 10.05.2020
3282 Clouds 4 1025 64 16093 4.1 150 12:40 10.05.2020
3283 Clouds 4 1025 64 16093 4.1 150 12:21 10.05.2020
3284 Clouds 4 1022 54 0 0.45 121 11:58 10.05.2020
3285 Clouds 4 1019 53 0 0.45 130 11:39 10.05.2020
3286 Clouds 5 1024 55 0 3.15 138 11:20 10.05.2020
3287 Clouds 5 1024 55 0 3.15 138 11:20 10.05.2020
3288 Clouds 5 1027 55 16093 4.1 140 10:48 10.05.2020
3289 Clouds 6 1027 55 16093 4.1 140 10:29 10.05.2020
3290 Clouds 7 1027 52 16093 2.6 140 09:59 10.05.2020
3291 Clouds 7 1027 52 16093 2.6 140 09:40 10.05.2020
3292 Clouds 7 1027 52 16093 2.6 140 09:21 10.05.2020
3293 Clouds 8 1028 45 16093 2.1 110 08:52 10.05.2020
3294 Clouds 8 1028 45 16093 2.1 110 08:24 10.05.2020
3295 Clouds 8 1024 44 0 2.26 134 07:46 10.05.2020
3296 Clouds 9 1024 38 0 2.21 101 07:21 10.05.2020
3297 Clouds 9 1029 45 16093 4.1 80 06:58 10.05.2020
3298 Clouds 9 1029 45 16093 4.1 80 06:37 10.05.2020
3299 Clouds 9 1029 45 16093 4.1 80 06:18 10.05.2020
3300 Clouds 9 1028 45 16093 4.6 70 05:41 10.05.2020
3301 Clouds 9 1027 45 16093 7.7 40 04:39 10.05.2020
3302 Clouds 10 1027 45 16093 7.7 40 04:20 10.05.2020
3303 Clouds 11 1025 43 16093 7.2 40 03:39 10.05.2020
3304 Clouds 12 1025 40 16093 6.2 40 02:53 10.05.2020
3305 Clouds 12 1025 40 16093 6.2 40 02:24 10.05.2020
3306 Clouds 14 1024 37 16093 5.7 50 01:42 10.05.2020
3307 Clouds 14 1024 37 16093 5.7 50 01:21 10.05.2020
3308 Clouds 14 1024 33 16093 7.7 50 00:55 10.05.2020
3309 Clouds 15 1024 33 16093 7.7 50 00:29 10.05.2020
3310 Clouds 15 1024 35 16093 4.6 20 23:59 09.05.2020
3311 Clouds 15 1024 35 16093 4.6 20 23:39 09.05.2020
3312 Clouds 15 1024 36 16093 4.6 20 23:20 09.05.2020
3313 Clouds 15 1024 33 16093 5.7 40 22:44 09.05.2020
3314 Clouds 15 1024 33 16093 5.7 40 22:25 09.05.2020
3315 Clouds 15 1024 33 16093 5.7 40 22:25 09.05.2020
3316 Clouds 15 1024 33 16093 4.1 40 21:59 09.05.2020
3317 Clouds 15 1024 33 16093 4.1 40 21:41 09.05.2020
3318 Clouds 14 1024 33 16093 4.1 40 21:22 09.05.2020
3319 Clouds 14 1025 37 16093 7.2 20 20:58 09.05.2020
3320 Clouds 14 1025 37 16093 7.2 20 20:39 09.05.2020
3321 Clouds 13 1026 40 16093 6.7 340 20:20 09.05.2020
3322 Clouds 13 1025 37 16093 7.2 20 20:20 09.05.2020
3323 Clouds 13 1026 40 16093 6.7 340 19:58 09.05.2020
3324 Clouds 13 1026 40 16093 6.7 340 19:39 09.05.2020
3325 Clouds 12 1026 40 16093 6.7 340 19:19 09.05.2020
3326 Clouds 12 1025 43 16093 9.3 10 18:45 09.05.2020
3327 Clouds 11 1025 43 16093 9.3 10 18:26 09.05.2020
3328 Clouds 11 1025 41 16093 8.2 360 17:58 09.05.2020
3329 Clouds 11 1025 41 16093 8.2 360 17:40 09.05.2020
3330 Clouds 10 1025 45 16093 8.2 360 17:21 09.05.2020
3331 Clear 10 1021 47 0 0.45 321 16:41 09.05.2020
3332 Clouds 9 1025 61 16093 8.2 360 16:20 09.05.2020
3333 Clear 9 1021 57 0 0.89 47 15:45 09.05.2020
3334 Clear 8 1020 56 0 0.45 35 15:26 09.05.2020
3335 Clear 7 1020 56 0 0.45 30 14:59 09.05.2020
3336 Clear 6 1020 56 0 0.45 338 14:40 09.05.2020
3337 Clear 6 1019 62 0 0.45 38 14:19 09.05.2020
3338 Clouds 6 1022 65 16093 3.1 340 13:57 09.05.2020
3339 Clouds 6 1022 65 16093 3.1 340 13:38 09.05.2020
3340 Clouds 6 1022 65 16093 3.1 340 13:19 09.05.2020
3341 Clouds 7 1022 52 16093 7.7 340 12:41 09.05.2020
3342 Clouds 8 1022 52 16093 7.7 340 12:22 09.05.2020
3343 Clouds 8 1022 52 16093 7.7 340 12:22 09.05.2020
3344 Clouds 8 1021 49 16093 7.7 350 11:55 09.05.2020
3345 Clouds 8 1021 49 16093 7.7 350 11:37 09.05.2020
3346 Clouds 8 1020 45 16093 3.6 330 11:18 09.05.2020
3347 Clouds 8 1021 47 16093 7.7 350 11:18 09.05.2020
3348 Clouds 8 1020 45 16093 3.6 330 10:42 09.05.2020
3349 Clouds 8 1020 45 16093 3.6 330 10:23 09.05.2020
3350 Clouds 8 1018 36 16093 3.1 240 09:55 09.05.2020
3351 Clouds 8 1018 36 16093 3.1 240 09:37 09.05.2020
3352 Clouds 8 1018 36 16093 3.1 240 09:18 09.05.2020
3353 Clouds 8 1018 34 16093 9.8 180 08:48 09.05.2020
3354 Clouds 9 1018 34 16093 9.8 180 08:30 09.05.2020
3355 Clouds 9 1019 36 16093 8.7 170 07:48 09.05.2020
3356 Clouds 9 1019 36 16093 8.7 170 07:48 09.05.2020
3357 Clouds 9 1019 36 16093 8.7 170 07:30 09.05.2020
3358 Clouds 10 1019 34 16093 8.7 180 06:47 09.05.2020
3359 Clouds 11 1019 34 16093 8.7 180 06:22 09.05.2020
3360 Clouds 11 1019 34 16093 7.7 180 05:45 09.05.2020
3361 Clouds 14 1018 30 16093 7.2 170 03:44 09.05.2020
3362 Clouds 15 1018 30 16093 7.2 170 03:21 09.05.2020
3363 Clouds 16 1018 29 16093 7.2 160 02:30 09.05.2020
3364 Clouds 17 1019 29 16093 5.7 130 01:51 09.05.2020
3365 Clouds 17 1019 29 16093 5.7 130 01:23 09.05.2020
3366 Clouds 17 1020 27 16093 8.2 170 00:46 09.05.2020
3367 Clouds 17 1020 27 16093 8.2 170 00:28 09.05.2020
3368 Clear 17 1016 23 0 6.1 134 23:48 08.05.2020
3369 Clouds 16 1022 28 16093 6.2 160 23:28 08.05.2020
3370 Clouds 16 1022 28 16093 6.2 160 22:57 08.05.2020
3371 Clouds 16 1022 28 16093 6.2 160 22:39 08.05.2020
3372 Clouds 16 1022 28 16093 6.2 160 22:19 08.05.2020
3373 Clear 15 1018 24 0 0.45 154 21:58 08.05.2020
3374 Clouds 15 1024 32 16093 4.1 140 21:38 08.05.2020
3375 Clear 13 1019 27 0 3.38 129 21:18 08.05.2020
3376 Clouds 13 1026 37 16093 4.6 180 20:56 08.05.2020
3377 Clouds 12 1026 37 16093 4.6 180 20:38 08.05.2020
3378 Clouds 12 1026 37 16093 4.6 180 20:20 08.05.2020
3379 Clouds 11 1027 45 16093 3.6 150 19:42 08.05.2020
3380 Clouds 10 1027 45 16093 3.6 150 19:22 08.05.2020
3381 Clouds 9 1028 52 16093 2.1 200 18:50 08.05.2020
3382 Clouds 8 1028 52 16093 2.1 200 18:31 08.05.2020
3383 Clouds 6 1025 53 0 1.78 143 17:43 08.05.2020
3384 Clouds 5 1025 59 0 1.44 106 17:21 08.05.2020
3385 Clouds 5 1030 69 16093 1.5 190 16:58 08.05.2020
3386 Clouds 4 1030 69 16093 2.1 150 16:39 08.05.2020
3387 Clouds 4 1030 69 16093 2.1 150 16:21 08.05.2020
3388 Clouds 3 1030 74 16093 1.5 20 15:54 08.05.2020
3389 Clouds 3 1030 74 16093 1.5 20 15:36 08.05.2020
3390 Clouds 3 1030 74 16093 1.5 20 15:18 08.05.2020
3391 Clouds 2 1025 74 0 0.45 62 14:40 08.05.2020
3392 Clouds 2 1025 73 0 2.55 24 14:20 08.05.2020
3393 Clouds 2 1026 74 0 2.55 24 13:57 08.05.2020
3394 Clouds 3 1026 74 0 2.55 24 13:39 08.05.2020
3395 Clouds 3 1024 73 0 0.45 70 13:19 08.05.2020
3396 Clouds 3 1029 80 16093 5.7 30 12:45 08.05.2020
3397 Clouds 3 1024 71 0 0.45 66 12:23 08.05.2020
3398 Clouds 4 1029 74 16093 7.2 10 11:55 08.05.2020
3399 Clouds 4 1029 74 16093 7.2 10 11:36 08.05.2020
3400 Clouds 4 1029 74 16093 7.2 10 11:18 08.05.2020
3401 Clouds 4 1025 63 0 0.45 29 10:43 08.05.2020
3402 Clear 5 1024 63 0 0.89 53 10:21 08.05.2020
3403 Clouds 5 1029 69 16093 4.6 20 09:59 08.05.2020
3404 Clouds 5 1029 69 16093 4.6 20 09:40 08.05.2020
3405 Clouds 5 1029 69 16093 4.6 20 09:19 08.05.2020
3406 Clear 5 1028 64 16093 7.2 30 08:45 08.05.2020
3407 Clear 5 1028 64 16093 7.2 30 08:24 08.05.2020
3408 Clear 6 1026 65 16093 6.2 30 07:44 08.05.2020
3409 Clear 6 1023 55 0 0.89 34 07:25 08.05.2020
3410 Clouds 8 1024 42 16093 11.3 30 06:52 08.05.2020
3411 Clouds 9 1024 42 16093 11.3 30 06:25 08.05.2020
3412 Clouds 10 1022 25 16093 11.3 10 05:59 08.05.2020
3413 Clouds 14 1020 11 16093 10.3 340 04:50 08.05.2020
3414 Rain 18 1017 16 16093 5.1 10 02:54 08.05.2020
3415 Rain 19 1017 16 16093 5.1 10 02:21 08.05.2020
3416 Clouds 20 1016 19 16093 8.7 70 01:31 08.05.2020
3417 Clouds 21 1014 13 16093 3.1 40 00:58 08.05.2020
3418 Clouds 22 1014 13 16093 3.1 40 00:39 08.05.2020
3419 Clouds 22 1014 16 16093 4.6 60 00:21 08.05.2020
3420 Clouds 22 1014 16 16093 4.6 60 23:43 07.05.2020
3421 Clouds 22 1014 16 16093 4.6 60 23:23 07.05.2020
3422 Clouds 22 1014 16 16093 4.6 60 23:23 07.05.2020
3423 Clouds 22 1014 16 16093 4.6 60 23:23 07.05.2020
3424 Clear 22 1009 13 0 4.7 314 22:57 07.05.2020
3425 Clouds 22 1014 18 16093 5.1 70 22:39 07.05.2020
3426 Clouds 21 1014 18 16093 5.1 70 22:19 07.05.2020
3427 Clear 21 1009 15 0 3.79 109 21:56 07.05.2020
3428 Clouds 21 1014 19 16093 5.1 60 21:37 07.05.2020
3429 Clear 20 1009 16 0 3.27 124 21:19 07.05.2020
3430 Clouds 20 1015 22 16093 5.7 100 20:43 07.05.2020
3431 Clouds 20 1015 22 16093 5.7 100 20:23 07.05.2020
3432 Clear 19 1010 18 0 0.45 52 19:58 07.05.2020
3433 Clouds 19 1015 25 16093 6.7 90 19:40 07.05.2020
3434 Clear 18 1008 26 0 0.89 137 19:21 07.05.2020
3435 Clear 18 1008 27 0 1.34 71 18:45 07.05.2020
3436 Clouds 18 1016 26 16093 7.2 60 18:27 07.05.2020
3437 Clouds 18 1016 24 16093 3.1 40 17:57 07.05.2020
3438 Clouds 17 1016 24 16093 3.1 40 17:37 07.05.2020
3439 Clear 16 1011 27 0 0.69 326 17:18 07.05.2020
3440 Clear 15 1012 35 0 0.69 326 16:40 07.05.2020
3441 Clear 14 1012 37 0 0.95 288 16:18 07.05.2020
3442 Clear 13 1012 37 0 0.95 288 15:56 07.05.2020
3443 Clouds 11 1016 57 16093 2.1 220 15:37 07.05.2020
3444 Clouds 9 1016 57 16093 2.1 220 15:18 07.05.2020
3445 Clouds 8 1015 35 16093 1 295 14:44 07.05.2020
3446 Clouds 7 1015 39 16093 0.25 120 14:21 07.05.2020
3447 Clouds 8 1016 61 16093 3.1 240 13:45 07.05.2020
3448 Clouds 8 1016 61 16093 3.1 240 13:26 07.05.2020
3449 Clouds 8 1016 61 16093 3.1 220 12:55 07.05.2020
3450 Clouds 8 1016 61 16093 3.1 220 12:37 07.05.2020
3451 Clouds 8 1016 61 16093 3.1 220 12:18 07.05.2020
3452 Clear 9 1012 52 0 1.16 29 11:39 07.05.2020
3453 Clouds 9 1016 46 16093 6.2 200 11:21 07.05.2020
3454 Clouds 10 1016 50 16093 8.7 190 10:44 07.05.2020
3455 Clouds 10 1016 50 16093 8.7 190 10:26 07.05.2020
3456 Clouds 11 1017 43 16093 9.8 190 09:57 07.05.2020
3457 Clouds 11 1017 43 16093 9.8 190 09:38 07.05.2020
3458 Clouds 12 1017 43 16093 9.8 190 09:18 07.05.2020
3459 Clouds 12 1017 43 16093 9.8 190 08:43 07.05.2020
3460 Clouds 12 1017 43 16093 9.8 190 08:22 07.05.2020
3461 Clouds 13 1018 35 16093 9.3 190 07:58 07.05.2020
3462 Clouds 12 1018 35 16093 9.3 190 07:39 07.05.2020
3463 Clouds 12 1018 35 16093 9.3 190 07:19 07.05.2020
3464 Clouds 12 1019 33 16093 4.6 190 07:19 07.05.2020
3465 Clouds 13 1019 33 16093 4.6 190 06:37 07.05.2020
3466 Clouds 14 1019 29 16093 8.2 180 05:56 07.05.2020
3467 Clouds 17 1019 29 16093 4.6 160 04:27 07.05.2020
3468 Clouds 18 1019 25 16093 6.7 180 03:29 07.05.2020
3469 Clouds 19 1012 31 0 7.18 177 02:59 07.05.2020
3470 Clouds 19 1020 21 16093 5.1 150 02:26 07.05.2020
3471 Clouds 20 1020 21 16093 5.1 150 01:27 07.05.2020
3472 Clouds 21 1020 19 16093 4.1 160 00:52 07.05.2020
3473 Clouds 22 1020 19 16093 4.1 160 00:31 07.05.2020
3474 Clouds 22 1020 17 16093 3.1 140 23:58 06.05.2020
3475 Clouds 22 1020 17 16093 3.1 140 23:39 06.05.2020
3476 Clouds 22 1021 16 16093 2.1 240 23:21 06.05.2020
3477 Clouds 22 1021 16 16093 2.1 240 22:55 06.05.2020
3478 Clouds 22 1021 16 16093 2.1 240 22:37 06.05.2020
3479 Clouds 22 1021 16 16093 2.1 240 22:18 06.05.2020
3480 Clouds 21 1022 21 16093 2.6 180 21:42 06.05.2020
3481 Clouds 20 1022 21 16093 2.6 180 21:23 06.05.2020
3482 Clouds 19 1024 27 16093 2.6 0 20:57 06.05.2020
3483 Clouds 19 1024 27 16093 2.6 0 20:38 06.05.2020
3484 Clouds 18 1024 27 16093 2.6 0 20:20 06.05.2020
3485 Clouds 18 1025 27 16093 6.2 190 19:56 06.05.2020
3486 Clouds 17 1025 27 16093 6.2 190 19:37 06.05.2020
3487 Clouds 17 1025 27 16093 6.2 190 19:18 06.05.2020
3488 Clouds 17 1025 27 16093 6.2 190 19:18 06.05.2020
3489 Clouds 16 1026 31 16093 7.2 190 18:55 06.05.2020
3490 Clouds 15 1026 31 16093 7.2 190 18:37 06.05.2020
3491 Clear 14 1020 39 0 0.45 3 18:18 06.05.2020
3492 Clouds 13 1027 40 16093 5.7 130 17:54 06.05.2020
3493 Clouds 13 1027 40 16093 5.7 130 17:36 06.05.2020
3494 Clouds 12 1027 40 16093 5.7 130 17:18 06.05.2020
3495 Clouds 12 1027 40 16093 5.7 130 17:18 06.05.2020
3496 Clouds 11 1028 46 16093 5.7 140 16:57 06.05.2020
3497 Clouds 10 1028 46 16093 5.7 140 16:39 06.05.2020
3498 Clouds 11 1028 46 16093 5.7 140 16:39 06.05.2020
3499 Clear 10 1023 49 0 2.9 161 16:19 06.05.2020
3500 Clear 8 1028 57 0 2.9 161 15:45 06.05.2020
3501 Clouds 6 1028 69 16093 3.1 170 15:22 06.05.2020
3502 Clear 5 1024 62 0 3.18 152 14:56 06.05.2020
3503 Clear 4 1024 62 0 3.18 152 14:38 06.05.2020
3504 Clouds 4 1029 65 16093 1.5 110 14:19 06.05.2020
3505 Clouds 4 1029 65 16093 1.5 110 13:57 06.05.2020
3506 Clouds 4 1029 65 16093 1.5 110 13:37 06.05.2020
3507 Clouds 4 1029 65 16093 1.5 110 13:19 06.05.2020
3508 Clouds 5 1029 65 16093 2.41 135 12:42 06.05.2020
3509 Clouds 5 1029 65 16093 1.56 116 12:24 06.05.2020
3510 Clouds 6 1030 65 16093 1.56 116 11:42 06.05.2020
3511 Clouds 6 1030 65 16093 1.56 116 11:42 06.05.2020
3512 Clouds 6 1030 65 16093 1.44 72 11:22 06.05.2020
3513 Clear 7 1021 54 0 1.44 72 10:58 06.05.2020
3514 Clear 7 1021 53 0 1.44 72 10:39 06.05.2020
3515 Clear 7 1022 52 0 2.05 44 10:19 06.05.2020
3516 Clear 7 1022 51 0 2.05 44 09:57 06.05.2020
3517 Clear 8 1022 50 0 0.45 321 09:37 06.05.2020
3518 Clear 9 1026 46 0 4.47 50 09:19 06.05.2020
3519 Clear 10 1024 45 0 4.47 50 08:42 06.05.2020
3520 Clouds 10 1025 39 0 0.45 28 08:20 06.05.2020
3521 Clouds 10 1021 41 0 3.13 28 07:56 06.05.2020
3522 Clouds 10 1020 40 0 1.34 331 07:37 06.05.2020
3523 Clouds 11 1020 39 0 1.34 307 07:18 06.05.2020
3524 Clouds 12 1027 39 16093 4.1 70 06:45 06.05.2020
3525 Clouds 12 1019 35 0 1.34 11 06:20 06.05.2020
3526 Clouds 13 1025 26 16093 2.1 90 05:38 06.05.2020
3527 Clouds 15 1024 22 16093 3.1 70 04:50 06.05.2020
3528 Clouds 17 1023 18 16093 5.1 60 03:50 06.05.2020
3529 Clouds 18 1023 18 16093 5.1 60 03:24 06.05.2020
3530 Clouds 19 1023 17 16093 6.2 60 02:43 06.05.2020
3531 Clouds 19 1023 17 16093 6.2 60 02:20 06.05.2020
3532 Clouds 20 1022 15 16093 6.2 50 01:42 06.05.2020
3533 Clouds 21 1022 12 16093 2.6 50 00:57 06.05.2020
3534 Clouds 21 1022 12 16093 2.6 50 00:37 06.05.2020
3535 Clouds 21 1022 12 16093 2.6 50 00:18 06.05.2020
3536 Clouds 21 1022 11 16093 4.6 350 23:40 05.05.2020
3537 Clouds 21 1022 11 16093 4.6 350 23:19 05.05.2020
3538 Clouds 21 1023 12 16093 2.6 320 22:42 05.05.2020
3539 Clouds 20 1023 12 16093 2.6 320 22:20 05.05.2020
3540 Clouds 20 1023 13 16093 2.6 350 21:59 05.05.2020
3541 Clouds 19 1023 13 16093 2.6 350 21:41 05.05.2020
3542 Clear 20 1021 20 0 0.45 77 21:21 05.05.2020
3543 Clear 20 1019 10 0 3.77 114 20:59 05.05.2020
3544 Clear 19 1019 12 0 0.89 149 20:39 05.05.2020
3545 Clouds 19 1024 13 16093 2.6 20 20:19 05.05.2020
3546 Clear 18 1018 16 0 3.46 120 19:57 05.05.2020
3547 Clear 18 1018 21 0 0.45 49 19:37 05.05.2020
3548 Clear 17 1020 13 0 3.13 127 19:18 05.05.2020
3549 Clear 17 1020 13 0 0.89 282 18:55 05.05.2020
3550 Clouds 15 1025 18 16093 1.5 280 18:37 05.05.2020
3551 Clouds 15 1025 18 16093 1.5 280 18:18 05.05.2020
3552 Clouds 14 1026 26 16093 1.5 250 17:42 05.05.2020
3553 Clouds 13 1026 26 16093 1.5 250 17:24 05.05.2020
3554 Clouds 11 1025 37 16093 4.1 170 16:57 05.05.2020
3555 Clouds 10 1025 37 16093 4.1 170 16:37 05.05.2020
3556 Clouds 9 1021 55 0 0.45 178 16:18 05.05.2020
3557 Clouds 8 1024 58 0 1.04 81 15:55 05.05.2020
3558 Clouds 6 1025 42 16093 3.6 180 15:37 05.05.2020
3559 Clouds 5 1025 46 16093 3.6 180 15:18 05.05.2020
3560 Clouds 3 1024 80 16093 4.1 180 14:42 05.05.2020
3561 Clouds 3 1024 80 16093 4.1 180 14:42 05.05.2020
3562 Clouds 3 1024 80 16093 4.1 180 14:24 05.05.2020
3563 Clear 3 1024 49 16093 4.6 180 13:58 05.05.2020
3564 Clear 3 1024 49 16093 4.6 180 13:40 05.05.2020
3565 Clear 3 1024 50 16093 4.6 180 13:21 05.05.2020
3566 Clear 3 1024 27 16093 3.1 180 12:59 05.05.2020
3567 Clear 3 1024 27 16093 3.1 180 12:39 05.05.2020
3568 Clear 4 1024 28 16093 3.1 180 12:20 05.05.2020
3569 Clear 4 1018 79 0 1.12 100 11:57 05.05.2020
3570 Clear 4 1018 79 0 0.45 181 11:36 05.05.2020
3571 Clear 4 1018 79 0 0.45 167 11:18 05.05.2020
3572 Clear 4 1025 93 16093 4.1 180 11:18 05.05.2020
3573 Clear 5 1018 77 0 0.45 156 10:39 05.05.2020
3574 Clear 5 1018 77 0 0.45 156 10:39 05.05.2020
3575 Clear 5 1018 77 0 0.45 156 10:19 05.05.2020
3576 Clear 5 1025 86 16093 2.6 180 09:59 05.05.2020
3577 Clear 5 1025 86 16093 2.6 180 09:59 05.05.2020
3578 Clear 5 1025 86 16093 2.6 180 09:40 05.05.2020
3579 Clear 5 1025 86 16093 2.6 180 09:40 05.05.2020
3580 Clear 6 1019 71 0 1.47 40 09:22 05.05.2020
3581 Clear 6 1019 68 0 1.47 40 08:41 05.05.2020
3582 Clear 6 1019 67 0 1.25 4 08:20 05.05.2020
3583 Clear 7 1019 66 0 1.25 4 07:58 05.05.2020
3584 Clear 7 1019 63 0 0.45 156 07:38 05.05.2020
3585 Clear 8 1024 67 0 2.31 356 07:19 05.05.2020
3586 Clouds 9 1025 70 16093 5.1 60 06:49 05.05.2020
3587 Clouds 10 1025 70 16093 5.1 60 06:22 05.05.2020
3588 Clouds 13 1023 29 16093 8.7 10 05:37 05.05.2020
3589 Clouds 16 1020 16 16093 9.3 340 03:36 05.05.2020
3590 Clouds 19 1018 19 16093 13.9 320 01:51 05.05.2020
3591 Clouds 20 1018 29 16093 6.2 360 00:54 05.05.2020
3592 Clouds 20 1018 29 16093 6.2 360 00:22 05.05.2020
3593 Clouds 20 1018 37 16093 10.8 30 23:45 04.05.2020
3594 Clouds 20 1018 37 16093 10.8 30 23:23 04.05.2020
3595 Clouds 20 1017 34 16093 8.2 350 22:56 04.05.2020
3596 Clouds 20 1017 34 16093 8.2 350 22:38 04.05.2020
3597 Clouds 20 1017 34 16093 8.2 350 22:19 04.05.2020
3598 Clouds 20 1017 42 16093 6.7 20 21:53 04.05.2020
3599 Clouds 19 1017 42 16093 6.7 20 21:34 04.05.2020
3600 Clouds 19 1017 42 16093 6.7 20 21:34 04.05.2020
3601 Clouds 19 1008 28 0 3.13 336 20:56 04.05.2020
3602 Clouds 18 1018 45 16093 4.6 350 20:38 04.05.2020
3603 Clouds 18 1018 45 16093 4.6 350 20:38 04.05.2020
3604 Clouds 18 1018 45 16093 4.6 350 20:38 04.05.2020
3605 Clouds 18 1018 45 16093 4.6 350 20:38 04.05.2020
3606 Clouds 18 1018 45 16093 4.6 350 20:38 04.05.2020
3607 Clouds 18 1018 45 16093 4.6 350 20:18 04.05.2020
3608 Clouds 17 1018 48 16093 2.6 0 19:42 04.05.2020
3609 Clouds 17 1018 48 16093 2.6 0 19:21 04.05.2020
3610 Clouds 17 1018 48 16093 2.6 0 19:21 04.05.2020
3611 Clouds 16 1016 55 0 0.45 82 18:56 04.05.2020
3612 Clouds 16 1016 57 0 0.89 83 18:38 04.05.2020
3613 Clouds 15 1016 62 0 0.45 65 18:18 04.05.2020
3614 Clouds 15 1009 55 0 0.45 72 17:55 04.05.2020
3615 Clouds 14 1009 59 0 3.91 38 17:37 04.05.2020
3616 Clouds 13 1009 59 0 3.61 28 17:18 04.05.2020
3617 Clouds 12 1010 68 0 0.45 136 16:42 04.05.2020
3618 Clouds 11 1018 76 16093 1.5 300 16:21 04.05.2020
3619 Clouds 10 1010 78 0 0.45 143 15:47 04.05.2020
3620 Clouds 9 1018 81 16093 4.1 10 15:25 04.05.2020
3621 Clouds 9 1018 81 16093 4.1 10 14:58 04.05.2020
3622 Clouds 9 1010 76 0 0.98 30 14:40 04.05.2020
3623 Clouds 9 1010 76 0 0.98 30 14:40 04.05.2020
3624 Clouds 9 1010 76 0 0.98 30 14:40 04.05.2020
3625 Clouds 9 1010 76 0 0.98 30 14:40 04.05.2020
3626 Clouds 9 1010 76 0 0.98 30 14:40 04.05.2020
3627 Clouds 9 1017 76 16093 3.1 320 14:12 04.05.2020
3628 Clouds 9 1017 76 16093 3.1 320 14:12 04.05.2020
3629 Clouds 9 1017 76 16093 3.1 320 14:12 04.05.2020
3630 Clouds 9 1017 76 16093 3.1 320 14:12 04.05.2020
3631 Clouds 10 1009 64 0 0.45 322 12:49 04.05.2020
3632 Clouds 10 1009 64 0 0.45 322 12:49 04.05.2020
3633 Clouds 10 1009 64 0 0.45 322 12:49 04.05.2020
3634 Clouds 10 1009 64 0 0.45 322 12:49 04.05.2020
3635 Clouds 10 1009 64 0 3 59 12:49 04.05.2020
3636 Clouds 11 1009 64 0 0.45 62 12:25 04.05.2020
3637 Clouds 11 1009 64 0 0.45 62 12:25 04.05.2020
3638 Clouds 11 1009 64 0 0.45 62 12:25 04.05.2020
3639 Clouds 11 1009 64 0 0.45 62 12:25 04.05.2020
3640 Clouds 11 1009 64 0 0.45 62 12:25 04.05.2020
3641 Clouds 11 1016 76 16093 3.6 10 10:34 04.05.2020
3642 Rain 12 1017 76 16093 3.1 350 09:25 04.05.2020
3643 Rain 12 1009 62 0 0.45 45 09:25 04.05.2020
3644 Rain 12 1009 62 0 0.45 45 09:25 04.05.2020
3645 Rain 12 1009 62 0 0.45 45 09:25 04.05.2020
3646 Rain 12 1009 62 0 0.45 45 09:25 04.05.2020
3647 Clouds 13 1009 61 0 2.56 31 07:51 04.05.2020
3648 Clouds 13 1009 61 0 2.56 31 07:51 04.05.2020
3649 Clouds 13 1009 61 0 2.56 31 07:51 04.05.2020
3650 Clouds 13 1009 61 0 2.56 31 07:32 04.05.2020
3651 Clouds 13 1009 61 0 2.56 31 07:32 04.05.2020
3652 Clouds 13 1009 61 0 2.56 31 07:32 04.05.2020
3653 Clouds 13 1009 61 0 2.56 31 07:32 04.05.2020
3654 Rain 15 1014 61 0 0.45 183 04:58 04.05.2020
3655 Clouds 21 1013 35 16093 5.1 50 03:23 04.05.2020
3656 Clouds 22 1013 35 16093 5.1 50 02:31 04.05.2020
3657 Clouds 23 1006 37 0 0.45 49 00:45 04.05.2020
3658 Rain 23 1015 31 16093 4.1 40 23:46 03.05.2020
3659 Rain 23 1015 31 16093 4.1 40 23:25 03.05.2020
3660 Clouds 23 1015 43 16093 5.7 30 22:57 03.05.2020
3661 Clouds 23 1015 43 16093 5.7 30 22:39 03.05.2020
3662 Clouds 23 1016 49 16093 5.7 30 22:21 03.05.2020
3663 Clouds 22 1016 49 16093 5.7 30 21:41 03.05.2020
3664 Clouds 22 1016 49 16093 5.7 30 21:21 03.05.2020
3665 Clouds 21 1016 37 16093 4.6 50 20:47 03.05.2020
3666 Rain 21 1016 37 16093 4.6 50 20:23 03.05.2020
3667 Rain 20 1017 42 16093 2.42 79 19:56 03.05.2020
3668 Clouds 20 1017 42 16093 2.42 79 19:37 03.05.2020
3669 Clouds 20 1017 42 16093 1.71 99 19:18 03.05.2020
3670 Clouds 17 1017 52 16093 3.6 200 18:39 03.05.2020
3671 Clear 17 1013 54 0 0.97 120 18:20 03.05.2020
3672 Clouds 15 1018 62 16093 5.7 200 17:54 03.05.2020
3673 Clouds 15 1018 62 16093 5.7 200 17:36 03.05.2020
3674 Clouds 14 1018 62 16093 5.7 200 17:18 03.05.2020
3675 Clouds 13 1018 71 16093 5.7 210 16:40 03.05.2020
3676 Rain 12 1018 71 16093 5.7 210 16:18 03.05.2020
3677 Rain 10 1014 92 0 0.93 358 15:56 03.05.2020
3678 Clear 9 1019 100 12874 0.93 358 15:37 03.05.2020
3679 Clear 8 1019 100 12874 1.59 348 15:19 03.05.2020
3680 Rain 8 1019 100 201 2.6 250 14:54 03.05.2020
3681 Rain 7 1019 100 201 2.6 250 14:36 03.05.2020
3682 Rain 8 1019 100 805 3.1 290 14:18 03.05.2020
3683 Rain 8 1019 87 16093 1.5 300 13:37 03.05.2020
3684 Rain 8 1019 87 16093 1.5 300 13:37 03.05.2020
3685 Rain 8 1015 90 0 2.03 3 12:52 03.05.2020
3686 Clear 9 1015 89 0 1.86 2 12:28 03.05.2020
3687 Clear 9 1015 89 0 1.86 2 12:28 03.05.2020
3688 Clouds 9 1019 100 16093 6.2 170 11:57 03.05.2020
3689 Clouds 9 1019 100 16093 6.2 170 11:39 03.05.2020
3690 Rain 9 1019 100 16093 5.1 160 11:20 03.05.2020
3691 Rain 9 1019 100 16093 5.1 160 10:54 03.05.2020
3692 Rain 9 1019 100 16093 5.1 160 10:25 03.05.2020
3693 Clouds 10 1020 100 16093 6.2 160 09:40 03.05.2020
3694 Clouds 10 1020 100 16093 6.2 160 09:40 03.05.2020
3695 Rain 10 1021 93 16093 6.2 150 08:59 03.05.2020
3696 Rain 10 1021 93 16093 6.2 150 08:35 03.05.2020
3697 Rain 10 1021 93 16093 6.2 150 08:35 03.05.2020
3698 Rain 11 1021 100 16093 4.1 120 07:44 03.05.2020
3699 Rain 11 1021 100 16093 4.1 120 07:44 03.05.2020
3700 Rain 11 1021 100 16093 4.1 120 07:44 03.05.2020
3701 Rain 11 1021 100 16093 4.1 120 07:43 03.05.2020
3702 Rain 11 1022 100 11265 4.6 110 06:44 03.05.2020
3703 Rain 11 1022 100 11265 4.6 110 06:44 03.05.2020
3704 Rain 11 1022 100 12874 2.6 10 05:54 03.05.2020
3705 Rain 12 1022 100 16093 3.6 30 05:35 03.05.2020
3706 Rain 12 1019 87 16093 6.2 30 04:28 03.05.2020
3707 Thunderstorm 14 1019 67 16093 8.2 340 03:38 03.05.2020
3708 Drizzle 16 1017 63 16093 7.2 80 02:31 03.05.2020
3709 Clouds 16 1018 59 16093 7.2 60 01:59 03.05.2020
3710 Clouds 16 1018 59 16093 6.2 60 01:39 03.05.2020
3711 Clouds 17 1018 59 16093 6.2 60 01:20 03.05.2020
3712 Clouds 18 1017 48 16093 5.1 90 00:38 03.05.2020
3713 Clouds 20 1017 48 16093 5.1 90 00:20 03.05.2020
3714 Clouds 19 1018 51 16093 3.6 110 23:46 02.05.2020
3715 Clouds 19 1018 51 16093 3.6 110 23:27 02.05.2020
3716 Clouds 19 1018 51 16093 8.7 130 22:56 02.05.2020
3717 Clouds 18 1018 51 16093 8.7 130 22:38 02.05.2020
3718 Clouds 18 1018 51 16093 8.7 130 22:19 02.05.2020
3719 Clouds 17 1019 55 16093 7.7 140 21:41 02.05.2020
3720 Clouds 17 1015 52 0 1.34 157 21:20 02.05.2020
3721 Clouds 16 1015 54 0 0.89 77 20:58 02.05.2020
3722 Clouds 16 1020 67 16093 6.7 130 20:38 02.05.2020
3723 Clouds 16 1020 67 16093 6.7 130 20:20 02.05.2020
3724 Clouds 15 1021 67 16093 6.2 120 19:57 02.05.2020
3725 Clouds 15 1021 67 16093 6.2 120 19:39 02.05.2020
3726 Clouds 15 1021 67 16093 6.2 120 19:20 02.05.2020
3727 Clouds 15 1021 67 16093 6.2 120 19:20 02.05.2020
3728 Clouds 15 1017 63 0 0.45 73 18:56 02.05.2020
3729 Clouds 14 1017 63 0 0.45 99 18:37 02.05.2020
3730 Clouds 13 1021 76 16093 6.7 130 18:19 02.05.2020
3731 Clouds 13 1022 76 16093 7.2 130 17:55 02.05.2020
3732 Clouds 12 1022 76 16093 7.2 130 17:37 02.05.2020
3733 Clouds 12 1022 76 16093 7.2 130 17:19 02.05.2020
3734 Clouds 12 1022 81 16093 5.1 110 16:43 02.05.2020
3735 Clouds 11 1022 81 16093 5.1 110 16:25 02.05.2020
3736 Clouds 11 1022 87 16093 4.1 100 15:44 02.05.2020
3737 Clouds 11 1022 87 16093 4.1 100 15:21 02.05.2020
3738 Clouds 11 1021 93 16093 4.1 80 14:59 02.05.2020
3739 Clouds 11 1021 93 16093 4.1 80 14:40 02.05.2020
3740 Clouds 11 1021 93 16093 4.1 80 14:22 02.05.2020
3741 Clouds 11 1021 93 16093 3.6 40 13:41 02.05.2020
3742 Clouds 11 1021 93 16093 3.6 360 13:23 02.05.2020
3743 Clouds 11 1021 93 16093 3.6 360 12:56 02.05.2020
3744 Clouds 11 1021 93 16093 3.6 360 12:38 02.05.2020
3745 Clouds 11 1021 93 16093 3.6 360 12:20 02.05.2020
3746 Clouds 11 1021 93 16093 4.6 360 11:54 02.05.2020
3747 Clouds 12 1021 93 16093 4.6 360 11:36 02.05.2020
3748 Clouds 12 1021 93 16093 4.6 360 11:18 02.05.2020
3749 Clouds 12 1021 93 16093 5.1 360 10:39 02.05.2020
3750 Clouds 13 1017 73 0 3.25 69 10:21 02.05.2020
3751 Clouds 13 1021 81 16093 5.1 10 09:58 02.05.2020
3752 Clouds 13 1021 81 16093 5.1 10 09:39 02.05.2020
3753 Clouds 13 1017 69 0 0.45 12 09:21 02.05.2020
3754 Clouds 14 1020 76 16093 4.6 340 08:51 02.05.2020
3755 Clouds 14 1020 76 16093 4.6 340 08:31 02.05.2020
3756 Clouds 15 1019 62 16093 6.2 340 07:49 02.05.2020
3757 Clear 15 1016 56 0 1.34 304 07:30 02.05.2020
3758 Clear 16 1016 53 0 0.45 296 06:53 02.05.2020
3759 Rain 16 1018 53 0 0.89 313 06:23 02.05.2020
3760 Clouds 17 1015 51 16093 9.3 50 05:27 02.05.2020
3761 Clouds 23 1013 25 16093 11.8 40 04:26 02.05.2020
3762 Clouds 26 1012 16 16093 2.6 120 03:36 02.05.2020
3763 Clouds 27 1012 16 16093 2.1 130 02:39 02.05.2020
3764 Clouds 28 1012 16 16093 4.6 140 01:52 02.05.2020
3765 Clouds 28 1012 12 16093 6.7 120 00:58 02.05.2020
3766 Clouds 29 1012 12 16093 6.7 120 00:40 02.05.2020
3767 Clouds 28 1013 20 16093 7.7 90 00:18 02.05.2020
3768 Clouds 28 1013 20 16093 7.7 90 23:40 01.05.2020
3769 Clouds 28 1013 20 16093 7.7 90 23:20 01.05.2020
3770 Clouds 28 1009 16 0 0.45 28 22:58 01.05.2020
3771 Clouds 28 1009 15 0 4.12 121 22:38 01.05.2020
3772 Clouds 28 1009 15 0 0.45 70 22:19 01.05.2020
3773 Clouds 27 1015 21 16093 3.6 80 21:57 01.05.2020
3774 Clouds 27 1015 21 16093 3.6 80 21:39 01.05.2020
3775 Clouds 27 1015 21 16093 3.6 80 21:18 01.05.2020
3776 Clouds 26 1016 23 16093 3.1 90 20:56 01.05.2020
3777 Clouds 26 1016 23 16093 3.1 90 20:37 01.05.2020
3778 Clouds 26 1016 23 16093 3.1 90 20:19 01.05.2020
3779 Clouds 25 1016 25 16093 5.1 80 19:42 01.05.2020
3780 Clouds 25 1016 25 16093 5.1 80 19:23 01.05.2020
3781 Clouds 25 1016 27 16093 3.6 20 18:59 01.05.2020
3782 Clouds 24 1016 27 16093 3.6 20 18:40 01.05.2020
3783 Clouds 23 1016 27 16093 3.6 20 18:21 01.05.2020
3784 Clouds 21 1016 28 16093 6.2 220 17:58 01.05.2020
3785 Clouds 22 1016 28 16093 6.2 220 17:39 01.05.2020
3786 Clouds 21 1016 28 16093 6.2 220 17:21 01.05.2020
3787 Clear 20 1012 23 0 0.45 211 16:56 01.05.2020
3788 Clear 20 1012 25 0 1.34 202 16:38 01.05.2020
3789 Clouds 19 1016 34 16093 5.7 200 16:19 01.05.2020
3790 Clear 16 1012 28 0 1.34 150 15:55 01.05.2020
3791 Clouds 16 1016 50 16093 7.2 180 15:36 01.05.2020
3792 Clouds 15 1016 50 16093 7.2 180 15:18 01.05.2020
3793 Clouds 13 1015 57 16093 5.7 170 14:41 01.05.2020
3794 Clouds 13 1015 62 16093 3.6 180 14:23 01.05.2020
3795 Clouds 13 1015 62 16093 3.6 180 13:41 01.05.2020
3796 Clouds 13 1015 62 16093 3.6 180 13:23 01.05.2020
3797 Clouds 13 1015 62 16093 3.6 180 13:23 01.05.2020
3798 Clouds 13 1015 58 16093 3.1 180 12:58 01.05.2020
3799 Clouds 14 1015 58 16093 3.1 180 12:40 01.05.2020
3800 Clouds 14 1015 58 16093 3.1 180 12:20 01.05.2020
3801 Clouds 14 1015 62 16093 4.1 180 11:58 01.05.2020
3802 Clouds 14 1015 62 16093 4.1 180 11:58 01.05.2020
3803 Clouds 14 1015 62 16093 4.1 180 11:39 01.05.2020
3804 Clouds 14 1015 62 16093 4.1 180 11:19 01.05.2020
3805 Clouds 14 1002 49 0 0.45 355 10:41 01.05.2020
3806 Clouds 15 1004 52 0 0.52 98 10:20 01.05.2020
3807 Clouds 16 1012 37 0 0.52 98 09:55 01.05.2020
3808 Clouds 16 1006 39 0 0.45 17 09:37 01.05.2020
3809 Clouds 17 1003 43 0 0.89 281 09:18 01.05.2020
3810 Drizzle 19 1015 19 16093 6.2 270 08:42 01.05.2020
3811 Drizzle 19 1015 19 16093 6.2 270 08:24 01.05.2020
3812 Clouds 20 1013 28 16093 4.1 230 07:47 01.05.2020
3813 Clouds 21 1013 28 16093 4.1 230 07:23 01.05.2020
3814 Clouds 22 1013 19 16093 2.6 300 06:56 01.05.2020
3815 Clouds 23 1008 17 0 2.33 201 05:39 01.05.2020
3816 Clouds 24 1008 17 0 2.02 190 05:19 01.05.2020
3817 Clouds 27 1001 16 0 2.15 232 03:34 01.05.2020
3818 Clouds 27 1001 13 0 6.31 261 02:48 01.05.2020
3819 Clouds 28 1007 11 0 3.72 249 02:29 01.05.2020
3820 Clouds 27 1013 15 16093 5.1 140 01:36 01.05.2020
3821 Clouds 28 1013 15 16093 5.1 140 01:18 01.05.2020
3822 Clouds 28 1008 10 0 2.58 239 00:38 01.05.2020
3823 Clouds 28 1008 10 0 2.58 239 00:38 01.05.2020
3824 Clouds 27 1014 13 16093 2.6 100 00:20 01.05.2020
3825 Clouds 27 1014 13 16093 2.6 100 23:55 30.04.2020
3826 Clouds 28 1014 13 16093 2.6 100 23:37 30.04.2020
3827 Clouds 27 1015 12 16093 2.02 298 23:19 30.04.2020
3828 Clouds 27 1015 12 16093 2.02 298 22:41 30.04.2020
3829 Clouds 26 1015 12 16093 0.6 74 22:21 30.04.2020
3830 Clouds 26 1016 15 16093 2.1 190 21:57 30.04.2020
3831 Clouds 25 1016 15 16093 2.1 190 21:38 30.04.2020
3832 Clouds 25 1017 19 16093 2.6 200 21:19 30.04.2020
3833 Clouds 25 1017 19 16093 2.6 200 20:54 30.04.2020
3834 Clouds 24 1017 19 16093 2.6 200 20:36 30.04.2020
3835 Clouds 24 1017 23 16093 2.6 210 20:18 30.04.2020
3836 Clouds 23 1017 23 16093 2.6 210 19:42 30.04.2020
3837 Clouds 22 1017 23 16093 2.6 210 19:24 30.04.2020
3838 Clouds 21 1018 10 16093 3.6 220 18:56 30.04.2020
3839 Clouds 21 1018 10 16093 3.6 220 18:37 30.04.2020
3840 Clouds 19 1018 12 16093 3.6 220 18:19 30.04.2020
3841 Clouds 18 1018 29 16093 3.6 200 17:56 30.04.2020
3842 Clouds 18 1018 29 16093 3.6 200 17:37 30.04.2020
3843 Clouds 18 1018 29 16093 3.6 200 17:37 30.04.2020
3844 Clouds 16 1018 29 16093 3.6 200 17:18 30.04.2020
3845 Clouds 16 1018 33 16093 3.1 170 16:54 30.04.2020
3846 Clouds 15 1018 33 16093 3.1 170 16:36 30.04.2020
3847 Clouds 13 1018 33 16093 3.1 170 16:36 30.04.2020
3848 Clouds 13 1018 33 16093 3.1 170 16:18 30.04.2020
3849 Clouds 11 1018 34 16093 2.1 210 15:43 30.04.2020
3850 Clouds 10 1018 34 16093 2.1 210 15:21 30.04.2020
3851 Clouds 9 1018 39 16093 3.6 220 14:42 30.04.2020
3852 Clouds 9 1018 34 16093 2.1 230 14:21 30.04.2020
3853 Clouds 9 1018 34 16093 2.1 230 13:58 30.04.2020
3854 Clouds 9 1018 34 16093 2.1 230 13:40 30.04.2020
3855 Clouds 9 1018 34 16093 2.1 230 13:40 30.04.2020
3856 Clouds 9 1018 34 16093 2.1 230 13:22 30.04.2020
3857 Clouds 10 1018 32 16093 1.07 188 12:58 30.04.2020
3858 Clouds 10 1018 32 16093 1.07 188 12:40 30.04.2020
3859 Clouds 10 1018 32 16093 0.7 193 12:18 30.04.2020
3860 Clouds 10 1019 37 16093 4.6 210 11:38 30.04.2020
3861 Clouds 10 1020 34 16093 2.6 200 11:19 30.04.2020
3862 Clouds 10 1020 34 16093 2.6 200 10:57 30.04.2020
3863 Clouds 10 1020 34 16093 2.6 200 10:57 30.04.2020
3864 Clouds 10 1020 34 16093 2.6 200 10:38 30.04.2020
3865 Clouds 10 1020 34 16093 2.6 200 10:19 30.04.2020
3866 Clouds 10 1021 32 16093 3.6 180 09:55 30.04.2020
3867 Clouds 10 1021 32 16093 3.6 180 09:36 30.04.2020
3868 Clouds 11 1021 32 16093 3.6 180 09:18 30.04.2020
3869 Clouds 11 1022 34 16093 4.1 180 08:42 30.04.2020
3870 Clouds 12 1022 34 16093 4.1 180 08:23 30.04.2020
3871 Clouds 13 1022 30 16093 5.7 180 07:43 30.04.2020
3872 Clouds 13 1022 30 16093 5.7 180 07:25 30.04.2020
3873 Clouds 13 1022 37 16093 5.7 150 06:48 30.04.2020
3874 Clouds 15 1015 30 0 2.96 151 05:50 30.04.2020
3875 Clouds 15 1015 26 0 2.96 151 05:30 30.04.2020
3876 Clear 18 1018 18 0 4.02 121 04:33 30.04.2020
3877 Clouds 20 1022 22 16093 3.1 120 03:53 30.04.2020
3878 Clouds 22 1023 18 16093 3.1 110 02:43 30.04.2020
3879 Clouds 22 1023 18 16093 3.1 110 02:23 30.04.2020
3880 Clouds 22 1023 18 16093 3.6 100 01:35 30.04.2020
3881 Clouds 22 1024 18 16093 4.1 140 00:42 30.04.2020
3882 Clouds 21 1024 18 16093 4.1 140 00:19 30.04.2020
3883 Clouds 21 1025 16 16093 3.1 80 23:56 29.04.2020
3884 Clouds 21 1025 16 16093 3.1 80 23:36 29.04.2020
3885 Clear 21 1020 13 0 0.45 33 23:18 29.04.2020
3886 Clear 21 1020 13 0 0.45 33 23:18 29.04.2020
3887 Clouds 21 1026 19 16093 4.1 60 22:40 29.04.2020
3888 Clouds 20 1026 19 16093 4.1 60 22:21 29.04.2020
3889 Clouds 20 1027 18 16093 3.1 40 21:57 29.04.2020
3890 Clouds 20 1027 18 16093 3.1 40 21:36 29.04.2020
3891 Clouds 19 1027 18 16093 3.1 40 21:18 29.04.2020
3892 Clouds 18 1027 21 16093 3.1 50 20:40 29.04.2020
3893 Clear 18 1023 17 0 0.45 128 20:20 29.04.2020
3894 Clear 17 1023 18 0 0.45 144 19:58 29.04.2020
3895 Clear 17 1023 18 0 2.64 111 19:40 29.04.2020
3896 Clear 17 1023 18 0 2.64 111 19:40 29.04.2020
3897 Clouds 16 1028 22 16093 1.5 30 19:19 29.04.2020
3898 Clear 15 1024 24 0 1.34 156 18:43 29.04.2020
3899 Clear 14 1024 25 0 0.45 140 18:24 29.04.2020
3900 Clear 13 1024 26 0 0.45 128 17:57 29.04.2020
3901 Clear 13 1024 26 0 0.45 128 17:57 29.04.2020
3902 Clouds 13 1028 29 16093 2.62 162 17:39 29.04.2020
3903 Clouds 12 1028 29 16093 2.49 161 17:20 29.04.2020
3904 Clear 10 1024 44 0 2.49 161 16:39 29.04.2020
3905 Clear 10 1024 47 0 0.45 201 16:39 29.04.2020
3906 Clouds 10 1028 52 16093 2.1 200 16:19 29.04.2020
3907 Clear 8 1024 52 0 0.45 203 15:57 29.04.2020
3908 Clear 7 1027 59 0 2.11 141 15:39 29.04.2020
3909 Clouds 5 1028 64 16093 3.1 180 15:20 29.04.2020
3910 Clouds 4 1028 69 16093 2.6 200 14:57 29.04.2020
3911 Clouds 4 1028 69 16093 2.6 200 14:38 29.04.2020
3912 Clouds 4 1028 69 16093 2.6 200 14:38 29.04.2020
3913 Clear 4 1027 48 16093 1.5 140 14:18 29.04.2020
3914 Clear 4 1027 48 16093 1.5 140 13:42 29.04.2020
3915 Clear 4 1027 48 16093 1.5 140 13:20 29.04.2020
3916 Clear 4 1027 41 16093 1.95 96 12:57 29.04.2020
3917 Clear 5 1027 41 16093 1.95 96 12:39 29.04.2020
3918 Clear 5 1027 41 16093 2.01 86 12:18 29.04.2020
3919 Clear 5 1027 52 16093 2.01 86 11:40 29.04.2020
3920 Clear 6 1027 52 16093 2.01 79 11:21 29.04.2020
3921 Clear 6 1027 48 16093 1.5 90 10:57 29.04.2020
3922 Clear 6 1027 48 16093 1.5 90 10:37 29.04.2020
3923 Clear 6 1027 48 16093 1.5 90 10:19 29.04.2020
3924 Clear 7 1027 56 16093 2.6 120 09:42 29.04.2020
3925 Clear 8 1027 56 16093 2.6 120 09:23 29.04.2020
3926 Clear 8 1026 56 16093 3.1 130 08:56 29.04.2020
3927 Clear 8 1026 56 16093 3.1 130 08:37 29.04.2020
3928 Clear 9 1026 20 16093 2.1 120 08:19 29.04.2020
3929 Clear 9 1026 20 16093 2.1 120 07:41 29.04.2020
3930 Clouds 10 1015 46 0 3.71 57 07:23 29.04.2020
3931 Clouds 11 1022 40 0 3.71 57 06:50 29.04.2020
3932 Clouds 11 1014 44 0 0.45 33 06:30 29.04.2020
3933 Clouds 13 1015 43 0 0.45 69 05:21 29.04.2020
3934 Clouds 13 1015 43 0 0.45 69 05:21 29.04.2020
3935 Clouds 13 1015 43 0 0.45 69 05:21 29.04.2020
3936 Clouds 13 1012 42 0 1.79 25 04:38 29.04.2020
3937 Clouds 14 1014 41 0 2.24 59 04:18 29.04.2020
3938 Clouds 18 1021 14 16093 9.8 40 02:39 29.04.2020
3939 Clouds 21 1020 26 16093 9.3 40 01:44 29.04.2020
3940 Clouds 22 1019 26 16093 6.2 40 01:21 29.04.2020
3941 Clouds 22 1019 26 16093 6.2 40 00:40 29.04.2020
3942 Clouds 22 1019 26 16093 6.2 40 00:19 29.04.2020
3943 Clouds 22 1019 26 16093 9.3 40 23:48 28.04.2020
3944 Clouds 22 1019 26 16093 9.3 40 23:23 28.04.2020
3945 Clouds 22 1019 13 16093 10.3 350 22:55 28.04.2020
3946 Clouds 23 1019 13 16093 10.3 350 22:37 28.04.2020
3947 Clouds 23 1019 13 16093 10.3 350 22:18 28.04.2020
3948 Clouds 22 1019 15 16093 4.1 310 21:54 28.04.2020
3949 Clouds 22 1019 15 16093 4.1 310 21:36 28.04.2020
3950 Clouds 22 1019 15 16093 4.1 310 21:18 28.04.2020
3951 Clouds 22 1019 15 16093 7.2 350 20:40 28.04.2020
3952 Clouds 21 1019 15 16093 7.2 350 20:21 28.04.2020
3953 Clouds 21 1015 11 0 0.89 260 19:58 28.04.2020
3954 Clouds 21 1015 12 0 3.13 310 19:40 28.04.2020
3955 Clouds 20 1019 13 16093 2.1 320 19:21 28.04.2020
3956 Clear 20 1015 12 0 1.79 300 18:58 28.04.2020
3957 Clear 20 1015 11 0 1.79 295 18:38 28.04.2020
3958 Clear 19 1015 21 0 6.28 309 18:19 28.04.2020
3959 Clear 19 1015 25 0 0.45 281 17:38 28.04.2020
3960 Clear 18 1015 28 0 3.92 329 17:20 28.04.2020
3961 Clear 17 1015 31 0 3.92 329 16:59 28.04.2020
3962 Clear 17 1015 33 0 3.92 329 16:40 28.04.2020
3963 Clouds 17 1019 41 16093 4.6 70 16:40 28.04.2020
3964 Clear 16 1015 36 0 0.45 86 16:22 28.04.2020
3965 Clear 16 1015 38 0 3.81 334 15:56 28.04.2020
3966 Clouds 14 1019 62 16093 2.6 160 15:38 28.04.2020
3967 Clouds 14 1019 62 16093 2.6 160 15:20 28.04.2020
3968 Clouds 12 1018 66 16093 2.6 170 14:56 28.04.2020
3969 Clouds 12 1018 66 16093 2.6 170 14:38 28.04.2020
3970 Clouds 12 1018 66 16093 2.6 170 14:19 28.04.2020
3971 Clouds 12 1016 54 0 4.4 283 13:56 28.04.2020
3972 Clouds 12 1013 43 0 4.4 283 13:37 28.04.2020
3973 Clouds 12 1008 50 0 0.45 202 13:19 28.04.2020
3974 Clouds 12 1017 53 16093 3.1 120 12:43 28.04.2020
3975 Clouds 12 1017 53 16093 3.1 120 12:43 28.04.2020
3976 Clouds 13 1017 53 16093 3.1 120 12:23 28.04.2020
3977 Clouds 14 1016 50 16093 3.6 90 11:43 28.04.2020
3978 Clouds 14 1016 50 16093 3.6 90 11:23 28.04.2020
3979 Clouds 15 1016 44 16093 5.1 60 10:58 28.04.2020
3980 Clouds 15 1016 44 16093 5.1 60 10:38 28.04.2020
3981 Clouds 16 1016 41 16093 2.6 90 10:19 28.04.2020
3982 Clouds 16 1016 41 16093 2.6 90 09:45 28.04.2020
3983 Clouds 17 1016 41 16093 2.6 90 09:26 28.04.2020
3984 Clouds 17 1016 29 16093 4.6 20 08:57 28.04.2020
3985 Clouds 18 1016 29 16093 4.6 20 08:38 28.04.2020
3986 Clouds 17 1016 29 16093 4.6 20 08:20 28.04.2020
3987 Clouds 17 1015 21 16093 4.1 190 07:44 28.04.2020
3988 Clouds 17 1015 29 16093 3.1 230 07:19 28.04.2020
3989 Clouds 18 1015 29 16093 3.1 230 06:43 28.04.2020
3990 Clouds 19 1015 13 16093 4.1 150 05:53 28.04.2020
3991 Clouds 19 1005 25 0 0.45 138 05:35 28.04.2020
3992 Clouds 21 1010 15 0 1.27 266 04:35 28.04.2020
3993 Clouds 24 1015 18 16093 1.5 80 02:39 28.04.2020
3994 Clouds 25 1015 14 11265 3.1 10 01:53 28.04.2020
3995 Clouds 25 1015 14 11265 3.1 10 01:22 28.04.2020
3996 Clouds 25 1015 16 16093 2.1 280 00:42 28.04.2020
3997 Clouds 25 1016 16 14484 1.5 0 23:58 27.04.2020
3998 Clouds 25 1016 16 14484 1.5 0 23:40 27.04.2020
3999 Clouds 25 1016 16 14484 1.5 0 23:20 27.04.2020
4000 Clear 25 1017 17 16093 2.6 20 22:43 27.04.2020
4001 Clear 24 1017 17 16093 2.6 20 22:23 27.04.2020
4002 Clear 24 1015 22 0 0.89 266 21:57 27.04.2020
4003 Clouds 24 1017 18 16093 1.58 149 21:39 27.04.2020
4004 Clouds 23 1017 18 16093 1.58 149 21:19 27.04.2020
4005 Clear 23 1013 14 0 1.58 149 20:56 27.04.2020
4006 Clear 23 1013 14 0 0.89 283 20:38 27.04.2020
4007 Clouds 22 1019 21 16093 2.6 240 20:19 27.04.2020
4008 Clear 22 1010 22 0 2.88 157 19:55 27.04.2020
4009 Clear 22 1017 26 0 0.89 157 19:36 27.04.2020
4010 Clear 21 990 25 0 1.34 175 19:18 27.04.2020
4011 Clouds 20 1019 25 16093 3.1 230 18:40 27.04.2020
4012 Clouds 16 1019 18 16093 5.1 210 18:20 27.04.2020
4013 Clouds 17 1019 18 16093 5.1 210 17:58 27.04.2020
4014 Clouds 18 1019 18 16093 5.1 210 17:40 27.04.2020
4015 Clear 16 1011 37 0 0.45 188 17:19 27.04.2020
4016 Clouds 15 1019 43 16093 5.1 200 16:40 27.04.2020
4017 Clouds 15 1019 43 16093 5.1 200 16:40 27.04.2020
4018 Clear 13 1015 34 0 0.45 163 16:22 27.04.2020
4019 Clear 12 1015 36 0 0.45 207 15:57 27.04.2020
4020 Clouds 11 1019 24 16093 4.6 190 15:38 27.04.2020
4021 Clouds 9 1019 38 16093 4.6 190 15:19 27.04.2020
4022 Clouds 8 1019 38 16093 4.1 190 14:58 27.04.2020
4023 Clouds 7 1019 37 16093 4.1 190 14:40 27.04.2020
4024 Clouds 7 1019 37 16093 4.1 190 14:19 27.04.2020
4025 Clear 7 1019 37 16093 4.6 190 13:55 27.04.2020
4026 Clear 7 1019 37 16093 4.6 190 13:36 27.04.2020
4027 Clear 8 1019 61 16093 4.6 190 13:18 27.04.2020
4028 Clear 8 1019 61 16093 4.6 190 12:42 27.04.2020
4029 Clear 8 1019 61 16093 4.6 190 12:20 27.04.2020
4030 Clouds 8 1019 70 16093 4.1 180 11:42 27.04.2020
4031 Clouds 9 1019 70 16093 4.1 180 11:22 27.04.2020
4032 Clouds 9 1020 70 16093 3.1 200 10:58 27.04.2020
4033 Clouds 9 1020 70 16093 3.1 200 10:39 27.04.2020
4034 Clouds 9 1020 70 16093 3.1 200 10:21 27.04.2020
4035 Clouds 9 1020 57 16093 2.6 210 09:54 27.04.2020
4036 Clouds 9 1020 57 16093 2.6 210 09:36 27.04.2020
4037 Clouds 10 1020 57 16093 2.6 210 09:18 27.04.2020
4038 Clouds 11 1020 53 16093 2.1 210 08:43 27.04.2020
4039 Clouds 13 1020 53 16093 2.1 210 08:25 27.04.2020
4040 Clouds 13 1020 39 16093 2.6 330 07:44 27.04.2020
4041 Clouds 13 1020 39 16093 2.6 330 07:22 27.04.2020
4042 Clouds 13 1020 39 16093 2.44 240 06:57 27.04.2020
4043 Clouds 14 1020 41 16093 4.59 189 06:27 27.04.2020
4044 Clouds 14 1019 41 16093 3.6 240 05:50 27.04.2020
4045 Clouds 15 1018 41 16093 3.6 200 04:51 27.04.2020
4046 Clouds 16 1018 44 16093 4.1 160 03:59 27.04.2020
4047 Clouds 16 1018 44 16093 4.1 160 03:36 27.04.2020
4048 Clouds 17 1017 42 16093 7.7 350 01:43 27.04.2020
4049 Clouds 19 1017 29 16093 8.7 10 00:59 27.04.2020
4050 Clouds 20 1017 29 16093 9.3 350 00:20 27.04.2020
4051 Clouds 21 1016 19 16093 4.1 310 23:56 26.04.2020
4052 Clouds 22 1016 19 16093 4.1 310 23:38 26.04.2020
4053 Clouds 22 1016 19 16093 4.1 310 23:38 26.04.2020
4054 Clouds 21 1016 19 16093 4.1 310 23:19 26.04.2020
4055 Clouds 22 1017 17 16093 3.6 290 22:58 26.04.2020
4056 Clouds 22 1017 17 16093 3.6 290 22:58 26.04.2020
4057 Clouds 22 1017 17 16093 3.6 290 22:39 26.04.2020
4058 Clouds 22 1017 17 16093 3.6 290 22:20 26.04.2020
4059 Clouds 22 1017 17 16093 1.5 50 21:57 26.04.2020
4060 Clouds 22 1017 17 16093 1.5 50 21:38 26.04.2020
4061 Clouds 22 1017 17 16093 1.5 50 21:18 26.04.2020
4062 Clouds 22 1017 17 16093 1.5 50 21:18 26.04.2020
4063 Clouds 22 1017 17 16093 1.5 50 21:18 26.04.2020
4064 Clouds 21 1017 15 16093 1.5 0 21:18 26.04.2020
4065 Clouds 21 1017 17 16093 1.5 50 21:18 26.04.2020
4066 Clouds 21 1018 16 16093 1.5 170 20:54 26.04.2020
4067 Clouds 21 1018 16 16093 1.5 170 20:36 26.04.2020
4068 Clouds 21 1019 16 16093 2.1 260 20:18 26.04.2020
4069 Clouds 21 1019 16 16093 2.1 260 19:56 26.04.2020
4070 Clouds 21 1019 16 16093 2.1 260 19:36 26.04.2020
4071 Clouds 21 1019 16 16093 2.1 260 19:18 26.04.2020
4072 Clouds 20 1019 22 16093 3.1 220 18:40 26.04.2020
4073 Clouds 18 1019 22 16093 3.1 220 18:21 26.04.2020
4074 Clouds 17 1019 28 16093 6.2 220 17:42 26.04.2020
4075 Clouds 15 1019 37 16093 5.7 230 17:22 26.04.2020
4076 Clouds 14 1019 37 16093 4.1 200 16:55 26.04.2020
4077 Clouds 13 1019 37 16093 4.1 200 16:37 26.04.2020
4078 Clouds 12 1019 37 16093 4.1 200 16:19 26.04.2020
4079 Clouds 10 1019 49 16093 5.1 210 15:56 26.04.2020
4080 Clouds 10 1019 49 16093 5.1 210 15:37 26.04.2020
4081 Clouds 9 1019 49 16093 5.1 210 15:18 26.04.2020
4082 Clouds 8 1019 56 16093 3.6 180 14:40 26.04.2020
4083 Clouds 8 1019 56 16093 3.6 180 14:19 26.04.2020
4084 Clouds 8 1019 49 16093 6.2 190 13:58 26.04.2020
4085 Clouds 8 1019 49 16093 6.2 190 13:39 26.04.2020
4086 Clouds 8 1019 49 16093 6.2 190 13:21 26.04.2020
4087 Clouds 8 1019 49 16093 5.7 190 12:55 26.04.2020
4088 Clouds 8 1019 49 16093 5.7 190 12:36 26.04.2020
4089 Clouds 9 1019 49 16093 5.7 190 12:18 26.04.2020
4090 Clouds 9 1019 46 16093 8.7 190 11:43 26.04.2020
4091 Clouds 9 1019 46 16093 8.7 190 11:23 26.04.2020
4092 Clouds 10 1020 43 16093 10.3 190 10:59 26.04.2020
4093 Clouds 9 1020 43 16093 10.3 190 10:59 26.04.2020
4094 Clouds 10 1020 43 16093 10.3 190 10:59 26.04.2020
4095 Clouds 10 1020 43 16093 10.3 190 10:41 26.04.2020
4096 Clouds 10 1020 43 16093 10.3 190 10:23 26.04.2020
4097 Clear 10 1020 40 16093 1.5 210 09:57 26.04.2020
4098 Clouds 10 1020 43 16093 10.3 190 09:37 26.04.2020
4099 Clouds 11 1021 40 16093 5.7 180 09:18 26.04.2020
4100 Clouds 11 1021 43 16093 9.3 180 08:41 26.04.2020
4101 Clouds 11 1021 43 16093 9.3 180 08:41 26.04.2020
4102 Clouds 11 1021 43 16093 9.3 180 08:22 26.04.2020
4103 Clear 11 1021 32 16093 3.6 240 07:48 26.04.2020
4104 Clouds 11 1021 45 16093 6.2 190 07:23 26.04.2020
4105 Clouds 11 1022 45 16093 4.6 150 06:47 26.04.2020
4106 Clouds 11 1022 45 16093 4.6 150 06:21 26.04.2020
4107 Clouds 12 1021 43 16093 3.6 150 05:49 26.04.2020
4108 Clouds 12 1021 43 16093 3.6 150 05:28 26.04.2020
4109 Clouds 14 1021 40 16093 3.1 130 04:30 26.04.2020
4110 Clear 15 1020 30 16093 2.1 30 03:35 26.04.2020
4111 Clear 18 1021 23 16093 3.36 2 02:33 26.04.2020
4112 Clouds 18 1021 25 16093 2.52 25 01:57 26.04.2020
4113 Clouds 18 1021 25 16093 2.52 25 01:36 26.04.2020
4114 Clouds 18 1021 26 16093 3.1 250 00:41 26.04.2020
4115 Clouds 17 1022 25 16093 1.74 85 00:20 26.04.2020
4116 Clouds 17 1022 25 16093 1.74 85 00:20 26.04.2020
4117 Clouds 17 1022 25 16093 1.74 85 23:55 25.04.2020
4118 Clouds 17 1022 25 16093 1.74 85 23:36 25.04.2020
4119 Clouds 17 1022 25 16093 1.74 85 23:18 25.04.2020
4120 Clouds 17 1022 29 16093 3.6 20 22:41 25.04.2020
4121 Clouds 16 1022 29 16093 3.6 20 22:20 25.04.2020
4122 Clouds 16 1023 33 16093 4.1 300 21:58 25.04.2020
4123 Clouds 16 1023 33 16093 4.1 300 21:37 25.04.2020
4124 Clouds 14 1023 33 16093 4.1 300 21:18 25.04.2020
4125 Clouds 14 1024 35 16093 2.6 30 20:42 25.04.2020
4126 Clouds 14 1024 35 16093 2.6 30 20:23 25.04.2020
4127 Clouds 13 1024 32 16093 2.1 280 19:59 25.04.2020
4128 Clouds 14 1024 32 16093 2.1 280 19:38 25.04.2020
4129 Clouds 14 1024 32 16093 2.1 280 19:20 25.04.2020
4130 Clouds 13 1024 43 16093 4.1 250 18:43 25.04.2020
4131 Clouds 10 1024 43 16093 4.1 250 18:22 25.04.2020
4132 Clouds 10 1024 57 16093 5.1 230 17:59 25.04.2020
4133 Clouds 10 1024 57 16093 5.1 230 17:39 25.04.2020
4134 Clouds 10 1024 57 16093 5.1 230 17:21 25.04.2020
4135 Clouds 10 1024 57 16093 5.1 230 17:21 25.04.2020
4136 Clouds 9 1024 75 16093 4.1 220 16:59 25.04.2020
4137 Clouds 8 1024 75 16093 4.1 220 16:41 25.04.2020
4138 Clouds 7 1024 75 16093 4.1 220 16:21 25.04.2020
4139 Clouds 6 1024 86 16093 1.5 320 15:55 25.04.2020
4140 Clouds 6 1024 86 16093 1.5 320 15:36 25.04.2020
4141 Clouds 5 1024 86 16093 1.5 320 15:18 25.04.2020
4142 Clouds 5 1024 93 16093 0.24 348 14:40 25.04.2020
4143 Clouds 5 1023 86 16093 2.1 10 14:21 25.04.2020
4144 Clouds 5 1023 86 16093 2.1 10 13:59 25.04.2020
4145 Clouds 5 1023 86 16093 2.1 10 13:59 25.04.2020
4146 Clouds 5 1023 86 16093 2.1 10 13:41 25.04.2020
4147 Clouds 5 1023 86 16093 2.1 10 13:18 25.04.2020
4148 Clouds 5 1023 93 16093 2.6 180 12:55 25.04.2020
4149 Clouds 5 1023 93 16093 2.6 180 12:37 25.04.2020
4150 Clouds 5 1023 93 16093 2.6 180 12:18 25.04.2020
4151 Clouds 5 1023 86 16093 1.5 120 12:18 25.04.2020
4152 Clouds 5 1023 86 16093 1.5 120 11:42 25.04.2020
4153 Clouds 5 1023 86 16093 1.5 120 11:24 25.04.2020
4154 Clear 5 1023 70 16093 1.12 263 10:57 25.04.2020
4155 Clouds 5 1022 70 16093 2.1 100 10:38 25.04.2020
4156 Clouds 5 1022 70 16093 2.1 100 10:19 25.04.2020
4157 Clouds 5 1023 80 16093 1.5 200 09:43 25.04.2020
4158 Clouds 5 1022 80 16093 2.6 200 09:22 25.04.2020
4159 Clouds 6 1022 80 16093 2.6 200 08:55 25.04.2020
4160 Clouds 6 1022 80 16093 2.6 200 08:37 25.04.2020
4161 Clouds 6 1022 75 16093 2.1 180 08:19 25.04.2020
4162 Clouds 6 1022 75 16093 2.1 180 07:43 25.04.2020
4163 Clouds 7 1022 75 16093 2.1 180 07:22 25.04.2020
4164 Clouds 7 1022 75 16093 2.1 180 06:42 25.04.2020
4165 Clouds 7 1022 75 16093 2.1 180 06:42 25.04.2020
4166 Clouds 8 1021 70 16093 3.1 90 05:46 25.04.2020
4167 Clouds 8 1021 65 16093 3.6 150 05:27 25.04.2020
4168 Clouds 9 1020 34 16093 3.1 70 04:24 25.04.2020
4169 Clouds 13 1019 27 16093 7.7 30 02:44 25.04.2020
4170 Clouds 13 1019 27 16093 7.7 30 02:19 25.04.2020
4171 Clouds 13 1019 33 16093 6.2 10 01:49 25.04.2020
4172 Clouds 13 1019 33 16093 6.2 10 01:19 25.04.2020
4173 Clouds 14 1019 32 16093 5.1 50 00:46 25.04.2020
4174 Clouds 14 1019 32 16093 5.1 50 00:28 25.04.2020
4175 Rain 13 1019 35 16093 5.1 310 23:42 24.04.2020
4176 Clouds 13 1019 35 16093 5.1 310 23:21 24.04.2020
4177 Clouds 13 1019 21 16093 8.7 10 22:41 24.04.2020
4178 Clouds 13 1019 21 16093 8.7 10 22:21 24.04.2020
4179 Clouds 13 1019 21 16093 5.1 310 21:59 24.04.2020
4180 Clouds 13 1019 21 16093 5.1 310 21:59 24.04.2020
4181 Clouds 13 1019 21 16093 5.1 310 21:41 24.04.2020
4182 Rain 12 1019 24 32186 5.7 60 21:23 24.04.2020
4183 Rain 12 1020 24 16093 7.2 360 20:59 24.04.2020
4184 Rain 12 1020 24 16093 7.2 360 20:59 24.04.2020
4185 Clouds 11 1020 24 16093 7.2 360 20:40 24.04.2020
4186 Clouds 11 1020 24 16093 7.2 360 20:19 24.04.2020
4187 Clouds 11 1020 57 16093 7.7 10 19:54 24.04.2020
4188 Clouds 11 1020 57 16093 7.7 10 19:36 24.04.2020
4189 Clouds 11 1020 57 16093 7.7 10 19:18 24.04.2020
4190 Clouds 11 1020 61 16093 7.2 360 18:40 24.04.2020
4191 Clouds 10 1020 70 32186 3.44 2 18:22 24.04.2020
4192 Clouds 9 1020 75 16093 4.6 320 17:43 24.04.2020
4193 Clouds 8 1020 75 16093 4.6 320 17:24 24.04.2020
4194 Clouds 7 1019 86 16093 1.5 300 16:59 24.04.2020
4195 Clouds 7 1019 86 16093 1.5 300 16:41 24.04.2020
4196 Clouds 6 1019 86 16093 1.5 300 16:22 24.04.2020
4197 Clouds 5 1018 100 16093 2.1 20 15:59 24.04.2020
4198 Clouds 5 1018 100 16093 2.1 20 15:38 24.04.2020
4199 Clouds 5 1018 86 16093 5.1 20 15:18 24.04.2020
4200 Rain 4 1017 93 16093 4.6 360 14:40 24.04.2020
4201 Rain 4 1017 93 16093 4.6 360 14:21 24.04.2020
4202 Clouds 4 1017 86 32767 3.1 360 13:57 24.04.2020
4203 Clouds 4 1017 86 32767 3.1 360 13:38 24.04.2020
4204 Clouds 4 1017 93 16093 2.6 10 13:19 24.04.2020
4205 Clouds 4 1015 93 16093 4.1 10 12:42 24.04.2020
4206 Rain 4 1015 93 16093 4.1 10 12:23 24.04.2020
4207 Rain 5 1015 93 16093 1.17 333 11:58 24.04.2020
4208 Rain 5 1015 93 16093 1.17 333 11:38 24.04.2020
4209 Rain 5 1015 93 16093 1.17 333 11:19 24.04.2020
4210 Rain 5 1015 93 16093 1.5 20 10:54 24.04.2020
4211 Rain 6 1015 93 16093 1.5 20 10:36 24.04.2020
4212 Rain 6 1015 93 16093 1.5 20 10:18 24.04.2020
4213 Rain 7 1015 81 8047 0.47 39 09:45 24.04.2020
4214 Rain 7 1015 81 8047 2.69 178 09:24 24.04.2020
4215 Rain 8 1015 93 16093 1.5 140 08:55 24.04.2020
4216 Clouds 8 1015 93 16093 1.5 140 08:37 24.04.2020
4217 Clouds 8 1014 87 16093 1.5 130 08:18 24.04.2020
4218 Rain 8 1014 87 16093 1.5 130 07:44 24.04.2020
4219 Clouds 8 1014 87 16093 1.5 130 07:26 24.04.2020
4220 Clouds 9 1014 87 16093 3.1 140 06:51 24.04.2020
4221 Rain 9 1014 81 14484 6.2 120 06:32 24.04.2020
4222 Rain 11 1013 61 16093 3.6 70 05:42 24.04.2020
4223 Clouds 13 1011 35 16093 6.7 320 04:26 24.04.2020
4224 Clouds 16 1009 25 16093 7.7 310 02:58 24.04.2020
4225 Clouds 16 1009 25 16093 7.7 310 02:38 24.04.2020
4226 Clouds 18 1009 19 16093 6.7 320 01:58 24.04.2020
4227 Clouds 19 1009 20 16093 8.2 330 00:58 24.04.2020
4228 Clouds 19 1009 20 16093 8.2 330 00:21 24.04.2020
4229 Clouds 18 1011 22 16093 6.2 340 23:56 23.04.2020
4230 Clouds 18 1011 22 16093 6.2 340 23:37 23.04.2020
4231 Clouds 19 1011 22 16093 6.2 340 23:18 23.04.2020
4232 Clouds 18 1011 22 16093 9.3 320 22:55 23.04.2020
4233 Clouds 18 1011 22 16093 9.3 320 22:36 23.04.2020
4234 Clouds 18 1012 23 16093 6.7 340 22:18 23.04.2020
4235 Clouds 17 1012 23 16093 9.3 300 21:55 23.04.2020
4236 Clouds 17 1012 23 16093 9.3 300 21:55 23.04.2020
4237 Clouds 17 1012 23 16093 9.3 300 21:37 23.04.2020
4238 Clouds 17 1012 23 16093 9.3 300 21:18 23.04.2020
4239 Clouds 16 1013 26 16093 6.2 330 20:41 23.04.2020
4240 Clouds 16 1013 26 32767 6.7 270 20:22 23.04.2020
4241 Clouds 16 1013 26 32767 6.7 270 20:22 23.04.2020
4242 Clouds 17 1013 25 16093 6.7 340 19:57 23.04.2020
4243 Clouds 16 1013 25 16093 6.7 340 19:39 23.04.2020
4244 Clouds 17 1013 25 16093 6.7 340 19:21 23.04.2020
4245 Clouds 16 1013 26 16093 8.7 330 18:55 23.04.2020
4246 Clouds 16 1013 26 16093 8.7 330 18:36 23.04.2020
4247 Clouds 15 1013 26 16093 8.7 330 18:18 23.04.2020
4248 Rain 15 1013 28 16093 4.1 300 17:55 23.04.2020
4249 Rain 15 1013 28 16093 4.1 300 17:36 23.04.2020
4250 Rain 15 1013 28 16093 4.1 300 17:36 23.04.2020
4251 Clouds 15 1013 28 16093 4.1 300 17:18 23.04.2020
4252 Clouds 13 1013 28 16093 5.7 280 16:42 23.04.2020
4253 Clouds 12 1014 30 16093 5.7 280 16:19 23.04.2020
4254 Clouds 12 1013 37 16093 4.1 290 15:42 23.04.2020
4255 Clouds 11 1013 37 16093 4.1 290 15:23 23.04.2020
4256 Clouds 10 1013 39 16093 3.6 260 14:57 23.04.2020
4257 Clouds 9 1013 39 16093 3.6 260 14:38 23.04.2020
4258 Clouds 9 1013 39 16093 3.6 260 14:19 23.04.2020
4259 Clouds 9 1013 42 16093 4.1 230 13:55 23.04.2020
4260 Clouds 9 1013 42 16093 4.1 230 13:37 23.04.2020
4261 Clouds 9 1013 42 16093 4.1 230 13:18 23.04.2020
4262 Clouds 9 1013 48 16093 4.6 240 12:42 23.04.2020
4263 Clouds 9 1013 48 16093 4.6 240 12:24 23.04.2020
4264 Clear 9 1014 56 16093 3.1 190 11:56 23.04.2020
4265 Clear 8 1014 56 16093 3.1 190 11:38 23.04.2020
4266 Clear 8 1014 56 16093 3.1 190 11:38 23.04.2020
4267 Clear 8 1014 56 16093 3.1 190 11:18 23.04.2020
4268 Clear 8 1014 56 16093 3.1 210 10:41 23.04.2020
4269 Clear 8 1014 56 16093 3.1 210 10:21 23.04.2020
4270 Clouds 8 1014 52 16093 4.1 190 09:41 23.04.2020
4271 Clouds 8 1014 52 16093 4.1 190 09:20 23.04.2020
4272 Clouds 8 1015 56 16093 4.6 200 08:59 23.04.2020
4273 Clouds 8 1015 56 16093 4.6 200 08:59 23.04.2020
4274 Clouds 8 1015 56 16093 4.6 200 08:40 23.04.2020
4275 Clouds 8 1015 56 16093 4.6 200 08:21 23.04.2020
4276 Clouds 8 1015 30 16093 5.1 200 07:42 23.04.2020
4277 Clouds 9 1015 30 16093 5.1 200 07:23 23.04.2020
4278 Clouds 9 1015 30 16093 5.1 210 06:48 23.04.2020
4279 Clouds 10 1015 34 16093 5.1 210 06:22 23.04.2020
4280 Clouds 11 1015 43 16093 3.1 230 05:29 23.04.2020
4281 Clouds 12 1015 37 16093 1.5 180 04:51 23.04.2020
4282 Clouds 16 1015 26 16093 1.5 320 02:24 23.04.2020
4283 Clouds 17 1014 27 16093 1.41 29 01:46 23.04.2020
4284 Clouds 17 1014 27 16093 1.41 29 01:24 23.04.2020
4285 Clouds 18 1015 27 16093 4.1 200 00:45 23.04.2020
4286 Clouds 18 1015 27 16093 4.1 200 00:45 23.04.2020
4287 Clouds 18 1015 27 16093 4.1 200 00:18 23.04.2020
4288 Clouds 18 1015 27 16093 4.1 200 00:18 23.04.2020
4289 Clouds 17 1015 24 16093 8.7 300 23:47 22.04.2020
4290 Clouds 16 1015 24 16093 8.7 300 23:23 22.04.2020
4291 Clouds 15 1015 33 16093 6.2 270 22:55 22.04.2020
4292 Clouds 15 1015 27 16093 2.1 0 22:36 22.04.2020
4293 Clouds 17 1015 27 16093 4.6 30 22:18 22.04.2020
4294 Clouds 17 1015 27 16093 4.6 30 21:55 22.04.2020
4295 Clouds 17 1015 27 16093 4.6 30 21:55 22.04.2020
4296 Clouds 17 1015 27 16093 4.6 30 21:36 22.04.2020
4297 Clouds 17 1015 27 16093 4.6 30 21:18 22.04.2020
4298 Clouds 18 1016 27 16093 7.2 20 20:43 22.04.2020
4299 Clouds 17 1016 27 16093 7.2 20 20:19 22.04.2020
4300 Clouds 17 1016 20 16093 8.2 360 19:57 22.04.2020
4301 Clouds 17 1016 20 16093 8.2 360 19:38 22.04.2020
4302 Clouds 17 1016 20 16093 8.2 360 19:18 22.04.2020
4303 Clouds 16 1016 20 16093 8.2 360 19:18 22.04.2020
4304 Clouds 16 1016 35 16093 7.2 360 18:58 22.04.2020
4305 Clouds 16 1016 35 16093 7.2 360 18:40 22.04.2020
4306 Clouds 16 1016 35 16093 7.2 360 18:40 22.04.2020
4307 Clouds 15 1016 35 16093 7.2 360 18:22 22.04.2020
4308 Clouds 14 1015 35 16093 5.7 360 17:45 22.04.2020
4309 Clouds 14 1015 35 16093 5.7 360 17:45 22.04.2020
4310 Clouds 14 1015 35 16093 5.7 360 17:26 22.04.2020
4311 Clouds 13 1015 43 16093 4.84 354 16:58 22.04.2020
4312 Clouds 13 1015 43 16093 4.84 354 16:40 22.04.2020
4313 Clouds 12 1015 24 16093 1.5 250 16:22 22.04.2020
4314 Clouds 9 1014 49 16093 4.1 250 15:42 22.04.2020
4315 Clouds 9 1014 49 16093 4.1 250 15:42 22.04.2020
4316 Clouds 7 1014 49 16093 4.1 250 15:23 22.04.2020
4317 Clouds 6 1013 60 16093 3.1 220 14:58 22.04.2020
4318 Clouds 6 1013 60 16093 3.1 220 14:38 22.04.2020
4319 Clouds 6 1013 60 16093 3.1 220 14:20 22.04.2020
4320 Clouds 6 1013 33 16093 2.6 240 13:55 22.04.2020
4321 Clouds 6 1013 33 16093 2.6 240 13:37 22.04.2020
4322 Clouds 6 1013 33 16093 2.6 240 13:19 22.04.2020
4323 Clouds 6 1013 70 16093 3.6 220 12:39 22.04.2020
4324 Clouds 6 1013 70 16093 3.6 220 12:21 22.04.2020
4325 Clouds 7 1013 70 16093 2.1 270 11:40 22.04.2020
4326 Clouds 7 1013 70 16093 2.1 270 11:22 22.04.2020
4327 Clouds 7 1013 65 16093 3.6 200 10:59 22.04.2020
4328 Clouds 8 1013 65 16093 3.6 200 10:39 22.04.2020
4329 Clouds 8 1014 70 16093 4.1 210 10:20 22.04.2020
4330 Clouds 8 1014 70 16093 4.1 210 09:39 22.04.2020
4331 Clouds 8 1014 70 16093 4.1 210 09:21 22.04.2020
4332 Clouds 9 1014 61 16093 5.1 200 08:57 22.04.2020
4333 Clouds 9 1014 61 16093 5.1 200 08:38 22.04.2020
4334 Clouds 9 1014 61 16093 5.1 200 08:20 22.04.2020
4335 Clear 10 1014 33 16093 3.1 280 07:53 22.04.2020
4336 Clouds 10 1014 61 16093 5.7 210 07:28 22.04.2020
4337 Clouds 10 1015 57 16093 5.7 200 06:53 22.04.2020
4338 Clouds 11 1015 57 16093 5.7 200 06:18 22.04.2020
4339 Clouds 12 1014 66 16093 4.6 190 05:35 22.04.2020
4340 Clouds 13 1014 54 16093 5.1 230 04:20 22.04.2020
4341 Clouds 16 1014 54 16093 6.7 140 02:43 22.04.2020
4342 Clouds 17 1014 47 16093 5.7 140 01:50 22.04.2020
4343 Clouds 17 1014 47 16093 5.7 140 01:25 22.04.2020
4344 Clouds 18 1014 36 16093 4.6 100 00:47 22.04.2020
4345 Clouds 18 1014 36 16093 4.6 100 00:22 22.04.2020
4346 Clouds 19 1014 17 16093 3.1 20 23:59 21.04.2020
4347 Clouds 19 1014 17 16093 3.1 20 23:40 21.04.2020
4348 Clouds 19 1014 27 16093 3.6 350 23:18 21.04.2020
4349 Clouds 19 1014 27 16093 3.6 350 22:40 21.04.2020
4350 Clouds 19 1014 27 16093 3.6 350 22:21 21.04.2020
4351 Clouds 18 1015 17 16093 3.1 80 21:58 21.04.2020
4352 Clouds 18 1015 17 16093 3.1 80 21:40 21.04.2020
4353 Clouds 18 1015 23 16093 3.1 80 21:22 21.04.2020
4354 Clouds 17 1016 29 16093 2.1 0 20:54 21.04.2020
4355 Clouds 17 1016 29 16093 2.1 0 20:36 21.04.2020
4356 Clouds 17 1016 29 16093 2.1 0 20:36 21.04.2020
4357 Clouds 17 1016 29 16093 2.1 0 20:18 21.04.2020
4358 Clouds 16 1017 22 16093 0.95 72 19:40 21.04.2020
4359 Clouds 15 1017 38 16093 0.94 75 19:19 21.04.2020
4360 Clouds 15 1017 43 16093 2.6 340 19:19 21.04.2020
4361 Clouds 15 1017 23 16093 0.94 75 19:19 21.04.2020
4362 Clouds 15 1017 43 16093 2.6 340 18:56 21.04.2020
4363 Clouds 14 1017 40 16093 2.6 0 18:38 21.04.2020
4364 Clouds 13 1017 40 16093 2.6 0 18:18 21.04.2020
4365 Clouds 13 1017 40 16093 2.6 0 18:18 21.04.2020
4366 Clouds 12 1017 43 16093 0.1 189 17:41 21.04.2020
4367 Clouds 11 1017 43 16093 0.1 189 17:22 21.04.2020
4368 Clouds 10 1018 29 16093 3.1 260 16:59 21.04.2020
4369 Clouds 10 1018 30 16093 3.1 260 16:38 21.04.2020
4370 Clouds 9 1018 56 16093 2.1 200 16:19 21.04.2020
4371 Clouds 7 1018 30 16093 3.1 200 15:55 21.04.2020
4372 Clouds 6 1018 30 16093 3.1 200 15:37 21.04.2020
4373 Clouds 5 1018 56 16093 2.1 200 15:19 21.04.2020
4374 Clear 4 1018 60 16093 0.91 276 14:45 21.04.2020
4375 Clouds 4 1018 70 16093 2.6 240 14:25 21.04.2020
4376 Clouds 4 1017 60 16093 0.91 276 13:58 21.04.2020
4377 Clouds 5 1017 38 16093 2.6 180 13:38 21.04.2020
4378 Clouds 5 1017 38 16093 2.6 180 13:18 21.04.2020
4379 Clouds 5 1017 38 16093 2.1 190 12:40 21.04.2020
4380 Clouds 6 1017 36 16093 2.1 190 12:20 21.04.2020
4381 Clouds 6 1017 36 16093 1.15 288 11:58 21.04.2020
4382 Clouds 6 1017 36 16093 1.15 288 11:39 21.04.2020
4383 Clouds 6 1017 36 16093 1.15 288 11:39 21.04.2020
4384 Clouds 6 1017 52 16093 2.1 210 11:19 21.04.2020
4385 Clouds 6 1017 52 16093 2.1 210 10:59 21.04.2020
4386 Clouds 6 1017 52 16093 2.1 210 10:40 21.04.2020
4387 Clouds 6 1017 52 16093 2.1 210 10:22 21.04.2020
4388 Clouds 7 1018 49 16093 5.1 180 09:59 21.04.2020
4389 Clouds 7 1018 49 16093 5.1 180 09:37 21.04.2020
4390 Clouds 7 1018 49 16093 5.1 180 09:18 21.04.2020
4391 Clouds 8 1018 52 16093 4.1 200 08:44 21.04.2020
4392 Clouds 8 1018 52 16093 4.1 200 08:26 21.04.2020
4393 Clouds 8 1018 43 16093 4.1 170 07:53 21.04.2020
4394 Clouds 9 1018 43 16093 4.1 170 07:28 21.04.2020
4395 Clouds 9 1018 37 16093 3.6 150 06:54 21.04.2020
4396 Clouds 10 1018 37 16093 3.6 150 06:36 21.04.2020
4397 Clouds 10 1017 40 16093 3.1 130 05:51 21.04.2020
4398 Clouds 11 1017 40 16093 3.1 130 05:20 21.04.2020
4399 Clouds 15 1016 26 16093 2.6 40 03:47 21.04.2020
4400 Clouds 16 1015 25 16093 3.6 350 02:47 21.04.2020
4401 Clouds 17 1015 22 16093 3.6 30 01:32 21.04.2020
4402 Clouds 18 1015 23 16093 5.7 320 00:39 21.04.2020
4403 Clouds 18 1015 25 32767 4.1 90 00:18 21.04.2020
4404 Clouds 18 1016 23 16093 1.5 70 23:43 20.04.2020
4405 Clouds 18 1016 23 16093 1.5 70 23:21 20.04.2020
4406 Clouds 18 1016 25 16093 2.6 20 22:55 20.04.2020
4407 Clouds 17 1016 25 16093 2.6 20 22:36 20.04.2020
4408 Clouds 17 1016 26 16093 5.1 330 22:18 20.04.2020
4409 Clouds 17 1016 26 16093 5.1 330 22:18 20.04.2020
4410 Clouds 17 1016 26 16093 5.1 330 21:54 20.04.2020
4411 Clouds 17 1016 26 16093 5.1 330 21:36 20.04.2020
4412 Clouds 17 1016 26 16093 5.1 330 21:36 20.04.2020
4413 Clouds 16 1016 26 16093 5.1 330 21:18 20.04.2020
4414 Clouds 16 1017 26 16093 3.1 20 20:42 20.04.2020
4415 Clouds 16 1017 26 16093 3.1 20 20:20 20.04.2020
4416 Clouds 15 1017 28 16093 2.1 290 19:59 20.04.2020
4417 Clouds 15 1017 28 16093 2.1 290 19:41 20.04.2020
4418 Clouds 15 1017 28 16093 2.1 290 19:22 20.04.2020
4419 Clouds 14 1017 40 16093 2.1 310 18:56 20.04.2020
4420 Clouds 14 1017 40 16093 2.1 310 18:38 20.04.2020
4421 Clouds 14 1017 40 16093 2.1 310 18:38 20.04.2020
4422 Clouds 11 1017 40 16093 2.1 310 18:19 20.04.2020
4423 Clouds 11 1017 27 16093 3.1 220 17:44 20.04.2020
4424 Clouds 10 1017 57 16093 0.94 201 17:23 20.04.2020
4425 Clouds 9 1016 27 16093 2.1 200 16:59 20.04.2020
4426 Clouds 9 1016 27 16093 2.1 200 16:59 20.04.2020
4427 Clouds 8 1017 70 16093 2.1 200 16:41 20.04.2020
4428 Clouds 7 1017 70 16093 2.1 200 16:20 20.04.2020
4429 Clouds 5 1016 27 16093 2.6 180 15:55 20.04.2020
4430 Clouds 4 1016 27 16093 2.6 180 15:37 20.04.2020
4431 Clouds 3 1016 39 16093 2.6 180 15:19 20.04.2020
4432 Clouds 2 1016 80 16093 3.1 200 14:41 20.04.2020
4433 Clouds 2 1016 80 16093 3.1 200 14:19 20.04.2020
4434 Clouds 2 1016 74 16093 2.1 150 13:58 20.04.2020
4435 Clouds 2 1016 74 16093 2.1 150 13:38 20.04.2020
4436 Clouds 2 1016 74 16093 2.1 150 13:20 20.04.2020
4437 Clouds 3 1016 74 16093 2.6 160 12:44 20.04.2020
4438 Clouds 3 1016 74 16093 2.6 160 12:22 20.04.2020
4439 Clouds 3 1016 69 16093 1.5 200 11:54 20.04.2020
4440 Clouds 4 1016 69 16093 1.5 200 11:36 20.04.2020
4441 Clouds 4 1016 69 16093 1.5 200 11:18 20.04.2020
4442 Clouds 4 1016 39 16093 2.1 170 10:54 20.04.2020
4443 Clouds 5 1016 39 16093 2.1 170 10:36 20.04.2020
4444 Clouds 5 1016 39 16093 2.1 170 10:18 20.04.2020
4445 Clouds 6 1016 39 16093 2.6 130 09:41 20.04.2020
4446 Clouds 7 1016 35 16093 2.6 130 09:23 20.04.2020
4447 Clouds 8 1016 35 16093 2.6 130 08:56 20.04.2020
4448 Clouds 8 1016 35 16093 2.6 130 08:38 20.04.2020
4449 Clouds 8 1016 35 16093 4.1 70 08:18 20.04.2020
4450 Clouds 9 1012 45 0 1.61 248 07:42 20.04.2020
4451 Clouds 9 1013 51 0 0.45 145 07:20 20.04.2020
4452 Clouds 9 1011 45 0 1.61 248 06:38 20.04.2020
4453 Clear 10 1015 61 16093 3.1 50 05:58 20.04.2020
4454 Clouds 11 1014 43 16093 6.2 350 04:51 20.04.2020
4455 Clouds 14 1011 24 16093 4.6 10 02:52 20.04.2020
4456 Clouds 15 1011 19 16093 1.5 320 02:33 20.04.2020
4457 Clouds 17 1011 19 16093 1.5 320 01:30 20.04.2020
4458 Clouds 17 1011 18 16093 5.1 320 00:45 20.04.2020
4459 Clouds 16 1012 24 16093 2.53 11 00:22 20.04.2020
4460 Clouds 16 1012 24 16093 2.53 11 23:40 19.04.2020
4461 Clouds 16 1012 24 16093 2.53 11 23:21 19.04.2020
4462 Clear 16 1012 24 16093 2.53 11 22:57 19.04.2020
4463 Clear 16 1012 24 16093 2.53 11 22:37 19.04.2020
4464 Clouds 15 1008 22 0 1.79 276 22:19 19.04.2020
4465 Clouds 14 1013 35 16093 2.1 40 21:42 19.04.2020
4466 Clouds 13 1013 35 16093 2.1 40 21:24 19.04.2020
4467 Clouds 12 1012 45 0 0.45 73 20:58 19.04.2020
4468 Clouds 12 1014 33 16093 1.43 37 20:40 19.04.2020
4469 Clouds 11 1014 33 16093 1.43 37 20:20 19.04.2020
4470 Clouds 10 1009 43 0 1.43 37 19:56 19.04.2020
4471 Clouds 10 1012 54 0 1.43 37 19:38 19.04.2020
4472 Clouds 10 1015 61 16093 1.43 37 19:20 19.04.2020
4473 Clouds 9 1012 59 0 0.45 128 18:57 19.04.2020
4474 Clouds 8 1016 70 16093 3.1 310 18:38 19.04.2020
4475 Clouds 7 1013 60 0 0.45 307 18:18 19.04.2020
4476 Clouds 6 1015 43 16093 2.1 300 17:56 19.04.2020
4477 Clouds 6 1015 43 16093 2.1 300 17:37 19.04.2020
4478 Clouds 5 1013 66 0 0.89 31 17:19 19.04.2020
4479 Clouds 5 1015 43 16093 3.6 320 16:40 19.04.2020
4480 Clouds 4 1015 43 16093 3.6 320 16:21 19.04.2020
4481 Clouds 4 1013 73 0 0.89 14 15:58 19.04.2020
4482 Clouds 3 1013 74 0 0.89 10 15:40 19.04.2020
4483 Clouds 2 1013 45 16093 3.6 320 15:19 19.04.2020
4484 Clouds 2 1013 45 16093 3.6 320 14:39 19.04.2020
4485 Clouds 3 1013 48 16093 3.6 320 14:21 19.04.2020
4486 Clouds 3 1012 75 16093 4.1 320 13:57 19.04.2020
4487 Clouds 4 1012 75 16093 4.1 320 13:37 19.04.2020
4488 Clouds 4 1012 75 16093 4.1 320 13:18 19.04.2020
4489 Clouds 6 1011 80 16093 5.1 210 12:44 19.04.2020
4490 Clouds 6 1011 80 16093 5.1 210 12:24 19.04.2020
4491 Clouds 6 1012 75 16093 5.7 200 11:55 19.04.2020
4492 Clouds 6 1012 75 16093 5.7 200 11:37 19.04.2020
4493 Clouds 5 1012 80 16093 4.6 210 11:18 19.04.2020
4494 Clouds 5 1012 80 16093 4.6 210 10:41 19.04.2020
4495 Clouds 6 1012 80 16093 4.6 210 10:21 19.04.2020
4496 Clouds 6 1012 75 16093 3.6 220 09:57 19.04.2020
4497 Clouds 6 1012 75 16093 3.6 220 09:39 19.04.2020
4498 Clouds 6 1012 75 16093 3.6 220 09:18 19.04.2020
4499 Clouds 6 1012 80 16093 2.6 280 08:40 19.04.2020
4500 Clouds 6 1012 80 16093 2.6 280 08:21 19.04.2020
4501 Clouds 6 1012 75 16093 3.1 230 07:48 19.04.2020
4502 Clouds 6 1012 75 16093 3.1 230 07:25 19.04.2020
4503 Clouds 6 1012 80 16093 3.6 160 06:57 19.04.2020
4504 Clouds 6 1012 80 16093 3.6 160 06:23 19.04.2020
4505 Clouds 6 1012 50 16093 1.62 236 05:34 19.04.2020
4506 Clouds 8 1011 57 16093 1.5 290 03:40 19.04.2020
4507 Clouds 9 1012 42 16093 3.6 290 02:23 19.04.2020
4508 Rain 8 1012 43 16093 5.1 340 01:58 19.04.2020
4509 Rain 9 1012 43 16093 5.1 340 01:22 19.04.2020
4510 Rain 9 1007 37 0 3.1 332 00:41 19.04.2020
4511 Rain 9 1007 35 0 3.1 332 00:41 19.04.2020
4512 Clouds 10 1011 46 16093 2.6 290 00:19 19.04.2020
4513 Clouds 11 1010 57 16093 7.7 190 23:43 18.04.2020
4514 Clouds 12 1010 57 16093 7.7 190 23:19 18.04.2020
4515 Clouds 13 1011 33 16093 2.1 100 22:55 18.04.2020
4516 Clouds 13 1011 33 16093 2.1 100 22:37 18.04.2020
4517 Rain 13 1006 31 0 0.82 37 22:18 18.04.2020
4518 Clouds 13 1010 28 16093 3.6 20 21:42 18.04.2020
4519 Clouds 13 1010 28 16093 3.6 20 21:22 18.04.2020
4520 Clouds 13 1011 33 16093 4.1 30 20:59 18.04.2020
4521 Clouds 12 1011 33 16093 4.1 30 20:40 18.04.2020
4522 Clouds 12 1011 33 16093 4.1 30 20:21 18.04.2020
4523 Rain 12 1012 40 16093 2.1 340 19:42 18.04.2020
4524 Rain 12 1012 40 16093 2.1 340 19:24 18.04.2020
4525 Rain 11 1012 34 16093 2.07 21 18:40 18.04.2020
4526 Clouds 9 1012 27 16093 2.1 250 18:20 18.04.2020
4527 Clouds 9 1012 27 16093 2.1 250 17:58 18.04.2020
4528 Clouds 10 1012 27 16093 2.1 250 17:40 18.04.2020
4529 Rain 8 1012 42 16093 3.1 190 17:20 18.04.2020
4530 Rain 8 1012 42 16093 3.1 190 16:43 18.04.2020
4531 Rain 6 1012 42 16093 3.1 190 16:22 18.04.2020
4532 Rain 5 1012 44 16093 4.1 200 15:56 18.04.2020
4533 Rain 3 1012 44 16093 4.1 200 15:37 18.04.2020
4534 Clouds 1 1014 82 0 2.05 222 15:19 18.04.2020
4535 Clouds 0 1014 82 0 2.41 220 14:44 18.04.2020
4536 Clouds 0 1012 47 16093 5.1 190 14:24 18.04.2020
4537 Clouds 1 1008 59 0 0.45 144 13:44 18.04.2020
4538 Clouds 1 1014 82 0 2.41 220 13:23 18.04.2020
4539 Clouds 1 1012 51 16093 4.1 190 12:55 18.04.2020
4540 Clouds 1 1012 51 16093 4.1 190 12:36 18.04.2020
4541 Rain 1 1012 51 16093 4.1 190 12:18 18.04.2020
4542 Rain 1 1013 51 16093 2.1 220 11:42 18.04.2020
4543 Clouds 1 1013 51 16093 2.1 220 11:22 18.04.2020
4544 Clouds 1 1013 55 16093 6.2 200 10:57 18.04.2020
4545 Clouds 1 1013 55 16093 6.2 200 10:37 18.04.2020
4546 Clouds 1 1014 51 16093 6.7 190 10:18 18.04.2020
4547 Clouds 2 1014 51 16093 6.7 190 09:41 18.04.2020
4548 Rain 2 1014 51 16093 6.7 190 09:22 18.04.2020
4549 Rain 2 1015 48 16093 6.7 200 08:43 18.04.2020
4550 Clouds 2 1015 48 16093 6.7 200 08:24 18.04.2020
4551 Clouds 2 1015 55 16093 6.2 200 07:52 18.04.2020
4552 Clouds 3 1015 55 16093 6.2 200 07:33 18.04.2020
4553 Clouds 3 1018 81 0 2.27 239 06:53 18.04.2020
4554 Rain 4 1016 60 16093 1.5 240 05:50 18.04.2020
4555 Clouds 5 1016 60 16093 1.5 240 05:22 18.04.2020
4556 Rain 5 1015 39 16093 3.6 130 04:45 18.04.2020
4557 Rain 6 1011 64 0 2.66 205 04:24 18.04.2020
4558 Rain 9 1016 50 0 0.89 22 02:45 18.04.2020
4559 Rain 10 1015 19 16093 1.5 80 02:21 18.04.2020
4560 Rain 10 1015 19 16093 1.5 80 02:21 18.04.2020
4561 Rain 10 1015 19 16093 1.5 80 02:21 18.04.2020
4562 Clouds 10 1016 18 16093 2.16 195 01:51 18.04.2020
4563 Clouds 10 1016 18 16093 2.16 195 01:28 18.04.2020
4564 Clouds 11 1016 20 16093 2.16 195 00:38 18.04.2020
4565 Clouds 10 1016 20 16093 1.65 202 00:20 18.04.2020
4566 Clouds 10 1017 23 16093 1.65 202 23:41 17.04.2020
4567 Clouds 10 1017 23 16093 1.65 202 23:20 17.04.2020
4568 Clouds 9 1017 31 16093 2.1 190 23:00 17.04.2020
4569 Clouds 9 1017 31 16093 2.1 190 22:59 17.04.2020
4570 Clouds 9 1017 31 16093 2.1 190 22:40 17.04.2020
4571 Clouds 9 1017 31 16093 2.1 190 22:21 17.04.2020
4572 Rain 7 1018 36 16093 2.1 200 21:58 17.04.2020
4573 Rain 7 1018 36 16093 2.1 200 21:40 17.04.2020
4574 Rain 6 1018 36 16093 2.1 200 21:20 17.04.2020
4575 Rain 6 1019 48 16093 2.6 140 20:56 17.04.2020
4576 Rain 6 1019 48 16093 2.6 140 20:56 17.04.2020
4577 Rain 6 1019 48 16093 2.6 140 20:37 17.04.2020
4578 Rain 4 1019 51 16093 3.1 160 20:18 17.04.2020
4579 Rain 4 1019 51 16093 3.1 160 19:55 17.04.2020
4580 Rain 3 1019 51 16093 3.1 160 19:37 17.04.2020
4581 Rain 2 1020 35 16093 3.1 190 19:18 17.04.2020
4582 Rain 1 1020 35 16093 3.1 190 18:40 17.04.2020
4583 Snow -1 1020 47 16093 3.1 190 18:20 17.04.2020
4584 Snow -2 1020 79 16093 3.1 190 17:38 17.04.2020
4585 Snow -2 1020 79 16093 3.1 190 17:20 17.04.2020
4586 Snow -2 1020 79 16093 3.1 190 17:20 17.04.2020
4587 Snow -4 1028 77 0 0.45 197 16:58 17.04.2020
4588 Snow -4 1016 76 0 0.45 167 16:39 17.04.2020
4589 Clouds -5 1020 92 16093 2.6 190 16:21 17.04.2020
4590 Clear -7 1016 81 0 1.08 170 15:39 17.04.2020
4591 Clouds -9 1020 100 16093 2.6 190 15:21 17.04.2020
4592 Clouds -10 1020 92 16093 1.5 190 14:42 17.04.2020
4593 Clouds -10 1020 92 16093 1.5 190 14:24 17.04.2020
4594 Clouds -10 1020 92 12874 1.54 200 13:59 17.04.2020
4595 Clouds -10 1020 92 12874 1.54 200 13:59 17.04.2020
4596 Clouds -10 1020 92 12874 1.54 200 13:39 17.04.2020
4597 Clouds -10 1020 92 12874 1.54 200 13:20 17.04.2020
4598 Clouds -10 1020 100 14484 1.54 200 12:48 17.04.2020
4599 Clouds -10 1020 100 14484 0.86 196 12:27 17.04.2020
4600 Clouds -10 1021 100 16093 0.86 196 11:58 17.04.2020
4601 Clouds -10 1021 100 16093 0.86 196 11:38 17.04.2020
4602 Clouds -10 1021 100 16093 0.86 196 11:19 17.04.2020
4603 Clouds -10 1021 100 16093 0.86 196 10:40 17.04.2020
4604 Clouds -9 1021 100 16093 0.86 196 10:20 17.04.2020
4605 Clouds -9 1021 85 16093 2.1 250 09:55 17.04.2020
4606 Clouds -9 1021 100 16093 0.86 196 09:36 17.04.2020
4607 Snow -8 1017 82 0 0.9 181 09:18 17.04.2020
4608 Snow -8 1018 83 0 0.9 181 08:45 17.04.2020
4609 Snow -8 1022 100 16093 0.9 181 08:26 17.04.2020
4610 Snow -8 1022 100 16093 0.9 181 07:54 17.04.2020
4611 Snow -8 1022 100 16093 0.9 181 07:36 17.04.2020
4612 Snow -7 1022 100 16093 0.9 181 07:18 17.04.2020
4613 Snow -7 1022 85 14484 2.1 30 06:28 17.04.2020
4614 Fog -6 1026 92 805 1.78 27 05:42 17.04.2020
4615 Snow -5 1021 100 6437 5.7 360 03:22 17.04.2020
4616 Snow -5 1025 85 4828 4.1 30 02:49 17.04.2020
4617 Snow -4 1020 86 1207 5.7 20 01:30 17.04.2020
4618 Snow -4 1023 86 2012 5.7 10 00:59 17.04.2020
4619 Snow -3 1019 86 3219 5.7 30 00:20 17.04.2020
4620 Snow -3 1023 86 1207 5.1 360 23:46 16.04.2020
4621 Snow -3 1019 92 1207 5.1 20 23:23 16.04.2020
4622 Snow -3 1019 79 1609 5.7 10 22:58 16.04.2020
4623 Snow -3 1022 79 805 5.1 30 22:39 16.04.2020
4624 Snow -3 1022 80 2012 2.6 50 22:20 16.04.2020
4625 Snow -3 1021 80 4023 4.1 40 21:56 16.04.2020
4626 Snow -3 1018 100 805 5.1 10 21:38 16.04.2020
4627 Snow -3 1018 100 805 5.1 10 21:38 16.04.2020
4628 Snow -3 1016 100 1207 5.1 20 21:18 16.04.2020
4629 Snow -3 1021 86 1609 4.6 30 20:41 16.04.2020
4630 Snow -3 1017 100 2012 5.1 10 20:22 16.04.2020
4631 Snow -3 1020 86 2012 5.1 30 19:56 16.04.2020
4632 Snow -3 1016 100 2012 4.6 20 19:38 16.04.2020
4633 Snow -3 1016 86 2012 6.2 350 19:19 16.04.2020
4634 Snow -3 1016 100 2414 5.7 10 18:45 16.04.2020
4635 Snow -3 1015 92 2012 5.7 350 18:26 16.04.2020
4636 Snow -3 1016 100 4023 5.1 350 17:58 16.04.2020
4637 Snow -3 1018 86 4023 4.1 10 17:40 16.04.2020
4638 Snow -3 1015 92 3219 7.2 340 17:21 16.04.2020
4639 Snow -3 1016 100 2012 4.6 30 16:44 16.04.2020
4640 Snow -3 1015 100 2012 3.6 360 16:26 16.04.2020
4641 Snow -3 1019 92 2012 2.6 350 15:57 16.04.2020
4642 Snow -3 1015 100 2012 3.6 360 15:39 16.04.2020
4643 Snow -3 1014 100 2012 5.7 80 15:18 16.04.2020
4644 Snow -3 1018 92 2012 3.6 350 14:45 16.04.2020
4645 Snow -3 1018 92 2012 3.6 350 14:45 16.04.2020
4646 Snow -2 1014 92 1609 5.7 100 14:25 16.04.2020
4647 Snow -2 1014 92 1609 5.7 100 13:59 16.04.2020
4648 Snow -2 1014 92 1609 5.7 100 13:59 16.04.2020
4649 Snow -2 1017 92 1207 4.6 10 13:41 16.04.2020
4650 Snow -1 1014 100 11265 5.7 90 13:23 16.04.2020
4651 Snow -1 1014 100 11265 6.7 100 12:58 16.04.2020
4652 Snow -1 1014 86 16093 3.6 120 12:39 16.04.2020
4653 Snow -1 1014 86 16093 3.6 120 12:20 16.04.2020
4654 Snow -1 1017 56 2012 3.6 360 11:59 16.04.2020
4655 Snow 0 1017 56 2012 3.6 360 11:40 16.04.2020
4656 Snow 0 1015 56 2012 4.6 90 11:20 16.04.2020
4657 Snow 0 1017 56 1609 2.1 80 10:55 16.04.2020
4658 Snow 0 1015 56 2012 4.6 90 10:37 16.04.2020
4659 Snow 0 1016 56 3219 3.6 70 10:18 16.04.2020
4660 Rain 0 1016 86 2816 4.1 90 09:39 16.04.2020
4661 Rain 0 1017 57 3219 1.5 40 09:20 16.04.2020
4662 Rain 0 1017 57 3219 1.5 40 09:20 16.04.2020
4663 Rain 0 1016 86 16093 2.6 70 08:56 16.04.2020
4664 Rain 0 1017 57 11265 4.6 50 08:36 16.04.2020
4665 Rain 0 1017 56 11265 5.7 50 08:18 16.04.2020
4666 Clouds 1 1017 57 16093 5.7 50 07:43 16.04.2020
4667 Clouds 1 1017 80 16093 3.6 360 07:21 16.04.2020
4668 Rain 1 1017 80 16093 3.6 320 06:41 16.04.2020
4669 Rain 1 1017 80 16093 3.6 320 06:22 16.04.2020
4670 Rain 2 1018 93 11265 1 22 04:53 16.04.2020
4671 Rain 4 1014 56 16093 6.7 40 03:28 16.04.2020
4672 Rain 5 1014 56 16093 6.7 40 02:59 16.04.2020
4673 Rain 5 1017 65 16093 6.2 10 02:38 16.04.2020
4674 Clouds 8 1012 29 16093 4.6 50 01:29 16.04.2020
4675 Clouds 9 1014 27 16093 3.6 80 00:54 16.04.2020
4676 Clouds 10 1013 27 16093 2.39 21 00:25 16.04.2020
4677 Clouds 10 1014 24 16093 9.3 340 23:55 15.04.2020
4678 Clouds 10 1013 29 16093 7.2 320 23:36 15.04.2020
4679 Clouds 10 1014 22 16093 4.6 20 23:18 15.04.2020
4680 Clouds 10 1013 23 16093 3.1 50 22:39 15.04.2020
4681 Clouds 10 1012 23 16093 2.1 0 22:20 15.04.2020
4682 Clouds 10 1014 23 16093 1.5 350 21:56 15.04.2020
4683 Clouds 10 1013 23 16093 3.1 330 21:37 15.04.2020
4684 Clouds 10 1013 23 16093 3.1 330 21:37 15.04.2020
4685 Clouds 10 1014 21 16093 4.6 290 21:19 15.04.2020
4686 Clouds 10 1014 21 16093 3.1 320 20:54 15.04.2020
4687 Clouds 10 1014 21 16093 3.1 320 20:54 15.04.2020
4688 Clouds 10 1013 24 16093 2.1 300 20:36 15.04.2020
4689 Clouds 10 1013 24 16093 2.1 300 20:18 15.04.2020
4690 Clouds 9 1015 23 16093 6.2 280 19:41 15.04.2020
4691 Clouds 9 1014 23 16093 4.6 310 19:20 15.04.2020
4692 Clouds 8 1014 26 16093 3.6 220 18:41 15.04.2020
4693 Clouds 5 1014 26 16093 3.6 220 18:23 15.04.2020
4694 Clear 6 1015 26 16093 3.6 200 17:58 15.04.2020
4695 Clouds 6 1014 30 16093 3.6 180 17:39 15.04.2020
4696 Clouds 6 1014 30 16093 4.6 230 17:20 15.04.2020
4697 Clear 4 1016 33 16093 1.5 210 16:56 15.04.2020
4698 Clouds 3 1015 40 16093 4.1 180 16:37 15.04.2020
4699 Clouds 3 1015 40 16093 4.1 180 16:37 15.04.2020
4700 Clear 2 1016 64 16093 4.54 230 16:19 15.04.2020
4701 Clear 0 1016 64 16093 4.54 230 15:57 15.04.2020
4702 Clouds -1 1015 58 16093 3.1 170 15:38 15.04.2020
4703 Clouds -1 1015 58 16093 2.6 180 15:19 15.04.2020
4704 Clear -2 1016 68 16093 1.5 220 14:56 15.04.2020
4705 Clouds -2 1015 50 16093 2.1 70 14:38 15.04.2020
4706 Clear -2 1014 50 16093 4.1 270 14:20 15.04.2020
4707 Clear -2 1016 79 16093 4.37 226 13:56 15.04.2020
4708 Clouds -2 1015 58 16093 2.6 30 13:37 15.04.2020
4709 Clouds -1 1015 58 16093 2.6 30 13:18 15.04.2020
4710 Clouds -1 1017 74 16093 4.37 226 12:42 15.04.2020
4711 Clouds -1 1015 46 16093 2.6 220 12:23 15.04.2020
4712 Clouds -1 1015 46 16093 2.6 220 12:23 15.04.2020
4713 Clouds -1 1017 74 16093 4.69 227 11:58 15.04.2020
4714 Clouds -1 1016 46 16093 4.69 227 11:39 15.04.2020
4715 Clouds -1 1016 47 16093 6.2 260 11:21 15.04.2020
4716 Clouds 0 1016 54 16093 3.1 220 10:40 15.04.2020
4717 Clouds 0 1016 37 16093 7.7 270 10:21 15.04.2020
4718 Clouds 0 1016 37 16093 7.7 270 09:58 15.04.2020
4719 Clouds 0 1018 41 16093 3.6 290 09:40 15.04.2020
4720 Clouds 0 1017 47 16093 4.6 270 09:21 15.04.2020
4721 Clouds 1 1017 54 16093 2.1 210 08:58 15.04.2020
4722 Clouds 1 1017 54 16093 2.1 210 08:39 15.04.2020
4723 Clouds 1 1017 40 16093 4.6 250 08:19 15.04.2020
4724 Clouds 1 1019 55 16093 4.63 229 08:19 15.04.2020
4725 Clouds 1 1019 55 16093 4.63 229 07:51 15.04.2020
4726 Clouds 1 1017 46 16093 4.1 180 07:31 15.04.2020
4727 Clouds 1 1018 46 16093 3.1 170 06:33 15.04.2020
4728 Clear 2 1019 43 16093 1.5 120 05:50 15.04.2020
4729 Clouds 2 1017 34 16093 1.5 190 05:18 15.04.2020
4730 Clear 3 1018 44 16093 3.58 234 04:43 15.04.2020
4731 Clouds 5 1016 24 16093 3.6 340 03:26 15.04.2020
4732 Clouds 5 1016 20 16093 6.2 290 02:53 15.04.2020
4733 Clouds 6 1017 20 16093 2.6 330 01:56 15.04.2020
4734 Clouds 6 1015 22 16093 4.1 300 01:27 15.04.2020
4735 Clouds 6 1017 19 16093 1.5 60 00:54 15.04.2020
4736 Clouds 6 1016 22 16093 4.6 330 00:31 15.04.2020
4737 Clouds 6 1017 22 16093 5.7 300 23:57 14.04.2020
4738 Clouds 6 1017 22 16093 5.7 300 23:57 14.04.2020
4739 Clouds 6 1017 22 16093 5.7 300 23:39 14.04.2020
4740 Clouds 6 1017 25 16093 3.1 310 23:21 14.04.2020
4741 Rain 5 1017 25 16093 3.1 310 22:58 14.04.2020
4742 Clouds 5 1018 25 16093 5.1 240 22:40 14.04.2020
4743 Clouds 5 1018 25 16093 5.1 240 22:21 14.04.2020
4744 Rain 4 1020 29 16093 2.1 270 21:59 14.04.2020
4745 Rain 4 1020 29 16093 2.1 270 21:40 14.04.2020
4746 Rain 1 1018 32 16093 1.5 0 21:20 14.04.2020
4747 Rain 2 1018 32 16093 1.5 0 21:00 14.04.2020
4748 Rain 1 1019 37 16093 3.6 270 20:40 14.04.2020
4749 Rain 1 1019 37 16093 2.6 260 20:21 14.04.2020
4750 Rain 1 1019 37 16093 2.6 260 19:57 14.04.2020
4751 Rain 1 1020 39 16093 4.6 230 19:38 14.04.2020
4752 Rain 0 1020 39 16093 4.6 230 19:19 14.04.2020
4753 Snow -1 1021 46 16093 4.1 210 18:41 14.04.2020
4754 Clouds -2 1021 46 16093 4.1 210 18:22 14.04.2020
4755 Clouds -3 1020 45 16093 3.1 220 17:58 14.04.2020
4756 Clear -3 1022 36 16093 3.6 190 17:58 14.04.2020
4757 Snow -3 1022 36 16093 3.6 190 17:39 14.04.2020
4758 Snow -4 1021 53 16093 2.1 150 17:20 14.04.2020
4759 Snow -5 1023 62 16093 2.6 200 16:58 14.04.2020
4760 Snow -6 1023 62 16093 2.6 200 16:39 14.04.2020
4761 Snow -7 1021 72 16093 4.1 180 16:20 14.04.2020
4762 Snow -7 1021 72 16093 4.1 180 16:20 14.04.2020
4763 Clouds -9 1021 72 16093 4.1 180 15:56 14.04.2020
4764 Clear -10 1023 85 16093 2.1 200 15:38 14.04.2020
4765 Clear -10 1023 92 16093 2.6 190 15:18 14.04.2020
4766 Clear -11 1023 85 16093 2.1 210 14:56 14.04.2020
4767 Clear -11 1023 85 16093 2.1 210 14:38 14.04.2020
4768 Clouds -11 1021 92 16093 2.6 150 14:19 14.04.2020
4769 Clouds -11 1021 85 16093 3.6 190 13:43 14.04.2020
4770 Clouds -11 1021 85 16093 3.6 190 13:24 14.04.2020
4771 Clear -11 1024 92 16093 2.96 240 12:56 14.04.2020
4772 Clear -11 1022 92 16093 4.6 190 12:38 14.04.2020
4773 Clear -10 1022 92 16093 4.6 190 12:18 14.04.2020
4774 Clear -10 1022 92 16093 2.1 190 11:41 14.04.2020
4775 Clear -10 1022 92 16093 2.1 190 11:22 14.04.2020
4776 Clear -10 1022 92 16093 2.1 190 11:22 14.04.2020
4777 Clear -10 1025 92 16093 3.14 225 10:55 14.04.2020
4778 Clouds -9 1022 92 16093 2.6 180 10:37 14.04.2020
4779 Clouds -9 1022 92 16093 2.6 180 10:18 14.04.2020
4780 Clouds -9 1025 92 16093 3.14 225 09:41 14.04.2020
4781 Clouds -8 1023 92 16093 2.1 180 09:22 14.04.2020
4782 Clear -8 1025 85 16093 0.23 186 08:55 14.04.2020
4783 Snow -8 1022 92 12874 3.1 140 08:36 14.04.2020
4784 Clouds -7 1022 79 16093 0.23 186 08:18 14.04.2020
4785 Clouds -7 1025 85 16093 0.23 186 07:49 14.04.2020
4786 Snow -7 1022 100 11265 0.23 186 07:25 14.04.2020
4787 Clouds -7 1025 85 16093 0.23 186 06:45 14.04.2020
4788 Snow -6 1027 64 0 0.96 344 05:40 14.04.2020
4789 Snow -6 1019 79 805 2.1 30 03:27 14.04.2020
4790 Clouds -5 1019 73 16093 3.1 50 02:33 14.04.2020
4791 Snow -5 1018 85 805 4.1 10 01:27 14.04.2020
4792 Snow -5 1021 73 8047 1.5 360 00:50 14.04.2020
4793 Snow -5 1018 85 6437 5.7 30 00:24 14.04.2020
4794 Snow -5 1018 85 6437 5.7 30 23:56 13.04.2020
4795 Snow -5 1017 79 805 5.7 20 23:37 13.04.2020
4796 Snow -5 1018 85 4828 5.7 20 23:18 13.04.2020
4797 Snow -5 1021 79 2012 3.1 360 22:42 13.04.2020
4798 Snow -5 1021 79 2012 3.1 360 22:42 13.04.2020
4799 Snow -5 1018 85 1207 5.1 30 22:22 13.04.2020
4800 Snow -5 1017 85 805 5.7 10 21:58 13.04.2020
4801 Snow -5 1018 85 2414 4.6 40 21:39 13.04.2020
4802 Snow -5 1017 79 4023 4.6 360 21:20 13.04.2020
4803 Snow -5 1017 79 4023 4.6 360 20:56 13.04.2020
4804 Snow -5 1017 79 4023 4.6 360 20:56 13.04.2020
4805 Snow -5 1017 73 4023 3.6 50 20:38 13.04.2020
4806 Snow -5 1018 85 2012 4.6 60 20:19 13.04.2020
4807 Snow -6 1022 79 805 2.6 60 19:54 13.04.2020
4808 Snow -6 1019 85 3219 2.6 80 19:36 13.04.2020
4809 Snow -6 1019 79 2012 4.6 60 19:18 13.04.2020
4810 Snow -6 1022 79 2012 3.1 60 18:54 13.04.2020
4811 Snow -6 1019 85 4828 3.6 60 18:36 13.04.2020
4812 Snow -7 1019 85 4828 3.6 60 18:18 13.04.2020
4813 Snow -7 1019 85 4828 3.6 60 18:18 13.04.2020
4814 Snow -8 1022 79 3219 2.6 60 17:54 13.04.2020
4815 Snow -8 1019 85 2012 4.1 60 17:36 13.04.2020
4816 Snow -8 1022 79 6437 1.81 78 17:18 13.04.2020
4817 Snow -8 1023 79 4828 2.1 60 16:55 13.04.2020
4818 Snow -9 1019 85 805 4.1 50 16:36 13.04.2020
4819 Snow -9 1019 85 805 4.1 50 16:36 13.04.2020
4820 Snow -9 1019 92 1207 5.1 50 16:18 13.04.2020
4821 Snow -9 1019 92 1207 5.1 50 16:18 13.04.2020
4822 Snow -9 1022 85 11265 2.1 60 15:43 13.04.2020
4823 Snow -9 1018 78 1207 5.1 30 15:25 13.04.2020
4824 Snow -9 1022 85 4023 1.5 50 14:56 13.04.2020
4825 Snow -9 1019 92 4828 5.1 70 14:38 13.04.2020
4826 Snow -9 1019 92 4828 5.1 70 14:38 13.04.2020
4827 Snow -9 1018 92 6437 5.1 60 14:20 13.04.2020
4828 Snow -9 1022 85 2414 3.1 20 13:55 13.04.2020
4829 Snow -9 1022 85 2414 3.1 20 13:55 13.04.2020
4830 Snow -9 1022 85 2414 3.1 20 13:55 13.04.2020
4831 Snow -8 1018 92 6437 5.1 60 13:37 13.04.2020
4832 Snow -8 1019 92 2816 5.1 350 13:18 13.04.2020
4833 Snow -8 1018 92 6437 2.11 34 12:57 13.04.2020
4834 Snow -8 1018 92 6437 2.11 34 12:38 13.04.2020
4835 Snow -8 1018 92 6437 2.15 21 12:19 13.04.2020
4836 Snow -7 1021 85 2012 3.1 30 11:43 13.04.2020
4837 Snow -7 1018 85 11265 2.6 150 11:19 13.04.2020
4838 Snow -7 1021 92 2012 3.1 30 10:56 13.04.2020
4839 Clouds -7 1019 92 16093 2.15 21 10:38 13.04.2020
4840 Snow -7 1018 85 3219 2.6 120 10:19 13.04.2020
4841 Snow -7 1021 92 1609 2.6 60 09:55 13.04.2020
4842 Clouds -7 1019 85 11265 3.1 150 09:36 13.04.2020
4843 Mist -7 1019 92 6437 1.39 61 09:18 13.04.2020
4844 Snow -6 1019 85 6437 3.6 140 08:42 13.04.2020
4845 Snow -6 1021 85 4023 1.39 61 08:42 13.04.2020
4846 Snow -6 1018 79 8047 3.6 110 08:24 13.04.2020
4847 Clouds -6 1021 79 11265 1.5 110 07:42 13.04.2020
4848 Snow -6 1019 79 6437 3.1 130 07:24 13.04.2020
4849 Snow -6 1021 85 8047 1.5 100 06:47 13.04.2020
4850 Snow -6 1019 79 4828 4.1 90 06:26 13.04.2020
4851 Snow -6 1018 79 4828 4.6 80 05:38 13.04.2020
4852 Snow -6 1018 79 4828 4.6 50 05:18 13.04.2020
4853 Snow -5 1017 73 3219 3.1 60 04:24 13.04.2020
4854 Snow -5 1020 85 2816 2.6 40 03:49 13.04.2020
4855 -273 0 0 0 0 0 02:59 13.04.2020
4856 Snow -5 1016 68 6437 4.1 30 02:38 13.04.2020
4857 Snow -4 1019 63 16093 2.1 40 01:44 13.04.2020
4858 Snow -4 1016 68 4023 4.6 40 01:25 13.04.2020
4859 Snow -4 1016 73 16093 4.1 40 00:43 13.04.2020
4860 Snow -4 1016 79 6437 3.6 50 00:22 13.04.2020
4861 Snow -4 1019 73 2816 4.1 70 23:49 12.04.2020
4862 Snow -4 1015 79 4023 4.1 40 23:23 12.04.2020
4863 Snow -4 1019 73 3219 3.1 50 22:59 12.04.2020
4864 Snow -4 1015 73 2414 3.6 30 22:38 12.04.2020
4865 Snow -4 1015 79 4828 4.1 30 22:19 12.04.2020
4866 Clouds -4 1018 63 16093 3.6 30 21:54 12.04.2020
4867 Snow -5 1015 79 6437 5.1 20 21:36 12.04.2020
4868 Snow -5 1015 79 6437 5.1 20 21:18 12.04.2020
4869 Snow -5 1018 58 16093 3.6 50 20:41 12.04.2020
4870 Snow -5 1016 79 11265 8.2 20 20:22 12.04.2020
4871 Snow -5 1016 79 11265 8.2 20 20:22 12.04.2020
4872 Snow -5 1015 73 4828 6.7 10 19:56 12.04.2020
4873 Snow -5 1015 73 4828 6.7 10 19:56 12.04.2020
4874 Clouds -5 1015 79 16093 7.7 30 19:38 12.04.2020
4875 Clouds -5 1015 79 16093 6.7 20 19:18 12.04.2020
4876 Clouds -5 1015 79 16093 6.7 20 18:41 12.04.2020
4877 Snow -6 1015 79 14484 7.2 20 18:23 12.04.2020
4878 Snow -6 1018 79 4023 3.6 10 17:57 12.04.2020
4879 Snow -6 1014 85 6437 7.7 360 17:38 12.04.2020
4880 Snow -6 1014 92 9656 6.7 10 17:20 12.04.2020
4881 Snow -6 1014 79 11265 5.7 10 16:57 12.04.2020
4882 Snow -6 1014 92 3017 7.7 20 16:38 12.04.2020
4883 Snow -6 1014 92 3621 7.7 20 16:19 12.04.2020
4884 Snow -6 1017 85 1609 4.1 10 15:45 12.04.2020
4885 Snow -6 1013 92 6437 6.2 10 15:27 12.04.2020
4886 Snow -6 1016 92 1207 1.5 340 14:41 12.04.2020
4887 Snow -6 1012 85 16093 7.7 350 14:22 12.04.2020
4888 Snow -6 1012 85 1609 7.7 360 13:59 12.04.2020
4889 Snow -6 1015 85 3219 4.6 350 13:40 12.04.2020
4890 Snow -6 1015 92 2414 6.2 360 13:22 12.04.2020
4891 Snow -6 1014 92 805 6.7 360 12:47 12.04.2020
4892 Snow -5 1011 92 2414 5.7 350 12:22 12.04.2020
4893 Snow -5 1010 85 8047 8.7 20 11:59 12.04.2020
4894 Snow -4 1009 92 16093 9.3 10 11:39 12.04.2020
4895 Clouds -4 1008 86 12874 8.7 20 11:20 12.04.2020
4896 Clouds -4 1008 86 12874 8.7 20 11:20 12.04.2020
4897 Snow -2 1012 92 805 5.7 10 10:58 12.04.2020
4898 Snow -2 1012 92 805 5.7 10 10:39 12.04.2020
4899 Snow -1 1008 53 16093 7.2 10 10:20 12.04.2020
4900 Snow 0 1008 53 16093 7.2 10 09:58 12.04.2020
4901 Clouds 0 1007 53 16093 5.7 360 09:39 12.04.2020
4902 Clouds 0 1006 93 16093 6.7 360 09:19 12.04.2020
4903 Clouds 1 1009 69 16093 5.7 30 08:51 12.04.2020
4904 Clouds 2 1006 25 16093 6.2 360 08:32 12.04.2020
4905 Clouds 7 1008 69 16093 4.1 20 07:47 12.04.2020
4906 Clouds 9 1002 25 16093 9.8 40 07:20 12.04.2020
4907 Clouds 10 1006 25 11265 10.3 30 06:59 12.04.2020
4908 Clouds 13 1002 23 16093 4.1 50 06:31 12.04.2020
4909 Clear 14 1003 19 16093 2.6 350 05:49 12.04.2020
4910 Clouds 14 1001 25 16093 2.6 70 04:53 12.04.2020
4911 Clouds 16 1001 22 16093 3.6 40 03:31 12.04.2020
4912 Clear 17 1001 11 16093 3.6 300 02:49 12.04.2020
4913 Clouds 18 1001 12 16093 7.2 350 02:30 12.04.2020
4914 Clouds 19 1001 10 16093 2.1 360 01:26 12.04.2020
4915 Clear 19 1002 9 16093 6.2 300 00:44 12.04.2020
4916 Clouds 19 1002 11 16093 4.6 340 00:21 12.04.2020
4917 Clouds 20 1002 11 16093 4.6 340 23:59 11.04.2020
4918 Clear 20 1003 8 16093 6.2 320 23:40 11.04.2020
4919 Clouds 20 1003 10 16093 3.6 340 23:22 11.04.2020
4920 Clouds 20 1003 10 16093 3.6 340 23:22 11.04.2020
4921 Clear 20 1004 7 16093 7.2 290 22:39 11.04.2020
4922 Clouds 20 1004 12 16093 4.1 330 22:20 11.04.2020
4923 Clear 20 1005 8 16093 2.6 180 21:56 11.04.2020
4924 Clouds 19 1005 12 16093 3.6 220 21:37 11.04.2020
4925 Clouds 19 1005 12 16093 3.6 220 21:18 11.04.2020
4926 Clouds 19 1005 12 16093 3.6 220 20:56 11.04.2020
4927 Clouds 19 1006 16 16093 3.6 330 20:38 11.04.2020
4928 Clear 18 1007 12 16093 2.95 295 20:19 11.04.2020
4929 Clouds 18 1006 13 16093 2.6 0 19:57 11.04.2020
4930 Clouds 18 1007 15 16093 4.6 280 19:38 11.04.2020
4931 Clouds 18 1007 15 16093 4.6 280 19:38 11.04.2020
4932 Clouds 18 1007 15 16093 4.6 280 19:18 11.04.2020
4933 Clear 17 1008 16 16093 2.1 110 18:55 11.04.2020
4934 Clouds 17 1007 17 16093 5.7 230 18:37 11.04.2020
4935 Clouds 15 1007 17 16093 5.7 230 18:18 11.04.2020
4936 Clouds 15 1008 20 16093 4.6 210 17:57 11.04.2020
4937 Clouds 15 1008 20 16093 4.6 210 17:37 11.04.2020
4938 Clouds 14 1008 19 16093 5.7 230 17:19 11.04.2020
4939 Clear 12 1009 24 16093 2.1 120 16:42 11.04.2020
4940 Clouds 11 1009 23 16093 4.1 230 16:21 11.04.2020
4941 Clear 8 1009 60 16093 4.19 224 15:42 11.04.2020
4942 Clear 7 1008 25 16093 4.1 280 15:21 11.04.2020
4943 Clear 6 1008 25 16093 4.1 280 14:59 11.04.2020
4944 Clouds 6 1008 41 16093 3.6 200 14:40 11.04.2020
4945 Clouds 6 1009 33 16093 4.6 230 14:22 11.04.2020
4946 Clear 6 1009 59 16093 1.5 210 13:46 11.04.2020
4947 Clouds 6 1008 44 16093 3.6 200 13:26 11.04.2020
4948 Clouds 6 1009 31 16093 5.1 240 12:59 11.04.2020
4949 Clouds 6 1008 45 16093 3.6 190 12:38 11.04.2020
4950 Clouds 7 1009 33 16093 4.1 210 12:18 11.04.2020
4951 Clear 7 1010 69 16093 1.5 220 11:54 11.04.2020
4952 Clouds 7 1009 45 16093 5.1 200 11:36 11.04.2020
4953 Clouds 7 1009 39 16093 3.6 190 11:18 11.04.2020
4954 Clear 8 1009 55 16093 3.68 226 10:41 11.04.2020
4955 Clear 8 1010 64 16093 3.68 226 10:21 11.04.2020
4956 Clear 8 1010 48 16093 3.68 226 09:57 11.04.2020
4957 Clouds 9 1009 39 16093 4.6 210 09:38 11.04.2020
4958 Clear 10 1010 45 16093 3.91 224 09:20 11.04.2020
4959 Clear 10 1010 45 16093 1.5 190 08:43 11.04.2020
4960 Clouds 11 1010 34 16093 1.5 260 08:25 11.04.2020
4961 Clouds 12 1010 30 16093 2.1 180 07:49 11.04.2020
4962 Clouds 12 1010 30 16093 4.1 270 07:28 11.04.2020
4963 Clear 13 1011 32 16093 4.1 110 06:47 11.04.2020
4964 Clouds 13 1010 32 16093 2.6 230 05:59 11.04.2020
4965 Rain 15 1009 28 16093 8.2 250 04:34 11.04.2020
4966 Clear 16 1009 19 16093 4.1 290 03:40 11.04.2020
4967 Clouds 19 1009 12 16093 3.1 70 01:52 11.04.2020
4968 Clouds 20 1008 14 16093 2.1 290 01:20 11.04.2020
4969 Clouds 20 1009 13 16093 3.6 360 00:44 11.04.2020
4970 Clouds 20 1009 15 16093 2.1 330 00:19 11.04.2020
4971 Clouds 20 1010 15 16093 3.6 330 23:56 10.04.2020
4972 Clouds 20 1010 15 16093 3.6 330 23:37 10.04.2020
4973 Clouds 20 1010 15 16093 5.7 330 23:18 10.04.2020
4974 Clouds 20 1011 11 16093 3.1 160 22:43 10.04.2020
4975 Clouds 20 1011 16 16093 7.2 320 22:21 10.04.2020
4976 Clouds 20 1011 17 16093 3.1 290 21:58 10.04.2020
4977 Clouds 20 1011 17 16093 3.1 290 21:39 10.04.2020
4978 Clouds 20 1011 17 16093 3.1 290 21:39 10.04.2020
4979 Clear 20 1012 13 16093 1.5 90 21:18 10.04.2020
4980 Clear 20 1013 13 16093 2.96 261 20:41 10.04.2020
4981 Clouds 20 1013 15 16093 1.5 0 20:23 10.04.2020
4982 Clouds 20 1013 15 16093 1.5 0 19:57 10.04.2020
4983 Clouds 19 1013 23 16093 2.96 261 19:39 10.04.2020
4984 Clouds 19 1013 23 16093 2.96 261 19:20 10.04.2020
4985 Clear 18 1014 25 16093 2.6 130 18:57 10.04.2020
4986 Clouds 18 1014 27 16093 5.1 220 18:38 10.04.2020
4987 Clouds 14 1014 27 16093 5.1 220 18:20 10.04.2020
4988 Clouds 12 1014 27 16093 5.7 210 17:58 10.04.2020
4989 Clear 12 1015 50 16093 2.6 200 17:39 10.04.2020
4990 Clouds 11 1015 35 16093 7.2 240 17:20 10.04.2020
4991 Clouds 10 1015 27 16093 5.7 200 16:55 10.04.2020
4992 Clouds 10 1015 27 16093 5.7 200 16:36 10.04.2020
4993 Clear 8 1016 75 16093 2.6 200 16:18 10.04.2020
4994 Clear 6 1016 86 16093 2.6 200 15:54 10.04.2020
4995 Clouds 5 1015 56 16093 4.6 220 15:36 10.04.2020
4996 Clouds 4 1016 39 16093 1.15 231 15:18 10.04.2020
4997 Clouds 4 1014 65 16093 5.7 190 14:54 10.04.2020
4998 Clouds 4 1014 65 16093 5.7 190 14:36 10.04.2020
4999 Clouds 4 1015 60 16093 3.1 170 14:18 10.04.2020
5000 Clouds 4 1016 80 16093 1.55 237 13:42 10.04.2020
5001 Clouds 4 1015 42 16093 1.5 270 13:21 10.04.2020
5002 Clouds 4 1015 65 16093 7.7 190 12:43 10.04.2020
5003 Clouds 4 1016 60 16093 5.1 170 12:23 10.04.2020
5004 Clear 4 1016 60 16093 9.8 190 11:55 10.04.2020
5005 Clear 4 1016 38 16093 1.79 246 11:37 10.04.2020
5006 Clear 5 1018 38 16093 1.79 246 11:18 10.04.2020
5007 Clear 5 1018 38 16093 1.79 246 10:43 10.04.2020
5008 Clouds 5 1017 60 16093 7.7 170 10:23 10.04.2020
5009 Clear 5 1019 38 16093 1.79 246 09:56 10.04.2020
5010 Clouds 5 1018 56 16093 9.3 180 09:38 10.04.2020
5011 Clear 6 1019 74 16093 1.52 168 09:18 10.04.2020
5012 Clear 6 1019 65 16093 1.52 168 08:42 10.04.2020
5013 Clouds 7 1018 52 16093 6.2 190 08:21 10.04.2020
5014 Clouds 7 1018 43 16093 3.1 180 07:45 10.04.2020
5015 Clouds 7 1019 43 16093 4.1 140 07:23 10.04.2020
5016 Clouds 8 1020 46 16093 1.52 168 06:48 10.04.2020
5017 Clouds 8 1019 39 16093 2.6 90 06:27 10.04.2020
5018 Clouds 9 1021 40 16093 3.1 100 05:40 10.04.2020
5019 Clouds 10 1018 57 16093 3.1 90 04:57 10.04.2020
5020 Clear 11 1020 39 16093 2.1 100 03:45 10.04.2020
5021 Clear 12 1020 37 16093 2.1 110 03:24 10.04.2020
5022 Clear 12 1020 35 16093 2.6 100 02:48 10.04.2020
5023 Clouds 12 1019 37 16093 2.1 90 02:28 10.04.2020
5024 Clouds 13 1019 43 16093 1.5 340 01:30 10.04.2020
5025 Clouds 13 1020 33 16093 2.6 140 00:49 10.04.2020
5026 Clouds 13 1019 46 16093 4.18 39 00:23 10.04.2020
5027 Clouds 13 1021 35 16093 3.1 110 23:44 09.04.2020
5028 Clouds 13 1020 43 16093 6.2 20 23:26 09.04.2020
5029 Clouds 12 1020 43 16093 6.2 20 22:59 09.04.2020
5030 Clouds 12 1022 35 16093 2.6 80 22:40 09.04.2020
5031 Clouds 12 1021 28 16093 3.1 360 22:22 09.04.2020
5032 Clouds 11 1023 35 16093 3.1 340 21:43 09.04.2020
5033 Clouds 11 1021 33 16093 5.1 360 21:25 09.04.2020
5034 Clouds 11 1021 33 16093 5.1 360 20:56 09.04.2020
5035 Clouds 10 1022 33 16093 5.7 350 20:38 09.04.2020
5036 Clouds 10 1021 33 16093 5.7 350 20:19 09.04.2020
5037 Clouds 9 1022 33 16093 6.2 350 19:40 09.04.2020
5038 Clouds 9 1021 33 16093 6.2 360 19:22 09.04.2020
5039 Clear 9 1024 45 16093 5.1 10 18:58 09.04.2020
5040 Clouds 8 1021 52 16093 3.6 10 18:40 09.04.2020
5041 Clouds 8 1021 52 16093 3.6 10 18:18 09.04.2020
5042 Clouds 8 1021 52 16093 3.6 10 18:18 09.04.2020
5043 Clouds 7 1021 70 16093 4.6 320 17:39 09.04.2020
5044 Clouds 6 1020 56 16093 1.5 320 17:21 09.04.2020
5045 Clear 5 1023 60 16093 4.1 20 16:41 09.04.2020
5046 Clear 3 1023 74 16093 0.29 356 16:20 09.04.2020
5047 Clear 3 1023 86 16093 0.29 356 15:57 09.04.2020
5048 Clear 2 1023 86 16093 0.29 356 15:39 09.04.2020
5049 Clouds 2 1021 74 16093 1.5 270 15:20 09.04.2020
5050 Clouds 1 1021 74 16093 1.5 270 14:59 09.04.2020
5051 Clear 1 1022 86 11265 0.67 6 14:38 09.04.2020
5052 Clouds 1 1020 86 16093 2.6 280 14:20 09.04.2020
5053 Clear 2 1022 80 11265 0.67 6 13:42 09.04.2020
5054 Clouds 2 1020 86 16093 2.1 290 13:24 09.04.2020
5055 Clouds 2 1020 69 16093 3.1 350 12:59 09.04.2020
5056 Clouds 3 1020 69 16093 3.1 350 12:38 09.04.2020
5057 Clouds 3 1020 69 16093 3.1 350 12:20 09.04.2020
5058 Clear 4 1022 74 16093 1.5 360 11:55 09.04.2020
5059 Clouds 4 1020 69 16093 3.6 330 11:36 09.04.2020
5060 Clear 4 1020 56 16093 3.1 310 11:18 09.04.2020
5061 Clear 5 1022 74 16093 2.1 320 10:41 09.04.2020
5062 Clear 5 1020 64 16093 3.6 260 10:22 09.04.2020
5063 Clear 5 1020 64 16093 3.6 260 10:22 09.04.2020
5064 Clear 5 1023 74 16093 4.05 360 09:58 09.04.2020
5065 Clear 5 1023 74 16093 4.05 360 09:39 09.04.2020
5066 Clear 6 1020 49 16093 1.5 310 09:21 09.04.2020
5067 Clear 7 1022 69 16093 0.79 34 08:44 09.04.2020
5068 Clear 7 1020 49 16093 2.6 60 08:24 09.04.2020
5069 Clear 7 1020 56 16093 1.5 40 07:59 09.04.2020
5070 Clear 8 1020 56 16093 1.5 40 07:37 09.04.2020
5071 Clear 8 1020 56 16093 1.5 40 07:18 09.04.2020
5072 Clear 10 1019 52 16093 4.6 110 06:26 09.04.2020
5073 Clear 10 1021 40 16093 2.29 159 05:47 09.04.2020
5074 Clouds 13 1018 35 16093 5.7 90 04:39 09.04.2020
5075 Clouds 19 1017 17 16093 1.5 90 02:35 09.04.2020
5076 Clear 20 1018 10 16093 2.6 290 01:45 09.04.2020
5077 Clouds 20 1017 14 16093 4.6 10 01:27 09.04.2020
5078 Clear 20 1018 12 16093 3.23 293 00:43 09.04.2020
5079 Clouds 20 1017 16 16093 4.1 10 00:20 09.04.2020
5080 Clouds 20 1018 16 16093 4.1 350 23:59 08.04.2020
5081 Clouds 20 1019 13 16093 2.57 24 23:41 08.04.2020
5082 Clouds 20 1019 13 16093 2.57 24 23:21 08.04.2020
5083 Clouds 20 1018 16 16093 4.6 30 22:44 08.04.2020
5084 Clear 20 1019 14 16093 1.5 70 22:24 08.04.2020
5085 Clear 19 1020 14 16093 3.1 90 21:57 08.04.2020
5086 Clouds 19 1019 17 16093 1.5 140 21:39 08.04.2020
5087 Clouds 19 1019 17 16093 1.5 140 21:20 08.04.2020
5088 Clouds 18 1019 17 16093 3.6 40 20:58 08.04.2020
5089 Clouds 18 1019 17 16093 3.6 40 20:39 08.04.2020
5090 Clouds 18 1019 17 16093 3.6 40 20:20 08.04.2020
5091 Clouds 18 1020 17 16093 3.1 260 19:56 08.04.2020
5092 Clouds 17 1020 17 16093 3.1 260 19:37 08.04.2020
5093 Clear 17 1021 17 16093 3.6 70 19:18 08.04.2020
5094 Clouds 17 1020 17 16093 3.6 350 19:18 08.04.2020
5095 Clouds 16 1020 18 16093 3.1 320 18:41 08.04.2020
5096 Clouds 16 1020 18 16093 3.1 320 18:23 08.04.2020
5097 Clouds 15 1020 22 16093 2.55 258 17:54 08.04.2020
5098 Clouds 14 1020 22 16093 2.55 258 17:36 08.04.2020
5099 Clear 13 1021 26 16093 3.1 110 17:18 08.04.2020
5100 Clouds 11 1019 34 16093 2.6 170 16:42 08.04.2020
5101 Clouds 11 1019 34 16093 2.6 170 16:42 08.04.2020
5102 Clear 10 1020 27 16093 2.6 10 16:23 08.04.2020
5103 Clouds 6 1019 47 16093 2.6 100 15:55 08.04.2020
5104 Clouds 5 1019 47 16093 2.6 100 15:37 08.04.2020
5105 Clear 5 1018 28 16093 2.6 190 15:18 08.04.2020
5106 Clear 5 1019 47 16093 2.1 180 14:42 08.04.2020
5107 Clear 5 1019 38 16093 1.5 110 14:24 08.04.2020
5108 Clear 5 1019 47 16093 2.6 130 13:45 08.04.2020
5109 Clouds 5 1017 44 16093 4.1 180 13:23 08.04.2020
5110 Clear 6 1017 24 16093 3.6 40 13:00 08.04.2020
5111 Clear 6 1017 51 16093 3.6 70 12:41 08.04.2020
5112 Clear 6 1017 51 16093 3.6 70 12:18 08.04.2020
5113 Clear 7 1018 33 16093 3.03 260 11:55 08.04.2020
5114 Clear 7 1017 38 16093 3.1 150 11:37 08.04.2020
5115 Clear 7 1017 38 16093 3.1 150 11:19 08.04.2020
5116 Clear 8 1018 33 16093 3.03 260 10:54 08.04.2020
5117 Clouds 8 1017 48 16093 3.6 110 10:36 08.04.2020
5118 Clear 8 1018 28 11265 3.1 240 10:18 08.04.2020
5119 Clear 9 1018 26 16093 3.03 260 09:42 08.04.2020
5120 Clouds 9 1016 31 16093 3.35 266 09:20 08.04.2020
5121 Clouds 10 1016 31 16093 3.35 266 08:58 08.04.2020
5122 Clear 10 1017 13 16093 2.1 230 08:58 08.04.2020
5123 Clear 10 1017 13 16093 2.1 230 08:40 08.04.2020
5124 Clear 10 1016 16 16093 7.7 300 08:21 08.04.2020
5125 Clear 11 1017 12 16093 5.1 260 07:43 08.04.2020
5126 Clouds 11 1016 27 16093 2.6 10 07:22 08.04.2020
5127 Clouds 12 1016 22 16093 3.1 170 06:33 08.04.2020
5128 Clouds 14 1015 27 16093 2.6 200 05:22 08.04.2020
5129 Clear 20 1014 9 16093 8.2 290 02:51 08.04.2020
5130 Clouds 21 1014 11 16093 5.1 20 02:22 08.04.2020
5131 Clouds 21 1014 11 16093 5.1 20 01:56 08.04.2020
5132 Clouds 21 1013 11 16093 5.1 30 01:28 08.04.2020
5133 Clear 22 1014 7 16093 10.8 280 00:49 08.04.2020
5134 Clouds 22 1013 10 16093 4.6 20 00:31 08.04.2020
5135 Clouds 22 1014 10 16093 3.1 300 23:57 07.04.2020
5136 Clouds 22 1014 10 16093 3.1 300 23:38 07.04.2020
5137 Clear 22 1015 8 16093 7.2 310 23:19 07.04.2020
5138 Clear 22 1015 8 16093 8.7 280 22:56 07.04.2020
5139 Clouds 22 1015 11 16093 1.5 50 22:38 07.04.2020
5140 Clouds 21 1015 11 16093 3.6 20 22:18 07.04.2020
5141 Clear 21 1015 8 16093 10.3 290 21:42 07.04.2020
5142 Clear 21 1016 8 16093 5.1 210 21:22 07.04.2020
5143 Clouds 20 1016 11 16093 1.2 202 20:59 07.04.2020
5144 Clouds 20 1016 11 16093 1.2 202 20:41 07.04.2020
5145 Clouds 20 1016 11 16093 1.2 202 20:21 07.04.2020
5146 Clouds 19 1016 12 16093 2.1 170 19:58 07.04.2020
5147 Clouds 19 1016 12 16093 2.1 170 19:38 07.04.2020
5148 Clear 19 1017 10 16093 7.2 300 19:38 07.04.2020
5149 Clear 19 1017 10 16093 7.2 300 19:38 07.04.2020
5150 Clouds 19 1016 12 16093 2.1 170 19:20 07.04.2020
5151 Clear 18 1017 11 16093 7.7 260 18:58 07.04.2020
5152 Clouds 18 1017 14 16093 2.6 190 18:40 07.04.2020
5153 Clouds 17 1017 13 16093 3.6 270 18:20 07.04.2020
5154 Clouds 16 1016 18 16093 3.6 210 17:47 07.04.2020
5155 Clouds 16 1016 18 16093 3.6 210 17:24 07.04.2020
5156 Clear 14 1017 12 16093 4.6 250 16:55 07.04.2020
5157 Clear 14 1017 12 16093 4.6 250 16:55 07.04.2020
5158 Clouds 12 1016 29 16093 4.6 180 16:37 07.04.2020
5159 Clouds 11 1016 38 16093 4.1 180 16:19 07.04.2020
5160 Clouds 7 1016 25 16093 6.2 230 15:42 07.04.2020
5161 Clouds 7 1016 38 16093 4.1 180 15:24 07.04.2020
5162 Clear 6 1016 24 16093 2.1 240 14:42 07.04.2020
5163 Clear 6 1014 26 16093 3.72 198 14:23 07.04.2020
5164 Clear 7 1014 36 16093 5.1 180 13:57 07.04.2020
5165 Clear 7 1014 36 16093 5.1 180 13:39 07.04.2020
5166 Clear 7 1014 36 16093 5.1 180 13:19 07.04.2020
5167 Clear 7 1014 38 16093 4.6 180 12:56 07.04.2020
5168 Clear 7 1014 38 16093 4.6 180 12:37 07.04.2020
5169 Clear 7 1014 38 16093 4.6 180 12:18 07.04.2020
5170 Clear 7 1015 38 16093 3.53 200 11:44 07.04.2020
5171 Clouds 7 1014 31 16093 2.1 180 11:26 07.04.2020
5172 Clouds 8 1014 31 16093 2.1 180 10:59 07.04.2020
5173 Clear 8 1014 38 16093 4.1 200 10:38 07.04.2020
5174 Clouds 8 1014 31 16093 6.2 200 10:19 07.04.2020
5175 Clear 9 1014 41 16093 2.6 180 09:46 07.04.2020
5176 Clouds 9 1014 33 16093 4.6 120 09:20 07.04.2020
5177 Clouds 10 1014 33 16093 4.6 120 08:57 07.04.2020
5178 Clear 10 1015 45 16093 3.34 229 08:38 07.04.2020
5179 Clouds 10 1014 29 16093 3.6 150 08:19 07.04.2020
5180 Clear 11 1014 31 16093 3.34 229 07:43 07.04.2020
5181 Clouds 11 1013 25 16093 4.1 180 07:25 07.04.2020
5182 Clouds 12 1012 30 16093 2.1 240 06:51 07.04.2020
5183 Clouds 12 1012 30 16093 2.1 240 06:25 07.04.2020
5184 Clear 14 1013 23 16093 1.5 230 05:46 07.04.2020
5185 Clouds 14 1012 15 16093 1.5 270 05:22 07.04.2020
5186 Clouds 18 1009 18 16093 2.1 350 03:32 07.04.2020
5187 Clouds 20 1009 7 16093 6.2 270 02:59 07.04.2020
5188 Clouds 21 1009 9 16093 9.8 250 01:58 07.04.2020
5189 Clouds 22 1008 9 16093 3.6 290 01:32 07.04.2020
5190 Clouds 22 1009 10 16093 2.1 30 00:29 07.04.2020
5191 Clear 22 1010 8 16093 4.1 310 23:57 06.04.2020
5192 Clouds 22 1009 11 16093 4.6 310 23:38 06.04.2020
5193 Clouds 22 1009 10 16093 3.1 190 23:20 06.04.2020
5194 Clear 21 1011 9 16093 4.1 120 22:41 06.04.2020
5195 Clear 21 1011 9 16093 2.79 234 22:22 06.04.2020
5196 Clouds 21 1010 12 16093 6.2 200 21:58 06.04.2020
5197 Clouds 21 1011 12 16093 4.6 220 21:40 06.04.2020
5198 Clouds 20 1011 13 16093 2.6 0 21:19 06.04.2020
5199 Clouds 20 1011 13 16093 2.6 0 21:19 06.04.2020
5200 Clouds 20 1011 15 16093 5.1 190 20:56 06.04.2020
5201 Clouds 20 1011 15 16093 5.1 190 20:38 06.04.2020
5202 Clouds 19 1011 14 16093 7.7 230 20:19 06.04.2020
5203 Clear 19 1012 11 16093 4.1 210 19:54 06.04.2020
5204 Clouds 19 1011 14 16093 5.1 230 19:36 06.04.2020
5205 Clouds 18 1011 14 16093 5.1 230 19:18 06.04.2020
5206 Clouds 18 1012 20 16093 5.1 200 18:41 06.04.2020
5207 Clouds 18 1012 20 16093 5.1 200 18:41 06.04.2020
5208 Clouds 15 1012 20 16093 5.1 200 18:23 06.04.2020
5209 Clear 14 1013 24 16093 2.1 160 17:55 06.04.2020
5210 Clouds 14 1012 26 16093 6.2 210 17:36 06.04.2020
5211 Clear 13 1013 32 16093 3.16 204 17:18 06.04.2020
5212 Clear 13 1012 22 16093 6.7 220 17:18 06.04.2020
5213 Clear 11 1013 34 16093 1.5 190 16:45 06.04.2020
5214 Clouds 9 1012 27 16093 6.2 220 16:27 06.04.2020
5215 Clouds 5 1011 48 16093 5.1 180 14:45 06.04.2020
5216 Clouds 5 1011 48 16093 5.1 180 14:45 06.04.2020
5217 Clouds 5 1011 48 16093 5.1 180 14:45 06.04.2020
5218 Clouds 5 1011 48 16093 5.1 180 14:45 06.04.2020
5219 Clouds 5 1011 48 16093 5.1 180 14:45 06.04.2020
5220 Clouds 5 1010 48 16093 4.6 190 13:44 06.04.2020
5221 Clouds 5 1010 48 16093 4.6 190 13:44 06.04.2020
5222 Clouds 5 1010 48 16093 4.6 190 13:44 06.04.2020
5223 Clouds 5 1010 48 16093 4.6 190 13:44 06.04.2020
5224 Clouds 5 1010 48 16093 4.6 190 13:44 06.04.2020
5225 Clear 5 1010 48 16093 3.22 215 13:21 06.04.2020
5226 Clear 5 1010 48 16093 3.22 215 13:21 06.04.2020
5227 Clouds 5 1010 48 16093 4.6 190 13:21 06.04.2020
5228 Clouds 5 1010 48 16093 4.6 190 13:21 06.04.2020
5229 Clear 5 1010 48 16093 4.6 190 12:26 06.04.2020
5230 Clear 5 1010 48 16093 4.6 190 12:26 06.04.2020
5231 Clear 6 1010 39 16093 2.6 190 12:01 06.04.2020
5232 Clear 6 1011 59 16093 2.38 223 11:40 06.04.2020
5233 Clear 6 1011 59 16093 2.38 223 11:39 06.04.2020
5234 Clear 6 1011 59 16093 2.38 223 11:38 06.04.2020
5235 Clear 6 1011 59 16093 2.38 223 11:38 06.04.2020
5236 Clear 6 1011 59 16093 2.38 223 11:38 06.04.2020
5237 Clear 6 1010 39 16093 3.1 160 10:52 06.04.2020
5238 Clear 6 1011 48 16093 2.38 223 10:52 06.04.2020
5239 Clear 6 1010 39 16093 3.1 160 10:52 06.04.2020
5240 Clear 6 1010 39 16093 3.1 160 10:52 06.04.2020
5241 Clear 6 1010 39 16093 3.1 160 10:52 06.04.2020
5242 Clear 7 1010 39 16093 3.6 220 10:23 06.04.2020
5243 Clear 7 1010 39 16093 3.6 220 10:23 06.04.2020
5244 Clear 7 1010 39 16093 3.6 220 10:23 06.04.2020
5245 Clear 7 1010 36 16093 2.6 220 09:53 06.04.2020
5246 Clear 7 1010 36 16093 2.6 220 09:53 06.04.2020
5247 Clear 7 1011 64 16093 2.1 150 09:52 06.04.2020
5248 Clear 7 1010 36 16093 2.6 220 09:52 06.04.2020
5249 Clear 7 1010 36 16093 2.6 220 09:52 06.04.2020
5250 Clear 7 1010 36 16093 1.5 250 09:24 06.04.2020
5251 Clouds 8 1011 42 16093 2.6 260 08:55 06.04.2020
5252 Clear 8 1011 60 16093 2.69 239 08:33 06.04.2020
5253 Clear 8 1011 60 16093 2.69 239 08:33 06.04.2020
5254 Clear 8 1010 42 16093 3.1 260 07:54 06.04.2020
5255 Clouds 9 1009 43 16093 2.6 230 07:18 06.04.2020
5256 Clouds 9 1009 40 16093 3.1 120 06:25 06.04.2020
5257 Clouds 12 1008 34 16093 1.5 160 04:50 06.04.2020
5258 Clouds 12 1008 34 16093 1.5 160 04:50 06.04.2020
5259 Clouds 16 1007 28 16093 3.1 30 03:27 06.04.2020
5260 Clouds 18 1007 23 16093 3.6 360 02:48 06.04.2020
5261 Clouds 19 1007 23 16093 5.7 10 01:49 06.04.2020
5262 Clear 19 1008 13 16093 2.54 234 00:46 06.04.2020
5263 Clouds 20 1005 15 16093 10.8 220 00:25 06.04.2020
5264 Clouds 19 1008 15 16093 3.6 260 23:47 05.04.2020
5265 Clouds 20 1007 15 16093 6.7 200 23:28 05.04.2020
5266 Clouds 20 1006 18 16093 6.7 180 23:28 05.04.2020
5267 Clouds 20 1006 18 16093 6.7 180 23:28 05.04.2020
5268 Clouds 20 1006 18 16093 6.7 180 23:28 05.04.2020
5269 Clouds 20 1006 18 16093 6.7 180 23:28 05.04.2020
5270 Clouds 19 1007 15 16093 6.7 200 22:56 05.04.2020
5271 Clouds 19 1008 14 16093 2.6 210 22:38 05.04.2020
5272 Clouds 19 1008 19 16093 5.1 170 22:18 05.04.2020
5273 Clouds 19 1009 14 16093 2.6 60 21:55 05.04.2020
5274 Clouds 19 1009 14 16093 2.6 60 21:37 05.04.2020
5275 Clouds 14 1008 18 16093 3.1 160 21:18 05.04.2020
5276 Clouds 17 1009 17 16093 3.1 240 20:20 05.04.2020
5277 Clouds 17 1009 17 16093 3.1 240 20:20 05.04.2020
5278 Clouds 17 1009 20 16093 5.1 190 20:20 05.04.2020
5279 Clouds 17 1009 17 16093 3.1 240 20:20 05.04.2020
5280 Clear 17 1011 18 16093 3.1 140 19:39 05.04.2020
5281 Clouds 16 1009 23 16093 4.1 190 19:21 05.04.2020
5282 Clear 15 1011 26 16093 1.5 110 18:44 05.04.2020
5283 Clouds 11 1010 33 16093 4.6 240 17:58 05.04.2020
5284 Clear 10 1012 46 16093 1.62 233 17:39 05.04.2020
5285 Clouds 10 1010 37 16093 4.6 210 17:39 05.04.2020
5286 Clear 10 1012 46 16093 1.62 233 17:39 05.04.2020
5287 Clouds 10 1010 37 16093 4.6 210 17:39 05.04.2020
5288 Clouds 9 1011 49 16093 1.62 233 17:20 05.04.2020
5289 Clouds 9 1011 49 16093 1.62 233 17:20 05.04.2020
5290 Clouds 7 1011 48 16093 3.1 150 16:21 05.04.2020
5291 Clouds 7 1011 48 16093 3.1 150 16:21 05.04.2020
5292 Clouds 4 1011 48 16093 3.1 150 15:55 05.04.2020
5293 Clear 3 1012 26 16093 1.62 233 15:37 05.04.2020
5294 Clouds 2 1010 55 16093 1.5 190 15:19 05.04.2020
5295 Clouds 2 1010 55 16093 2.1 200 14:47 05.04.2020
5296 Clouds 2 1010 55 16093 2.1 200 14:47 05.04.2020
5297 Clouds 2 1010 55 16093 1.5 190 14:47 05.04.2020
5298 Clear 2 1012 86 16093 2.29 224 14:47 05.04.2020
5299 Clear 2 1012 86 16093 2.29 224 14:47 05.04.2020
5300 Clear 2 1011 86 16093 2.1 222 13:44 05.04.2020
5301 Clouds 3 1009 69 16093 2.6 100 12:54 05.04.2020
5302 Clouds 3 1009 69 16093 2.6 100 12:54 05.04.2020
5303 Clouds 3 1009 69 16093 2.6 100 12:54 05.04.2020
5304 Clouds 3 1009 69 16093 2.6 100 12:54 05.04.2020
5305 Clouds 2 1009 64 16093 5.7 180 12:54 05.04.2020
5306 Clouds 3 1011 37 16093 2.13 231 11:44 05.04.2020
5307 Clouds 3 1009 64 16093 6.7 190 11:21 05.04.2020
5308 Clouds 3 1009 60 16093 3.1 190 10:59 05.04.2020
5309 Clear 4 1011 80 16093 1.5 180 10:41 05.04.2020
5310 Clear 4 1009 60 16093 1.5 230 10:18 05.04.2020
5311 Clear 4 1011 69 16093 1.5 220 09:43 05.04.2020
5312 Clear 4 1010 56 16093 5.1 150 09:24 05.04.2020
5313 Clear 4 1010 56 16093 5.1 150 09:24 05.04.2020
5314 Clear 4 1010 56 16093 5.1 150 09:24 05.04.2020
5315 Clear 4 1010 65 16093 2.6 200 09:24 05.04.2020
5316 Clear 4 1010 56 16093 5.1 150 09:24 05.04.2020
5317 Clear 5 1012 74 16093 1.63 264 07:42 05.04.2020
5318 Clear 9 1011 39 16093 2.4 182 04:36 05.04.2020
5319 Clouds 11 1011 32 16093 2.4 182 03:33 05.04.2020
5320 Clouds 13 1009 37 16093 5.1 170 02:52 05.04.2020
5321 Clouds 14 1009 30 16093 2.6 140 01:48 05.04.2020
5322 Clouds 14 1009 26 16093 3.6 40 01:28 05.04.2020
5323 Clouds 14 1009 26 16093 3.6 40 01:28 05.04.2020
5324 Clouds 14 1011 17 16093 2.1 170 00:44 05.04.2020
5325 Clouds 14 1009 26 16093 4.1 80 00:21 05.04.2020
5326 Clouds 14 1009 28 16093 3.6 120 23:55 04.04.2020
5327 Clear 14 1011 17 16093 2.1 220 23:37 04.04.2020
5328 Clouds 14 1010 22 16093 6.7 120 23:19 04.04.2020
5329 Clear 14 1012 21 16093 2.1 200 22:40 04.04.2020
5330 Clouds 13 1011 24 16093 1.5 100 22:21 04.04.2020
5331 Clouds 13 1011 24 16093 2.6 0 21:59 04.04.2020
5332 Clouds 13 1011 24 16093 2.6 0 21:59 04.04.2020
5333 Clouds 13 1013 30 16093 3.6 170 21:40 04.04.2020
5334 Clouds 10 1011 27 16093 2.6 300 21:19 04.04.2020
5335 Clouds 11 1011 27 16093 2.6 300 20:59 04.04.2020
5336 Clear 10 1014 34 16093 2.6 160 20:40 04.04.2020
5337 Clouds 10 1013 34 16093 2.1 90 20:21 04.04.2020
5338 Clouds 9 1013 42 16093 5.1 120 19:57 04.04.2020
5339 Clear 8 1015 42 16093 2.18 112 19:37 04.04.2020
5340 Clouds 8 1014 42 16093 2.1 110 19:19 04.04.2020
5341 Clouds 7 1014 42 16093 2.1 110 18:56 04.04.2020
5342 Clear 6 1016 55 16093 2.18 112 18:37 04.04.2020
5343 Clouds 4 1014 48 16093 1.5 250 18:19 04.04.2020
5344 Clear 3 1016 59 16093 1.5 20 17:41 04.04.2020
5345 Clouds 2 1014 51 16093 1.5 0 17:21 04.04.2020
5346 Clouds 1 1014 51 16093 1.5 0 16:59 04.04.2020
5347 Clouds 1 1016 36 16093 2.6 350 16:41 04.04.2020
5348 Clouds 0 1014 36 16093 3.1 240 16:22 04.04.2020
5349 Clouds -2 1014 58 16093 0.29 344 15:55 04.04.2020
5350 Clear -2 1016 86 16093 0.29 344 15:36 04.04.2020
5351 Clouds -3 1013 68 16093 2.1 130 15:18 04.04.2020
5352 Clear -4 1016 92 16093 1.5 207 14:42 04.04.2020
5353 Clear -4 1013 63 16093 4.6 190 14:22 04.04.2020
5354 Clouds -4 1013 63 16093 4.6 160 13:56 04.04.2020
5355 Clear -3 1016 92 16093 1.37 215 13:37 04.04.2020
5356 Clear -3 1013 53 16093 6.7 160 13:19 04.04.2020
5357 Clear -3 1016 92 16093 1.37 215 12:44 04.04.2020
5358 Clear -3 1014 50 16093 6.2 170 12:24 04.04.2020
5359 Clear -3 1014 86 16093 1.76 284 11:59 04.04.2020
5360 Clear -3 1016 92 16093 1.76 284 11:38 04.04.2020
5361 Clouds -2 1015 46 16093 9.8 170 11:19 04.04.2020
5362 Clear -2 1015 48 16093 2.1 320 10:56 04.04.2020
5363 Clear -2 1017 92 16093 1.76 284 10:37 04.04.2020
5364 Clouds -2 1015 46 16093 9.8 170 10:19 04.04.2020
5365 Clear -2 1015 69 16093 1.76 284 09:54 04.04.2020
5366 Clear -1 1017 86 16093 1.76 284 09:36 04.04.2020
5367 Clear -1 1017 86 16093 1.76 284 09:36 04.04.2020
5368 Clear -1 1015 43 16093 1.1 284 09:18 04.04.2020
5369 Clear -1 1018 86 16093 1.1 284 08:41 04.04.2020
5370 Clouds 0 1016 59 16093 6.7 150 08:20 04.04.2020
5371 Clouds 0 1018 80 16093 1.1 284 07:44 04.04.2020
5372 Clouds 1 1016 59 16093 7.2 170 07:26 04.04.2020
5373 Clouds 1 1016 55 16093 6.7 170 06:53 04.04.2020
5374 Clouds 1 1017 59 16093 3.6 170 06:20 04.04.2020
5375 Clouds 2 1018 55 16093 3.31 134 05:42 04.04.2020
5376 Clouds 2 1016 55 32767 3.1 160 05:23 04.04.2020
5377 Clouds 2 1018 48 16093 2.6 170 04:30 04.04.2020
5378 Clouds 2 1016 64 16093 4.1 160 03:49 04.04.2020
5379 Clouds 3 1016 55 16093 6.2 170 02:51 04.04.2020
5380 Clouds 4 1016 59 16093 5.7 150 02:32 04.04.2020
5381 Clouds 4 1016 55 16093 5.7 160 01:53 04.04.2020
5382 Clouds 5 1016 55 16093 7.2 150 01:25 04.04.2020
5383 Clear 5 1018 30 16093 1.5 170 00:48 04.04.2020
5384 Clouds 5 1016 51 16093 6.2 150 00:29 04.04.2020
5385 Clouds 5 1019 38 16093 2.6 120 23:40 03.04.2020
5386 Clouds 4 1017 44 16093 4.6 160 23:21 03.04.2020
5387 Rain 4 1017 44 16093 4.6 160 22:58 03.04.2020
5388 Rain 4 1020 38 16093 3.1 150 22:39 03.04.2020
5389 Rain 4 1018 44 16093 5.1 170 22:18 03.04.2020
5390 Rain 3 1021 51 16093 5.1 140 21:44 03.04.2020
5391 Rain 3 1019 59 16093 5.7 140 21:25 03.04.2020
5392 Rain 2 1018 47 16093 3.6 130 20:57 03.04.2020
5393 Rain 2 1022 69 16093 1.5 150 20:37 03.04.2020
5394 Rain 1 1019 55 16093 3.6 130 20:19 03.04.2020
5395 Rain 1 1019 55 16093 3.6 130 19:57 03.04.2020
5396 Rain 0 1023 86 2012 2.1 100 19:39 03.04.2020
5397 Rain -1 1020 79 16093 1.5 90 19:21 03.04.2020
5398 Rain -1 1020 79 16093 1.5 90 18:59 03.04.2020
5399 Rain -2 1023 85 11265 5.53 139 18:41 03.04.2020
5400 Snow -3 1021 85 16093 1.34 141 18:22 03.04.2020
5401 Snow -3 1020 74 16093 3.6 170 17:55 03.04.2020
5402 Clouds -4 1021 85 16093 1.34 141 17:36 03.04.2020
5403 Clouds -4 1020 79 16093 1.34 141 17:18 03.04.2020
5404 Clouds -5 1023 85 11265 1.34 141 16:43 03.04.2020
5405 Clouds -6 1020 85 16093 1.34 141 16:21 03.04.2020
5406 Clouds -6 1020 85 16093 1.34 141 15:58 03.04.2020
5407 Clouds -7 1023 85 16093 1.34 141 15:39 03.04.2020
5408 Clouds -7 1020 85 16093 1.05 160 15:20 03.04.2020
5409 Clouds -7 1023 85 16093 1.05 160 14:55 03.04.2020
5410 Clouds -7 1020 92 14484 1.5 180 14:37 03.04.2020
5411 Clouds -7 1020 92 14484 1.5 180 14:19 03.04.2020
5412 Clouds -7 1020 92 14484 1.5 180 13:42 03.04.2020
5413 Clouds -7 1020 92 14484 1.5 180 13:24 03.04.2020
5414 Clouds -7 1020 85 12874 2.1 160 12:45 03.04.2020
5415 Snow -8 1020 85 9656 1.5 140 12:21 03.04.2020
5416 Snow -8 1020 85 9656 1.5 140 11:59 03.04.2020
5417 Clouds -8 1023 85 16093 1.5 150 11:40 03.04.2020
5418 Clouds -8 1020 92 16093 1.5 120 11:21 03.04.2020
5419 Snow -8 1020 78 8047 2.6 110 10:59 03.04.2020
5420 Clouds -8 1023 85 16093 3.1 140 10:39 03.04.2020
5421 -273 0 0 0 0 0 10:20 03.04.2020
5422 Snow -8 1020 78 6437 2.1 120 10:20 03.04.2020
5423 Snow -8 1020 78 6437 2.1 120 09:59 03.04.2020
5424 Snow -8 1023 92 16093 1.5 80 09:40 03.04.2020
5425 Snow -8 1020 78 8047 1.5 60 09:21 03.04.2020
5426 Snow -8 1020 78 8047 1.5 60 09:21 03.04.2020
5427 Snow -8 1020 78 8047 1.5 60 09:21 03.04.2020
5428 Snow -8 1020 78 8047 1.5 60 08:56 03.04.2020
5429 Clouds -8 1023 92 16093 2.6 100 08:37 03.04.2020
5430 Snow -8 1020 92 9656 1.5 50 08:19 03.04.2020
5431 Snow -8 1020 100 9656 2.33 52 07:46 03.04.2020
5432 Snow -8 1020 100 9656 2.33 52 07:46 03.04.2020
5433 Snow -8 1020 85 6437 3.1 20 07:28 03.04.2020
5434 Snow -7 1022 85 16093 2.1 100 06:40 03.04.2020
5435 Snow -7 1020 92 4023 2.1 40 06:22 03.04.2020
5436 Snow -7 1022 85 16093 2.6 60 05:39 03.04.2020
5437 Snow -5 1017 92 16093 2.6 60 03:42 03.04.2020
5438 Clouds -4 1019 92 11265 5.7 60 02:55 03.04.2020
5439 Snow -3 1016 92 4828 4.95 38 02:18 03.04.2020
5440 Snow -3 1015 100 2414 3.1 360 01:20 03.04.2020
5441 Snow -3 1015 100 2414 3.1 360 01:20 03.04.2020
5442 Snow -3 1015 100 2012 2.6 360 00:34 03.04.2020
5443 Snow -4 1015 92 4828 2.1 360 23:58 02.04.2020
5444 Snow -4 1016 86 8047 5.65 35 23:39 02.04.2020
5445 Snow -4 1016 86 8047 5.65 35 23:39 02.04.2020
5446 Snow -4 1016 86 8047 5.65 35 23:39 02.04.2020
5447 Mist -4 1013 79 6437 1.5 10 23:21 02.04.2020
5448 Clouds -4 1016 86 16093 1.5 100 22:43 02.04.2020
5449 Mist -5 1013 85 4023 4.6 20 22:25 02.04.2020
5450 Mist -4 1013 85 4023 5.1 360 21:59 02.04.2020
5451 Clouds -4 1016 92 16093 1.5 20 21:38 02.04.2020
5452 Clouds -4 1016 92 16093 1.5 20 21:38 02.04.2020
5453 Mist -4 1014 92 3219 3.1 20 21:19 02.04.2020
5454 Snow -4 1013 100 6437 4.1 30 20:57 02.04.2020
5455 Snow -4 1013 100 6437 4.1 30 20:38 02.04.2020
5456 Mist -4 1013 100 4828 4.1 30 20:19 02.04.2020
5457 Clouds -5 1017 92 11265 4.1 30 19:43 02.04.2020
5458 Mist -5 1014 100 1609 3.6 40 19:21 02.04.2020
5459 Mist -5 1014 100 1609 3.6 40 19:21 02.04.2020
5460 Mist -4 1014 100 1609 3.6 40 18:58 02.04.2020
5461 Mist -4 1016 92 4828 4.1 40 18:39 02.04.2020
5462 Mist -4 1012 92 3219 4.6 20 18:20 02.04.2020
5463 Mist -4 1012 92 3219 4.6 20 17:55 02.04.2020
5464 Snow -3 1016 92 2414 6.7 30 17:37 02.04.2020
5465 Mist -3 1012 100 2414 4.1 40 17:18 02.04.2020
5466 Mist -3 1012 86 3219 4.6 40 16:55 02.04.2020
5467 Mist -3 1011 100 2012 4.6 40 16:36 02.04.2020
5468 Snow -3 1015 92 2414 5.1 60 16:36 02.04.2020
5469 Mist -3 1011 92 2012 5.7 30 16:18 02.04.2020
5470 Snow -2 1014 92 3219 5.7 40 15:43 02.04.2020
5471 Mist -2 1009 92 2414 3.1 40 15:20 02.04.2020
5472 Mist -2 1009 92 3219 4.6 40 14:58 02.04.2020
5473 Clouds -1 1012 100 3219 4.6 30 14:39 02.04.2020
5474 Mist -1 1012 92 4828 4.1 40 14:19 02.04.2020
5475 Drizzle -1 1008 45 2414 4.1 60 13:55 02.04.2020
5476 Mist -1 1011 100 4828 4.1 40 13:37 02.04.2020
5477 Fog 0 1007 45 805 2.6 50 13:19 02.04.2020
5478 Mist 0 1011 45 6437 3.1 60 12:46 02.04.2020
5479 Mist 0 1008 93 9656 2.6 40 12:20 02.04.2020
5480 Mist 0 1008 93 9656 2.6 40 12:20 02.04.2020
5481 Mist 1 1008 93 9656 2.6 40 11:58 02.04.2020
5482 Mist 1 1011 45 6437 4.1 40 11:39 02.04.2020
5483 Mist 1 1011 45 6437 4.1 40 11:39 02.04.2020
5484 Clouds 2 1008 86 16093 2.6 50 11:21 02.04.2020
5485 Drizzle 2 1008 93 4828 3.6 60 10:57 02.04.2020
5486 Drizzle 3 1011 93 6437 4.6 40 10:39 02.04.2020
5487 Drizzle 3 1009 93 8047 4.1 30 10:21 02.04.2020
5488 Drizzle 3 1009 93 8047 4.1 30 09:59 02.04.2020
5489 Drizzle 4 1011 86 6437 3.6 40 09:41 02.04.2020
5490 Drizzle 4 1009 93 11265 4.6 50 09:21 02.04.2020
5491 Clouds 5 1009 80 16093 4.1 40 08:48 02.04.2020
5492 Clouds 5 1009 100 16093 5.7 360 08:28 02.04.2020
5493 Clouds 6 1008 93 16093 6.2 350 07:59 02.04.2020
5494 Clouds 6 1011 70 16093 6.2 30 07:40 02.04.2020
5495 Clouds 6 1008 75 16093 6.7 360 07:19 02.04.2020
5496 Clouds 8 1006 81 16093 7.7 10 06:25 02.04.2020
5497 Clouds 10 1007 53 16093 10.8 30 05:46 02.04.2020
5498 Clouds 11 1004 27 16093 2.6 250 04:58 02.04.2020
5499 Clouds 18 1003 21 16093 5.1 110 02:21 02.04.2020
5500 Clouds 19 1003 20 16093 5.7 130 01:27 02.04.2020
5501 Clouds 19 1004 12 16093 2.1 150 00:41 02.04.2020
5502 Clouds 20 1003 16 16093 4.6 140 00:20 02.04.2020
5503 Clouds 20 1004 12 16093 3.6 110 23:39 01.04.2020
5504 Clouds 19 1004 15 16093 2.1 180 23:19 01.04.2020
5505 Clouds 19 1004 15 16093 2.1 180 22:56 01.04.2020
5506 Clear 19 1005 12 16093 2.6 140 22:38 01.04.2020
5507 Clouds 19 1005 17 16093 4.6 170 22:19 01.04.2020
5508 Clear 19 1005 11 16093 1.5 150 21:41 01.04.2020
5509 Clouds 18 1005 17 16093 4.1 190 21:19 01.04.2020
5510 Clouds 18 1005 17 16093 4.1 190 20:56 01.04.2020
5511 Clear 18 1006 12 16093 2.38 216 20:38 01.04.2020
5512 Clouds 17 1006 18 16093 6.2 210 20:19 01.04.2020
5513 Clouds 17 1006 18 16093 6.2 210 19:57 01.04.2020
5514 Clouds 17 1006 18 16093 6.2 210 19:57 01.04.2020
5515 Clear 17 1008 20 16093 2.38 216 19:38 01.04.2020
5516 Clouds 16 1007 21 16093 4.6 240 19:19 01.04.2020
5517 Clouds 15 1007 26 16093 5.7 210 18:42 01.04.2020
5518 Clouds 14 1007 26 16093 5.7 210 18:23 01.04.2020
5519 Clouds 12 1007 26 16093 5.7 210 17:57 01.04.2020
5520 Clear 11 1008 43 16093 2.99 207 17:37 01.04.2020
5521 Clouds 10 1008 30 16093 5.7 190 17:19 01.04.2020
5522 Clouds 9 1007 49 16093 2.99 207 16:57 01.04.2020
5523 Clouds 8 1007 36 16093 6.2 190 16:39 01.04.2020
5524 Clouds 7 1008 34 16093 5.1 190 16:20 01.04.2020
5525 Clouds 6 1008 34 16093 5.1 190 15:56 01.04.2020
5526 Clear 6 1009 69 16093 2.99 207 15:37 01.04.2020
5527 Clouds 5 1007 36 16093 5.7 190 15:18 01.04.2020
5528 Clear 5 1008 69 16093 3 210 14:40 01.04.2020
5529 Clouds 5 1007 48 16093 3.6 180 14:22 01.04.2020
5530 Clouds 5 1007 36 16093 5.7 180 13:59 01.04.2020
5531 Clear 5 1009 74 16093 3.98 198 13:39 01.04.2020
5532 Clouds 5 1008 45 16093 5.7 170 13:20 01.04.2020
5533 Clouds 5 1008 45 16093 5.7 170 12:58 01.04.2020
5534 Clear 5 1009 69 16093 3.98 198 12:40 01.04.2020
5535 Clouds 5 1008 41 16093 5.1 180 12:21 01.04.2020
5536 Clouds 6 1008 41 16093 5.1 180 11:56 01.04.2020
5537 Clear 6 1010 60 16093 3.05 205 11:37 01.04.2020
5538 Clear 6 1008 42 16093 3.6 270 11:18 01.04.2020
5539 Clouds 6 1010 48 16093 3.05 205 10:39 01.04.2020
5540 Clear 6 1010 52 16093 3.05 205 10:21 01.04.2020
5541 Clouds 6 1011 52 16093 3.05 205 09:59 01.04.2020
5542 Clear 6 1010 39 16093 4.1 270 09:59 01.04.2020
5543 Clouds 6 1011 52 16093 3.05 205 09:40 01.04.2020
5544 Clouds 7 1010 39 16093 3.1 280 09:20 01.04.2020
5545 Clear 7 1011 48 16093 1.5 210 08:44 01.04.2020
5546 Clear 8 1011 29 16093 1.5 160 08:19 01.04.2020
5547 Clear 8 1011 29 16093 1.5 160 07:56 01.04.2020
5548 Clear 9 1012 31 16093 3.27 249 07:38 01.04.2020
5549 Clouds 9 1011 39 16093 2.6 220 07:18 01.04.2020
5550 Clouds 9 1012 25 16093 3.6 310 06:39 01.04.2020
5551 Clouds 10 1011 45 16093 3.6 120 06:20 01.04.2020
5552 Clouds 12 1011 30 16093 2.6 150 04:55 01.04.2020
5553 Clear 15 1012 17 16093 6.7 260 03:39 01.04.2020
5554 Clouds 17 1011 20 16093 2.6 40 02:59 01.04.2020
5555 Clear 17 1012 13 16093 7.2 250 02:31 01.04.2020
5556 Clear 18 1012 12 16093 5.1 270 01:46 01.04.2020
5557 Clouds 18 1011 17 16093 3.1 340 01:24 01.04.2020
5558 Clear 19 1012 12 16093 8.2 270 00:47 01.04.2020
5559 Clouds 19 1012 17 16093 2.1 320 00:21 01.04.2020
5560 Clouds 19 1012 17 16093 2.1 320 23:54 31.03.2020
5561 Clear 18 1013 13 16093 7.7 240 23:36 31.03.2020
5562 Clear 18 1013 13 11265 5.1 250 23:18 31.03.2020
5563 Clouds 18 1013 20 16093 4.6 130 22:40 31.03.2020
5564 Clouds 18 1013 20 16093 4.6 130 22:40 31.03.2020
5565 Clear 18 1014 13 16093 7.7 270 22:20 31.03.2020
5566 Clouds 18 1014 20 16093 5.7 190 21:57 31.03.2020
5567 Clouds 17 1014 20 16093 5.7 190 21:39 31.03.2020
5568 Clear 16 1015 17 16093 3.1 280 21:20 31.03.2020
5569 Clouds 16 1016 21 16093 3.6 220 20:56 31.03.2020
5570 Clouds 16 1016 21 16093 4.6 150 20:37 31.03.2020
5571 Clouds 15 1016 21 16093 4.6 150 20:18 31.03.2020
5572 Clouds 15 1016 21 16093 4.6 150 19:55 31.03.2020
5573 Clouds 15 1016 21 16093 5.1 260 19:36 31.03.2020
5574 Clouds 15 1016 22 16093 2.6 170 19:18 31.03.2020
5575 Clouds 14 1017 19 16093 4 185 18:41 31.03.2020
5576 Clouds 10 1018 20 16093 1.5 170 18:19 31.03.2020
5577 Clouds 8 1018 31 16093 6.2 240 17:56 31.03.2020
5578 Clouds 9 1018 31 16093 6.2 240 17:37 31.03.2020
5579 Clouds 10 1018 31 16093 6.2 240 17:19 31.03.2020
5580 Clear 8 1019 56 16093 2.85 213 16:41 31.03.2020
5581 Clouds 5 1018 33 16093 2.6 290 16:20 31.03.2020
5582 Clouds 4 1018 55 16093 5.1 170 15:58 31.03.2020
5583 Clear 3 1019 64 16093 2.85 213 15:40 31.03.2020
5584 Clouds 3 1018 47 16093 2.6 120 15:22 31.03.2020
5585 Clouds 3 1018 47 16093 2.6 120 14:58 31.03.2020
5586 Clear 3 1019 51 16093 1.5 190 14:40 31.03.2020
5587 Clear 2 1017 41 16093 2.54 228 14:21 31.03.2020
5588 Clear 3 1019 64 16093 2.47 231 13:43 31.03.2020
5589 Clouds 3 1018 55 16093 2.6 140 13:20 31.03.2020
5590 Clouds 3 1018 55 16093 2.6 140 12:59 31.03.2020
5591 Clear 3 1019 64 16093 2.47 231 12:40 31.03.2020
5592 Clouds 3 1018 55 16093 3.1 160 12:19 31.03.2020
5593 Clouds 3 1018 55 16093 3.1 160 12:19 31.03.2020
5594 Clear 3 1019 64 16093 2.1 280 11:41 31.03.2020
5595 Clear 3 1018 51 16093 3.1 170 11:21 31.03.2020
5596 Clear 3 1018 51 16093 3.1 170 10:59 31.03.2020
5597 Clear 3 1019 55 16093 1.5 250 10:41 31.03.2020
5598 Clear 3 1018 59 16093 3.6 170 10:22 31.03.2020
5599 Clouds 3 1019 64 16093 4.6 190 09:59 31.03.2020
5600 Clear 3 1019 34 16093 2.1 160 09:41 31.03.2020
5601 Clouds 3 1019 64 16093 4.6 190 09:22 31.03.2020
5602 Clouds 3 1019 59 16093 4.1 160 08:57 31.03.2020
5603 Clear 4 1020 69 16093 3.62 230 08:38 31.03.2020
5604 Clouds 4 1019 59 16093 3.1 180 08:19 31.03.2020
5605 Clouds 4 1019 59 16093 3.1 180 08:19 31.03.2020
5606 Clouds 4 1019 59 16093 3.1 180 07:56 31.03.2020
5607 Clear 4 1020 69 16093 1.5 230 07:38 31.03.2020
5608 Clouds 5 1019 64 16093 4.1 170 07:19 31.03.2020
5609 Clouds 5 1019 45 16093 3.62 230 06:46 31.03.2020
5610 Clouds 5 1019 45 16093 1.95 218 06:20 31.03.2020
5611 Clear 6 1020 60 16093 1.95 218 05:39 31.03.2020
5612 Clear 9 1019 39 16093 1.95 218 03:34 31.03.2020
5613 Clear 11 1017 24 16093 3.1 60 01:59 31.03.2020
5614 Clear 11 1017 21 16093 3.31 356 01:40 31.03.2020
5615 Clouds 11 1015 30 16093 6.2 340 00:47 31.03.2020
5616 Clouds 12 1015 30 16093 6.2 340 00:25 31.03.2020
5617 Clouds 12 1017 28 16093 2.6 350 23:42 30.03.2020
5618 Clouds 12 1015 32 16093 5.7 360 23:21 30.03.2020
5619 Clouds 12 1015 32 16093 5.7 360 22:59 30.03.2020
5620 Clouds 12 1017 26 16093 3.6 40 22:41 30.03.2020
5621 Clouds 12 1016 32 16093 5.7 20 22:22 30.03.2020
5622 Clouds 12 1016 32 16093 5.7 20 21:58 30.03.2020
5623 Clouds 12 1017 28 16093 3.1 30 21:39 30.03.2020
5624 Clouds 12 1016 29 16093 6.7 10 21:21 30.03.2020
5625 Clouds 11 1016 29 16093 6.7 10 20:59 30.03.2020
5626 Clear 11 1017 28 16093 4.94 10 20:39 30.03.2020
5627 Clouds 11 1016 39 16093 2.1 350 20:21 30.03.2020
5628 Clouds 10 1016 39 16093 2.1 350 19:58 30.03.2020
5629 Clear 9 1018 31 16093 4.94 10 19:39 30.03.2020
5630 Clouds 9 1016 42 16093 4.1 330 19:21 30.03.2020
5631 Clouds 8 1016 42 16093 4.1 330 18:56 30.03.2020
5632 Clouds 7 1016 42 16093 4.6 340 18:36 30.03.2020
5633 Clouds 7 1016 42 16093 4.6 340 18:18 30.03.2020
5634 Clouds 6 1016 42 16093 4.6 340 17:55 30.03.2020
5635 Clouds 5 1016 45 16093 3.6 320 17:36 30.03.2020
5636 Clouds 5 1016 48 16093 3.6 310 17:18 30.03.2020
5637 Clear 4 1017 64 16093 2.93 350 16:41 30.03.2020
5638 Clouds 3 1015 64 16093 2.6 310 16:21 30.03.2020
5639 Clouds 3 1015 64 16093 2.6 310 16:21 30.03.2020
5640 Clouds 3 1015 69 16093 2.93 350 15:56 30.03.2020
5641 Clear 2 1017 31 16093 2.93 350 15:38 30.03.2020
5642 Clear 2 1015 59 16093 1.58 319 15:20 30.03.2020
5643 Clear 2 1015 59 16093 1.58 319 14:58 30.03.2020
5644 Clear 2 1017 39 16093 1.58 319 14:37 30.03.2020
5645 Clouds 2 1014 37 16093 6.7 220 14:19 30.03.2020
5646 Clouds 3 1014 80 16093 2.1 190 13:57 30.03.2020
5647 Clear 3 1017 74 16093 1.54 298 13:38 30.03.2020
5648 Clear 3 1015 59 16093 3.6 360 13:19 30.03.2020
5649 Clouds 3 1015 55 16093 6.2 210 12:45 30.03.2020
5650 Clouds 3 1015 55 16093 6.2 210 12:21 30.03.2020
5651 Clouds 3 1015 55 16093 6.2 210 12:21 30.03.2020
5652 Clouds 3 1015 55 16093 6.2 210 11:58 30.03.2020
5653 Clouds 3 1017 64 16093 1.59 234 11:40 30.03.2020
5654 Clouds 3 1015 59 16093 1.59 234 11:21 30.03.2020
5655 Clouds 3 1015 48 16093 2.1 140 10:55 30.03.2020
5656 Clouds 3 1017 74 16093 1.59 234 10:36 30.03.2020
5657 Clouds 3 1016 59 16093 1.59 234 10:18 30.03.2020
5658 Clouds 3 1018 74 16093 1.59 234 09:40 30.03.2020
5659 Clouds 3 1016 55 16093 3.1 300 09:19 30.03.2020
5660 Clear 3 1016 55 16093 1.08 254 08:54 30.03.2020
5661 Clouds 3 1018 64 16093 1.08 254 08:36 30.03.2020
5662 Clouds 3 1016 51 16093 2.6 220 08:18 30.03.2020
5663 Clouds 4 1018 59 16093 1.08 254 07:41 30.03.2020
5664 Clouds 4 1017 55 16093 4.1 180 07:20 30.03.2020
5665 Clear 4 1019 59 16093 1.08 254 06:39 30.03.2020
5666 Clouds 4 1017 44 16093 2.6 140 06:19 30.03.2020
5667 Clear 5 1019 44 16093 0.67 241 05:39 30.03.2020
5668 Clouds 7 1016 41 16093 3.6 100 04:28 30.03.2020
5669 Clouds 8 1016 33 16093 2.1 100 03:52 30.03.2020
5670 Clouds 10 1016 25 16093 5.1 110 02:44 30.03.2020
5671 Clouds 11 1016 20 16093 4.1 90 01:54 30.03.2020
5672 Clouds 12 1016 20 16093 4.1 90 00:57 30.03.2020
5673 Clouds 12 1016 18 16093 4.1 90 00:26 30.03.2020
5674 Clouds 12 1016 18 16093 4.1 90 23:55 29.03.2020
5675 Clear 12 1018 15 16093 2.77 138 23:36 29.03.2020
5676 Clouds 12 1017 17 16093 2.1 200 23:18 29.03.2020
5677 Clear 11 1018 16 16093 2.77 138 22:39 29.03.2020
5678 Snow 11 1017 18 16093 1.5 0 22:20 29.03.2020
5679 Snow 11 1017 18 16093 1.5 0 21:59 29.03.2020
5680 Clear 10 1019 18 16093 3.1 170 21:37 29.03.2020
5681 Clouds 10 1018 21 16093 4.1 190 21:19 29.03.2020
5682 Clouds 10 1019 21 16093 2.46 160 20:55 29.03.2020
5683 Clear 10 1020 19 16093 2.46 160 20:37 29.03.2020
5684 Clouds 9 1018 26 16093 2.1 100 20:18 29.03.2020
5685 Clouds 9 1019 23 16093 3.6 20 19:55 29.03.2020
5686 Clouds 9 1018 26 16093 2.1 100 19:55 29.03.2020
5687 Clouds 9 1019 26 16093 4.6 250 19:37 29.03.2020
5688 Clear 8 1020 24 16093 3.1 150 19:18 29.03.2020
5689 Clouds 8 1019 24 16093 2.46 160 18:55 29.03.2020
5690 Clouds 8 1019 30 16093 3.6 220 18:37 29.03.2020
5691 Clear 5 1021 22 16093 1.84 226 18:18 29.03.2020
5692 Clear 5 1021 24 16093 1.5 210 17:42 29.03.2020
5693 Clouds 5 1019 38 16093 3.6 200 17:24 29.03.2020
5694 Clouds 4 1019 30 16093 1.5 0 16:59 29.03.2020
5695 Clear 3 1021 44 16093 2.6 200 16:41 29.03.2020
5696 Clouds 2 1019 43 16093 3.1 230 16:21 29.03.2020
5697 Clouds -1 1018 58 16093 4.6 180 15:59 29.03.2020
5698 Clouds 1 1019 43 16093 3.1 230 15:59 29.03.2020
5699 Clear -1 1020 79 16093 1.84 226 15:40 29.03.2020
5700 Clouds -2 1018 50 16093 2.6 190 15:21 29.03.2020
5701 Clouds -2 1018 50 16093 2.6 190 15:21 29.03.2020
5702 Clouds -2 1018 50 16093 2.6 190 14:57 29.03.2020
5703 Clouds -2 1018 50 16093 2.6 190 14:57 29.03.2020
5704 Clear -2 1019 68 16093 1.5 190 14:37 29.03.2020
5705 Clear -2 1018 54 16093 2.6 200 14:19 29.03.2020
5706 Clear -2 1017 37 16093 6.2 280 13:55 29.03.2020
5707 Clear -2 1019 63 16093 2.58 244 13:37 29.03.2020
5708 Clear -1 1019 79 16093 2.58 244 13:19 29.03.2020
5709 Clear -2 1017 50 16093 2.6 220 12:54 29.03.2020
5710 Clear -2 1017 50 16093 2.6 220 12:54 29.03.2020
5711 Clear -1 1017 58 16093 4.6 190 12:36 29.03.2020
5712 Clear -1 1017 58 16093 4.6 190 12:18 29.03.2020
5713 Clear -1 1019 73 16093 3.16 250 11:39 29.03.2020
5714 Clear -1 1017 40 16093 4.6 310 11:21 29.03.2020
5715 Clear 0 1019 68 16093 1.5 150 10:40 29.03.2020
5716 Clear 0 1017 43 16093 1.5 290 10:21 29.03.2020
5717 Clouds 0 1017 41 16093 3.6 210 09:59 29.03.2020
5718 Clear 0 1019 63 16093 3.16 250 09:39 29.03.2020
5719 Clouds 1 1017 37 16093 5.1 230 09:19 29.03.2020
5720 Clouds 1 1017 37 16093 5.1 230 08:52 29.03.2020
5721 Clouds 1 1017 40 16093 4.6 220 08:28 29.03.2020
5722 Clouds 2 1017 40 16093 4.6 220 07:56 29.03.2020
5723 Clouds 2 1017 43 16093 4.6 210 07:38 29.03.2020
5724 Clear 2 1018 44 16093 2.1 250 07:19 29.03.2020
5725 Clouds 3 1015 34 16093 4.1 280 04:59 29.03.2020
5726 Clouds 5 1014 28 16093 6.7 290 03:42 29.03.2020
5727 Clouds 6 1014 26 16093 6.2 290 03:24 29.03.2020
5728 Clouds 7 1014 26 16093 6.2 290 01:50 29.03.2020
5729 Clouds 7 1013 17 16093 5.7 310 01:23 29.03.2020
5730 Clouds 8 1013 20 16093 7.2 310 00:53 29.03.2020
5731 Clear 8 1013 19 16093 6.7 330 00:29 29.03.2020
5732 Rain 9 1014 16 16093 8.2 290 23:42 28.03.2020
5733 Rain 9 1014 15 16093 6.2 280 23:23 28.03.2020
5734 Rain 9 1012 19 16093 2.1 340 22:57 28.03.2020
5735 Rain 9 1014 16 16093 3.6 350 22:37 28.03.2020
5736 Rain 8 1012 24 16093 3.6 20 22:18 28.03.2020
5737 Rain 8 1014 18 16093 1.5 280 21:41 28.03.2020
5738 Rain 8 1012 24 16093 4.1 330 21:23 28.03.2020
5739 Rain 8 1012 24 16093 4.1 330 20:58 28.03.2020
5740 Rain 7 1014 22 16093 3.1 190 20:39 28.03.2020
5741 Rain 7 1012 33 16093 5.7 10 20:21 28.03.2020
5742 Rain 7 1012 33 16093 5.7 10 19:56 28.03.2020
5743 Rain 6 1012 48 16093 5.7 320 19:37 28.03.2020
5744 Rain 6 1012 48 16093 5.7 320 19:37 28.03.2020
5745 Rain 6 1012 48 16093 5.7 320 19:18 28.03.2020
5746 Rain 5 1012 51 16093 7.2 310 18:47 28.03.2020
5747 Rain 4 1014 32 16093 1.5 210 18:22 28.03.2020
5748 Rain 4 1012 44 16093 2.1 350 17:58 28.03.2020
5749 Rain 3 1011 59 16093 4.6 290 17:38 28.03.2020
5750 Rain 2 1013 47 16093 3.32 282 17:19 28.03.2020
5751 Rain 1 1010 63 16093 5.1 280 16:42 28.03.2020
5752 Rain 1 1010 37 16093 4.6 310 16:20 28.03.2020
5753 Rain 1 1010 37 16093 4.6 310 16:20 28.03.2020
5754 Rain 0 1010 37 16093 4.6 310 15:56 28.03.2020
5755 Snow -1 1012 37 16093 3.6 240 15:37 28.03.2020
5756 Clouds -2 1009 58 16093 3.6 300 15:18 28.03.2020
5757 Clear -3 1012 37 16093 5.1 270 14:42 28.03.2020
5758 Clouds -3 1009 68 16093 4.6 280 14:22 28.03.2020
5759 Clouds -3 1009 58 16093 4.1 290 13:56 28.03.2020
5760 Clear -2 1011 45 16093 6.2 290 13:37 28.03.2020
5761 Clouds -2 1008 79 16093 4.1 270 13:18 28.03.2020
5762 Clouds -2 1008 79 16093 4.1 270 13:18 28.03.2020
5763 Clear -2 1010 45 16093 4.6 280 12:38 28.03.2020
5764 Clouds -2 1007 100 16093 2.6 280 12:19 28.03.2020
5765 Clear -2 1009 45 16093 3.1 280 11:42 28.03.2020
5766 Clear -2 1009 45 16093 3.6 290 11:21 28.03.2020
5767 Clear -1 1009 46 16093 1.38 298 10:44 28.03.2020
5768 Clear -1 1006 46 16093 3.6 310 10:25 28.03.2020
5769 Clouds -1 1006 92 16093 2.6 260 09:59 28.03.2020
5770 Clear -1 1008 46 16093 1.5 290 09:40 28.03.2020
5771 Clouds -1 1006 46 16093 2.1 280 09:21 28.03.2020
5772 Snow 0 1008 46 16093 1.5 240 08:43 28.03.2020
5773 Snow 0 1006 46 12874 6.2 10 08:24 28.03.2020
5774 Snow 0 1006 49 1207 5.1 360 07:53 28.03.2020
5775 Snow 0 1007 49 4023 5.7 10 07:35 28.03.2020
5776 Snow 0 1007 49 1207 6.2 350 06:53 28.03.2020
5777 Snow 0 1007 49 3219 5.1 360 06:26 28.03.2020
5778 Snow 0 1007 49 3219 6.2 350 05:30 28.03.2020
5779 Snow 0 1007 49 3219 6.2 350 05:30 28.03.2020
5780 Snow 0 1007 86 2012 6.2 340 04:58 28.03.2020
5781 Snow 0 1009 55 8047 6.56 7 04:39 28.03.2020
5782 Rain 0 1006 55 1609 4.6 350 02:51 28.03.2020
5783 Rain 1 1005 93 4023 8.7 350 01:47 28.03.2020
5784 Rain 2 1005 42 805 5.1 310 01:23 28.03.2020
5785 Clouds 3 1004 64 16093 6.2 350 00:49 28.03.2020
5786 Clouds 3 1003 54 16093 5.1 340 00:25 28.03.2020
5787 Clouds 4 1003 54 16093 4.1 360 23:44 27.03.2020
5788 Rain 4 1005 54 16093 4.1 320 23:44 27.03.2020
5789 Clouds 4 1003 54 16093 4.1 360 23:26 27.03.2020
5790 Mist 4 1003 69 4828 5.1 350 22:57 27.03.2020
5791 Clouds 4 1005 60 16093 2.1 360 22:39 27.03.2020
5792 Mist 4 1003 69 4828 4.6 20 22:20 27.03.2020
5793 Mist 4 1003 69 4828 4.6 20 21:58 27.03.2020
5794 Clouds 4 1006 65 16093 2.6 40 21:40 27.03.2020
5795 Clouds 5 1004 64 16093 3.6 20 21:22 27.03.2020
5796 Clouds 4 1004 69 16093 6.2 10 21:22 27.03.2020
5797 Clouds 5 1004 64 16093 3.6 20 20:56 27.03.2020
5798 Clouds 5 1007 65 16093 2.6 50 20:37 27.03.2020
5799 Clouds 4 1005 65 16093 3.6 10 20:19 27.03.2020
5800 Clouds 4 1007 38 16093 3.6 40 19:43 27.03.2020
5801 Clouds 4 1005 64 16093 3.1 20 19:23 27.03.2020
5802 Clouds 4 1005 64 16093 3.1 20 18:57 27.03.2020
5803 Clouds 4 1008 38 16093 3.1 40 18:39 27.03.2020
5804 Rain 3 1009 69 16093 3.28 23 18:20 27.03.2020
5805 Clouds 3 1009 38 16093 3.6 50 17:40 27.03.2020
5806 Clouds 2 1009 47 16093 1.5 100 17:20 27.03.2020
5807 Clouds 2 1007 86 4023 2.1 0 16:55 27.03.2020
5808 Clouds 1 1010 47 16093 1.5 80 16:37 27.03.2020
5809 Mist 1 1007 86 2414 3.1 20 16:19 27.03.2020
5810 Clouds 1 1010 47 16093 2.1 140 15:42 27.03.2020
5811 Mist 1 1007 47 2414 4.1 50 15:24 27.03.2020
5812 Fog 1 1007 47 805 2.1 20 14:48 27.03.2020
5813 Fog 1 1007 47 402 3.6 90 14:25 27.03.2020
5814 Fog 1 1007 48 402 3.6 90 13:57 27.03.2020
5815 Fog 1 1007 48 402 3.6 90 13:39 27.03.2020
5816 Fog 1 1007 48 402 3.6 90 13:21 27.03.2020
5817 Fog 1 1007 49 402 3.6 90 12:57 27.03.2020
5818 Clouds 1 1006 88 0 3.37 355 12:39 27.03.2020
5819 Clouds 2 1003 81 0 3.37 355 12:18 27.03.2020
5820 Clouds 2 1002 78 0 3.37 355 11:41 27.03.2020
5821 Clear 2 1002 77 0 1.16 348 11:23 27.03.2020
5822 Clouds 3 1006 49 16093 1.5 90 10:55 27.03.2020
5823 Clouds 3 1006 49 16093 1.5 90 10:37 27.03.2020
5824 Clouds 3 1006 100 16093 1.5 220 10:18 27.03.2020
5825 Clouds 3 1006 100 16093 1.5 220 09:56 27.03.2020
5826 Clouds 4 1006 100 16093 1.5 220 09:37 27.03.2020
5827 Clouds 4 1007 49 16093 1.5 180 09:18 27.03.2020
5828 Clouds 4 1007 49 16093 1.5 180 08:56 27.03.2020
5829 Clear 5 1005 70 0 1.16 348 08:37 27.03.2020
5830 Clouds 5 1007 86 16093 0.69 329 08:19 27.03.2020
5831 Clouds 6 1007 86 16093 1.45 289 07:50 27.03.2020
5832 Clear 6 1005 67 0 1.45 289 07:23 27.03.2020
5833 Clear 7 1004 62 0 1.45 289 06:51 27.03.2020
5834 Clear 6 1002 65 0 0.89 43 06:33 27.03.2020
5835 Clear 8 1003 56 0 1.29 139 04:23 27.03.2020
5836 Clouds 9 1004 61 16093 5.7 60 02:25 27.03.2020
5837 Clouds 12 1004 57 16093 4.6 30 01:23 27.03.2020
5838 Clouds 12 1004 57 16093 4.6 70 00:48 27.03.2020
5839 Clouds 12 1004 57 16093 4.6 70 00:23 27.03.2020
5840 Clouds 12 1004 57 16093 3.6 40 23:43 26.03.2020
5841 Clouds 12 1004 57 16093 3.6 40 23:21 26.03.2020
5842 Clouds 10 1004 57 16093 2.6 30 22:58 26.03.2020
5843 Clouds 10 1004 57 16093 2.6 30 22:37 26.03.2020
5844 Clouds 9 1004 61 16093 4.1 10 22:19 26.03.2020
5845 Clouds 9 1004 61 16093 4.1 10 21:55 26.03.2020
5846 Clouds 9 1004 61 16093 4.1 10 21:37 26.03.2020
5847 Clouds 9 1004 61 16093 4.1 10 21:18 26.03.2020
5848 Clouds 7 1005 70 16093 3.6 30 20:41 26.03.2020
5849 Clouds 9 1005 70 16093 3.6 30 20:23 26.03.2020
5850 Clouds 9 1005 70 16093 3.6 30 20:23 26.03.2020
5851 Clouds 9 1005 70 16093 3.6 30 20:23 26.03.2020
5852 Clouds 6 1006 70 14484 4.1 10 19:58 26.03.2020
5853 Clouds 6 1006 70 14484 4.1 10 19:40 26.03.2020
5854 Clouds 6 1006 70 14484 4.1 10 19:40 26.03.2020
5855 Clouds 9 1006 70 14484 4.1 10 19:22 26.03.2020
5856 Clouds 9 1006 70 16093 4.6 30 18:59 26.03.2020
5857 Clouds 9 1006 70 16093 4.6 30 18:41 26.03.2020
5858 Clouds 9 1006 70 16093 4.6 30 18:23 26.03.2020
5859 Clear 9 1006 58 0 3.13 44 17:45 26.03.2020
5860 Clouds 8 1006 70 16093 3.1 310 17:20 26.03.2020
5861 Clouds 8 1006 70 16093 3.1 310 17:20 26.03.2020
5862 Clouds 7 1006 70 16093 3.1 310 16:59 26.03.2020
5863 Clear 7 1002 57 0 0.45 29 16:38 26.03.2020
5864 Clear 6 1003 54 0 2.24 267 16:20 26.03.2020
5865 Clear 5 1002 61 0 0.45 37 15:56 26.03.2020
5866 Clear 5 1003 55 0 2.24 267 15:38 26.03.2020
5867 Clear 4 1003 56 0 2.24 267 15:19 26.03.2020
5868 Clouds 2 1006 30 16093 2.6 250 14:43 26.03.2020
5869 Clouds 1 1006 30 16093 2.6 250 14:24 26.03.2020
5870 Clouds 1 1006 39 16093 1.5 250 13:56 26.03.2020
5871 Clouds 1 1006 39 16093 1.5 250 13:56 26.03.2020
5872 Clouds 1 1006 39 16093 1.5 250 13:38 26.03.2020
5873 Clouds 1 1006 39 16093 1.5 250 13:20 26.03.2020
5874 Clouds 1 1005 80 16093 0.61 256 12:39 26.03.2020
5875 Clouds 1 1005 80 16093 0.61 256 12:20 26.03.2020
5876 Clouds 2 1005 86 16093 1.5 310 11:55 26.03.2020
5877 Clouds 2 1005 86 16093 1.5 310 11:37 26.03.2020
5878 Clouds 3 1005 86 16093 1.5 310 11:18 26.03.2020
5879 Clouds 3 1006 69 16093 2.1 260 10:42 26.03.2020
5880 Clouds 4 1006 65 16093 3.6 270 10:20 26.03.2020
5881 Clouds 5 1006 65 16093 3.6 270 09:45 26.03.2020
5882 Clouds 5 1006 65 16093 3.6 270 09:21 26.03.2020
5883 Clouds 6 1006 65 16093 3.6 270 08:57 26.03.2020
5884 Clouds 6 1006 41 16093 4.1 200 08:38 26.03.2020
5885 Clouds 6 1007 35 16093 4.1 190 08:19 26.03.2020
5886 Clouds 7 1007 35 16093 4.1 190 07:45 26.03.2020
5887 Clouds 7 1007 35 16093 4.1 190 07:23 26.03.2020
5888 Clouds 7 1007 39 16093 5.1 180 06:57 26.03.2020
5889 Clouds 8 1007 39 16093 5.1 180 06:32 26.03.2020
5890 Clouds 9 1008 49 16093 3.6 110 05:29 26.03.2020
5891 Clouds 13 1003 17 0 0.89 185 03:45 26.03.2020
5892 Clouds 15 1007 24 16093 3.53 237 02:56 26.03.2020
5893 Clouds 16 1006 21 16093 4.1 30 01:51 26.03.2020
5894 Clouds 18 1005 14 16093 6.7 330 01:18 26.03.2020
5895 Clouds 19 1005 14 16093 6.7 330 00:23 26.03.2020
5896 Clouds 19 1006 17 16093 3.6 10 23:42 25.03.2020
5897 Clouds 19 1006 15 16093 4.1 350 23:22 25.03.2020
5898 Clouds 19 1006 15 16093 4.1 350 22:42 25.03.2020
5899 Clouds 19 1007 16 16093 5.1 310 22:22 25.03.2020
5900 Clouds 19 1007 16 16093 5.1 310 21:57 25.03.2020
5901 Clouds 19 1007 16 16093 5.1 310 21:38 25.03.2020
5902 Clear 19 1002 8 0 0.45 171 21:20 25.03.2020
5903 Clear 18 1003 10 0 7.92 251 20:56 25.03.2020
5904 Clear 18 1002 17 0 7.92 251 20:37 25.03.2020
5905 Clouds 17 1007 19 16093 5.7 270 20:18 25.03.2020
5906 Clouds 17 1007 19 16093 5.7 270 20:18 25.03.2020
5907 Clouds 17 1007 19 16093 5.7 270 19:43 25.03.2020
5908 Clouds 17 1008 19 16093 5.1 230 19:23 25.03.2020
5909 Clouds 17 1008 19 16093 5.1 230 18:59 25.03.2020
5910 Clouds 16 1008 19 16093 5.1 230 18:40 25.03.2020
5911 Clouds 16 1003 22 0 5.77 224 18:22 25.03.2020
5912 Clouds 16 1003 23 0 5.52 221 17:56 25.03.2020
5913 Clouds 15 1008 26 16093 4.6 200 17:38 25.03.2020
5914 Clouds 14 1008 26 16093 4.6 200 17:20 25.03.2020
5915 Clouds 13 1008 34 16093 4.1 210 16:44 25.03.2020
5916 Clouds 12 1008 35 0 0.45 180 16:24 25.03.2020
5917 Clouds 10 1006 44 0 0.45 167 15:59 25.03.2020
5918 Clouds 8 1008 45 16093 5.7 190 15:40 25.03.2020
5919 Clouds 7 1005 35 0 4.18 228 15:19 25.03.2020
5920 Clouds 6 1007 51 16093 5.7 180 14:42 25.03.2020
5921 Clouds 4 1007 48 16093 6.7 200 14:22 25.03.2020
5922 Clouds 3 1007 48 16093 6.7 200 13:56 25.03.2020
5923 Clouds 3 1007 48 16093 6.7 200 13:38 25.03.2020
5924 Clouds 3 1007 48 16093 6.7 200 13:38 25.03.2020
5925 Clouds 3 1008 41 16093 1.5 230 13:19 25.03.2020
5926 Clouds 4 1008 41 16093 1.5 230 12:37 25.03.2020
5927 Clouds 4 1008 41 16093 1.5 230 12:19 25.03.2020
5928 Clouds 4 1007 45 16093 5.7 210 11:55 25.03.2020
5929 Clouds 4 1007 45 16093 5.7 210 11:36 25.03.2020
5930 Clouds 4 1007 45 16093 5.7 210 11:36 25.03.2020
5931 Clouds 4 1007 45 16093 5.7 210 11:18 25.03.2020
5932 Clouds 4 1008 55 16093 5.1 190 10:55 25.03.2020
5933 Clouds 4 1008 55 16093 5.1 190 10:36 25.03.2020
5934 Clouds 4 1008 55 16093 5.1 190 10:18 25.03.2020
5935 Clouds 4 1009 59 16093 4.6 190 09:42 25.03.2020
5936 Clouds 4 1009 56 16093 3.1 200 09:22 25.03.2020
5937 Clouds 5 1009 56 16093 3.1 200 08:56 25.03.2020
5938 Clouds 5 1009 56 16093 3.1 200 08:38 25.03.2020
5939 Clouds 5 1009 56 16093 3.1 200 08:38 25.03.2020
5940 Clouds 5 1010 60 16093 2.6 190 08:19 25.03.2020
5941 Clouds 5 1010 60 16093 2.6 190 07:39 25.03.2020
5942 Clouds 5 1010 60 16093 2.6 190 07:20 25.03.2020
5943 Clouds 5 1010 60 16093 2.6 190 07:20 25.03.2020
5944 Clear 6 1011 60 16093 3.1 180 06:46 25.03.2020
5945 Clear 6 1011 60 16093 3.1 180 06:25 25.03.2020
5946 Clouds 7 1012 45 16093 1.5 280 05:50 25.03.2020
5947 Clouds 8 1012 45 16093 1.5 280 04:59 25.03.2020
5948 Clouds 8 1011 49 16093 2.75 178 04:39 25.03.2020
5949 Clouds 11 1011 39 16093 2.1 80 03:35 25.03.2020
5950 Clear 14 1007 25 0 0.89 59 01:57 25.03.2020
5951 Clouds 16 1011 23 16093 4.6 40 01:20 25.03.2020
5952 Clouds 16 1011 21 16093 1.5 60 00:47 25.03.2020
5953 Clouds 17 1011 21 16093 1.5 60 00:19 25.03.2020
5954 Clouds 17 1011 18 16093 2.6 20 23:44 24.03.2020
5955 Clouds 17 1011 18 16093 2.6 20 23:25 24.03.2020
5956 Clouds 17 1008 22 0 0.45 60 22:55 24.03.2020
5957 Clouds 17 1012 21 16093 0.6 141 22:37 24.03.2020
5958 Clouds 17 1008 16 0 0.6 141 22:19 24.03.2020
5959 Clouds 17 1009 22 0 0.45 205 21:55 24.03.2020
5960 Clouds 17 1008 23 0 0.6 141 21:36 24.03.2020
5961 Clouds 16 1009 25 0 0.45 270 21:18 24.03.2020
5962 Clouds 16 1009 24 0 1.79 121 20:42 24.03.2020
5963 Clouds 16 1012 28 0 0.45 58 20:23 24.03.2020
5964 Clouds 15 1014 24 16093 3.1 270 19:56 24.03.2020
5965 Clouds 15 1014 24 16093 3.1 270 19:56 24.03.2020
5966 Clouds 15 1014 24 16093 3.1 270 19:38 24.03.2020
5967 Clouds 15 1014 24 16093 3.1 270 19:18 24.03.2020
5968 Clouds 14 1014 24 16093 3.1 270 18:55 24.03.2020
5969 Clouds 14 1015 27 16093 3.69 178 18:36 24.03.2020
5970 Clear 13 1011 22 0 1.79 177 18:18 24.03.2020
5971 Clear 12 1011 22 0 1.79 177 17:41 24.03.2020
5972 Clouds 12 1015 34 16093 2.1 240 17:22 24.03.2020
5973 Clouds 10 1015 34 16093 2.1 240 17:22 24.03.2020
5974 Clouds 9 1015 34 16093 2.1 240 16:57 24.03.2020
5975 Clear 9 1016 29 16093 3.6 110 16:39 24.03.2020
5976 Clear 8 1014 39 16093 1.5 30 16:20 24.03.2020
5977 Clear 6 1016 69 16093 3.19 217 15:44 24.03.2020
5978 Clear 5 1014 52 16093 3.19 217 15:26 24.03.2020
5979 Clouds 2 1014 36 32767 1.5 270 14:59 24.03.2020
5980 Clear 2 1015 55 16093 3.19 217 14:40 24.03.2020
5981 Clouds 2 1013 69 16093 3.1 180 14:18 24.03.2020
5982 Clouds 1 1013 69 16093 3.1 180 13:42 24.03.2020
5983 Clouds 1 1013 80 16093 4.6 180 13:23 24.03.2020
5984 Clouds 1 1013 80 16093 4.6 180 13:23 24.03.2020
5985 Clouds 1 1013 80 16093 4.6 180 13:23 24.03.2020
5986 Clouds 1 1013 80 16093 4.6 180 12:47 24.03.2020
5987 Clouds 1 1013 80 16093 4.6 180 12:28 24.03.2020
5988 Clouds 1 1013 80 16093 4.6 180 11:59 24.03.2020
5989 Clouds 1 1013 80 16093 4.6 190 11:39 24.03.2020
5990 Clear 1 1014 64 16093 2.1 110 11:19 24.03.2020
5991 Clear 2 1014 80 16093 2.1 360 10:42 24.03.2020
5992 Clear 2 1012 60 16093 1.5 50 10:19 24.03.2020
5993 Clouds 2 1013 74 16093 3.6 200 09:57 24.03.2020
5994 Clear 2 1015 67 16093 3.12 218 09:39 24.03.2020
5995 Clear 2 1015 80 16093 3.12 218 09:20 24.03.2020
5996 Clear 2 1015 80 16093 3.12 218 08:38 24.03.2020
5997 Clear 2 1013 60 16093 1.58 214 08:20 24.03.2020
5998 Clouds 3 1013 86 16093 2.6 240 07:47 24.03.2020
5999 Clouds 3 1013 56 16093 2.6 270 07:24 24.03.2020
6000 Clouds 3 1013 75 16093 2.6 170 06:52 24.03.2020
6001 Clouds 3 1014 75 16093 1.58 214 06:27 24.03.2020
6002 Clear 5 1014 63 16093 0.92 262 04:57 24.03.2020
6003 Snow 7 1013 63 16093 4.1 210 03:48 24.03.2020
6004 Rain 7 1014 63 16093 2.6 200 03:18 24.03.2020
6005 Rain 10 1013 46 16093 6.7 350 01:45 24.03.2020
6006 Clouds 11 1012 30 16093 2.1 300 00:46 24.03.2020
6007 Clouds 12 1012 22 16093 1.5 250 00:24 24.03.2020
6008 Clouds 12 1010 32 16093 2.1 310 23:44 23.03.2020
6009 Clear 12 1012 22 16093 1.97 33 23:26 23.03.2020
6010 Clouds 13 1010 34 16093 6.2 210 22:55 23.03.2020
6011 Clouds 13 1010 34 16093 6.2 210 22:55 23.03.2020
6012 Clouds 13 1012 28 16093 3.6 260 22:37 23.03.2020
6013 Clouds 13 1013 20 16093 2.43 231 22:19 23.03.2020
6014 Clouds 13 1013 20 16093 2.6 180 21:43 23.03.2020
6015 Clouds 13 1014 20 16093 1.5 200 21:20 23.03.2020
6016 Clouds 13 1012 32 16093 6.7 150 20:57 23.03.2020
6017 Clouds 13 1014 22 16093 2.43 231 20:39 23.03.2020
6018 Clouds 10 1015 24 16093 1.5 250 20:19 23.03.2020
6019 Clouds 10 1015 26 16093 2.6 230 19:45 23.03.2020
6020 Clouds 10 1015 26 16093 2.6 230 19:45 23.03.2020
6021 Clouds 10 1016 25 16093 2.1 170 19:27 23.03.2020
6022 Clouds 10 1015 37 16093 9.3 170 18:59 23.03.2020
6023 Clouds 10 1015 34 16093 2.1 120 18:40 23.03.2020
6024 Clear 10 1017 31 16093 0.7 276 18:21 23.03.2020
6025 Clear 9 1017 39 16093 2.6 120 17:43 23.03.2020
6026 Clouds 6 1018 42 16093 2.1 90 17:21 23.03.2020
6027 Clouds 6 1016 42 16093 7.7 190 16:59 23.03.2020
6028 Clouds 6 1018 52 16093 2.81 218 16:39 23.03.2020
6029 Clear 5 1017 69 16093 2.81 218 16:20 23.03.2020
6030 Clouds 3 1019 69 16093 2.81 218 15:42 23.03.2020
6031 Clouds 2 1019 54 16093 2.81 218 15:20 23.03.2020
6032 Clouds 2 1017 55 16093 2.6 0 14:55 23.03.2020
6033 Clouds 1 1019 80 16093 2.81 218 14:36 23.03.2020
6034 Clouds 0 1019 79 16093 3.42 214 14:18 23.03.2020
6035 Clouds 0 1019 79 16093 3.42 214 13:40 23.03.2020
6036 Clouds 0 1017 67 16093 3.6 250 13:21 23.03.2020
6037 Clear 0 1018 74 16093 2.1 210 12:45 23.03.2020
6038 Clear 0 1018 74 16093 2.1 210 12:45 23.03.2020
6039 Clear 0 1018 67 16093 3.15 218 12:25 23.03.2020
6040 Clouds 0 1017 51 16093 5.1 190 11:59 23.03.2020
6041 Clear 0 1018 67 16093 3.15 218 11:40 23.03.2020
6042 Clear 0 1018 66 16093 3.35 210 11:20 23.03.2020
6043 Clear 0 1018 66 16093 3.35 210 11:20 23.03.2020
6044 Clouds 0 1017 47 16093 5.1 200 10:57 23.03.2020
6045 Clear 1 1018 66 16093 3.35 210 10:38 23.03.2020
6046 Clear 1 1019 66 16093 1.5 240 10:20 23.03.2020
6047 Clear 1 1019 66 16093 3.35 210 09:44 23.03.2020
6048 Clear 1 1018 51 16093 2.6 230 09:21 23.03.2020
6049 Clear 1 1018 51 16093 4.6 190 08:57 23.03.2020
6050 Clear 1 1020 44 16093 3.35 210 08:36 23.03.2020
6051 Clear 1 1020 51 16093 1.5 140 08:18 23.03.2020
6052 Clear 2 1020 48 16093 2.1 190 07:42 23.03.2020
6053 Clear 2 1018 41 16093 3.05 208 07:23 23.03.2020
6054 Clear 2 1020 59 16093 2.1 140 06:49 23.03.2020
6055 Clear 3 1020 64 16093 3.05 208 05:54 23.03.2020
6056 Clouds 4 1018 59 16093 3.6 170 04:58 23.03.2020
6057 Clear 6 1017 41 16093 2.1 290 03:26 23.03.2020
6058 Clear 9 1018 37 16093 2.6 50 01:50 23.03.2020
6059 Clouds 10 1016 37 16093 3.1 80 00:58 23.03.2020
6060 Clear 10 1017 40 16093 4.1 60 00:36 23.03.2020
6061 Clear 10 1017 32 16093 3.6 110 23:47 22.03.2020
6062 Clear 10 1017 32 16093 3.6 110 23:47 22.03.2020
6063 Clear 10 1014 27 16093 3.6 290 23:25 22.03.2020
6064 Clouds 10 1017 40 16093 5.1 100 22:45 22.03.2020
6065 Clear 10 1017 37 16093 3.6 110 22:24 22.03.2020
6066 Clouds 10 1015 49 16093 3.1 60 21:56 22.03.2020
6067 Clear 9 1017 39 16093 5.1 110 21:37 22.03.2020
6068 Clear 9 1018 49 16093 4.1 100 21:19 22.03.2020
6069 Clear 9 1018 49 16093 3.6 80 20:46 22.03.2020
6070 Clear 8 1015 49 16093 4.1 100 20:25 22.03.2020
6071 Snow 8 1016 34 16093 7.7 310 19:58 22.03.2020
6072 Clouds 8 1018 51 16093 4.6 30 19:40 22.03.2020
6073 Clouds 7 1018 56 16093 1.45 8 19:20 22.03.2020
6074 Clouds 7 1016 45 16093 1.45 8 18:59 22.03.2020
6075 Clouds 7 1018 56 16093 1.45 8 18:41 22.03.2020
6076 Clouds 7 1018 56 16093 1.45 8 18:41 22.03.2020
6077 Clear 7 1017 60 16093 1.45 8 18:22 22.03.2020
6078 Clear 7 1017 60 16093 1.45 8 18:22 22.03.2020
6079 Clouds 6 1016 56 16093 3.1 290 17:59 22.03.2020
6080 Clouds 6 1018 51 16093 1.45 8 17:39 22.03.2020
6081 Clouds 4 1018 51 16093 1.45 8 17:20 22.03.2020
6082 Rain 4 1015 60 16093 3.1 230 16:58 22.03.2020
6083 Rain 4 1015 60 16093 3.1 230 16:58 22.03.2020
6084 Rain 3 1017 72 16093 2.61 215 16:40 22.03.2020
6085 Rain 3 1015 72 16093 1.5 320 16:21 22.03.2020
6086 Snow 2 1015 69 16093 1.5 160 15:56 22.03.2020
6087 Clear 1 1017 72 16093 2.61 215 15:38 22.03.2020
6088 Clear -1 1017 92 16093 2.61 215 14:46 22.03.2020
6089 Clear -2 1017 92 16093 3.44 215 14:19 22.03.2020
6090 Clear -2 1015 74 16093 3.1 340 13:55 22.03.2020
6091 Clear -2 1017 92 16093 3.44 215 13:37 22.03.2020
6092 Clear -2 1017 92 16093 3.44 215 13:18 22.03.2020
6093 Clear -1 1017 92 16093 3.14 217 12:43 22.03.2020
6094 Clear -1 1017 92 16093 3.14 217 12:20 22.03.2020
6095 Clear -1 1017 92 11265 3.14 217 11:55 22.03.2020
6096 Clear -1 1016 68 16093 2.6 240 11:36 22.03.2020
6097 Clear -1 1017 86 11265 3.16 217 11:18 22.03.2020
6098 Clear -1 1017 92 11265 3.16 217 10:42 22.03.2020
6099 Clear -1 1016 79 16093 2.1 280 10:23 22.03.2020
6100 Mist -1 1018 100 6437 3.16 217 09:47 22.03.2020
6101 Clear -1 1016 79 16093 2.1 270 09:28 22.03.2020
6102 Clouds 0 1016 80 16093 3.6 180 08:53 22.03.2020
6103 Clouds 0 1016 80 16093 3.6 180 08:53 22.03.2020
6104 Mist 0 1018 92 6437 2.37 218 08:33 22.03.2020
6105 Clouds 0 1016 80 16093 2.6 160 07:59 22.03.2020
6106 Mist 0 1018 77 8047 1.54 228 07:41 22.03.2020
6107 Mist 1 1019 77 6437 1.54 228 06:48 22.03.2020
6108 Mist 1 1019 86 6437 1.54 228 05:54 22.03.2020
6109 Haze 1 1020 68 8047 2.6 160 04:39 22.03.2020
6110 Clear 4 1019 68 11265 1.18 221 02:34 22.03.2020
6111 Clouds 6 1019 60 16093 4.5 331 01:19 22.03.2020
6112 Clouds 7 1019 60 16093 4.5 331 00:34 22.03.2020
6113 Rain 7 1020 52 16093 4.5 331 23:47 21.03.2020
6114 Rain 7 1020 60 11265 4.5 331 23:23 21.03.2020
6115 Rain 7 1020 52 8047 2.13 59 22:59 21.03.2020
6116 Rain 7 1020 52 8047 2.13 59 22:38 21.03.2020
6117 Rain 7 1018 52 16093 2.13 59 22:20 21.03.2020
6118 Rain 7 1018 45 16093 4.6 120 21:59 21.03.2020
6119 Rain 7 1021 65 11265 2.1 40 21:39 21.03.2020
6120 Rain 7 1021 65 11265 3.1 10 21:20 21.03.2020
6121 Rain 7 1021 65 11265 3.1 10 21:20 21.03.2020
6122 Rain 7 1022 60 16093 2.1 10 20:44 21.03.2020
6123 Rain 5 1022 56 16093 0.8 210 20:22 21.03.2020
6124 Rain 5 1020 39 16093 2.1 120 19:56 21.03.2020
6125 Rain 5 1023 60 16093 0.8 210 19:38 21.03.2020
6126 Clear 5 1023 64 16093 0.8 210 19:19 21.03.2020
6127 Rain 4 1021 44 16093 3.1 160 18:54 21.03.2020
6128 Rain 4 1024 72 11265 0.8 210 18:36 21.03.2020
6129 Rain 4 1024 72 11265 0.8 210 18:18 21.03.2020
6130 Rain 3 1023 47 16093 3.6 230 17:42 21.03.2020
6131 Rain 1 1022 55 16093 3.6 200 17:22 21.03.2020
6132 Rain 0 1022 55 0 10.8 290 16:43 21.03.2020
6133 Rain 0 1022 55 0 10.8 290 16:43 21.03.2020
6134 Fog -1 1023 92 0 3.51 216 16:24 21.03.2020
6135 Clouds -2 1022 63 16093 4.1 180 15:59 21.03.2020
6136 Snow -3 1022 68 16093 5.7 180 15:41 21.03.2020
6137 Clouds -3 1022 68 16093 5.7 180 15:23 21.03.2020
6138 Clouds -5 1022 68 16093 3.1 150 14:57 21.03.2020
6139 Clouds -5 1021 55 0 11.8 310 14:39 21.03.2020
6140 Fog -6 1024 92 0 3.36 217 14:20 21.03.2020
6141 Clouds -6 1021 67 16093 1.5 0 13:58 21.03.2020
6142 Fog -6 1023 100 402 3.36 217 13:39 21.03.2020
6143 Fog -6 1021 100 402 1.5 200 13:21 21.03.2020
6144 Clouds -6 1021 79 16093 2.1 130 12:57 21.03.2020
6145 Fog -6 1023 100 402 3.16 225 12:37 21.03.2020
6146 Fog -6 1023 92 805 3.16 225 12:19 21.03.2020
6147 Clouds -6 1020 73 16093 2.1 170 11:55 21.03.2020
6148 Mist -6 1023 92 2414 3.16 225 11:37 21.03.2020
6149 Mist -6 1023 92 2414 3.47 219 11:18 21.03.2020
6150 Clouds -6 1020 79 16093 3.1 100 10:56 21.03.2020
6151 Fog -6 1021 92 0 2.1 220 10:38 21.03.2020
6152 Mist -6 1024 100 3219 3.47 219 10:18 21.03.2020
6153 Mist -6 1022 92 1207 3.47 219 09:40 21.03.2020
6154 Mist -6 1022 92 1207 3.47 219 09:21 21.03.2020
6155 Haze -6 1022 85 9656 3.47 219 08:58 21.03.2020
6156 Mist -6 1025 92 8047 3.47 219 08:39 21.03.2020
6157 Mist -5 1022 100 4023 2.1 190 08:21 21.03.2020
6158 Clouds -5 1025 92 11265 2.32 212 07:39 21.03.2020
6159 Clouds -5 1026 92 11265 2.32 212 07:20 21.03.2020
6160 Clouds -5 1026 92 11265 2.32 212 06:45 21.03.2020
6161 Clouds -5 1026 92 11265 2.32 212 06:26 21.03.2020
6162 Mist -5 1023 92 2816 2.1 120 05:41 21.03.2020
6163 Clouds -5 1026 85 16093 2.11 204 04:34 21.03.2020
6164 Clouds -5 1026 85 16093 2.11 204 02:39 21.03.2020
6165 Mist -4 1023 79 8047 2.6 350 01:54 21.03.2020
6166 Snow -4 1023 85 8047 2.6 20 01:28 21.03.2020
6167 Clouds -4 1026 79 16093 2.6 340 00:43 21.03.2020
6168 Clouds -4 1026 79 16093 2.6 340 00:43 21.03.2020
6169 Clouds -3 1023 92 14484 3.1 320 00:24 21.03.2020
6170 Clouds -3 1026 79 16093 1.5 40 23:45 20.03.2020
6171 Clouds -3 1027 85 16093 1.5 10 23:22 20.03.2020
6172 Clouds -3 1027 85 16093 2.6 20 22:44 20.03.2020
6173 Snow -4 1025 92 4023 4.43 344 22:25 20.03.2020
6174 Clouds -4 1024 85 12874 4.1 310 21:59 20.03.2020
6175 Clouds -4 1028 85 16093 3.1 20 21:41 20.03.2020
6176 Clouds -4 1029 85 16093 2.6 20 21:20 20.03.2020
6177 Clouds -4 1024 79 11265 4.1 300 20:59 20.03.2020
6178 Clouds -4 1029 85 16093 2.6 60 20:41 20.03.2020
6179 Clouds -4 1025 79 16093 3.6 300 20:20 20.03.2020
6180 Clouds -4 1025 79 16093 2.6 320 19:49 20.03.2020
6181 Mist -4 1027 92 8047 1.5 50 19:22 20.03.2020
6182 Mist -4 1027 92 8047 1.5 50 19:22 20.03.2020
6183 Clouds -4 1026 85 16093 2.1 340 18:59 20.03.2020
6184 Clouds -5 1030 85 11265 3.6 60 18:39 20.03.2020
6185 Clouds -5 1030 85 11265 2.1 100 18:20 20.03.2020
6186 Clouds -5 1027 92 11265 4.6 110 17:56 20.03.2020
6187 Clouds -5 1030 85 11265 3.1 100 17:38 20.03.2020
6188 Clouds -6 1030 85 11265 3.1 100 17:19 20.03.2020
6189 Clouds -6 1030 85 16093 4.6 110 16:42 20.03.2020
6190 Mist -6 1027 100 4828 1.5 60 16:21 20.03.2020
6191 Clouds -6 1026 85 16093 3.1 120 15:56 20.03.2020
6192 Mist -7 1030 92 6437 4.1 110 15:37 20.03.2020
6193 Clouds -7 1026 92 16093 2.6 120 15:19 20.03.2020
6194 Clouds -7 1029 92 11265 2.1 100 14:42 20.03.2020
6195 Clouds -7 1026 85 16093 4.6 120 14:21 20.03.2020
6196 Clouds -7 1027 92 16093 2.1 100 13:50 20.03.2020
6197 Clouds -7 1027 92 16093 2.1 100 13:50 20.03.2020
6198 Clouds -7 1026 92 16093 3.6 90 13:25 20.03.2020
6199 Clouds -7 1026 92 16093 4.1 100 12:58 20.03.2020
6200 Clouds -7 1029 92 16093 3.1 110 12:38 20.03.2020
6201 Clouds -6 1029 92 16093 1.5 110 12:20 20.03.2020
6202 Clouds -6 1027 85 4828 3.6 130 11:40 20.03.2020
6203 Clouds -6 1029 92 16093 2.1 130 11:21 20.03.2020
6204 Clouds -6 1026 100 16093 2.6 100 10:56 20.03.2020
6205 Snow -6 1029 85 16093 3.1 140 10:38 20.03.2020
6206 Snow -6 1029 92 4828 2.1 130 10:18 20.03.2020
6207 Snow -6 1029 92 3219 2.1 130 09:46 20.03.2020
6208 Snow -5 1029 92 6437 1.5 120 09:21 20.03.2020
6209 Snow -5 1027 92 4023 2.1 130 08:58 20.03.2020
6210 Snow -5 1029 92 4828 3.1 120 08:39 20.03.2020
6211 Snow -5 1029 92 4023 2.6 120 08:19 20.03.2020
6212 Clouds -5 1029 92 11265 2.6 110 07:41 20.03.2020
6213 Snow -5 1026 100 16093 2.1 90 07:23 20.03.2020
6214 Snow -4 1028 92 6437 3.6 110 06:42 20.03.2020
6215 Snow -4 1028 92 6437 3.6 110 06:42 20.03.2020
6216 Snow -4 1028 92 11265 2.1 60 06:21 20.03.2020
6217 Snow -4 1027 86 3219 4.6 20 04:39 20.03.2020
6218 Snow -2 1022 92 1207 8.2 20 02:51 20.03.2020
6219 Snow -1 1022 98 805 5.1 20 01:50 20.03.2020
6220 Snow -1 1021 99 3219 4.6 10 00:45 20.03.2020
6221 Snow -1 1020 99 2414 4.6 360 00:23 20.03.2020
6222 Snow -1 1016 92 402 14.4 360 23:42 19.03.2020
6223 Snow -1 1018 99 805 6.7 350 23:23 19.03.2020
6224 Rain 0 1016 100 805 8.2 360 22:41 19.03.2020
6225 Rain 0 1012 100 402 10.3 360 22:22 19.03.2020
6226 Rain 0 1012 100 402 12.3 340 21:58 19.03.2020
6227 Rain 0 1014 100 1609 5.1 350 21:38 19.03.2020
6228 Rain 0 1010 100 402 12.9 340 21:19 19.03.2020
6229 Rain 0 1012 100 805 8.2 350 20:44 19.03.2020
6230 Rain 0 1010 99 1609 5.1 360 20:25 19.03.2020
6231 Rain 0 1007 86 402 9.3 340 19:59 19.03.2020
6232 Rain 0 1010 99 1207 7.7 350 19:39 19.03.2020
6233 Rain 0 1009 99 805 8.2 350 19:20 19.03.2020
6234 Rain 0 1009 99 805 8.2 350 19:20 19.03.2020
6235 Rain 0 1007 100 805 10.3 340 18:57 19.03.2020
6236 Rain 0 1007 100 805 10.3 340 18:57 19.03.2020
6237 Rain 0 1009 99 805 6.2 340 18:38 19.03.2020
6238 Rain 0 1008 99 805 6.2 340 18:20 19.03.2020
6239 Rain 0 1004 100 805 7.7 340 17:43 19.03.2020
6240 Rain 0 1008 96 805 5.1 350 17:20 19.03.2020
6241 Rain 1 1004 100 1207 5.1 320 16:57 19.03.2020
6242 Rain 1 1004 100 1207 5.1 320 16:39 19.03.2020
6243 -273 0 0 0 0 0 16:21 19.03.2020
6244 Rain 2 1006 100 2414 4.6 350 15:41 19.03.2020
6245 Rain 2 1004 93 1207 6.2 330 15:23 19.03.2020
6246 Rain 2 1005 93 3219 3.6 350 14:43 19.03.2020
6247 Rain 2 1004 100 6437 2.1 360 14:21 19.03.2020
6248 Rain 3 1006 93 6437 3.1 330 13:42 19.03.2020
6249 Rain 3 1006 93 6437 3.1 330 13:21 19.03.2020
6250 Rain 3 1007 93 11265 1.5 360 12:58 19.03.2020
6251 Rain 3 1007 93 11265 1.5 360 12:40 19.03.2020
6252 Rain 3 1007 93 16093 2.6 340 12:21 19.03.2020
6253 Rain 3 1008 93 16093 1.5 350 11:43 19.03.2020
6254 Rain 3 1008 93 16093 2.1 10 11:25 19.03.2020
6255 Rain 3 1006 93 3219 4.6 10 10:58 19.03.2020
6256 Drizzle 3 1008 93 4828 3.6 10 10:38 19.03.2020
6257 Rain 3 1006 93 3219 5.1 360 10:19 19.03.2020
6258 Rain 3 1006 93 4828 5.7 340 09:55 19.03.2020
6259 Rain 4 1009 100 6437 3.1 340 09:37 19.03.2020
6260 Rain 4 1007 100 3219 5.7 350 09:18 19.03.2020
6261 Drizzle 4 1010 93 4828 5.7 360 08:41 19.03.2020
6262 Drizzle 4 1008 93 4828 6.7 340 08:20 19.03.2020
6263 Rain 4 1010 93 8047 3.6 350 07:45 19.03.2020
6264 Rain 5 1010 93 8047 4.6 360 07:25 19.03.2020
6265 Drizzle 6 1010 87 16093 6.2 10 06:35 19.03.2020
6266 Clouds 6 1011 75 16093 6.2 350 05:48 19.03.2020
6267 Clouds 7 1008 81 16093 8.7 340 04:57 19.03.2020
6268 Clouds 7 1009 75 16093 7.7 360 04:39 19.03.2020
6269 Thunderstorm 12 1007 54 16093 7.2 30 02:49 19.03.2020
6270 Clouds 14 1005 19 16093 7.2 170 01:21 19.03.2020
6271 Clouds 15 1007 29 16093 6.7 360 00:28 19.03.2020
6272 Clear 16 1007 29 16093 5.7 50 23:48 18.03.2020
6273 Clear 17 1007 23 16093 5.1 60 23:29 18.03.2020
6274 Clouds 17 1006 15 16093 6.7 220 22:56 18.03.2020
6275 Clear 17 1007 22 16093 2.1 30 22:38 18.03.2020
6276 Clear 17 1008 23 16093 3.1 50 22:20 18.03.2020
6277 Clouds 17 1008 25 16093 3.1 70 21:41 18.03.2020
6278 Clouds 17 1007 21 16093 4.1 10 21:21 18.03.2020
6279 Clouds 16 1008 16 16093 9.3 230 20:57 18.03.2020
6280 Clear 16 1009 29 16093 3.6 60 20:39 18.03.2020
6281 Clear 15 1010 31 16093 3.6 70 20:20 18.03.2020
6282 Clouds 15 1008 16 16093 9.3 240 19:56 18.03.2020
6283 Clouds 15 1008 16 16093 9.3 240 19:56 18.03.2020
6284 Clear 15 1011 25 16093 4.1 80 19:36 18.03.2020
6285 Clear 15 1011 28 16093 4.1 40 19:18 18.03.2020
6286 Clear 15 1012 28 16093 3.1 70 18:41 18.03.2020
6287 Clear 14 1012 28 16093 1.41 114 18:20 18.03.2020
6288 Clear 14 1013 23 16093 1.41 114 17:58 18.03.2020
6289 Clear 13 1013 23 16093 1.41 114 17:39 18.03.2020
6290 Clear 10 1013 45 16093 2.01 210 17:21 18.03.2020
6291 Clouds 10 1011 34 16093 2.6 80 16:54 18.03.2020
6292 Clear 9 1013 52 16093 2.01 210 16:36 18.03.2020
6293 Clear 8 1013 86 11265 2.01 210 16:18 18.03.2020
6294 Mist 5 1013 86 8047 2.01 210 15:44 18.03.2020
6295 Clear 4 1011 69 16093 2.01 210 15:20 18.03.2020
6296 Mist 2 1013 92 6437 2.01 210 14:45 18.03.2020
6297 Clear 1 1011 74 16093 2.1 170 14:22 18.03.2020
6298 Clear 1 1011 58 16093 3.6 260 13:56 18.03.2020
6299 Clear 1 1013 92 11265 2.45 214 13:36 18.03.2020
6300 Clear 1 1013 92 11265 2.85 215 13:18 18.03.2020
6301 Clear 1 1013 92 11265 2.85 215 12:41 18.03.2020
6302 Clear 1 1013 92 11265 2.85 215 12:19 18.03.2020
6303 Clear 2 1013 92 16093 1.5 180 11:39 18.03.2020
6304 Clear 2 1013 92 16093 1.5 180 11:21 18.03.2020
6305 Clear 2 1011 80 16093 3.33 210 10:58 18.03.2020
6306 Clear 3 1013 92 16093 3.33 210 10:39 18.03.2020
6307 Clear 3 1013 92 11265 3.33 210 10:20 18.03.2020
6308 Clear 3 1013 53 16093 3.33 210 09:43 18.03.2020
6309 Clear 3 1011 80 16093 1.5 270 09:25 18.03.2020
6310 Clouds 3 1011 93 16093 3.6 210 08:57 18.03.2020
6311 Clear 4 1012 53 16093 3.33 210 08:39 18.03.2020
6312 Clear 4 1012 53 16093 3.33 210 08:39 18.03.2020
6313 Clear 4 1013 52 16093 2.49 217 08:20 18.03.2020
6314 Clear 4 1013 86 16093 2.32 223 07:46 18.03.2020
6315 Clear 4 1013 51 16093 2.32 223 07:28 18.03.2020
6316 Clear 5 1013 86 16093 2.32 223 06:44 18.03.2020
6317 Clear 5 1013 80 16093 2.32 223 06:22 18.03.2020
6318 Clear 6 1013 80 16093 1.5 190 05:35 18.03.2020
6319 Clear 6 1011 75 16093 1.36 186 04:27 18.03.2020
6320 Clear 9 1009 61 16093 1.36 186 02:48 18.03.2020
6321 Clear 11 1009 53 16093 3.28 5 01:48 18.03.2020
6322 Clear 11 1011 46 16093 3.52 15 01:27 18.03.2020
6323 Clear 12 1011 46 16093 2.4 2 00:25 18.03.2020
6324 Clear 13 1011 50 16093 2.4 2 23:50 17.03.2020
6325 Clear 13 1011 46 16093 2.1 20 23:28 17.03.2020
6326 Clear 12 1012 53 16093 1.5 10 22:59 17.03.2020
6327 Clear 12 1012 53 16093 3.24 305 22:40 17.03.2020
6328 Clear 12 1012 53 16093 3.62 301 22:22 17.03.2020
6329 Clear 11 1012 57 16093 2.1 340 21:40 17.03.2020
6330 Clouds 11 1011 65 16093 1.5 270 21:21 17.03.2020
6331 Clouds 10 1014 65 16093 3.24 305 20:41 17.03.2020
6332 Clouds 10 1012 65 16093 2.6 300 20:22 17.03.2020
6333 Clouds 8 1012 61 16093 2.6 330 19:59 17.03.2020
6334 Clouds 8 1015 75 16093 4.07 340 19:40 17.03.2020
6335 Rain 7 1015 80 16093 1.5 10 19:18 17.03.2020
6336 Clouds 7 1016 80 16093 2.1 10 18:56 17.03.2020
6337 Clouds 6 1016 86 16093 2.1 350 18:37 17.03.2020
6338 Clouds 6 1016 86 16093 2.1 350 18:19 17.03.2020
6339 Clouds 5 1017 93 16093 2.6 350 17:40 17.03.2020
6340 Clouds 3 1017 100 11265 2.6 360 17:22 17.03.2020
6341 Clouds 4 1015 60 16093 3.6 220 16:55 17.03.2020
6342 Fog 3 1016 100 603 3.6 350 16:37 17.03.2020
6343 Mist 3 1018 93 2816 2.1 340 16:18 17.03.2020
6344 Mist 3 1018 100 6437 1.5 10 15:43 17.03.2020
6345 Fog 2 1016 100 603 3.6 350 15:21 17.03.2020
6346 Mist 2 1018 100 3219 2.6 10 14:42 17.03.2020
6347 Mist 2 1018 100 3219 2.6 10 14:42 17.03.2020
6348 Fog 2 1016 100 201 3.1 350 14:21 17.03.2020
6349 Mist 2 1017 100 4828 1.5 40 13:45 17.03.2020
6350 Mist 2 1017 100 4828 1.5 40 13:27 17.03.2020
6351 Clouds 2 1017 93 16093 2.6 180 12:58 17.03.2020
6352 Clouds 2 1019 93 16093 1.5 350 12:40 17.03.2020
6353 Clouds 2 1019 93 16093 1.41 313 12:22 17.03.2020
6354 Clouds 2 1020 93 16093 1.5 80 11:46 17.03.2020
6355 Clouds 2 1020 93 16093 1.41 313 11:28 17.03.2020
6356 Mist 2 1018 93 8047 2.6 130 10:58 17.03.2020
6357 Clouds 2 1021 93 11265 0.73 77 10:38 17.03.2020
6358 Mist 2 1020 86 4023 2.6 100 10:20 17.03.2020
6359 Mist 2 1019 100 1609 2.6 110 09:57 17.03.2020
6360 Mist 2 1022 93 6437 3.1 110 09:39 17.03.2020
6361 Clouds 2 1022 93 16093 2.1 110 09:18 17.03.2020
6362 Clouds 2 1023 93 16093 2.1 100 08:43 17.03.2020
6363 Mist 2 1023 93 4828 2.1 110 08:21 17.03.2020
6364 Mist 2 1021 93 1609 2.1 110 07:50 17.03.2020
6365 Mist 2 1024 86 6437 2.6 120 07:26 17.03.2020
6366 Mist 2 1022 100 2012 4.6 100 06:58 17.03.2020
6367 Clouds 2 1022 93 16093 3.1 100 06:33 17.03.2020
6368 Clouds 3 1024 80 16093 2.6 120 05:46 17.03.2020
6369 Clouds 5 1023 75 16093 6.7 90 03:40 17.03.2020
6370 Clouds 6 1022 64 16093 3.6 80 02:45 17.03.2020
6371 Clear 7 1021 30 16093 3.6 60 01:42 17.03.2020
6372 Clear 8 1019 57 16093 3.6 50 01:24 17.03.2020
6373 Clear 11 1020 40 16093 3.6 50 00:25 17.03.2020
6374 Clear 12 1019 40 16093 4.1 20 23:45 16.03.2020
6375 Clear 13 1019 40 16093 3.6 30 23:23 16.03.2020
6376 Clear 13 1019 50 16093 5.1 30 22:40 16.03.2020
6377 Clear 14 1019 53 16093 6.2 10 22:22 16.03.2020
6378 Clouds 14 1016 15 16093 3.1 90 21:55 16.03.2020
6379 Clear 14 1020 50 16093 3.6 50 21:36 16.03.2020
6380 Clouds 14 1017 17 16093 7.2 90 21:18 16.03.2020
6381 Clear 14 1021 53 16093 4.1 10 20:43 16.03.2020
6382 Clouds 14 1019 47 16093 6.7 360 20:24 16.03.2020
6383 Clouds 12 1018 19 16093 2.6 170 19:56 16.03.2020
6384 Clear 12 1021 46 16093 2.6 60 19:37 16.03.2020
6385 Clear 12 1021 27 16093 3.1 60 19:18 16.03.2020
6386 Clear 12 1021 27 16093 3.1 50 18:41 16.03.2020
6387 Clear 11 1021 27 16093 2.6 50 18:20 16.03.2020
6388 Clear 11 1021 27 16093 4.6 70 17:46 16.03.2020
6389 Clear 11 1019 53 16093 3.1 10 17:26 16.03.2020
6390 Clouds 8 1020 32 16093 2.1 170 16:58 16.03.2020
6391 Clear 8 1019 44 16093 1.5 130 16:40 16.03.2020
6392 Clear 7 1019 44 16093 1.5 130 16:22 16.03.2020
6393 Mist 4 1021 93 8047 2.1 210 15:43 16.03.2020
6394 Clear 2 1019 64 16093 2.1 190 15:25 16.03.2020
6395 Clear 1 1019 64 16093 2.1 190 14:48 16.03.2020
6396 Clear 0 1018 58 16093 2.44 216 14:24 16.03.2020
6397 Clear 0 1018 64 16093 2.1 220 13:53 16.03.2020
6398 Clear 1 1018 64 16093 2.6 310 13:30 16.03.2020
6399 Clear 1 1018 64 16093 4.6 320 12:58 16.03.2020
6400 Clear 1 1020 92 11265 2.54 222 12:40 16.03.2020
6401 Clear 1 1020 92 11265 2.54 222 12:20 16.03.2020
6402 Clear 1 1020 92 11265 2.54 222 12:20 16.03.2020
6403 Clear 1 1019 92 11265 2.54 222 11:44 16.03.2020
6404 Clear 1 1019 92 11265 2.6 210 11:26 16.03.2020
6405 Clear 1 1019 92 11265 1.5 190 10:45 16.03.2020
6406 Clear 2 1018 61 16093 1.5 200 10:25 16.03.2020
6407 Clear 2 1018 61 16093 2.61 212 09:59 16.03.2020
6408 Clear 2 1020 92 11265 2.61 212 09:38 16.03.2020
6409 Clear 2 1020 61 11265 2.1 180 09:19 16.03.2020
6410 Clear 2 1020 61 11265 1.5 220 08:43 16.03.2020
6411 Clear 2 1018 61 16093 3.1 320 08:23 16.03.2020
6412 Mist 2 1020 92 8047 1.87 230 07:43 16.03.2020
6413 Clear 3 1018 67 16093 3.1 350 07:21 16.03.2020
6414 Clear 3 1020 67 11265 1.87 230 06:41 16.03.2020
6415 Clear 3 1020 86 11265 1.87 230 06:22 16.03.2020
6416 Clear 6 1017 75 16093 1.5 160 04:26 16.03.2020
6417 Clear 10 1019 47 16093 2.6 40 01:46 16.03.2020
6418 Clouds 12 1019 40 16093 1.51 340 00:45 16.03.2020
6419 Clouds 12 1017 44 16093 1.5 10 00:26 16.03.2020
6420 Clouds 12 1020 43 16093 1.51 340 23:40 15.03.2020
6421 Clear 12 1020 43 16093 4.53 337 23:19 15.03.2020
6422 Clear 12 1020 40 16093 2.1 140 22:42 15.03.2020
6423 Clear 11 1018 40 16093 4.53 337 22:21 15.03.2020
6424 Clear 11 1020 46 16093 4.53 337 21:39 15.03.2020
6425 Clear 11 1019 61 16093 1.5 340 21:21 15.03.2020
6426 Clouds 10 1019 40 16093 3.6 50 20:58 15.03.2020
6427 Clear 10 1022 40 16093 4.53 337 20:39 15.03.2020
6428 Clear 8 1023 50 16093 1.5 110 20:19 15.03.2020
6429 Clouds 8 1020 43 16093 2.6 10 19:55 15.03.2020
6430 Clear 8 1023 50 16093 2.1 140 19:37 15.03.2020
6431 Clouds 7 1024 50 16093 3.1 100 19:18 15.03.2020
6432 Clouds 6 1024 50 16093 2.5 16 18:41 15.03.2020
6433 Clouds 5 1022 69 16093 2.5 16 18:23 15.03.2020
6434 Clouds 4 1025 50 16093 2.5 16 17:58 15.03.2020
6435 Clouds 4 1025 50 16093 2.5 16 17:38 15.03.2020
6436 Clouds 3 1025 66 11265 1.12 60 17:19 15.03.2020
6437 Clouds 2 1025 66 11265 1.12 60 16:44 15.03.2020
6438 Clouds 2 1025 66 11265 1.12 60 16:44 15.03.2020
6439 Clouds 1 1023 66 11265 1.12 60 16:26 15.03.2020
6440 Clouds 1 1022 80 16093 2.6 130 15:59 15.03.2020
6441 Clouds 1 1025 66 11265 1.12 60 15:41 15.03.2020
6442 Clouds 0 1023 66 11265 1.12 60 15:20 15.03.2020
6443 Clouds 0 1025 66 11265 1.12 60 14:46 15.03.2020
6444 Clouds 0 1023 66 11265 1.5 140 14:25 15.03.2020
6445 Clouds 0 1023 87 3219 0.69 50 13:59 15.03.2020
6446 Mist 0 1025 87 6437 0.69 50 13:38 15.03.2020
6447 Clouds 0 1023 90 12874 0.27 38 13:20 15.03.2020
6448 Mist 0 1024 90 4828 0.27 38 12:44 15.03.2020
6449 Mist 0 1024 90 4023 2.1 20 12:26 15.03.2020
6450 Fog 0 1022 90 402 2.6 360 11:57 15.03.2020
6451 Mist 0 1024 90 6437 1.5 20 11:39 15.03.2020
6452 Mist 0 1024 86 4023 2.6 20 11:20 15.03.2020
6453 Mist 0 1024 86 6437 3.1 20 10:55 15.03.2020
6454 Mist 0 1024 86 6437 3.1 20 10:36 15.03.2020
6455 Mist 0 1024 86 8047 3.1 360 10:18 15.03.2020
6456 Clouds 0 1024 86 11265 3.1 360 09:39 15.03.2020
6457 Clouds 0 1022 86 16093 3.1 360 09:20 15.03.2020
6458 Clouds 0 1024 86 11265 1.5 360 09:20 15.03.2020
6459 Clouds 0 1024 86 16093 2.6 340 08:42 15.03.2020
6460 Clouds 0 1022 80 11265 3.6 350 08:20 15.03.2020
6461 Clouds 0 1022 74 16093 2.6 210 07:51 15.03.2020
6462 Clouds 0 1022 80 16093 3.1 350 07:23 15.03.2020
6463 Clouds 1 1025 86 16093 1.5 360 06:49 15.03.2020
6464 Clouds 1 1025 80 16093 2.1 350 05:50 15.03.2020
6465 Clouds 1 1025 86 16093 2.6 360 05:18 15.03.2020
6466 Clouds 2 1024 80 16093 3.6 40 04:41 15.03.2020
6467 Clouds 2 1024 80 16093 3.6 40 04:41 15.03.2020
6468 Clouds 2 1023 68 16093 2.6 10 04:23 15.03.2020
6469 Clouds 2 1024 68 16093 3.6 10 03:30 15.03.2020
6470 Clouds 3 1024 68 16093 4.1 360 02:37 15.03.2020
6471 Clouds 4 1020 60 16093 7.7 330 01:20 15.03.2020
6472 Clouds 6 1022 65 16093 4.6 350 00:43 15.03.2020
6473 Clouds 7 1022 60 16093 4.1 350 00:21 15.03.2020
6474 Clouds 8 1022 65 16093 2.1 360 23:42 14.03.2020
6475 Clouds 8 1019 50 16093 2.6 60 23:21 14.03.2020
6476 Clouds 8 1019 43 16093 2.6 60 22:58 14.03.2020
6477 Clouds 8 1022 69 16093 3.1 320 22:40 14.03.2020
6478 Clouds 7 1021 69 16093 4.48 14 22:22 14.03.2020
6479 Clouds 7 1018 43 16093 3.1 0 21:56 14.03.2020
6480 Clouds 7 1021 69 16093 2.1 360 21:36 14.03.2020
6481 Clouds 7 1018 52 16093 3.1 40 21:18 14.03.2020
6482 Clouds 6 1018 52 16093 3.1 40 20:58 14.03.2020
6483 Clouds 6 1022 74 16093 1.5 30 20:39 14.03.2020
6484 Clouds 5 1019 60 16093 2.68 42 20:19 14.03.2020
6485 Clouds 5 1022 80 16093 1.5 300 19:42 14.03.2020
6486 Clouds 4 1022 74 16093 2.68 42 19:24 14.03.2020
6487 Clouds 4 1022 80 16093 1.5 10 18:41 14.03.2020
6488 Clouds 3 1022 80 16093 2.68 42 18:22 14.03.2020
6489 Clouds 2 1021 80 16093 2.68 42 17:55 14.03.2020
6490 Clouds 1 1021 50 16093 2.68 42 17:37 14.03.2020
6491 Clouds 1 1021 61 16093 0.47 9 17:19 14.03.2020
6492 Clouds 0 1021 61 16093 1.5 360 16:40 14.03.2020
6493 Mist 0 1018 61 6437 0.47 9 16:22 14.03.2020
6494 Clouds -1 1018 92 16093 0.47 9 15:52 14.03.2020
6495 Clouds -1 1020 92 16093 1.5 10 15:25 14.03.2020
6496 Clouds -1 1020 92 16093 1.5 330 14:46 14.03.2020
6497 Clouds -2 1017 100 11265 1.5 30 14:23 14.03.2020
6498 Clouds -2 1017 100 16093 1.5 330 13:57 14.03.2020
6499 Clouds -2 1018 92 16093 1.5 350 13:39 14.03.2020
6500 Clouds -2 1018 92 16093 2.1 350 13:20 14.03.2020
6501 Clouds -2 1018 92 16093 2.6 340 12:46 14.03.2020
6502 Clouds -2 1017 92 16093 3.1 350 12:27 14.03.2020
6503 Clouds -2 1015 100 16093 4.6 350 11:56 14.03.2020
6504 Clouds -2 1015 100 16093 4.6 350 11:56 14.03.2020
6505 Clouds -2 1015 100 16093 4.6 350 11:38 14.03.2020
6506 Clouds -1 1017 92 16093 2.1 360 11:19 14.03.2020
6507 Clouds -1 1014 82 16093 6.2 340 10:42 14.03.2020
6508 Clouds -1 1014 82 16093 6.2 340 10:42 14.03.2020
6509 Clouds -1 1015 82 16093 2.6 360 10:23 14.03.2020
6510 Clouds -1 1016 82 16093 2.6 340 09:47 14.03.2020
6511 Clouds -1 1014 82 16093 6.7 340 09:24 14.03.2020
6512 Clouds -1 1016 82 16093 3.6 340 08:54 14.03.2020
6513 Clouds -1 1016 85 16093 3.6 340 08:35 14.03.2020
6514 Clouds 0 1013 78 16093 7.7 340 07:56 14.03.2020
6515 Clouds -1 1016 78 16093 4.1 350 07:38 14.03.2020
6516 Clouds 0 1013 80 16093 3.1 170 07:19 14.03.2020
6517 Clouds 0 1015 86 16093 3.1 330 06:40 14.03.2020
6518 Clouds 0 1015 86 16093 3.1 330 06:40 14.03.2020
6519 Clouds 0 1014 78 16093 0.9 244 05:43 14.03.2020
6520 Clouds 0 1011 80 16093 9.3 170 03:49 14.03.2020
6521 Clouds 0 1011 73 16093 1.5 10 03:24 14.03.2020
6522 Snow 1 1010 73 1609 4.6 330 02:23 14.03.2020
6523 Clouds 2 1012 57 16093 3.56 203 00:49 14.03.2020
6524 Clouds 3 1012 57 16093 3.6 350 23:50 13.03.2020
6525 Clouds 3 1012 48 16093 3.1 330 23:30 13.03.2020
6526 Clouds 3 1012 48 16093 3.1 340 22:52 13.03.2020
6527 Clouds 3 1012 48 16093 2.6 300 22:26 13.03.2020
6528 Clouds 3 1013 48 16093 2.6 310 21:44 13.03.2020
6529 Clouds 4 1014 48 16093 2.1 340 21:22 13.03.2020
6530 Clouds 4 1011 64 16093 12.9 170 20:59 13.03.2020
6531 Clouds 3 1014 48 16093 5.18 167 20:40 13.03.2020
6532 Clouds 3 1015 58 16093 2.1 80 20:20 13.03.2020
6533 Clouds 3 1016 58 16093 4.84 156 19:48 13.03.2020
6534 Clouds 2 1014 80 16093 10.3 150 19:30 13.03.2020
6535 Rain 1 1017 58 2414 4.84 156 18:49 13.03.2020
6536 Rain 1 1018 86 16093 4.84 156 18:31 13.03.2020
6537 Rain 1 1015 74 16093 11.8 170 17:57 13.03.2020
6538 Rain 1 1016 58 3219 1.5 140 17:38 13.03.2020
6539 Rain 0 1018 80 6437 1.65 33 17:20 13.03.2020
6540 Clouds 0 1018 80 16093 1.65 33 16:42 13.03.2020
6541 Snow 0 1016 80 1207 5.7 180 16:24 13.03.2020
6542 Clouds 0 1016 80 12874 3.6 180 15:56 13.03.2020
6543 Clouds 0 1016 82 16093 2.1 20 15:37 13.03.2020
6544 Clouds 0 1017 86 16093 2.6 340 15:19 13.03.2020
6545 Clouds 0 1018 82 16093 2.1 350 14:41 13.03.2020
6546 Clouds 0 1019 79 16093 4.1 330 14:22 13.03.2020
6547 Clouds 0 1016 79 16093 6.2 340 13:57 13.03.2020
6548 Clouds 0 1019 80 16093 2.6 330 13:38 13.03.2020
6549 Clouds 0 1016 78 16093 2.6 260 13:19 13.03.2020
6550 Clouds 0 1019 74 16093 4.1 340 12:40 13.03.2020
6551 Clouds 0 1019 80 16093 4.1 350 12:22 13.03.2020
6552 Clouds 0 1016 69 16093 8.2 200 11:59 13.03.2020
6553 Clouds 0 1019 80 16093 4.6 340 11:41 13.03.2020
6554 Clouds 0 1019 80 16093 4.6 340 11:41 13.03.2020
6555 Clouds 0 1019 80 16093 4.6 340 11:22 13.03.2020
6556 Clouds 0 1019 80 16093 4.1 350 10:48 13.03.2020
6557 Clouds 0 1017 81 16093 5.7 350 10:28 13.03.2020
6558 Clouds 0 1017 81 16093 5.7 350 10:28 13.03.2020
6559 Clear 1 1016 69 16093 5.7 190 09:58 13.03.2020
6560 Clouds 1 1020 74 16093 3.1 360 09:39 13.03.2020
6561 Clouds 1 1020 80 16093 2.6 350 09:20 13.03.2020
6562 Clouds 1 1020 74 16093 2.1 350 08:45 13.03.2020
6563 Clouds 1 1018 81 16093 4.1 340 08:23 13.03.2020
6564 Clear 1 1018 74 16093 2.6 130 07:50 13.03.2020
6565 Clouds 1 1019 74 16093 3.6 10 07:28 13.03.2020
6566 Clouds 1 1018 69 16093 3.6 130 06:50 13.03.2020
6567 Clouds 1 1021 74 16093 1.5 30 06:32 13.03.2020
6568 Clouds 1 1021 69 16093 2.1 30 05:54 13.03.2020
6569 Clouds 1 1021 64 16093 2.1 40 05:22 13.03.2020
6570 Clouds 1 1021 64 16093 2.1 30 04:37 13.03.2020
6571 Clouds 2 1021 64 16093 2.1 30 03:37 13.03.2020
6572 Clouds 5 1019 60 16093 4.6 30 01:46 13.03.2020
6573 Clouds 5 1016 56 16093 5.7 40 01:19 13.03.2020
6574 Clouds 6 1016 49 16093 3.6 10 00:53 13.03.2020
6575 Clouds 6 1019 52 16093 4.1 40 00:24 13.03.2020
6576 Clouds 7 1018 52 16093 4.1 60 23:48 12.03.2020
6577 Clouds 7 1018 52 16093 5.7 40 23:26 12.03.2020
6578 Clouds 7 1015 52 16093 3.6 80 22:56 12.03.2020
6579 Clouds 7 1017 52 16093 3.1 30 22:38 12.03.2020
6580 Clouds 7 1016 65 16093 1.5 60 22:19 12.03.2020
6581 Clouds 7 1017 52 16093 2.6 50 21:43 12.03.2020
6582 Clouds 7 1016 65 16093 2.6 70 21:25 12.03.2020
6583 Clouds 7 1016 65 16093 2.6 70 21:25 12.03.2020
6584 Clouds 7 1016 56 16093 4.1 40 20:57 12.03.2020
6585 Clouds 7 1018 52 16093 3.6 60 20:37 12.03.2020
6586 Clouds 7 1018 52 16093 3.6 60 20:37 12.03.2020
6587 Clouds 6 1018 56 16093 2.1 70 20:18 12.03.2020
6588 Clouds 6 1016 60 32767 4.1 50 19:39 12.03.2020
6589 Clouds 7 1018 60 16093 3.1 80 19:20 12.03.2020
6590 Clouds 7 1018 60 16093 4.6 70 18:43 12.03.2020
6591 Clouds 7 1018 60 16093 4.6 70 18:43 12.03.2020
6592 Clouds 7 1018 60 16093 4.6 80 18:24 12.03.2020
6593 Clouds 7 1017 56 16093 4.6 90 17:57 12.03.2020
6594 Clear 7 1016 56 16093 3.1 90 17:37 12.03.2020
6595 Clear 7 1016 56 16093 3.1 90 17:18 12.03.2020
6596 Clouds 6 1013 52 16093 8.2 100 16:54 12.03.2020
6597 Clear 6 1015 60 16093 5.1 100 16:36 12.03.2020
6598 Clear 6 1014 56 16093 5.7 100 16:18 12.03.2020
6599 Clear 7 1013 52 16093 7.2 100 15:41 12.03.2020
6600 Clear 7 1010 49 16093 3.6 110 15:22 12.03.2020
6601 Clear 7 1012 48 16093 4.1 90 14:39 12.03.2020
6602 Clear 6 1011 42 16093 5.1 100 14:19 12.03.2020
6603 Clear 7 1010 39 16093 2.6 100 13:41 12.03.2020
6604 Clear 7 1010 34 16093 2.1 50 13:22 12.03.2020
6605 Clear 7 1009 34 16093 3.6 140 12:55 12.03.2020
6606 Clear 7 1009 34 16093 3.6 140 12:55 12.03.2020
6607 Clear 7 1010 36 16093 2.1 320 12:37 12.03.2020
6608 Clear 7 1010 36 16093 2.1 320 12:37 12.03.2020
6609 Clear 7 1010 36 16093 2.1 320 12:18 12.03.2020
6610 Clear 7 1008 36 16093 2.1 50 11:56 12.03.2020
6611 Clouds 7 1009 39 16093 2.9 207 11:37 12.03.2020
6612 Clouds 7 1009 39 16093 4.53 215 11:19 12.03.2020
6613 Clouds 7 1009 36 16093 3.6 150 10:55 12.03.2020
6614 Clear 7 1010 29 16093 1.5 320 10:55 12.03.2020
6615 Clear 7 1010 29 16093 1.5 320 10:37 12.03.2020
6616 Clear 8 1008 32 16093 10.3 260 10:18 12.03.2020
6617 Clear 8 1010 42 16093 4.53 215 09:42 12.03.2020
6618 Clear 8 1009 32 16093 9.3 260 09:23 12.03.2020
6619 Clear 9 1010 39 16093 1.5 240 08:40 12.03.2020
6620 Clouds 9 1009 30 16093 9.3 300 08:19 12.03.2020
6621 Clear 10 1010 31 16093 3.31 209 07:52 12.03.2020
6622 Clouds 10 1009 32 16093 9.3 280 07:23 12.03.2020
6623 Clouds 10 1011 26 16093 8.2 240 06:38 12.03.2020
6624 Clear 10 1011 28 16093 4.1 270 05:40 12.03.2020
6625 Clear 11 1009 35 16093 5.1 250 04:27 12.03.2020
6626 Clouds 13 1011 33 16093 6.2 300 02:34 12.03.2020
6627 Clear 16 1009 29 16093 8.2 250 01:30 12.03.2020
6628 Clouds 18 1011 20 16093 7.2 290 00:42 12.03.2020
6629 Clouds 18 1010 20 16093 4.1 50 23:59 11.03.2020
6630 Clouds 18 1010 16 16093 2.6 80 23:59 11.03.2020
6631 Clear 18 1011 20 16093 8.2 290 23:59 11.03.2020
6632 Clear 18 1012 18 16093 8.7 280 23:40 11.03.2020
6633 Clear 18 1012 18 16093 8.7 280 23:22 11.03.2020
6634 Clear 19 1012 16 16093 10.8 280 22:45 11.03.2020
6635 Clear 18 1011 20 16093 8.2 240 22:25 11.03.2020
6636 Clouds 18 1012 17 16093 3.1 30 21:58 11.03.2020
6637 Clear 18 1013 15 16093 8.7 280 21:40 11.03.2020
6638 Clear 18 1012 20 16093 7.7 240 21:22 11.03.2020
6639 Clouds 18 1014 16 16093 1.5 0 20:58 11.03.2020
6640 Clear 18 1015 14 16093 4.6 270 20:38 11.03.2020
6641 Clear 15 1014 17 16093 10.8 250 20:19 11.03.2020
6642 Clear 15 1016 18 16093 2.1 20 19:43 11.03.2020
6643 Clear 16 1015 21 16093 1.5 90 19:25 11.03.2020
6644 Clouds 15 1016 21 16093 1.5 260 18:57 11.03.2020
6645 Clear 15 1017 21 16093 3.1 40 18:38 11.03.2020
6646 Clear 15 1017 21 16093 3.1 40 18:20 11.03.2020
6647 Clear 14 1017 22 16093 2.6 30 17:55 11.03.2020
6648 Clear 13 1017 24 16093 1.5 30 17:37 11.03.2020
6649 Clear 10 1017 24 16093 1.5 30 17:19 11.03.2020
6650 Clear 8 1017 26 16093 4.02 223 16:44 11.03.2020
6651 Clear 9 1018 36 16093 2.6 110 16:20 11.03.2020
6652 Clear 7 1018 64 16093 2.1 110 15:44 11.03.2020
6653 Clear 5 1019 74 16093 1.5 360 15:23 11.03.2020
6654 Clouds 4 1018 41 16093 3.1 210 14:56 11.03.2020
6655 Clear 4 1019 79 16093 4.02 223 14:37 11.03.2020
6656 Clear 3 1019 74 16093 1.5 200 14:18 11.03.2020
6657 Clear 3 1019 74 16093 3.72 225 13:42 11.03.2020
6658 Clear 3 1017 55 16093 1.5 50 13:24 11.03.2020
6659 Clear 3 1018 35 16093 3.6 230 12:56 11.03.2020
6660 Clear 3 1019 68 16093 2.6 240 12:38 11.03.2020
6661 Clear 3 1019 79 16093 4.21 225 12:19 11.03.2020
6662 Clear 3 1019 74 16093 4.21 225 11:41 11.03.2020
6663 Clear 3 1020 74 16093 4.24 224 11:21 11.03.2020
6664 Clear 3 1020 61 16093 4.24 224 10:49 11.03.2020
6665 Clear 3 1020 64 16093 1.5 170 10:21 11.03.2020
6666 Clear 3 1019 31 16093 2.1 210 10:21 11.03.2020
6667 Clear 3 1019 31 16093 2.1 210 10:21 11.03.2020
6668 Clear 3 1020 64 16093 3.1 200 09:59 11.03.2020
6669 Clear 3 1021 69 16093 4.24 224 09:40 11.03.2020
6670 Clear 3 1019 36 16093 2.6 220 09:21 11.03.2020
6671 Clear 4 1021 55 16093 4.24 224 08:43 11.03.2020
6672 Clear 4 1020 41 16093 2.1 240 08:25 11.03.2020
6673 Clear 5 1021 48 16093 2.47 210 07:47 11.03.2020
6674 Clear 5 1020 42 16093 1.5 170 07:21 11.03.2020
6675 Clear 6 1020 56 16093 2.6 180 06:50 11.03.2020
6676 Clear 6 1021 39 16093 2.1 170 06:31 11.03.2020
6677 Clear 7 1021 34 16093 4.1 260 05:32 11.03.2020
6678 Clear 9 1018 34 16093 8.7 250 03:26 11.03.2020
6679 Clear 9 1018 34 16093 8.7 250 03:26 11.03.2020
6680 Clear 12 1020 28 16093 11.3 270 01:53 11.03.2020
6681 Clear 13 1018 30 16093 9.3 240 01:24 11.03.2020
6682 Clear 14 1018 30 16093 9.3 250 00:40 11.03.2020
6683 Clouds 15 1018 26 16093 4.1 60 23:50 10.03.2020
6684 Clear 15 1020 21 16093 10.3 290 23:28 10.03.2020
6685 Clouds 15 1018 35 16093 6.2 40 22:58 10.03.2020
6686 Clear 15 1020 18 16093 10.3 270 22:37 10.03.2020
6687 Clear 15 1020 23 16093 12.9 280 22:19 10.03.2020
6688 Clouds 15 1018 21 16093 2.1 60 21:56 10.03.2020
6689 Clear 15 1020 23 16093 12.3 290 21:38 10.03.2020
6690